<?xml version="1.0" encoding="UTF-8" standalone="no" ?>
<gpx xmlns="http://www.topografix.com/GPX/1/1" xmlns:xsi="http://www.w3.org/2001/XMLSchema-instance" xsi:schemaLocation="http://www.topografix.com/GPX/1/1 http://www.topografix.com/GPX/1/1/gpx.xsd" version="1.1" creator="VisuGPX - https://www.visugpx.com">
  <metadata>
    <name>VVBT 2019</name>
  </metadata>
  <trk>
    <name><![CDATA[BLEvo tour on 25 août 2019 07:49:23]]></name>
    <trkseg>
      <trkpt lat="46.24856" lon="6.4723">
        <ele>954.52</ele>
        <time>2019-08-25T05:49:23.000Z</time>
      </trkpt>
      <trkpt lat="46.24849" lon="6.4724">
        <ele>954.28</ele>
        <time>2019-08-25T05:49:42.000Z</time>
      </trkpt>
      <trkpt lat="46.24847" lon="6.47261">
        <ele>954.29</ele>
        <time>2019-08-25T05:49:47.000Z</time>
      </trkpt>
      <trkpt lat="46.24841" lon="6.47273">
        <ele>954.45</ele>
        <time>2019-08-25T05:49:51.000Z</time>
      </trkpt>
      <trkpt lat="46.24831" lon="6.47285">
        <ele>954.77</ele>
        <time>2019-08-25T05:49:57.000Z</time>
      </trkpt>
      <trkpt lat="46.24822" lon="6.47294">
        <ele>955.57</ele>
        <time>2019-08-25T05:50:00.000Z</time>
      </trkpt>
      <trkpt lat="46.24814" lon="6.47306">
        <ele>956.55</ele>
        <time>2019-08-25T05:50:04.000Z</time>
      </trkpt>
      <trkpt lat="46.24816" lon="6.4732">
        <ele>957.74</ele>
        <time>2019-08-25T05:50:09.000Z</time>
      </trkpt>
      <trkpt lat="46.24826" lon="6.47329">
        <ele>958.75</ele>
        <time>2019-08-25T05:50:13.000Z</time>
      </trkpt>
      <trkpt lat="46.24835" lon="6.47335">
        <ele>959.29</ele>
        <time>2019-08-25T05:50:16.000Z</time>
      </trkpt>
      <trkpt lat="46.24844" lon="6.47339">
        <ele>959.82</ele>
        <time>2019-08-25T05:50:19.000Z</time>
      </trkpt>
      <trkpt lat="46.24853" lon="6.47341">
        <ele>960.38</ele>
        <time>2019-08-25T05:50:22.000Z</time>
      </trkpt>
      <trkpt lat="46.24863" lon="6.4734">
        <ele>960.85</ele>
        <time>2019-08-25T05:50:25.000Z</time>
      </trkpt>
      <trkpt lat="46.24872" lon="6.47335">
        <ele>961.2</ele>
        <time>2019-08-25T05:50:28.000Z</time>
      </trkpt>
      <trkpt lat="46.24881" lon="6.47327">
        <ele>961.61</ele>
        <time>2019-08-25T05:50:32.000Z</time>
      </trkpt>
      <trkpt lat="46.24892" lon="6.47315">
        <ele>961.94</ele>
        <time>2019-08-25T05:50:36.000Z</time>
      </trkpt>
      <trkpt lat="46.249" lon="6.47308">
        <ele>962.13</ele>
        <time>2019-08-25T05:50:39.000Z</time>
      </trkpt>
      <trkpt lat="46.2491" lon="6.47301">
        <ele>962.45</ele>
        <time>2019-08-25T05:50:43.000Z</time>
      </trkpt>
      <trkpt lat="46.2492" lon="6.47293">
        <ele>963.01</ele>
        <time>2019-08-25T05:50:46.000Z</time>
      </trkpt>
      <trkpt lat="46.24934" lon="6.47282">
        <ele>963.98</ele>
        <time>2019-08-25T05:50:50.000Z</time>
      </trkpt>
      <trkpt lat="46.24943" lon="6.47274">
        <ele>964.68</ele>
        <time>2019-08-25T05:50:53.000Z</time>
      </trkpt>
      <trkpt lat="46.2496" lon="6.47262">
        <ele>965.63</ele>
        <time>2019-08-25T05:50:57.000Z</time>
      </trkpt>
      <trkpt lat="46.2497" lon="6.47256">
        <ele>966.64</ele>
        <time>2019-08-25T05:51:02.000Z</time>
      </trkpt>
      <trkpt lat="46.2498" lon="6.47249">
        <ele>967.03</ele>
        <time>2019-08-25T05:51:06.000Z</time>
      </trkpt>
      <trkpt lat="46.24989" lon="6.47248">
        <ele>967.37</ele>
        <time>2019-08-25T05:51:09.000Z</time>
      </trkpt>
      <trkpt lat="46.24999" lon="6.47249">
        <ele>967.96</ele>
        <time>2019-08-25T05:51:12.000Z</time>
      </trkpt>
      <trkpt lat="46.25008" lon="6.47251">
        <ele>968.5</ele>
        <time>2019-08-25T05:51:15.000Z</time>
      </trkpt>
      <trkpt lat="46.25019" lon="6.47254">
        <ele>969.07</ele>
        <time>2019-08-25T05:51:18.000Z</time>
      </trkpt>
      <trkpt lat="46.25031" lon="6.47257">
        <ele>969.86</ele>
        <time>2019-08-25T05:51:22.000Z</time>
      </trkpt>
      <trkpt lat="46.25041" lon="6.4726">
        <ele>970.62</ele>
        <time>2019-08-25T05:51:26.000Z</time>
      </trkpt>
      <trkpt lat="46.25051" lon="6.47269">
        <ele>971.39</ele>
        <time>2019-08-25T05:51:31.000Z</time>
      </trkpt>
      <trkpt lat="46.25059" lon="6.47285">
        <ele>972.32</ele>
        <time>2019-08-25T05:51:36.000Z</time>
      </trkpt>
      <trkpt lat="46.25069" lon="6.47293">
        <ele>973.45</ele>
        <time>2019-08-25T05:51:40.000Z</time>
      </trkpt>
      <trkpt lat="46.25078" lon="6.47296">
        <ele>974.62</ele>
        <time>2019-08-25T05:51:44.000Z</time>
      </trkpt>
      <trkpt lat="46.25088" lon="6.47297">
        <ele>975.56</ele>
        <time>2019-08-25T05:51:47.000Z</time>
      </trkpt>
      <trkpt lat="46.25097" lon="6.47301">
        <ele>976.8</ele>
        <time>2019-08-25T05:51:51.000Z</time>
      </trkpt>
      <trkpt lat="46.25107" lon="6.47305">
        <ele>977.91</ele>
        <time>2019-08-25T05:51:55.000Z</time>
      </trkpt>
      <trkpt lat="46.25117" lon="6.47314">
        <ele>979.5</ele>
        <time>2019-08-25T05:52:00.000Z</time>
      </trkpt>
      <trkpt lat="46.25127" lon="6.4732">
        <ele>981</ele>
        <time>2019-08-25T05:52:05.000Z</time>
      </trkpt>
      <trkpt lat="46.25142" lon="6.47325">
        <ele>982.53</ele>
        <time>2019-08-25T05:52:10.000Z</time>
      </trkpt>
      <trkpt lat="46.25153" lon="6.47329">
        <ele>983.55</ele>
        <time>2019-08-25T05:52:14.000Z</time>
      </trkpt>
      <trkpt lat="46.25167" lon="6.47335">
        <ele>984.51</ele>
        <time>2019-08-25T05:52:19.000Z</time>
      </trkpt>
      <trkpt lat="46.25178" lon="6.47341">
        <ele>985.04</ele>
        <time>2019-08-25T05:52:23.000Z</time>
      </trkpt>
      <trkpt lat="46.25189" lon="6.47346">
        <ele>985.38</ele>
        <time>2019-08-25T05:52:27.000Z</time>
      </trkpt>
      <trkpt lat="46.252" lon="6.4735">
        <ele>985.51</ele>
        <time>2019-08-25T05:52:31.000Z</time>
      </trkpt>
      <trkpt lat="46.25212" lon="6.47354">
        <ele>985.78</ele>
        <time>2019-08-25T05:52:35.000Z</time>
      </trkpt>
      <trkpt lat="46.25227" lon="6.4736">
        <ele>986.55</ele>
        <time>2019-08-25T05:52:40.000Z</time>
      </trkpt>
      <trkpt lat="46.2524" lon="6.47366">
        <ele>987.22</ele>
        <time>2019-08-25T05:52:45.000Z</time>
      </trkpt>
      <trkpt lat="46.2525" lon="6.47374">
        <ele>988.2</ele>
        <time>2019-08-25T05:52:48.000Z</time>
      </trkpt>
      <trkpt lat="46.25258" lon="6.47381">
        <ele>988.87</ele>
        <time>2019-08-25T05:52:51.000Z</time>
      </trkpt>
      <trkpt lat="46.25267" lon="6.47387">
        <ele>989.66</ele>
        <time>2019-08-25T05:52:54.000Z</time>
      </trkpt>
      <trkpt lat="46.25278" lon="6.47392">
        <ele>990.98</ele>
        <time>2019-08-25T05:52:58.000Z</time>
      </trkpt>
      <trkpt lat="46.2529" lon="6.47394">
        <ele>992.18</ele>
        <time>2019-08-25T05:53:02.000Z</time>
      </trkpt>
      <trkpt lat="46.25302" lon="6.47395">
        <ele>993.52</ele>
        <time>2019-08-25T05:53:06.000Z</time>
      </trkpt>
      <trkpt lat="46.25314" lon="6.47397">
        <ele>994.6</ele>
        <time>2019-08-25T05:53:10.000Z</time>
      </trkpt>
      <trkpt lat="46.25327" lon="6.474">
        <ele>995.32</ele>
        <time>2019-08-25T05:53:14.000Z</time>
      </trkpt>
      <trkpt lat="46.25339" lon="6.47403">
        <ele>996.23</ele>
        <time>2019-08-25T05:53:18.000Z</time>
      </trkpt>
      <trkpt lat="46.25348" lon="6.47405">
        <ele>996.8</ele>
        <time>2019-08-25T05:53:21.000Z</time>
      </trkpt>
      <trkpt lat="46.25361" lon="6.47405">
        <ele>997.36</ele>
        <time>2019-08-25T05:53:25.000Z</time>
      </trkpt>
      <trkpt lat="46.25373" lon="6.47404">
        <ele>997.86</ele>
        <time>2019-08-25T05:53:29.000Z</time>
      </trkpt>
      <trkpt lat="46.25385" lon="6.47402">
        <ele>998.08</ele>
        <time>2019-08-25T05:53:31.000Z</time>
      </trkpt>
      <trkpt lat="46.25394" lon="6.47398">
        <ele>998.27</ele>
        <time>2019-08-25T05:53:33.000Z</time>
      </trkpt>
      <trkpt lat="46.25405" lon="6.47396">
        <ele>998.36</ele>
        <time>2019-08-25T05:53:35.000Z</time>
      </trkpt>
      <trkpt lat="46.25417" lon="6.47408">
        <ele>998.54</ele>
        <time>2019-08-25T05:53:38.000Z</time>
      </trkpt>
      <trkpt lat="46.25426" lon="6.47416">
        <ele>998.84</ele>
        <time>2019-08-25T05:53:42.000Z</time>
      </trkpt>
      <trkpt lat="46.2544" lon="6.47423">
        <ele>999.14</ele>
        <time>2019-08-25T05:53:47.000Z</time>
      </trkpt>
      <trkpt lat="46.25451" lon="6.47427">
        <ele>999.51</ele>
        <time>2019-08-25T05:53:50.000Z</time>
      </trkpt>
      <trkpt lat="46.25461" lon="6.47429">
        <ele>1000.11</ele>
        <time>2019-08-25T05:53:53.000Z</time>
      </trkpt>
      <trkpt lat="46.25476" lon="6.47432">
        <ele>1001.27</ele>
        <time>2019-08-25T05:53:58.000Z</time>
      </trkpt>
      <trkpt lat="46.25487" lon="6.47439">
        <ele>1002.37</ele>
        <time>2019-08-25T05:54:02.000Z</time>
      </trkpt>
      <trkpt lat="46.25497" lon="6.47446">
        <ele>1003.66</ele>
        <time>2019-08-25T05:54:06.000Z</time>
      </trkpt>
      <trkpt lat="46.25513" lon="6.47453">
        <ele>1005.02</ele>
        <time>2019-08-25T05:54:11.000Z</time>
      </trkpt>
      <trkpt lat="46.25525" lon="6.4746">
        <ele>1005.74</ele>
        <time>2019-08-25T05:54:14.000Z</time>
      </trkpt>
      <trkpt lat="46.25534" lon="6.47469">
        <ele>1006.44</ele>
        <time>2019-08-25T05:54:18.000Z</time>
      </trkpt>
      <trkpt lat="46.25542" lon="6.47475">
        <ele>1006.77</ele>
        <time>2019-08-25T05:54:21.000Z</time>
      </trkpt>
      <trkpt lat="46.25554" lon="6.47482">
        <ele>1007.15</ele>
        <time>2019-08-25T05:54:25.000Z</time>
      </trkpt>
      <trkpt lat="46.25568" lon="6.47488">
        <ele>1007.54</ele>
        <time>2019-08-25T05:54:30.000Z</time>
      </trkpt>
      <trkpt lat="46.25585" lon="6.47492">
        <ele>1007.68</ele>
        <time>2019-08-25T05:54:31.000Z</time>
      </trkpt>
      <trkpt lat="46.25594" lon="6.47497">
        <ele>1007.84</ele>
        <time>2019-08-25T05:54:33.000Z</time>
      </trkpt>
      <trkpt lat="46.25606" lon="6.47504">
        <ele>1008.06</ele>
        <time>2019-08-25T05:54:36.000Z</time>
      </trkpt>
      <trkpt lat="46.25616" lon="6.47512">
        <ele>1008.31</ele>
        <time>2019-08-25T05:54:39.000Z</time>
      </trkpt>
      <trkpt lat="46.25627" lon="6.47522">
        <ele>1008.46</ele>
        <time>2019-08-25T05:54:42.000Z</time>
      </trkpt>
      <trkpt lat="46.25639" lon="6.47538">
        <ele>1008.63</ele>
        <time>2019-08-25T05:54:46.000Z</time>
      </trkpt>
      <trkpt lat="46.25647" lon="6.4755">
        <ele>1008.79</ele>
        <time>2019-08-25T05:54:49.000Z</time>
      </trkpt>
      <trkpt lat="46.25655" lon="6.47562">
        <ele>1008.95</ele>
        <time>2019-08-25T05:54:52.000Z</time>
      </trkpt>
      <trkpt lat="46.25663" lon="6.47574">
        <ele>1008.97</ele>
        <time>2019-08-25T05:54:55.000Z</time>
      </trkpt>
      <trkpt lat="46.25674" lon="6.47588">
        <ele>1008.92</ele>
        <time>2019-08-25T05:54:59.000Z</time>
      </trkpt>
      <trkpt lat="46.25681" lon="6.47597">
        <ele>1008.9</ele>
        <time>2019-08-25T05:55:01.000Z</time>
      </trkpt>
      <trkpt lat="46.2569" lon="6.47609">
        <ele>1008.84</ele>
        <time>2019-08-25T05:55:05.000Z</time>
      </trkpt>
      <trkpt lat="46.25698" lon="6.47622">
        <ele>1009.03</ele>
        <time>2019-08-25T05:55:09.000Z</time>
      </trkpt>
      <trkpt lat="46.25705" lon="6.47633">
        <ele>1009.7</ele>
        <time>2019-08-25T05:55:13.000Z</time>
      </trkpt>
      <trkpt lat="46.25716" lon="6.47645">
        <ele>1010.62</ele>
        <time>2019-08-25T05:55:19.000Z</time>
      </trkpt>
      <trkpt lat="46.25723" lon="6.47654">
        <ele>1011.58</ele>
        <time>2019-08-25T05:55:23.000Z</time>
      </trkpt>
      <trkpt lat="46.25732" lon="6.47662">
        <ele>1012.35</ele>
        <time>2019-08-25T05:55:27.000Z</time>
      </trkpt>
      <trkpt lat="46.25741" lon="6.47669">
        <ele>1013.14</ele>
        <time>2019-08-25T05:55:31.000Z</time>
      </trkpt>
      <trkpt lat="46.25749" lon="6.47675">
        <ele>1013.91</ele>
        <time>2019-08-25T05:55:35.000Z</time>
      </trkpt>
      <trkpt lat="46.25758" lon="6.47682">
        <ele>1014.55</ele>
        <time>2019-08-25T05:55:39.000Z</time>
      </trkpt>
      <trkpt lat="46.25768" lon="6.4769">
        <ele>1015.42</ele>
        <time>2019-08-25T05:55:43.000Z</time>
      </trkpt>
      <trkpt lat="46.25777" lon="6.47698">
        <ele>1016.32</ele>
        <time>2019-08-25T05:55:47.000Z</time>
      </trkpt>
      <trkpt lat="46.25786" lon="6.47706">
        <ele>1017</ele>
        <time>2019-08-25T05:55:51.000Z</time>
      </trkpt>
      <trkpt lat="46.25798" lon="6.47713">
        <ele>1017.76</ele>
        <time>2019-08-25T05:55:56.000Z</time>
      </trkpt>
      <trkpt lat="46.25808" lon="6.47715">
        <ele>1018.12</ele>
        <time>2019-08-25T05:55:59.000Z</time>
      </trkpt>
      <trkpt lat="46.25817" lon="6.47716">
        <ele>1018.45</ele>
        <time>2019-08-25T05:56:02.000Z</time>
      </trkpt>
      <trkpt lat="46.25826" lon="6.47717">
        <ele>1018.74</ele>
        <time>2019-08-25T05:56:05.000Z</time>
      </trkpt>
      <trkpt lat="46.25846" lon="6.47719">
        <ele>1018.95</ele>
        <time>2019-08-25T05:56:09.000Z</time>
      </trkpt>
      <trkpt lat="46.25863" lon="6.47725">
        <ele>1019.06</ele>
        <time>2019-08-25T05:56:13.000Z</time>
      </trkpt>
      <trkpt lat="46.25879" lon="6.47734">
        <ele>1019.06</ele>
        <time>2019-08-25T05:56:17.000Z</time>
      </trkpt>
      <trkpt lat="46.25892" lon="6.47746">
        <ele>1019.12</ele>
        <time>2019-08-25T05:56:21.000Z</time>
      </trkpt>
      <trkpt lat="46.25903" lon="6.47758">
        <ele>1019.46</ele>
        <time>2019-08-25T05:56:25.000Z</time>
      </trkpt>
      <trkpt lat="46.25914" lon="6.47769">
        <ele>1019.89</ele>
        <time>2019-08-25T05:56:29.000Z</time>
      </trkpt>
      <trkpt lat="46.25923" lon="6.47778">
        <ele>1020.33</ele>
        <time>2019-08-25T05:56:32.000Z</time>
      </trkpt>
      <trkpt lat="46.25934" lon="6.47789">
        <ele>1021.09</ele>
        <time>2019-08-25T05:56:36.000Z</time>
      </trkpt>
      <trkpt lat="46.25943" lon="6.47792">
        <ele>1021.44</ele>
        <time>2019-08-25T05:56:38.000Z</time>
      </trkpt>
      <trkpt lat="46.25956" lon="6.47787">
        <ele>1021.75</ele>
        <time>2019-08-25T05:56:40.000Z</time>
      </trkpt>
      <trkpt lat="46.25968" lon="6.4778">
        <ele>1021.94</ele>
        <time>2019-08-25T05:56:42.000Z</time>
      </trkpt>
      <trkpt lat="46.25977" lon="6.47764">
        <ele>1022</ele>
        <time>2019-08-25T05:56:44.000Z</time>
      </trkpt>
      <trkpt lat="46.25981" lon="6.47744">
        <ele>1021.93</ele>
        <time>2019-08-25T05:56:46.000Z</time>
      </trkpt>
      <trkpt lat="46.25984" lon="6.47726">
        <ele>1021.73</ele>
        <time>2019-08-25T05:56:48.000Z</time>
      </trkpt>
      <trkpt lat="46.25985" lon="6.47713">
        <ele>1021.4</ele>
        <time>2019-08-25T05:56:50.000Z</time>
      </trkpt>
      <trkpt lat="46.25992" lon="6.47701">
        <ele>1020.9</ele>
        <time>2019-08-25T05:56:57.000Z</time>
      </trkpt>
      <trkpt lat="46.26004" lon="6.47702">
        <ele>1022.24</ele>
        <time>2019-08-25T05:57:02.000Z</time>
      </trkpt>
      <trkpt lat="46.26014" lon="6.47706">
        <ele>1025.23</ele>
        <time>2019-08-25T05:57:09.000Z</time>
      </trkpt>
      <trkpt lat="46.26022" lon="6.47712">
        <ele>1027.37</ele>
        <time>2019-08-25T05:57:14.000Z</time>
      </trkpt>
      <trkpt lat="46.26033" lon="6.47719">
        <ele>1029.43</ele>
        <time>2019-08-25T05:57:21.000Z</time>
      </trkpt>
      <trkpt lat="46.26043" lon="6.47717">
        <ele>1030.64</ele>
        <time>2019-08-25T05:57:26.000Z</time>
      </trkpt>
      <trkpt lat="46.26051" lon="6.47711">
        <ele>1031.99</ele>
        <time>2019-08-25T05:57:31.000Z</time>
      </trkpt>
      <trkpt lat="46.26061" lon="6.47706">
        <ele>1033.45</ele>
        <time>2019-08-25T05:57:37.000Z</time>
      </trkpt>
      <trkpt lat="46.26071" lon="6.47706">
        <ele>1034.22</ele>
        <time>2019-08-25T05:57:41.000Z</time>
      </trkpt>
      <trkpt lat="46.26081" lon="6.47703">
        <ele>1035.26</ele>
        <time>2019-08-25T05:57:47.000Z</time>
      </trkpt>
      <trkpt lat="46.2609" lon="6.47701">
        <ele>1036.52</ele>
        <time>2019-08-25T05:57:54.000Z</time>
      </trkpt>
      <trkpt lat="46.26101" lon="6.47696">
        <ele>1037.63</ele>
        <time>2019-08-25T05:58:00.000Z</time>
      </trkpt>
      <trkpt lat="46.26111" lon="6.47687">
        <ele>1038.63</ele>
        <time>2019-08-25T05:58:04.000Z</time>
      </trkpt>
      <trkpt lat="46.26117" lon="6.47677">
        <ele>1039.4</ele>
        <time>2019-08-25T05:58:08.000Z</time>
      </trkpt>
      <trkpt lat="46.26123" lon="6.47667">
        <ele>1040.29</ele>
        <time>2019-08-25T05:58:12.000Z</time>
      </trkpt>
      <trkpt lat="46.2613" lon="6.47657">
        <ele>1041.2</ele>
        <time>2019-08-25T05:58:16.000Z</time>
      </trkpt>
      <trkpt lat="46.26136" lon="6.47647">
        <ele>1042.15</ele>
        <time>2019-08-25T05:58:21.000Z</time>
      </trkpt>
      <trkpt lat="46.26143" lon="6.47638">
        <ele>1042.9</ele>
        <time>2019-08-25T05:58:24.000Z</time>
      </trkpt>
      <trkpt lat="46.26151" lon="6.4763">
        <ele>1043.62</ele>
        <time>2019-08-25T05:58:28.000Z</time>
      </trkpt>
      <trkpt lat="46.26159" lon="6.47623">
        <ele>1044.14</ele>
        <time>2019-08-25T05:58:31.000Z</time>
      </trkpt>
      <trkpt lat="46.26169" lon="6.47616">
        <ele>1044.57</ele>
        <time>2019-08-25T05:58:34.000Z</time>
      </trkpt>
      <trkpt lat="46.26179" lon="6.4761">
        <ele>1044.91</ele>
        <time>2019-08-25T05:58:37.000Z</time>
      </trkpt>
      <trkpt lat="46.26188" lon="6.47603">
        <ele>1045.2</ele>
        <time>2019-08-25T05:58:40.000Z</time>
      </trkpt>
      <trkpt lat="46.26197" lon="6.47596">
        <ele>1045.39</ele>
        <time>2019-08-25T05:58:43.000Z</time>
      </trkpt>
      <trkpt lat="46.26206" lon="6.4759">
        <ele>1045.43</ele>
        <time>2019-08-25T05:58:46.000Z</time>
      </trkpt>
      <trkpt lat="46.26216" lon="6.47586">
        <ele>1045.44</ele>
        <time>2019-08-25T05:58:49.000Z</time>
      </trkpt>
      <trkpt lat="46.26226" lon="6.47583">
        <ele>1045.46</ele>
        <time>2019-08-25T05:58:52.000Z</time>
      </trkpt>
      <trkpt lat="46.26237" lon="6.47582">
        <ele>1045.61</ele>
        <time>2019-08-25T05:58:56.000Z</time>
      </trkpt>
      <trkpt lat="46.26247" lon="6.4758">
        <ele>1045.84</ele>
        <time>2019-08-25T05:59:00.000Z</time>
      </trkpt>
      <trkpt lat="46.26261" lon="6.47576">
        <ele>1046.52</ele>
        <time>2019-08-25T05:59:05.000Z</time>
      </trkpt>
      <trkpt lat="46.26271" lon="6.4757">
        <ele>1046.98</ele>
        <time>2019-08-25T05:59:09.000Z</time>
      </trkpt>
      <trkpt lat="46.26281" lon="6.47562">
        <ele>1047.6</ele>
        <time>2019-08-25T05:59:13.000Z</time>
      </trkpt>
      <trkpt lat="46.26292" lon="6.4755">
        <ele>1048.44</ele>
        <time>2019-08-25T05:59:18.000Z</time>
      </trkpt>
      <trkpt lat="46.263" lon="6.4754">
        <ele>1048.88</ele>
        <time>2019-08-25T05:59:21.000Z</time>
      </trkpt>
      <trkpt lat="46.26307" lon="6.47532">
        <ele>1049.46</ele>
        <time>2019-08-25T05:59:25.000Z</time>
      </trkpt>
      <trkpt lat="46.26316" lon="6.47524">
        <ele>1050.08</ele>
        <time>2019-08-25T05:59:29.000Z</time>
      </trkpt>
      <trkpt lat="46.26325" lon="6.47516">
        <ele>1050.77</ele>
        <time>2019-08-25T05:59:33.000Z</time>
      </trkpt>
      <trkpt lat="46.26337" lon="6.47512">
        <ele>1051.85</ele>
        <time>2019-08-25T05:59:39.000Z</time>
      </trkpt>
      <trkpt lat="46.26352" lon="6.47508">
        <ele>1052.55</ele>
        <time>2019-08-25T05:59:45.000Z</time>
      </trkpt>
      <trkpt lat="46.26363" lon="6.47499">
        <ele>1052.98</ele>
        <time>2019-08-25T05:59:48.000Z</time>
      </trkpt>
      <trkpt lat="46.26369" lon="6.47487">
        <ele>1053.32</ele>
        <time>2019-08-25T05:59:53.000Z</time>
      </trkpt>
      <trkpt lat="46.26373" lon="6.47472">
        <ele>1054.33</ele>
        <time>2019-08-25T06:00:00.000Z</time>
      </trkpt>
      <trkpt lat="46.26382" lon="6.47471">
        <ele>1056.61</ele>
        <time>2019-08-25T06:00:09.000Z</time>
      </trkpt>
      <trkpt lat="46.26392" lon="6.47469">
        <ele>1058.41</ele>
        <time>2019-08-25T06:00:15.000Z</time>
      </trkpt>
      <trkpt lat="46.26399" lon="6.47456">
        <ele>1060.22</ele>
        <time>2019-08-25T06:00:22.000Z</time>
      </trkpt>
      <trkpt lat="46.26408" lon="6.47451">
        <ele>1062.61</ele>
        <time>2019-08-25T06:00:31.000Z</time>
      </trkpt>
      <trkpt lat="46.26416" lon="6.47444">
        <ele>1064.74</ele>
        <time>2019-08-25T06:00:37.000Z</time>
      </trkpt>
      <trkpt lat="46.26424" lon="6.47436">
        <ele>1067.27</ele>
        <time>2019-08-25T06:00:43.000Z</time>
      </trkpt>
      <trkpt lat="46.26432" lon="6.47428">
        <ele>1070.07</ele>
        <time>2019-08-25T06:00:49.000Z</time>
      </trkpt>
      <trkpt lat="46.26442" lon="6.47417">
        <ele>1072.16</ele>
        <time>2019-08-25T06:00:56.000Z</time>
      </trkpt>
      <trkpt lat="46.2645" lon="6.47408">
        <ele>1073.61</ele>
        <time>2019-08-25T06:01:01.000Z</time>
      </trkpt>
      <trkpt lat="46.2646" lon="6.474">
        <ele>1075.07</ele>
        <time>2019-08-25T06:01:09.000Z</time>
      </trkpt>
      <trkpt lat="46.26469" lon="6.47391">
        <ele>1076.13</ele>
        <time>2019-08-25T06:01:15.000Z</time>
      </trkpt>
      <trkpt lat="46.2648" lon="6.47381">
        <ele>1077.28</ele>
        <time>2019-08-25T06:01:21.000Z</time>
      </trkpt>
      <trkpt lat="46.26488" lon="6.47375">
        <ele>1077.79</ele>
        <time>2019-08-25T06:01:25.000Z</time>
      </trkpt>
      <trkpt lat="46.26498" lon="6.47368">
        <ele>1078.05</ele>
        <time>2019-08-25T06:01:30.000Z</time>
      </trkpt>
      <trkpt lat="46.26508" lon="6.47359">
        <ele>1079.02</ele>
        <time>2019-08-25T06:01:37.000Z</time>
      </trkpt>
      <trkpt lat="46.26516" lon="6.4735">
        <ele>1080.25</ele>
        <time>2019-08-25T06:01:42.000Z</time>
      </trkpt>
      <trkpt lat="46.2652" lon="6.47338">
        <ele>1082.26</ele>
        <time>2019-08-25T06:01:48.000Z</time>
      </trkpt>
      <trkpt lat="46.26524" lon="6.47325">
        <ele>1084.66</ele>
        <time>2019-08-25T06:01:54.000Z</time>
      </trkpt>
      <trkpt lat="46.26531" lon="6.4731">
        <ele>1087.63</ele>
        <time>2019-08-25T06:02:02.000Z</time>
      </trkpt>
      <trkpt lat="46.26542" lon="6.47302">
        <ele>1089.64</ele>
        <time>2019-08-25T06:02:09.000Z</time>
      </trkpt>
      <trkpt lat="46.26553" lon="6.47291">
        <ele>1091.14</ele>
        <time>2019-08-25T06:02:15.000Z</time>
      </trkpt>
      <trkpt lat="46.26563" lon="6.47279">
        <ele>1091.93</ele>
        <time>2019-08-25T06:02:20.000Z</time>
      </trkpt>
      <trkpt lat="46.2657" lon="6.47268">
        <ele>1092.63</ele>
        <time>2019-08-25T06:02:25.000Z</time>
      </trkpt>
      <trkpt lat="46.26579" lon="6.47255">
        <ele>1092.99</ele>
        <time>2019-08-25T06:02:29.000Z</time>
      </trkpt>
      <trkpt lat="46.26588" lon="6.47244">
        <ele>1093.39</ele>
        <time>2019-08-25T06:02:34.000Z</time>
      </trkpt>
      <trkpt lat="46.26599" lon="6.47241">
        <ele>1093.93</ele>
        <time>2019-08-25T06:02:39.000Z</time>
      </trkpt>
      <trkpt lat="46.26609" lon="6.47238">
        <ele>1094.88</ele>
        <time>2019-08-25T06:02:45.000Z</time>
      </trkpt>
      <trkpt lat="46.26619" lon="6.47233">
        <ele>1096.05</ele>
        <time>2019-08-25T06:02:50.000Z</time>
      </trkpt>
      <trkpt lat="46.26627" lon="6.47225">
        <ele>1097.02</ele>
        <time>2019-08-25T06:02:54.000Z</time>
      </trkpt>
      <trkpt lat="46.26637" lon="6.47216">
        <ele>1098.12</ele>
        <time>2019-08-25T06:02:58.000Z</time>
      </trkpt>
      <trkpt lat="46.26645" lon="6.47211">
        <ele>1099.39</ele>
        <time>2019-08-25T06:03:03.000Z</time>
      </trkpt>
      <trkpt lat="46.26654" lon="6.472">
        <ele>1101.33</ele>
        <time>2019-08-25T06:03:09.000Z</time>
      </trkpt>
      <trkpt lat="46.26662" lon="6.47186">
        <ele>1102.37</ele>
        <time>2019-08-25T06:03:15.000Z</time>
      </trkpt>
      <trkpt lat="46.26668" lon="6.47171">
        <ele>1103.06</ele>
        <time>2019-08-25T06:03:19.000Z</time>
      </trkpt>
      <trkpt lat="46.26676" lon="6.4714">
        <ele>1103.77</ele>
        <time>2019-08-25T06:03:23.000Z</time>
      </trkpt>
      <trkpt lat="46.26677" lon="6.47121">
        <ele>1104.2</ele>
        <time>2019-08-25T06:03:25.000Z</time>
      </trkpt>
      <trkpt lat="46.26679" lon="6.47102">
        <ele>1104.32</ele>
        <time>2019-08-25T06:03:27.000Z</time>
      </trkpt>
      <trkpt lat="46.26684" lon="6.47083">
        <ele>1104</ele>
        <time>2019-08-25T06:03:29.000Z</time>
      </trkpt>
      <trkpt lat="46.26691" lon="6.47061">
        <ele>1103.26</ele>
        <time>2019-08-25T06:03:31.000Z</time>
      </trkpt>
      <trkpt lat="46.26696" lon="6.47048">
        <ele>1102.15</ele>
        <time>2019-08-25T06:03:34.000Z</time>
      </trkpt>
      <trkpt lat="46.26707" lon="6.47031">
        <ele>1101.35</ele>
        <time>2019-08-25T06:03:36.000Z</time>
      </trkpt>
      <trkpt lat="46.26716" lon="6.47018">
        <ele>1100.37</ele>
        <time>2019-08-25T06:03:39.000Z</time>
      </trkpt>
      <trkpt lat="46.26724" lon="6.47008">
        <ele>1098.98</ele>
        <time>2019-08-25T06:03:40.000Z</time>
      </trkpt>
      <trkpt lat="46.26733" lon="6.46995">
        <ele>1097.8</ele>
        <time>2019-08-25T06:03:43.000Z</time>
      </trkpt>
      <trkpt lat="46.2674" lon="6.4698">
        <ele>1097</ele>
        <time>2019-08-25T06:03:44.000Z</time>
      </trkpt>
      <trkpt lat="46.26753" lon="6.46965">
        <ele>1096.94</ele>
        <time>2019-08-25T06:03:48.000Z</time>
      </trkpt>
      <trkpt lat="46.26764" lon="6.46957">
        <ele>1097.35</ele>
        <time>2019-08-25T06:03:52.000Z</time>
      </trkpt>
      <trkpt lat="46.26776" lon="6.46944">
        <ele>1098.09</ele>
        <time>2019-08-25T06:03:57.000Z</time>
      </trkpt>
      <trkpt lat="46.26784" lon="6.46934">
        <ele>1098.49</ele>
        <time>2019-08-25T06:03:59.000Z</time>
      </trkpt>
      <trkpt lat="46.26792" lon="6.46923">
        <ele>1098.5</ele>
        <time>2019-08-25T06:04:04.000Z</time>
      </trkpt>
      <trkpt lat="46.26798" lon="6.46914">
        <ele>1098.49</ele>
        <time>2019-08-25T06:04:07.000Z</time>
      </trkpt>
      <trkpt lat="46.26805" lon="6.46898">
        <ele>1098.46</ele>
        <time>2019-08-25T06:04:09.000Z</time>
      </trkpt>
      <trkpt lat="46.26811" lon="6.46888">
        <ele>1098.35</ele>
        <time>2019-08-25T06:04:12.000Z</time>
      </trkpt>
      <trkpt lat="46.26809" lon="6.46901">
        <ele>1100.06</ele>
        <time>2019-08-25T06:04:24.000Z</time>
      </trkpt>
      <trkpt lat="46.26803" lon="6.46914">
        <ele>1100.72</ele>
        <time>2019-08-25T06:04:28.000Z</time>
      </trkpt>
      <trkpt lat="46.26795" lon="6.46927">
        <ele>1101.48</ele>
        <time>2019-08-25T06:04:32.000Z</time>
      </trkpt>
      <trkpt lat="46.26789" lon="6.4694">
        <ele>1102.12</ele>
        <time>2019-08-25T06:04:36.000Z</time>
      </trkpt>
      <trkpt lat="46.26781" lon="6.46952">
        <ele>1103.04</ele>
        <time>2019-08-25T06:04:40.000Z</time>
      </trkpt>
      <trkpt lat="46.26776" lon="6.46963">
        <ele>1103.77</ele>
        <time>2019-08-25T06:04:43.000Z</time>
      </trkpt>
      <trkpt lat="46.26769" lon="6.46974">
        <ele>1104.28</ele>
        <time>2019-08-25T06:04:47.000Z</time>
      </trkpt>
      <trkpt lat="46.2676" lon="6.46983">
        <ele>1105.02</ele>
        <time>2019-08-25T06:04:51.000Z</time>
      </trkpt>
      <trkpt lat="46.2675" lon="6.46996">
        <ele>1106.01</ele>
        <time>2019-08-25T06:04:56.000Z</time>
      </trkpt>
      <trkpt lat="46.26743" lon="6.47009">
        <ele>1106.67</ele>
        <time>2019-08-25T06:05:00.000Z</time>
      </trkpt>
      <trkpt lat="46.26737" lon="6.47021">
        <ele>1108.16</ele>
        <time>2019-08-25T06:05:04.000Z</time>
      </trkpt>
      <trkpt lat="46.26729" lon="6.47035">
        <ele>1109.73</ele>
        <time>2019-08-25T06:05:09.000Z</time>
      </trkpt>
      <trkpt lat="46.26723" lon="6.4705">
        <ele>1110.77</ele>
        <time>2019-08-25T06:05:13.000Z</time>
      </trkpt>
      <trkpt lat="46.2672" lon="6.47068">
        <ele>1111.39</ele>
        <time>2019-08-25T06:05:18.000Z</time>
      </trkpt>
      <trkpt lat="46.26719" lon="6.47085">
        <ele>1111.73</ele>
        <time>2019-08-25T06:05:23.000Z</time>
      </trkpt>
      <trkpt lat="46.26718" lon="6.471">
        <ele>1112.2</ele>
        <time>2019-08-25T06:05:27.000Z</time>
      </trkpt>
      <trkpt lat="46.26718" lon="6.47117">
        <ele>1113.03</ele>
        <time>2019-08-25T06:05:31.000Z</time>
      </trkpt>
      <trkpt lat="46.26719" lon="6.47133">
        <ele>1113.64</ele>
        <time>2019-08-25T06:05:35.000Z</time>
      </trkpt>
      <trkpt lat="46.26719" lon="6.4715">
        <ele>1114.22</ele>
        <time>2019-08-25T06:05:39.000Z</time>
      </trkpt>
      <trkpt lat="46.26718" lon="6.47163">
        <ele>1114.88</ele>
        <time>2019-08-25T06:05:42.000Z</time>
      </trkpt>
      <trkpt lat="46.26715" lon="6.47177">
        <ele>1115.36</ele>
        <time>2019-08-25T06:05:45.000Z</time>
      </trkpt>
      <trkpt lat="46.26713" lon="6.47198">
        <ele>1115.75</ele>
        <time>2019-08-25T06:05:50.000Z</time>
      </trkpt>
      <trkpt lat="46.26711" lon="6.47214">
        <ele>1116.13</ele>
        <time>2019-08-25T06:05:54.000Z</time>
      </trkpt>
      <trkpt lat="46.2671" lon="6.47229">
        <ele>1116.2</ele>
        <time>2019-08-25T06:05:58.000Z</time>
      </trkpt>
      <trkpt lat="46.26705" lon="6.47246">
        <ele>1116.84</ele>
        <time>2019-08-25T06:06:03.000Z</time>
      </trkpt>
      <trkpt lat="46.26696" lon="6.47258">
        <ele>1117.72</ele>
        <time>2019-08-25T06:06:08.000Z</time>
      </trkpt>
      <trkpt lat="46.26684" lon="6.47269">
        <ele>1118.46</ele>
        <time>2019-08-25T06:06:12.000Z</time>
      </trkpt>
      <trkpt lat="46.26673" lon="6.47277">
        <ele>1119.24</ele>
        <time>2019-08-25T06:06:16.000Z</time>
      </trkpt>
      <trkpt lat="46.26661" lon="6.47292">
        <ele>1120.62</ele>
        <time>2019-08-25T06:06:21.000Z</time>
      </trkpt>
      <trkpt lat="46.26657" lon="6.47306">
        <ele>1121.48</ele>
        <time>2019-08-25T06:06:25.000Z</time>
      </trkpt>
      <trkpt lat="46.26657" lon="6.47321">
        <ele>1121.79</ele>
        <time>2019-08-25T06:06:29.000Z</time>
      </trkpt>
      <trkpt lat="46.26654" lon="6.47338">
        <ele>1122.32</ele>
        <time>2019-08-25T06:06:34.000Z</time>
      </trkpt>
      <trkpt lat="46.26651" lon="6.47354">
        <ele>1122.41</ele>
        <time>2019-08-25T06:06:39.000Z</time>
      </trkpt>
      <trkpt lat="46.26647" lon="6.47368">
        <ele>1123.88</ele>
        <time>2019-08-25T06:06:43.000Z</time>
      </trkpt>
      <trkpt lat="46.26643" lon="6.47381">
        <ele>1125.04</ele>
        <time>2019-08-25T06:06:47.000Z</time>
      </trkpt>
      <trkpt lat="46.26636" lon="6.47396">
        <ele>1126.07</ele>
        <time>2019-08-25T06:06:51.000Z</time>
      </trkpt>
      <trkpt lat="46.26629" lon="6.47412">
        <ele>1127.56</ele>
        <time>2019-08-25T06:06:56.000Z</time>
      </trkpt>
      <trkpt lat="46.26626" lon="6.47427">
        <ele>1127.97</ele>
        <time>2019-08-25T06:07:00.000Z</time>
      </trkpt>
      <trkpt lat="46.26626" lon="6.47445">
        <ele>1128.52</ele>
        <time>2019-08-25T06:07:05.000Z</time>
      </trkpt>
      <trkpt lat="46.26625" lon="6.47459">
        <ele>1129.04</ele>
        <time>2019-08-25T06:07:10.000Z</time>
      </trkpt>
      <trkpt lat="46.26626" lon="6.47474">
        <ele>1129.8</ele>
        <time>2019-08-25T06:07:15.000Z</time>
      </trkpt>
      <trkpt lat="46.26625" lon="6.47491">
        <ele>1130.93</ele>
        <time>2019-08-25T06:07:20.000Z</time>
      </trkpt>
      <trkpt lat="46.26627" lon="6.47505">
        <ele>1131.6</ele>
        <time>2019-08-25T06:07:24.000Z</time>
      </trkpt>
      <trkpt lat="46.2663" lon="6.47518">
        <ele>1131.98</ele>
        <time>2019-08-25T06:07:28.000Z</time>
      </trkpt>
      <trkpt lat="46.26633" lon="6.47533">
        <ele>1133.09</ele>
        <time>2019-08-25T06:07:34.000Z</time>
      </trkpt>
      <trkpt lat="46.26635" lon="6.47548">
        <ele>1134.24</ele>
        <time>2019-08-25T06:07:38.000Z</time>
      </trkpt>
      <trkpt lat="46.26638" lon="6.47563">
        <ele>1135.56</ele>
        <time>2019-08-25T06:07:42.000Z</time>
      </trkpt>
      <trkpt lat="46.26639" lon="6.47578">
        <ele>1136.69</ele>
        <time>2019-08-25T06:07:46.000Z</time>
      </trkpt>
      <trkpt lat="46.26639" lon="6.47591">
        <ele>1137.01</ele>
        <time>2019-08-25T06:07:50.000Z</time>
      </trkpt>
      <trkpt lat="46.26641" lon="6.47605">
        <ele>1137.56</ele>
        <time>2019-08-25T06:07:54.000Z</time>
      </trkpt>
      <trkpt lat="46.26645" lon="6.4762">
        <ele>1138.54</ele>
        <time>2019-08-25T06:07:58.000Z</time>
      </trkpt>
      <trkpt lat="46.26649" lon="6.47637">
        <ele>1140.15</ele>
        <time>2019-08-25T06:08:04.000Z</time>
      </trkpt>
      <trkpt lat="46.26652" lon="6.47656">
        <ele>1141.4</ele>
        <time>2019-08-25T06:08:09.000Z</time>
      </trkpt>
      <trkpt lat="46.26656" lon="6.47675">
        <ele>1142.21</ele>
        <time>2019-08-25T06:08:14.000Z</time>
      </trkpt>
      <trkpt lat="46.26658" lon="6.47692">
        <ele>1142.95</ele>
        <time>2019-08-25T06:08:19.000Z</time>
      </trkpt>
      <trkpt lat="46.2666" lon="6.47709">
        <ele>1143.35</ele>
        <time>2019-08-25T06:08:24.000Z</time>
      </trkpt>
      <trkpt lat="46.26658" lon="6.47727">
        <ele>1143.66</ele>
        <time>2019-08-25T06:08:29.000Z</time>
      </trkpt>
      <trkpt lat="46.26655" lon="6.47741">
        <ele>1144.68</ele>
        <time>2019-08-25T06:08:34.000Z</time>
      </trkpt>
      <trkpt lat="46.26652" lon="6.47754">
        <ele>1145.85</ele>
        <time>2019-08-25T06:08:38.000Z</time>
      </trkpt>
      <trkpt lat="46.26649" lon="6.47771">
        <ele>1147.14</ele>
        <time>2019-08-25T06:08:43.000Z</time>
      </trkpt>
      <trkpt lat="46.26648" lon="6.4779">
        <ele>1148.44</ele>
        <time>2019-08-25T06:08:49.000Z</time>
      </trkpt>
      <trkpt lat="46.26647" lon="6.47806">
        <ele>1149.22</ele>
        <time>2019-08-25T06:08:54.000Z</time>
      </trkpt>
      <trkpt lat="46.26649" lon="6.47825">
        <ele>1150.69</ele>
        <time>2019-08-25T06:09:00.000Z</time>
      </trkpt>
      <trkpt lat="46.26651" lon="6.4784">
        <ele>1151.65</ele>
        <time>2019-08-25T06:09:05.000Z</time>
      </trkpt>
      <trkpt lat="46.26653" lon="6.47856">
        <ele>1152.81</ele>
        <time>2019-08-25T06:09:10.000Z</time>
      </trkpt>
      <trkpt lat="46.26656" lon="6.47874">
        <ele>1153.74</ele>
        <time>2019-08-25T06:09:16.000Z</time>
      </trkpt>
      <trkpt lat="46.26658" lon="6.47889">
        <ele>1154.89</ele>
        <time>2019-08-25T06:09:21.000Z</time>
      </trkpt>
      <trkpt lat="46.26661" lon="6.47904">
        <ele>1155.4</ele>
        <time>2019-08-25T06:09:26.000Z</time>
      </trkpt>
      <trkpt lat="46.26662" lon="6.47921">
        <ele>1156.51</ele>
        <time>2019-08-25T06:09:32.000Z</time>
      </trkpt>
      <trkpt lat="46.26663" lon="6.47934">
        <ele>1157.1</ele>
        <time>2019-08-25T06:09:36.000Z</time>
      </trkpt>
      <trkpt lat="46.26665" lon="6.47949">
        <ele>1157.96</ele>
        <time>2019-08-25T06:09:41.000Z</time>
      </trkpt>
      <trkpt lat="46.26669" lon="6.47963">
        <ele>1158.75</ele>
        <time>2019-08-25T06:09:46.000Z</time>
      </trkpt>
      <trkpt lat="46.26672" lon="6.47977">
        <ele>1159.37</ele>
        <time>2019-08-25T06:09:51.000Z</time>
      </trkpt>
      <trkpt lat="46.26676" lon="6.4799">
        <ele>1160.21</ele>
        <time>2019-08-25T06:09:56.000Z</time>
      </trkpt>
      <trkpt lat="46.26679" lon="6.48002">
        <ele>1160.9</ele>
        <time>2019-08-25T06:10:01.000Z</time>
      </trkpt>
      <trkpt lat="46.26682" lon="6.48015">
        <ele>1161.55</ele>
        <time>2019-08-25T06:10:06.000Z</time>
      </trkpt>
      <trkpt lat="46.26685" lon="6.4803">
        <ele>1162.48</ele>
        <time>2019-08-25T06:10:12.000Z</time>
      </trkpt>
      <trkpt lat="46.26685" lon="6.48046">
        <ele>1163.63</ele>
        <time>2019-08-25T06:10:18.000Z</time>
      </trkpt>
      <trkpt lat="46.26685" lon="6.48061">
        <ele>1164.83</ele>
        <time>2019-08-25T06:10:23.000Z</time>
      </trkpt>
      <trkpt lat="46.26685" lon="6.48074">
        <ele>1166.07</ele>
        <time>2019-08-25T06:10:29.000Z</time>
      </trkpt>
      <trkpt lat="46.26689" lon="6.48091">
        <ele>1167.65</ele>
        <time>2019-08-25T06:10:36.000Z</time>
      </trkpt>
      <trkpt lat="46.26694" lon="6.48104">
        <ele>1169.34</ele>
        <time>2019-08-25T06:10:42.000Z</time>
      </trkpt>
      <trkpt lat="46.26701" lon="6.48115">
        <ele>1170.91</ele>
        <time>2019-08-25T06:10:48.000Z</time>
      </trkpt>
      <trkpt lat="46.26707" lon="6.48126">
        <ele>1172.59</ele>
        <time>2019-08-25T06:10:54.000Z</time>
      </trkpt>
      <trkpt lat="46.26714" lon="6.48135">
        <ele>1174.6</ele>
        <time>2019-08-25T06:11:00.000Z</time>
      </trkpt>
      <trkpt lat="46.26722" lon="6.48146">
        <ele>1176.69</ele>
        <time>2019-08-25T06:11:08.000Z</time>
      </trkpt>
      <trkpt lat="46.26728" lon="6.48157">
        <ele>1177.83</ele>
        <time>2019-08-25T06:11:15.000Z</time>
      </trkpt>
      <trkpt lat="46.26734" lon="6.4817">
        <ele>1179.34</ele>
        <time>2019-08-25T06:11:22.000Z</time>
      </trkpt>
      <trkpt lat="46.2674" lon="6.48182">
        <ele>1182.03</ele>
        <time>2019-08-25T06:11:28.000Z</time>
      </trkpt>
      <trkpt lat="46.26745" lon="6.48194">
        <ele>1184.28</ele>
        <time>2019-08-25T06:11:35.000Z</time>
      </trkpt>
      <trkpt lat="46.26753" lon="6.48203">
        <ele>1186.57</ele>
        <time>2019-08-25T06:11:42.000Z</time>
      </trkpt>
      <trkpt lat="46.26763" lon="6.4821">
        <ele>1190.11</ele>
        <time>2019-08-25T06:11:51.000Z</time>
      </trkpt>
      <trkpt lat="46.2677" lon="6.48219">
        <ele>1191.91</ele>
        <time>2019-08-25T06:11:57.000Z</time>
      </trkpt>
      <trkpt lat="46.26778" lon="6.4823">
        <ele>1193.88</ele>
        <time>2019-08-25T06:12:04.000Z</time>
      </trkpt>
      <trkpt lat="46.26787" lon="6.48237">
        <ele>1195.99</ele>
        <time>2019-08-25T06:12:11.000Z</time>
      </trkpt>
      <trkpt lat="46.26796" lon="6.48241">
        <ele>1197.93</ele>
        <time>2019-08-25T06:12:17.000Z</time>
      </trkpt>
      <trkpt lat="46.26805" lon="6.4824">
        <ele>1200.15</ele>
        <time>2019-08-25T06:12:25.000Z</time>
      </trkpt>
      <trkpt lat="46.26816" lon="6.4824">
        <ele>1202.56</ele>
        <time>2019-08-25T06:12:34.000Z</time>
      </trkpt>
      <trkpt lat="46.26827" lon="6.48239">
        <ele>1204.48</ele>
        <time>2019-08-25T06:12:42.000Z</time>
      </trkpt>
      <trkpt lat="46.26836" lon="6.48236">
        <ele>1205.1</ele>
        <time>2019-08-25T06:12:46.000Z</time>
      </trkpt>
      <trkpt lat="46.26847" lon="6.48234">
        <ele>1206.38</ele>
        <time>2019-08-25T06:12:52.000Z</time>
      </trkpt>
      <trkpt lat="46.26857" lon="6.48234">
        <ele>1208.56</ele>
        <time>2019-08-25T06:13:00.000Z</time>
      </trkpt>
      <trkpt lat="46.26868" lon="6.48238">
        <ele>1211.54</ele>
        <time>2019-08-25T06:13:08.000Z</time>
      </trkpt>
      <trkpt lat="46.26878" lon="6.48246">
        <ele>1213.99</ele>
        <time>2019-08-25T06:13:14.000Z</time>
      </trkpt>
      <trkpt lat="46.26889" lon="6.48253">
        <ele>1216.16</ele>
        <time>2019-08-25T06:13:20.000Z</time>
      </trkpt>
      <trkpt lat="46.26896" lon="6.48263">
        <ele>1218.37</ele>
        <time>2019-08-25T06:13:26.000Z</time>
      </trkpt>
      <trkpt lat="46.26886" lon="6.48274">
        <ele>1221.53</ele>
        <time>2019-08-25T06:13:35.000Z</time>
      </trkpt>
      <trkpt lat="46.26877" lon="6.48278">
        <ele>1222.5</ele>
        <time>2019-08-25T06:13:38.000Z</time>
      </trkpt>
      <trkpt lat="46.26867" lon="6.48283">
        <ele>1223.46</ele>
        <time>2019-08-25T06:13:41.000Z</time>
      </trkpt>
      <trkpt lat="46.26854" lon="6.4829">
        <ele>1223.77</ele>
        <time>2019-08-25T06:13:43.000Z</time>
      </trkpt>
      <trkpt lat="46.26844" lon="6.48294">
        <ele>1224.1</ele>
        <time>2019-08-25T06:13:46.000Z</time>
      </trkpt>
      <trkpt lat="46.26832" lon="6.48299">
        <ele>1224.21</ele>
        <time>2019-08-25T06:13:49.000Z</time>
      </trkpt>
      <trkpt lat="46.26823" lon="6.48303">
        <ele>1224.3</ele>
        <time>2019-08-25T06:13:52.000Z</time>
      </trkpt>
      <trkpt lat="46.26806" lon="6.48304">
        <ele>1224.42</ele>
        <time>2019-08-25T06:13:56.000Z</time>
      </trkpt>
      <trkpt lat="46.26796" lon="6.48309">
        <ele>1224.35</ele>
        <time>2019-08-25T06:14:00.000Z</time>
      </trkpt>
      <trkpt lat="46.26782" lon="6.48314">
        <ele>1224.52</ele>
        <time>2019-08-25T06:14:04.000Z</time>
      </trkpt>
      <trkpt lat="46.2677" lon="6.48322">
        <ele>1225.13</ele>
        <time>2019-08-25T06:14:08.000Z</time>
      </trkpt>
      <trkpt lat="46.26755" lon="6.48328">
        <ele>1225.47</ele>
        <time>2019-08-25T06:14:13.000Z</time>
      </trkpt>
      <trkpt lat="46.26745" lon="6.48331">
        <ele>1226.07</ele>
        <time>2019-08-25T06:14:16.000Z</time>
      </trkpt>
      <trkpt lat="46.26734" lon="6.48332">
        <ele>1226.8</ele>
        <time>2019-08-25T06:14:19.000Z</time>
      </trkpt>
      <trkpt lat="46.26725" lon="6.48331">
        <ele>1227.16</ele>
        <time>2019-08-25T06:14:22.000Z</time>
      </trkpt>
      <trkpt lat="46.26707" lon="6.48326">
        <ele>1227.16</ele>
        <time>2019-08-25T06:14:25.000Z</time>
      </trkpt>
      <trkpt lat="46.26691" lon="6.48314">
        <ele>1227.31</ele>
        <time>2019-08-25T06:14:27.000Z</time>
      </trkpt>
      <trkpt lat="46.26681" lon="6.4831">
        <ele>1227.24</ele>
        <time>2019-08-25T06:14:29.000Z</time>
      </trkpt>
      <trkpt lat="46.26673" lon="6.48317">
        <ele>1226.71</ele>
        <time>2019-08-25T06:14:33.000Z</time>
      </trkpt>
      <trkpt lat="46.26669" lon="6.48329">
        <ele>1225.73</ele>
        <time>2019-08-25T06:14:38.000Z</time>
      </trkpt>
      <trkpt lat="46.26657" lon="6.48364">
        <ele>1225.06</ele>
        <time>2019-08-25T06:14:42.000Z</time>
      </trkpt>
      <trkpt lat="46.26651" lon="6.48399">
        <ele>1223.92</ele>
        <time>2019-08-25T06:14:45.000Z</time>
      </trkpt>
      <trkpt lat="46.26643" lon="6.4842">
        <ele>1223.12</ele>
        <time>2019-08-25T06:14:47.000Z</time>
      </trkpt>
      <trkpt lat="46.26629" lon="6.48436">
        <ele>1221.73</ele>
        <time>2019-08-25T06:14:50.000Z</time>
      </trkpt>
      <trkpt lat="46.26627" lon="6.48459">
        <ele>1220</ele>
        <time>2019-08-25T06:14:53.000Z</time>
      </trkpt>
      <trkpt lat="46.26628" lon="6.48479">
        <ele>1218.52</ele>
        <time>2019-08-25T06:14:55.000Z</time>
      </trkpt>
      <trkpt lat="46.26634" lon="6.48503">
        <ele>1215.52</ele>
        <time>2019-08-25T06:14:58.000Z</time>
      </trkpt>
      <trkpt lat="46.26643" lon="6.48512">
        <ele>1212.25</ele>
        <time>2019-08-25T06:15:01.000Z</time>
      </trkpt>
      <trkpt lat="46.26649" lon="6.48522">
        <ele>1209.32</ele>
        <time>2019-08-25T06:15:04.000Z</time>
      </trkpt>
      <trkpt lat="46.26655" lon="6.48532">
        <ele>1207.32</ele>
        <time>2019-08-25T06:15:07.000Z</time>
      </trkpt>
      <trkpt lat="46.26665" lon="6.48548">
        <ele>1206.31</ele>
        <time>2019-08-25T06:15:10.000Z</time>
      </trkpt>
      <trkpt lat="46.26677" lon="6.4857">
        <ele>1206.05</ele>
        <time>2019-08-25T06:15:13.000Z</time>
      </trkpt>
      <trkpt lat="46.26687" lon="6.48588">
        <ele>1206.33</ele>
        <time>2019-08-25T06:15:16.000Z</time>
      </trkpt>
      <trkpt lat="46.26696" lon="6.48609">
        <ele>1207.12</ele>
        <time>2019-08-25T06:15:20.000Z</time>
      </trkpt>
      <trkpt lat="46.26704" lon="6.48627">
        <ele>1207.78</ele>
        <time>2019-08-25T06:15:24.000Z</time>
      </trkpt>
      <trkpt lat="46.26707" lon="6.48643">
        <ele>1207.86</ele>
        <time>2019-08-25T06:15:26.000Z</time>
      </trkpt>
      <trkpt lat="46.26712" lon="6.48668">
        <ele>1207.8</ele>
        <time>2019-08-25T06:15:30.000Z</time>
      </trkpt>
      <trkpt lat="46.2672" lon="6.48681">
        <ele>1207.92</ele>
        <time>2019-08-25T06:15:32.000Z</time>
      </trkpt>
      <trkpt lat="46.2673" lon="6.48698">
        <ele>1208.06</ele>
        <time>2019-08-25T06:15:35.000Z</time>
      </trkpt>
      <trkpt lat="46.26736" lon="6.48718">
        <ele>1207.92</ele>
        <time>2019-08-25T06:15:38.000Z</time>
      </trkpt>
      <trkpt lat="46.26748" lon="6.48742">
        <ele>1207.32</ele>
        <time>2019-08-25T06:15:41.000Z</time>
      </trkpt>
      <trkpt lat="46.26757" lon="6.48757">
        <ele>1207.14</ele>
        <time>2019-08-25T06:15:43.000Z</time>
      </trkpt>
      <trkpt lat="46.26764" lon="6.48773">
        <ele>1207</ele>
        <time>2019-08-25T06:15:45.000Z</time>
      </trkpt>
      <trkpt lat="46.2677" lon="6.4879">
        <ele>1206.82</ele>
        <time>2019-08-25T06:15:47.000Z</time>
      </trkpt>
      <trkpt lat="46.26775" lon="6.4882">
        <ele>1205.54</ele>
        <time>2019-08-25T06:15:50.000Z</time>
      </trkpt>
      <trkpt lat="46.26772" lon="6.48853">
        <ele>1203.36</ele>
        <time>2019-08-25T06:15:53.000Z</time>
      </trkpt>
      <trkpt lat="46.26771" lon="6.48889">
        <ele>1200.67</ele>
        <time>2019-08-25T06:15:56.000Z</time>
      </trkpt>
      <trkpt lat="46.26774" lon="6.48909">
        <ele>1198.84</ele>
        <time>2019-08-25T06:15:58.000Z</time>
      </trkpt>
      <trkpt lat="46.26777" lon="6.48945">
        <ele>1196.02</ele>
        <time>2019-08-25T06:16:01.000Z</time>
      </trkpt>
      <trkpt lat="46.26778" lon="6.4898">
        <ele>1193.24</ele>
        <time>2019-08-25T06:16:04.000Z</time>
      </trkpt>
      <trkpt lat="46.26781" lon="6.49008">
        <ele>1191.66</ele>
        <time>2019-08-25T06:16:06.000Z</time>
      </trkpt>
      <trkpt lat="46.26791" lon="6.49036">
        <ele>1190.23</ele>
        <time>2019-08-25T06:16:08.000Z</time>
      </trkpt>
      <trkpt lat="46.26802" lon="6.49065">
        <ele>1189.13</ele>
        <time>2019-08-25T06:16:10.000Z</time>
      </trkpt>
      <trkpt lat="46.26807" lon="6.4908">
        <ele>1188.56</ele>
        <time>2019-08-25T06:16:11.000Z</time>
      </trkpt>
      <trkpt lat="46.26818" lon="6.49109">
        <ele>1187.46</ele>
        <time>2019-08-25T06:16:13.000Z</time>
      </trkpt>
      <trkpt lat="46.26824" lon="6.49121">
        <ele>1187.07</ele>
        <time>2019-08-25T06:16:14.000Z</time>
      </trkpt>
      <trkpt lat="46.26839" lon="6.49141">
        <ele>1186.28</ele>
        <time>2019-08-25T06:16:16.000Z</time>
      </trkpt>
      <trkpt lat="46.26852" lon="6.49159">
        <ele>1185.03</ele>
        <time>2019-08-25T06:16:18.000Z</time>
      </trkpt>
      <trkpt lat="46.26869" lon="6.49183">
        <ele>1183.3</ele>
        <time>2019-08-25T06:16:21.000Z</time>
      </trkpt>
      <trkpt lat="46.26876" lon="6.49198">
        <ele>1181.24</ele>
        <time>2019-08-25T06:16:24.000Z</time>
      </trkpt>
      <trkpt lat="46.26872" lon="6.49211">
        <ele>1180.36</ele>
        <time>2019-08-25T06:16:26.000Z</time>
      </trkpt>
      <trkpt lat="46.26868" lon="6.49223">
        <ele>1179.3</ele>
        <time>2019-08-25T06:16:28.000Z</time>
      </trkpt>
      <trkpt lat="46.26867" lon="6.49238">
        <ele>1178.19</ele>
        <time>2019-08-25T06:16:30.000Z</time>
      </trkpt>
      <trkpt lat="46.2687" lon="6.49255">
        <ele>1175.46</ele>
        <time>2019-08-25T06:16:33.000Z</time>
      </trkpt>
      <trkpt lat="46.26875" lon="6.49269">
        <ele>1171.88</ele>
        <time>2019-08-25T06:16:38.000Z</time>
      </trkpt>
      <trkpt lat="46.2688" lon="6.49283">
        <ele>1170.29</ele>
        <time>2019-08-25T06:16:43.000Z</time>
      </trkpt>
      <trkpt lat="46.2688" lon="6.49306">
        <ele>1170.84</ele>
        <time>2019-08-25T06:19:20.000Z</time>
      </trkpt>
      <trkpt lat="46.26874" lon="6.49296">
        <ele>1170.89</ele>
        <time>2019-08-25T06:19:23.000Z</time>
      </trkpt>
      <trkpt lat="46.26863" lon="6.49287">
        <ele>1171.22</ele>
        <time>2019-08-25T06:19:28.000Z</time>
      </trkpt>
      <trkpt lat="46.26855" lon="6.49281">
        <ele>1171.65</ele>
        <time>2019-08-25T06:19:32.000Z</time>
      </trkpt>
      <trkpt lat="46.26846" lon="6.49277">
        <ele>1172.19</ele>
        <time>2019-08-25T06:19:36.000Z</time>
      </trkpt>
      <trkpt lat="46.26833" lon="6.49275">
        <ele>1174.06</ele>
        <time>2019-08-25T06:19:42.000Z</time>
      </trkpt>
      <trkpt lat="46.26823" lon="6.49277">
        <ele>1175.24</ele>
        <time>2019-08-25T06:19:46.000Z</time>
      </trkpt>
      <trkpt lat="46.26813" lon="6.4928">
        <ele>1177.08</ele>
        <time>2019-08-25T06:19:51.000Z</time>
      </trkpt>
      <trkpt lat="46.268" lon="6.49282">
        <ele>1178.77</ele>
        <time>2019-08-25T06:19:57.000Z</time>
      </trkpt>
      <trkpt lat="46.26789" lon="6.49285">
        <ele>1179.79</ele>
        <time>2019-08-25T06:20:01.000Z</time>
      </trkpt>
      <trkpt lat="46.26776" lon="6.49287">
        <ele>1180.6</ele>
        <time>2019-08-25T06:20:05.000Z</time>
      </trkpt>
      <trkpt lat="46.26763" lon="6.49293">
        <ele>1181.08</ele>
        <time>2019-08-25T06:20:10.000Z</time>
      </trkpt>
      <trkpt lat="46.26749" lon="6.49296">
        <ele>1181.78</ele>
        <time>2019-08-25T06:20:15.000Z</time>
      </trkpt>
      <trkpt lat="46.2674" lon="6.49297">
        <ele>1182.19</ele>
        <time>2019-08-25T06:20:18.000Z</time>
      </trkpt>
      <trkpt lat="46.2673" lon="6.49298">
        <ele>1182.81</ele>
        <time>2019-08-25T06:20:21.000Z</time>
      </trkpt>
      <trkpt lat="46.2672" lon="6.49299">
        <ele>1183.24</ele>
        <time>2019-08-25T06:20:24.000Z</time>
      </trkpt>
      <trkpt lat="46.2671" lon="6.49299">
        <ele>1183.56</ele>
        <time>2019-08-25T06:20:28.000Z</time>
      </trkpt>
      <trkpt lat="46.26701" lon="6.49297">
        <ele>1184.25</ele>
        <time>2019-08-25T06:20:32.000Z</time>
      </trkpt>
      <trkpt lat="46.26687" lon="6.49299">
        <ele>1185.39</ele>
        <time>2019-08-25T06:20:37.000Z</time>
      </trkpt>
      <trkpt lat="46.26678" lon="6.49304">
        <ele>1186.89</ele>
        <time>2019-08-25T06:20:41.000Z</time>
      </trkpt>
      <trkpt lat="46.26669" lon="6.49308">
        <ele>1188.18</ele>
        <time>2019-08-25T06:20:45.000Z</time>
      </trkpt>
      <trkpt lat="46.26655" lon="6.4931">
        <ele>1189.41</ele>
        <time>2019-08-25T06:20:50.000Z</time>
      </trkpt>
      <trkpt lat="46.26641" lon="6.49307">
        <ele>1190.42</ele>
        <time>2019-08-25T06:20:55.000Z</time>
      </trkpt>
      <trkpt lat="46.26631" lon="6.49308">
        <ele>1191.14</ele>
        <time>2019-08-25T06:20:59.000Z</time>
      </trkpt>
      <trkpt lat="46.26622" lon="6.49302">
        <ele>1192.68</ele>
        <time>2019-08-25T06:21:04.000Z</time>
      </trkpt>
      <trkpt lat="46.26612" lon="6.49291">
        <ele>1193.92</ele>
        <time>2019-08-25T06:21:09.000Z</time>
      </trkpt>
      <trkpt lat="46.26598" lon="6.49282">
        <ele>1194.88</ele>
        <time>2019-08-25T06:21:13.000Z</time>
      </trkpt>
      <trkpt lat="46.2659" lon="6.49278">
        <ele>1195.31</ele>
        <time>2019-08-25T06:21:15.000Z</time>
      </trkpt>
      <trkpt lat="46.26577" lon="6.49274">
        <ele>1196.06</ele>
        <time>2019-08-25T06:21:19.000Z</time>
      </trkpt>
      <trkpt lat="46.26564" lon="6.49269">
        <ele>1196.73</ele>
        <time>2019-08-25T06:21:23.000Z</time>
      </trkpt>
      <trkpt lat="46.2655" lon="6.49266">
        <ele>1197.63</ele>
        <time>2019-08-25T06:21:27.000Z</time>
      </trkpt>
      <trkpt lat="46.2654" lon="6.49266">
        <ele>1198.33</ele>
        <time>2019-08-25T06:21:30.000Z</time>
      </trkpt>
      <trkpt lat="46.26529" lon="6.49267">
        <ele>1198.91</ele>
        <time>2019-08-25T06:21:33.000Z</time>
      </trkpt>
      <trkpt lat="46.26517" lon="6.49268">
        <ele>1199.62</ele>
        <time>2019-08-25T06:21:36.000Z</time>
      </trkpt>
      <trkpt lat="46.26507" lon="6.49266">
        <ele>1200.19</ele>
        <time>2019-08-25T06:21:39.000Z</time>
      </trkpt>
      <trkpt lat="46.26497" lon="6.49265">
        <ele>1200.37</ele>
        <time>2019-08-25T06:21:42.000Z</time>
      </trkpt>
      <trkpt lat="46.26481" lon="6.49265">
        <ele>1200.5</ele>
        <time>2019-08-25T06:21:46.000Z</time>
      </trkpt>
      <trkpt lat="46.26468" lon="6.49266">
        <ele>1200.75</ele>
        <time>2019-08-25T06:21:50.000Z</time>
      </trkpt>
      <trkpt lat="46.26458" lon="6.49268">
        <ele>1200.72</ele>
        <time>2019-08-25T06:21:53.000Z</time>
      </trkpt>
      <trkpt lat="46.26448" lon="6.49271">
        <ele>1200.79</ele>
        <time>2019-08-25T06:21:57.000Z</time>
      </trkpt>
      <trkpt lat="46.26437" lon="6.49274">
        <ele>1201.04</ele>
        <time>2019-08-25T06:22:02.000Z</time>
      </trkpt>
      <trkpt lat="46.26425" lon="6.49276">
        <ele>1202.21</ele>
        <time>2019-08-25T06:22:08.000Z</time>
      </trkpt>
      <trkpt lat="46.26411" lon="6.49277">
        <ele>1204.48</ele>
        <time>2019-08-25T06:22:14.000Z</time>
      </trkpt>
      <trkpt lat="46.26403" lon="6.49276">
        <ele>1206.12</ele>
        <time>2019-08-25T06:22:18.000Z</time>
      </trkpt>
      <trkpt lat="46.26393" lon="6.49269">
        <ele>1207.8</ele>
        <time>2019-08-25T06:22:23.000Z</time>
      </trkpt>
      <trkpt lat="46.26383" lon="6.49262">
        <ele>1208.9</ele>
        <time>2019-08-25T06:22:28.000Z</time>
      </trkpt>
      <trkpt lat="46.26373" lon="6.49256">
        <ele>1209.8</ele>
        <time>2019-08-25T06:22:33.000Z</time>
      </trkpt>
      <trkpt lat="46.26361" lon="6.49256">
        <ele>1210.62</ele>
        <time>2019-08-25T06:22:39.000Z</time>
      </trkpt>
      <trkpt lat="46.26352" lon="6.49253">
        <ele>1211.83</ele>
        <time>2019-08-25T06:22:45.000Z</time>
      </trkpt>
      <trkpt lat="46.26343" lon="6.49247">
        <ele>1214.06</ele>
        <time>2019-08-25T06:22:51.000Z</time>
      </trkpt>
      <trkpt lat="46.26336" lon="6.49237">
        <ele>1216.67</ele>
        <time>2019-08-25T06:22:57.000Z</time>
      </trkpt>
      <trkpt lat="46.26328" lon="6.49228">
        <ele>1219.04</ele>
        <time>2019-08-25T06:23:03.000Z</time>
      </trkpt>
      <trkpt lat="46.26322" lon="6.49218">
        <ele>1222.13</ele>
        <time>2019-08-25T06:23:23.000Z</time>
      </trkpt>
      <trkpt lat="46.26312" lon="6.49211">
        <ele>1222.54</ele>
        <time>2019-08-25T06:23:30.000Z</time>
      </trkpt>
      <trkpt lat="46.26303" lon="6.49204">
        <ele>1222.89</ele>
        <time>2019-08-25T06:23:35.000Z</time>
      </trkpt>
      <trkpt lat="46.26295" lon="6.49195">
        <ele>1223.58</ele>
        <time>2019-08-25T06:23:40.000Z</time>
      </trkpt>
      <trkpt lat="46.2629" lon="6.49182">
        <ele>1224.21</ele>
        <time>2019-08-25T06:23:44.000Z</time>
      </trkpt>
      <trkpt lat="46.26285" lon="6.49169">
        <ele>1225.13</ele>
        <time>2019-08-25T06:23:48.000Z</time>
      </trkpt>
      <trkpt lat="46.26279" lon="6.49153">
        <ele>1226.24</ele>
        <time>2019-08-25T06:23:52.000Z</time>
      </trkpt>
      <trkpt lat="46.26275" lon="6.49138">
        <ele>1227.12</ele>
        <time>2019-08-25T06:23:56.000Z</time>
      </trkpt>
      <trkpt lat="46.26274" lon="6.49125">
        <ele>1227.54</ele>
        <time>2019-08-25T06:24:00.000Z</time>
      </trkpt>
      <trkpt lat="46.2627" lon="6.49113">
        <ele>1227.89</ele>
        <time>2019-08-25T06:24:05.000Z</time>
      </trkpt>
      <trkpt lat="46.26266" lon="6.491">
        <ele>1228.64</ele>
        <time>2019-08-25T06:24:12.000Z</time>
      </trkpt>
      <trkpt lat="46.26261" lon="6.49089">
        <ele>1230.27</ele>
        <time>2019-08-25T06:24:18.000Z</time>
      </trkpt>
      <trkpt lat="46.26255" lon="6.49075">
        <ele>1231.84</ele>
        <time>2019-08-25T06:24:23.000Z</time>
      </trkpt>
      <trkpt lat="46.26249" lon="6.49063">
        <ele>1233.74</ele>
        <time>2019-08-25T06:24:28.000Z</time>
      </trkpt>
      <trkpt lat="46.26239" lon="6.49047">
        <ele>1235.32</ele>
        <time>2019-08-25T06:24:33.000Z</time>
      </trkpt>
      <trkpt lat="46.26232" lon="6.49034">
        <ele>1235.96</ele>
        <time>2019-08-25T06:24:37.000Z</time>
      </trkpt>
      <trkpt lat="46.26225" lon="6.49024">
        <ele>1236.35</ele>
        <time>2019-08-25T06:24:40.000Z</time>
      </trkpt>
      <trkpt lat="46.26217" lon="6.49017">
        <ele>1236.56</ele>
        <time>2019-08-25T06:24:43.000Z</time>
      </trkpt>
      <trkpt lat="46.26208" lon="6.4901">
        <ele>1236.56</ele>
        <time>2019-08-25T06:24:45.000Z</time>
      </trkpt>
      <trkpt lat="46.262" lon="6.49007">
        <ele>1236.46</ele>
        <time>2019-08-25T06:24:48.000Z</time>
      </trkpt>
      <trkpt lat="46.26189" lon="6.49002">
        <ele>1236.37</ele>
        <time>2019-08-25T06:24:50.000Z</time>
      </trkpt>
      <trkpt lat="46.26176" lon="6.49007">
        <ele>1236.07</ele>
        <time>2019-08-25T06:24:53.000Z</time>
      </trkpt>
      <trkpt lat="46.26159" lon="6.49009">
        <ele>1235.79</ele>
        <time>2019-08-25T06:24:56.000Z</time>
      </trkpt>
      <trkpt lat="46.26146" lon="6.4901">
        <ele>1235.66</ele>
        <time>2019-08-25T06:24:58.000Z</time>
      </trkpt>
      <trkpt lat="46.26137" lon="6.4901">
        <ele>1235.61</ele>
        <time>2019-08-25T06:25:00.000Z</time>
      </trkpt>
      <trkpt lat="46.26126" lon="6.49011">
        <ele>1235.38</ele>
        <time>2019-08-25T06:25:04.000Z</time>
      </trkpt>
      <trkpt lat="46.26112" lon="6.49009">
        <ele>1235.12</ele>
        <time>2019-08-25T06:25:07.000Z</time>
      </trkpt>
      <trkpt lat="46.26096" lon="6.49008">
        <ele>1234.76</ele>
        <time>2019-08-25T06:25:10.000Z</time>
      </trkpt>
      <trkpt lat="46.26086" lon="6.49006">
        <ele>1234.35</ele>
        <time>2019-08-25T06:25:12.000Z</time>
      </trkpt>
      <trkpt lat="46.26076" lon="6.49007">
        <ele>1233.65</ele>
        <time>2019-08-25T06:25:15.000Z</time>
      </trkpt>
      <trkpt lat="46.26063" lon="6.49014">
        <ele>1232.77</ele>
        <time>2019-08-25T06:25:20.000Z</time>
      </trkpt>
      <trkpt lat="46.26052" lon="6.49019">
        <ele>1233.12</ele>
        <time>2019-08-25T06:25:25.000Z</time>
      </trkpt>
      <trkpt lat="46.26043" lon="6.49022">
        <ele>1234.06</ele>
        <time>2019-08-25T06:25:30.000Z</time>
      </trkpt>
      <trkpt lat="46.26033" lon="6.49025">
        <ele>1235.51</ele>
        <time>2019-08-25T06:25:35.000Z</time>
      </trkpt>
      <trkpt lat="46.26019" lon="6.49028">
        <ele>1237.57</ele>
        <time>2019-08-25T06:25:41.000Z</time>
      </trkpt>
      <trkpt lat="46.26009" lon="6.49027">
        <ele>1239.4</ele>
        <time>2019-08-25T06:25:46.000Z</time>
      </trkpt>
      <trkpt lat="46.25999" lon="6.49029">
        <ele>1240.81</ele>
        <time>2019-08-25T06:25:50.000Z</time>
      </trkpt>
      <trkpt lat="46.25989" lon="6.49032">
        <ele>1241.64</ele>
        <time>2019-08-25T06:25:55.000Z</time>
      </trkpt>
      <trkpt lat="46.25977" lon="6.49026">
        <ele>1242.06</ele>
        <time>2019-08-25T06:26:01.000Z</time>
      </trkpt>
      <trkpt lat="46.25969" lon="6.49018">
        <ele>1242.08</ele>
        <time>2019-08-25T06:26:02.000Z</time>
      </trkpt>
      <trkpt lat="46.25961" lon="6.49011">
        <ele>1241.97</ele>
        <time>2019-08-25T06:26:04.000Z</time>
      </trkpt>
      <trkpt lat="46.25951" lon="6.49004">
        <ele>1241.82</ele>
        <time>2019-08-25T06:26:07.000Z</time>
      </trkpt>
      <trkpt lat="46.2594" lon="6.49">
        <ele>1241.64</ele>
        <time>2019-08-25T06:26:11.000Z</time>
      </trkpt>
      <trkpt lat="46.25931" lon="6.48998">
        <ele>1241.47</ele>
        <time>2019-08-25T06:26:14.000Z</time>
      </trkpt>
      <trkpt lat="46.25915" lon="6.48997">
        <ele>1241.86</ele>
        <time>2019-08-25T06:26:19.000Z</time>
      </trkpt>
      <trkpt lat="46.25906" lon="6.48993">
        <ele>1242.57</ele>
        <time>2019-08-25T06:26:22.000Z</time>
      </trkpt>
      <trkpt lat="46.25894" lon="6.48984">
        <ele>1244.13</ele>
        <time>2019-08-25T06:26:27.000Z</time>
      </trkpt>
      <trkpt lat="46.25887" lon="6.48972">
        <ele>1245.46</ele>
        <time>2019-08-25T06:26:31.000Z</time>
      </trkpt>
      <trkpt lat="46.25882" lon="6.48962">
        <ele>1247.92</ele>
        <time>2019-08-25T06:26:37.000Z</time>
      </trkpt>
      <trkpt lat="46.25877" lon="6.4895">
        <ele>1249.6</ele>
        <time>2019-08-25T06:26:42.000Z</time>
      </trkpt>
      <trkpt lat="46.2587" lon="6.48938">
        <ele>1251.58</ele>
        <time>2019-08-25T06:26:48.000Z</time>
      </trkpt>
      <trkpt lat="46.25861" lon="6.48931">
        <ele>1252.71</ele>
        <time>2019-08-25T06:26:53.000Z</time>
      </trkpt>
      <trkpt lat="46.25852" lon="6.48929">
        <ele>1253.92</ele>
        <time>2019-08-25T06:26:59.000Z</time>
      </trkpt>
      <trkpt lat="46.25845" lon="6.48922">
        <ele>1255.71</ele>
        <time>2019-08-25T06:27:06.000Z</time>
      </trkpt>
      <trkpt lat="46.25835" lon="6.48919">
        <ele>1256.69</ele>
        <time>2019-08-25T06:27:12.000Z</time>
      </trkpt>
      <trkpt lat="46.25826" lon="6.48918">
        <ele>1257.32</ele>
        <time>2019-08-25T06:27:16.000Z</time>
      </trkpt>
      <trkpt lat="46.25816" lon="6.4892">
        <ele>1257.94</ele>
        <time>2019-08-25T06:27:20.000Z</time>
      </trkpt>
      <trkpt lat="46.25806" lon="6.48923">
        <ele>1258.92</ele>
        <time>2019-08-25T06:27:25.000Z</time>
      </trkpt>
      <trkpt lat="46.25798" lon="6.4893">
        <ele>1260.53</ele>
        <time>2019-08-25T06:27:32.000Z</time>
      </trkpt>
      <trkpt lat="46.25802" lon="6.48943">
        <ele>1264.31</ele>
        <time>2019-08-25T06:27:43.000Z</time>
      </trkpt>
      <trkpt lat="46.25805" lon="6.48956">
        <ele>1266.5</ele>
        <time>2019-08-25T06:27:49.000Z</time>
      </trkpt>
      <trkpt lat="46.25805" lon="6.48969">
        <ele>1269.35</ele>
        <time>2019-08-25T06:27:58.000Z</time>
      </trkpt>
      <trkpt lat="46.25811" lon="6.48985">
        <ele>1270.63</ele>
        <time>2019-08-25T06:28:05.000Z</time>
      </trkpt>
      <trkpt lat="46.25813" lon="6.49">
        <ele>1271.69</ele>
        <time>2019-08-25T06:28:11.000Z</time>
      </trkpt>
      <trkpt lat="46.25814" lon="6.49013">
        <ele>1272.68</ele>
        <time>2019-08-25T06:28:16.000Z</time>
      </trkpt>
      <trkpt lat="46.25813" lon="6.49027">
        <ele>1273.77</ele>
        <time>2019-08-25T06:28:21.000Z</time>
      </trkpt>
      <trkpt lat="46.25806" lon="6.49044">
        <ele>1274.42</ele>
        <time>2019-08-25T06:28:27.000Z</time>
      </trkpt>
      <trkpt lat="46.25802" lon="6.49056">
        <ele>1274.78</ele>
        <time>2019-08-25T06:28:31.000Z</time>
      </trkpt>
      <trkpt lat="46.25798" lon="6.49076">
        <ele>1275.09</ele>
        <time>2019-08-25T06:28:37.000Z</time>
      </trkpt>
      <trkpt lat="46.25795" lon="6.49092">
        <ele>1275.32</ele>
        <time>2019-08-25T06:28:40.000Z</time>
      </trkpt>
      <trkpt lat="46.2579" lon="6.49106">
        <ele>1275.54</ele>
        <time>2019-08-25T06:28:43.000Z</time>
      </trkpt>
      <trkpt lat="46.25785" lon="6.49121">
        <ele>1275.67</ele>
        <time>2019-08-25T06:28:46.000Z</time>
      </trkpt>
      <trkpt lat="46.25782" lon="6.49135">
        <ele>1275.96</ele>
        <time>2019-08-25T06:28:49.000Z</time>
      </trkpt>
      <trkpt lat="46.25769" lon="6.49141">
        <ele>1276.72</ele>
        <time>2019-08-25T06:28:55.000Z</time>
      </trkpt>
      <trkpt lat="46.25756" lon="6.49123">
        <ele>1277.69</ele>
        <time>2019-08-25T06:29:00.000Z</time>
      </trkpt>
      <trkpt lat="46.25747" lon="6.49105">
        <ele>1278.33</ele>
        <time>2019-08-25T06:29:03.000Z</time>
      </trkpt>
      <trkpt lat="46.25738" lon="6.491">
        <ele>1278.61</ele>
        <time>2019-08-25T06:29:05.000Z</time>
      </trkpt>
      <trkpt lat="46.25728" lon="6.49099">
        <ele>1278.79</ele>
        <time>2019-08-25T06:29:07.000Z</time>
      </trkpt>
      <trkpt lat="46.25716" lon="6.4909">
        <ele>1278.62</ele>
        <time>2019-08-25T06:29:09.000Z</time>
      </trkpt>
      <trkpt lat="46.25705" lon="6.49078">
        <ele>1278.12</ele>
        <time>2019-08-25T06:29:11.000Z</time>
      </trkpt>
      <trkpt lat="46.25691" lon="6.49066">
        <ele>1277.44</ele>
        <time>2019-08-25T06:29:13.000Z</time>
      </trkpt>
      <trkpt lat="46.25678" lon="6.49056">
        <ele>1276.91</ele>
        <time>2019-08-25T06:29:15.000Z</time>
      </trkpt>
      <trkpt lat="46.25658" lon="6.49038">
        <ele>1276.32</ele>
        <time>2019-08-25T06:29:18.000Z</time>
      </trkpt>
      <trkpt lat="46.25644" lon="6.49025">
        <ele>1275.3</ele>
        <time>2019-08-25T06:29:20.000Z</time>
      </trkpt>
      <trkpt lat="46.25636" lon="6.49018">
        <ele>1274.57</ele>
        <time>2019-08-25T06:29:21.000Z</time>
      </trkpt>
      <trkpt lat="46.25621" lon="6.49005">
        <ele>1272.9</ele>
        <time>2019-08-25T06:29:23.000Z</time>
      </trkpt>
      <trkpt lat="46.25601" lon="6.48985">
        <ele>1269.87</ele>
        <time>2019-08-25T06:29:26.000Z</time>
      </trkpt>
      <trkpt lat="46.2559" lon="6.48968">
        <ele>1268.62</ele>
        <time>2019-08-25T06:29:28.000Z</time>
      </trkpt>
      <trkpt lat="46.25575" lon="6.48952">
        <ele>1267.17</ele>
        <time>2019-08-25T06:29:30.000Z</time>
      </trkpt>
      <trkpt lat="46.25565" lon="6.48932">
        <ele>1265.23</ele>
        <time>2019-08-25T06:29:32.000Z</time>
      </trkpt>
      <trkpt lat="46.25556" lon="6.48913">
        <ele>1263.23</ele>
        <time>2019-08-25T06:29:34.000Z</time>
      </trkpt>
      <trkpt lat="46.25546" lon="6.48899">
        <ele>1261.45</ele>
        <time>2019-08-25T06:29:36.000Z</time>
      </trkpt>
      <trkpt lat="46.25541" lon="6.48885">
        <ele>1260.51</ele>
        <time>2019-08-25T06:29:38.000Z</time>
      </trkpt>
      <trkpt lat="46.25542" lon="6.48868">
        <ele>1259.67</ele>
        <time>2019-08-25T06:29:40.000Z</time>
      </trkpt>
      <trkpt lat="46.25535" lon="6.4885">
        <ele>1258.91</ele>
        <time>2019-08-25T06:29:43.000Z</time>
      </trkpt>
      <trkpt lat="46.25535" lon="6.48837">
        <ele>1253.03</ele>
        <time>2019-08-25T06:29:51.000Z</time>
      </trkpt>
      <trkpt lat="46.25538" lon="6.48824">
        <ele>1246.14</ele>
        <time>2019-08-25T06:32:42.000Z</time>
      </trkpt>
      <trkpt lat="46.25535" lon="6.4881">
        <ele>1246.14</ele>
        <time>2019-08-25T06:32:46.000Z</time>
      </trkpt>
      <trkpt lat="46.25528" lon="6.488">
        <ele>1246.03</ele>
        <time>2019-08-25T06:32:48.000Z</time>
      </trkpt>
      <trkpt lat="46.25518" lon="6.48788">
        <ele>1245.93</ele>
        <time>2019-08-25T06:32:51.000Z</time>
      </trkpt>
      <trkpt lat="46.25508" lon="6.48781">
        <ele>1245.96</ele>
        <time>2019-08-25T06:32:55.000Z</time>
      </trkpt>
      <trkpt lat="46.25498" lon="6.48775">
        <ele>1246.05</ele>
        <time>2019-08-25T06:32:57.000Z</time>
      </trkpt>
      <trkpt lat="46.25482" lon="6.48763">
        <ele>1246.14</ele>
        <time>2019-08-25T06:33:01.000Z</time>
      </trkpt>
      <trkpt lat="46.25475" lon="6.48755">
        <ele>1246.3</ele>
        <time>2019-08-25T06:33:03.000Z</time>
      </trkpt>
      <trkpt lat="46.25467" lon="6.48747">
        <ele>1246.3</ele>
        <time>2019-08-25T06:33:05.000Z</time>
      </trkpt>
      <trkpt lat="46.25459" lon="6.48736">
        <ele>1246.42</ele>
        <time>2019-08-25T06:33:07.000Z</time>
      </trkpt>
      <trkpt lat="46.25445" lon="6.48721">
        <ele>1246.59</ele>
        <time>2019-08-25T06:33:11.000Z</time>
      </trkpt>
      <trkpt lat="46.25434" lon="6.48706">
        <ele>1247.19</ele>
        <time>2019-08-25T06:33:15.000Z</time>
      </trkpt>
      <trkpt lat="46.25425" lon="6.48695">
        <ele>1247.7</ele>
        <time>2019-08-25T06:33:18.000Z</time>
      </trkpt>
      <trkpt lat="46.25415" lon="6.48682">
        <ele>1248.2</ele>
        <time>2019-08-25T06:33:21.000Z</time>
      </trkpt>
      <trkpt lat="46.25404" lon="6.48672">
        <ele>1247.84</ele>
        <time>2019-08-25T06:33:27.000Z</time>
      </trkpt>
      <trkpt lat="46.25396" lon="6.48663">
        <ele>1246.81</ele>
        <time>2019-08-25T06:33:31.000Z</time>
      </trkpt>
      <trkpt lat="46.25389" lon="6.48651">
        <ele>1246.66</ele>
        <time>2019-08-25T06:33:32.000Z</time>
      </trkpt>
      <trkpt lat="46.25382" lon="6.48641">
        <ele>1245.39</ele>
        <time>2019-08-25T06:33:36.000Z</time>
      </trkpt>
      <trkpt lat="46.25372" lon="6.48624">
        <ele>1244.06</ele>
        <time>2019-08-25T06:33:38.000Z</time>
      </trkpt>
      <trkpt lat="46.25364" lon="6.48613">
        <ele>1242.38</ele>
        <time>2019-08-25T06:33:40.000Z</time>
      </trkpt>
      <trkpt lat="46.25356" lon="6.48602">
        <ele>1239.64</ele>
        <time>2019-08-25T06:33:43.000Z</time>
      </trkpt>
      <trkpt lat="46.25348" lon="6.48593">
        <ele>1234.12</ele>
        <time>2019-08-25T06:33:48.000Z</time>
      </trkpt>
      <trkpt lat="46.25341" lon="6.4858">
        <ele>1227.56</ele>
        <time>2019-08-25T06:33:54.000Z</time>
      </trkpt>
      <trkpt lat="46.25335" lon="6.48568">
        <ele>1224.7</ele>
        <time>2019-08-25T06:33:58.000Z</time>
      </trkpt>
      <trkpt lat="46.2533" lon="6.48554">
        <ele>1220.92</ele>
        <time>2019-08-25T06:34:04.000Z</time>
      </trkpt>
      <trkpt lat="46.25323" lon="6.48542">
        <ele>1216.26</ele>
        <time>2019-08-25T06:34:14.000Z</time>
      </trkpt>
      <trkpt lat="46.25312" lon="6.4854">
        <ele>1213.49</ele>
        <time>2019-08-25T06:34:20.000Z</time>
      </trkpt>
      <trkpt lat="46.25304" lon="6.4853">
        <ele>1210.24</ele>
        <time>2019-08-25T06:34:26.000Z</time>
      </trkpt>
      <trkpt lat="46.25293" lon="6.4851">
        <ele>1206.91</ele>
        <time>2019-08-25T06:34:32.000Z</time>
      </trkpt>
      <trkpt lat="46.25277" lon="6.48511">
        <ele>1199.68</ele>
        <time>2019-08-25T06:34:42.000Z</time>
      </trkpt>
      <trkpt lat="46.25267" lon="6.48507">
        <ele>1195.44</ele>
        <time>2019-08-25T06:34:47.000Z</time>
      </trkpt>
      <trkpt lat="46.25257" lon="6.485">
        <ele>1193.09</ele>
        <time>2019-08-25T06:34:52.000Z</time>
      </trkpt>
      <trkpt lat="46.2525" lon="6.4849">
        <ele>1191.73</ele>
        <time>2019-08-25T06:34:57.000Z</time>
      </trkpt>
      <trkpt lat="46.25242" lon="6.4848">
        <ele>1191.39</ele>
        <time>2019-08-25T06:35:02.000Z</time>
      </trkpt>
      <trkpt lat="46.25233" lon="6.48472">
        <ele>1191.91</ele>
        <time>2019-08-25T06:35:06.000Z</time>
      </trkpt>
      <trkpt lat="46.25219" lon="6.48471">
        <ele>1192.14</ele>
        <time>2019-08-25T06:35:13.000Z</time>
      </trkpt>
      <trkpt lat="46.25209" lon="6.48471">
        <ele>1191.82</ele>
        <time>2019-08-25T06:35:17.000Z</time>
      </trkpt>
      <trkpt lat="46.25197" lon="6.48467">
        <ele>1191.75</ele>
        <time>2019-08-25T06:35:19.000Z</time>
      </trkpt>
      <trkpt lat="46.25187" lon="6.48467">
        <ele>1191.67</ele>
        <time>2019-08-25T06:35:23.000Z</time>
      </trkpt>
      <trkpt lat="46.25173" lon="6.48457">
        <ele>1191.86</ele>
        <time>2019-08-25T06:35:26.000Z</time>
      </trkpt>
      <trkpt lat="46.25153" lon="6.48458">
        <ele>1191.77</ele>
        <time>2019-08-25T06:35:28.000Z</time>
      </trkpt>
      <trkpt lat="46.25138" lon="6.48451">
        <ele>1191.67</ele>
        <time>2019-08-25T06:35:29.000Z</time>
      </trkpt>
      <trkpt lat="46.25127" lon="6.48451">
        <ele>1191.38</ele>
        <time>2019-08-25T06:35:31.000Z</time>
      </trkpt>
      <trkpt lat="46.25117" lon="6.48445">
        <ele>1190.75</ele>
        <time>2019-08-25T06:35:34.000Z</time>
      </trkpt>
      <trkpt lat="46.25108" lon="6.4843">
        <ele>1190.45</ele>
        <time>2019-08-25T06:35:35.000Z</time>
      </trkpt>
      <trkpt lat="46.25089" lon="6.4842">
        <ele>1188.8</ele>
        <time>2019-08-25T06:35:38.000Z</time>
      </trkpt>
      <trkpt lat="46.25077" lon="6.48418">
        <ele>1187.17</ele>
        <time>2019-08-25T06:35:40.000Z</time>
      </trkpt>
      <trkpt lat="46.25062" lon="6.48407">
        <ele>1186.21</ele>
        <time>2019-08-25T06:35:41.000Z</time>
      </trkpt>
      <trkpt lat="46.25046" lon="6.48401">
        <ele>1184.35</ele>
        <time>2019-08-25T06:35:43.000Z</time>
      </trkpt>
      <trkpt lat="46.25034" lon="6.4839">
        <ele>1180.91</ele>
        <time>2019-08-25T06:35:47.000Z</time>
      </trkpt>
      <trkpt lat="46.25027" lon="6.48377">
        <ele>1180.04</ele>
        <time>2019-08-25T06:35:48.000Z</time>
      </trkpt>
      <trkpt lat="46.25016" lon="6.48368">
        <ele>1178.25</ele>
        <time>2019-08-25T06:35:50.000Z</time>
      </trkpt>
      <trkpt lat="46.25001" lon="6.48361">
        <ele>1175.79</ele>
        <time>2019-08-25T06:35:53.000Z</time>
      </trkpt>
      <trkpt lat="46.24992" lon="6.48345">
        <ele>1172.85</ele>
        <time>2019-08-25T06:35:56.000Z</time>
      </trkpt>
      <trkpt lat="46.24983" lon="6.48332">
        <ele>1171.09</ele>
        <time>2019-08-25T06:35:58.000Z</time>
      </trkpt>
      <trkpt lat="46.24967" lon="6.48323">
        <ele>1168.32</ele>
        <time>2019-08-25T06:36:01.000Z</time>
      </trkpt>
      <trkpt lat="46.24958" lon="6.48316">
        <ele>1167.6</ele>
        <time>2019-08-25T06:36:02.000Z</time>
      </trkpt>
      <trkpt lat="46.24949" lon="6.48304">
        <ele>1166.15</ele>
        <time>2019-08-25T06:36:04.000Z</time>
      </trkpt>
      <trkpt lat="46.24942" lon="6.48295">
        <ele>1164.83</ele>
        <time>2019-08-25T06:36:06.000Z</time>
      </trkpt>
      <trkpt lat="46.24928" lon="6.48278">
        <ele>1162.5</ele>
        <time>2019-08-25T06:36:09.000Z</time>
      </trkpt>
      <trkpt lat="46.24919" lon="6.48269">
        <ele>1159.89</ele>
        <time>2019-08-25T06:36:12.000Z</time>
      </trkpt>
      <trkpt lat="46.24912" lon="6.48257">
        <ele>1157.74</ele>
        <time>2019-08-25T06:36:14.000Z</time>
      </trkpt>
      <trkpt lat="46.24903" lon="6.48246">
        <ele>1154.52</ele>
        <time>2019-08-25T06:36:18.000Z</time>
      </trkpt>
      <trkpt lat="46.2489" lon="6.48233">
        <ele>1152.57</ele>
        <time>2019-08-25T06:36:21.000Z</time>
      </trkpt>
      <trkpt lat="46.24879" lon="6.48225">
        <ele>1150.6</ele>
        <time>2019-08-25T06:36:23.000Z</time>
      </trkpt>
      <trkpt lat="46.2487" lon="6.48224">
        <ele>1148.34</ele>
        <time>2019-08-25T06:36:25.000Z</time>
      </trkpt>
      <trkpt lat="46.24876" lon="6.48214">
        <ele>1143.05</ele>
        <time>2019-08-25T06:36:34.000Z</time>
      </trkpt>
      <trkpt lat="46.24887" lon="6.48214">
        <ele>1141.66</ele>
        <time>2019-08-25T06:36:36.000Z</time>
      </trkpt>
      <trkpt lat="46.24899" lon="6.482">
        <ele>1140.12</ele>
        <time>2019-08-25T06:36:39.000Z</time>
      </trkpt>
      <trkpt lat="46.24887" lon="6.48187">
        <ele>1139.15</ele>
        <time>2019-08-25T06:36:42.000Z</time>
      </trkpt>
      <trkpt lat="46.24865" lon="6.48182">
        <ele>1138.24</ele>
        <time>2019-08-25T06:36:45.000Z</time>
      </trkpt>
      <trkpt lat="46.24847" lon="6.48184">
        <ele>1136.99</ele>
        <time>2019-08-25T06:36:47.000Z</time>
      </trkpt>
      <trkpt lat="46.24823" lon="6.48198">
        <ele>1134.97</ele>
        <time>2019-08-25T06:36:50.000Z</time>
      </trkpt>
      <trkpt lat="46.2481" lon="6.48213">
        <ele>1133.62</ele>
        <time>2019-08-25T06:36:52.000Z</time>
      </trkpt>
      <trkpt lat="46.24808" lon="6.48227">
        <ele>1133.01</ele>
        <time>2019-08-25T06:36:53.000Z</time>
      </trkpt>
      <trkpt lat="46.24798" lon="6.48259">
        <ele>1131.3</ele>
        <time>2019-08-25T06:36:56.000Z</time>
      </trkpt>
      <trkpt lat="46.24788" lon="6.48279">
        <ele>1130.39</ele>
        <time>2019-08-25T06:36:58.000Z</time>
      </trkpt>
      <trkpt lat="46.24768" lon="6.48292">
        <ele>1128.96</ele>
        <time>2019-08-25T06:37:01.000Z</time>
      </trkpt>
      <trkpt lat="46.24753" lon="6.48306">
        <ele>1128.12</ele>
        <time>2019-08-25T06:37:03.000Z</time>
      </trkpt>
      <trkpt lat="46.24747" lon="6.48331">
        <ele>1126.76</ele>
        <time>2019-08-25T06:37:06.000Z</time>
      </trkpt>
      <trkpt lat="46.24745" lon="6.4836">
        <ele>1126.23</ele>
        <time>2019-08-25T06:37:07.000Z</time>
      </trkpt>
      <trkpt lat="46.24746" lon="6.48385">
        <ele>1125.2</ele>
        <time>2019-08-25T06:37:09.000Z</time>
      </trkpt>
      <trkpt lat="46.24746" lon="6.48406">
        <ele>1124.13</ele>
        <time>2019-08-25T06:37:11.000Z</time>
      </trkpt>
      <trkpt lat="46.24745" lon="6.48422">
        <ele>1122.96</ele>
        <time>2019-08-25T06:37:13.000Z</time>
      </trkpt>
      <trkpt lat="46.24743" lon="6.48438">
        <ele>1121.7</ele>
        <time>2019-08-25T06:37:15.000Z</time>
      </trkpt>
      <trkpt lat="46.24735" lon="6.4846">
        <ele>1120.07</ele>
        <time>2019-08-25T06:37:18.000Z</time>
      </trkpt>
      <trkpt lat="46.24731" lon="6.48474">
        <ele>1119.31</ele>
        <time>2019-08-25T06:37:20.000Z</time>
      </trkpt>
      <trkpt lat="46.24725" lon="6.48485">
        <ele>1118.97</ele>
        <time>2019-08-25T06:37:22.000Z</time>
      </trkpt>
      <trkpt lat="46.24722" lon="6.48498">
        <ele>1118.8</ele>
        <time>2019-08-25T06:37:24.000Z</time>
      </trkpt>
      <trkpt lat="46.24715" lon="6.48515">
        <ele>1118.65</ele>
        <time>2019-08-25T06:37:27.000Z</time>
      </trkpt>
      <trkpt lat="46.24704" lon="6.48531">
        <ele>1118.46</ele>
        <time>2019-08-25T06:37:30.000Z</time>
      </trkpt>
      <trkpt lat="46.24695" lon="6.48537">
        <ele>1118.4</ele>
        <time>2019-08-25T06:37:32.000Z</time>
      </trkpt>
      <trkpt lat="46.24683" lon="6.48544">
        <ele>1118.49</ele>
        <time>2019-08-25T06:37:34.000Z</time>
      </trkpt>
      <trkpt lat="46.24674" lon="6.48557">
        <ele>1118.57</ele>
        <time>2019-08-25T06:37:36.000Z</time>
      </trkpt>
      <trkpt lat="46.2467" lon="6.4858">
        <ele>1118.53</ele>
        <time>2019-08-25T06:37:38.000Z</time>
      </trkpt>
      <trkpt lat="46.24671" lon="6.48605">
        <ele>1117.98</ele>
        <time>2019-08-25T06:37:41.000Z</time>
      </trkpt>
      <trkpt lat="46.24673" lon="6.4863">
        <ele>1117.7</ele>
        <time>2019-08-25T06:37:42.000Z</time>
      </trkpt>
      <trkpt lat="46.2468" lon="6.48667">
        <ele>1116.67</ele>
        <time>2019-08-25T06:37:45.000Z</time>
      </trkpt>
      <trkpt lat="46.24684" lon="6.48681">
        <ele>1116.24</ele>
        <time>2019-08-25T06:37:46.000Z</time>
      </trkpt>
      <trkpt lat="46.24688" lon="6.48709">
        <ele>1115.24</ele>
        <time>2019-08-25T06:37:48.000Z</time>
      </trkpt>
      <trkpt lat="46.2469" lon="6.48723">
        <ele>1114.57</ele>
        <time>2019-08-25T06:37:49.000Z</time>
      </trkpt>
      <trkpt lat="46.24695" lon="6.48748">
        <ele>1112.81</ele>
        <time>2019-08-25T06:37:51.000Z</time>
      </trkpt>
      <trkpt lat="46.24703" lon="6.4878">
        <ele>1109.74</ele>
        <time>2019-08-25T06:37:54.000Z</time>
      </trkpt>
      <trkpt lat="46.2471" lon="6.48809">
        <ele>1106.75</ele>
        <time>2019-08-25T06:37:57.000Z</time>
      </trkpt>
      <trkpt lat="46.24716" lon="6.48832">
        <ele>1104.59</ele>
        <time>2019-08-25T06:38:00.000Z</time>
      </trkpt>
      <trkpt lat="46.24721" lon="6.48855">
        <ele>1103.53</ele>
        <time>2019-08-25T06:38:03.000Z</time>
      </trkpt>
      <trkpt lat="46.2472" lon="6.48871">
        <ele>1103.27</ele>
        <time>2019-08-25T06:38:06.000Z</time>
      </trkpt>
      <trkpt lat="46.24721" lon="6.48887">
        <ele>1103.45</ele>
        <time>2019-08-25T06:38:09.000Z</time>
      </trkpt>
      <trkpt lat="46.2472" lon="6.48903">
        <ele>1104.14</ele>
        <time>2019-08-25T06:38:12.000Z</time>
      </trkpt>
      <trkpt lat="46.24722" lon="6.48918">
        <ele>1104.47</ele>
        <time>2019-08-25T06:38:14.000Z</time>
      </trkpt>
      <trkpt lat="46.24731" lon="6.4894">
        <ele>1104.81</ele>
        <time>2019-08-25T06:38:17.000Z</time>
      </trkpt>
      <trkpt lat="46.24737" lon="6.48959">
        <ele>1104.8</ele>
        <time>2019-08-25T06:38:19.000Z</time>
      </trkpt>
      <trkpt lat="46.24742" lon="6.48975">
        <ele>1104.72</ele>
        <time>2019-08-25T06:38:21.000Z</time>
      </trkpt>
      <trkpt lat="46.24747" lon="6.48996">
        <ele>1104.54</ele>
        <time>2019-08-25T06:38:23.000Z</time>
      </trkpt>
      <trkpt lat="46.24739" lon="6.49022">
        <ele>1104.19</ele>
        <time>2019-08-25T06:38:26.000Z</time>
      </trkpt>
      <trkpt lat="46.24727" lon="6.49042">
        <ele>1103.66</ele>
        <time>2019-08-25T06:38:29.000Z</time>
      </trkpt>
      <trkpt lat="46.2472" lon="6.49053">
        <ele>1103.22</ele>
        <time>2019-08-25T06:38:31.000Z</time>
      </trkpt>
      <trkpt lat="46.24707" lon="6.49057">
        <ele>1102.56</ele>
        <time>2019-08-25T06:38:34.000Z</time>
      </trkpt>
      <trkpt lat="46.24698" lon="6.49046">
        <ele>1101.77</ele>
        <time>2019-08-25T06:38:37.000Z</time>
      </trkpt>
      <trkpt lat="46.24689" lon="6.49043">
        <ele>1101.08</ele>
        <time>2019-08-25T06:38:40.000Z</time>
      </trkpt>
      <trkpt lat="46.24687" lon="6.49057">
        <ele>1099.9</ele>
        <time>2019-08-25T06:38:46.000Z</time>
      </trkpt>
      <trkpt lat="46.24688" lon="6.49072">
        <ele>1099.62</ele>
        <time>2019-08-25T06:38:52.000Z</time>
      </trkpt>
      <trkpt lat="46.24685" lon="6.49085">
        <ele>1100.83</ele>
        <time>2019-08-25T06:38:58.000Z</time>
      </trkpt>
      <trkpt lat="46.24677" lon="6.49098">
        <ele>1103.07</ele>
        <time>2019-08-25T06:39:04.000Z</time>
      </trkpt>
      <trkpt lat="46.24669" lon="6.49106">
        <ele>1105.73</ele>
        <time>2019-08-25T06:39:11.000Z</time>
      </trkpt>
      <trkpt lat="46.2466" lon="6.49113">
        <ele>1106.73</ele>
        <time>2019-08-25T06:39:15.000Z</time>
      </trkpt>
      <trkpt lat="46.24652" lon="6.49121">
        <ele>1108.35</ele>
        <time>2019-08-25T06:39:22.000Z</time>
      </trkpt>
      <trkpt lat="46.24643" lon="6.49127">
        <ele>1110.09</ele>
        <time>2019-08-25T06:39:28.000Z</time>
      </trkpt>
      <trkpt lat="46.24633" lon="6.49126">
        <ele>1112.05</ele>
        <time>2019-08-25T06:39:34.000Z</time>
      </trkpt>
      <trkpt lat="46.24621" lon="6.49121">
        <ele>1116.17</ele>
        <time>2019-08-25T06:39:47.000Z</time>
      </trkpt>
      <trkpt lat="46.24611" lon="6.49117">
        <ele>1117.56</ele>
        <time>2019-08-25T06:39:52.000Z</time>
      </trkpt>
      <trkpt lat="46.24601" lon="6.49124">
        <ele>1119.38</ele>
        <time>2019-08-25T06:40:00.000Z</time>
      </trkpt>
      <trkpt lat="46.24592" lon="6.49122">
        <ele>1120.52</ele>
        <time>2019-08-25T06:40:07.000Z</time>
      </trkpt>
      <trkpt lat="46.24581" lon="6.49114">
        <ele>1121.98</ele>
        <time>2019-08-25T06:40:13.000Z</time>
      </trkpt>
      <trkpt lat="46.24573" lon="6.49104">
        <ele>1122.6</ele>
        <time>2019-08-25T06:40:16.000Z</time>
      </trkpt>
      <trkpt lat="46.24566" lon="6.49094">
        <ele>1123.07</ele>
        <time>2019-08-25T06:40:19.000Z</time>
      </trkpt>
      <trkpt lat="46.24558" lon="6.49085">
        <ele>1123.91</ele>
        <time>2019-08-25T06:40:22.000Z</time>
      </trkpt>
      <trkpt lat="46.24546" lon="6.49073">
        <ele>1125.27</ele>
        <time>2019-08-25T06:40:27.000Z</time>
      </trkpt>
      <trkpt lat="46.24538" lon="6.49062">
        <ele>1125.6</ele>
        <time>2019-08-25T06:40:30.000Z</time>
      </trkpt>
      <trkpt lat="46.2453" lon="6.49046">
        <ele>1126.29</ele>
        <time>2019-08-25T06:40:34.000Z</time>
      </trkpt>
      <trkpt lat="46.24522" lon="6.4903">
        <ele>1126.65</ele>
        <time>2019-08-25T06:40:36.000Z</time>
      </trkpt>
      <trkpt lat="46.24512" lon="6.49008">
        <ele>1126.85</ele>
        <time>2019-08-25T06:40:38.000Z</time>
      </trkpt>
      <trkpt lat="46.24495" lon="6.48986">
        <ele>1127.09</ele>
        <time>2019-08-25T06:40:41.000Z</time>
      </trkpt>
      <trkpt lat="46.24485" lon="6.48973">
        <ele>1126.91</ele>
        <time>2019-08-25T06:40:43.000Z</time>
      </trkpt>
      <trkpt lat="46.24477" lon="6.48961">
        <ele>1126.43</ele>
        <time>2019-08-25T06:40:45.000Z</time>
      </trkpt>
      <trkpt lat="46.24464" lon="6.48932">
        <ele>1125.48</ele>
        <time>2019-08-25T06:40:48.000Z</time>
      </trkpt>
      <trkpt lat="46.24451" lon="6.48913">
        <ele>1124.31</ele>
        <time>2019-08-25T06:40:50.000Z</time>
      </trkpt>
      <trkpt lat="46.24441" lon="6.48896">
        <ele>1122.74</ele>
        <time>2019-08-25T06:40:52.000Z</time>
      </trkpt>
      <trkpt lat="46.24441" lon="6.48882">
        <ele>1120.69</ele>
        <time>2019-08-25T06:40:54.000Z</time>
      </trkpt>
      <trkpt lat="46.24441" lon="6.48869">
        <ele>1118.62</ele>
        <time>2019-08-25T06:40:56.000Z</time>
      </trkpt>
      <trkpt lat="46.24438" lon="6.48854">
        <ele>1114.73</ele>
        <time>2019-08-25T06:41:02.000Z</time>
      </trkpt>
      <trkpt lat="46.24434" lon="6.48834">
        <ele>1113.89</ele>
        <time>2019-08-25T06:41:07.000Z</time>
      </trkpt>
      <trkpt lat="46.24426" lon="6.4881">
        <ele>1114.98</ele>
        <time>2019-08-25T06:41:10.000Z</time>
      </trkpt>
      <trkpt lat="46.24425" lon="6.48796">
        <ele>1116.48</ele>
        <time>2019-08-25T06:41:14.000Z</time>
      </trkpt>
      <trkpt lat="46.24419" lon="6.48778">
        <ele>1116.89</ele>
        <time>2019-08-25T06:41:16.000Z</time>
      </trkpt>
      <trkpt lat="46.24415" lon="6.48765">
        <ele>1117.56</ele>
        <time>2019-08-25T06:41:19.000Z</time>
      </trkpt>
      <trkpt lat="46.24412" lon="6.48741">
        <ele>1117.78</ele>
        <time>2019-08-25T06:41:22.000Z</time>
      </trkpt>
      <trkpt lat="46.2441" lon="6.48727">
        <ele>1117.54</ele>
        <time>2019-08-25T06:41:24.000Z</time>
      </trkpt>
      <trkpt lat="46.24398" lon="6.48702">
        <ele>1116.87</ele>
        <time>2019-08-25T06:41:28.000Z</time>
      </trkpt>
      <trkpt lat="46.24386" lon="6.4869">
        <ele>1116.04</ele>
        <time>2019-08-25T06:41:31.000Z</time>
      </trkpt>
      <trkpt lat="46.24377" lon="6.48687">
        <ele>1115.13</ele>
        <time>2019-08-25T06:41:33.000Z</time>
      </trkpt>
      <trkpt lat="46.24367" lon="6.48676">
        <ele>1114.02</ele>
        <time>2019-08-25T06:41:35.000Z</time>
      </trkpt>
      <trkpt lat="46.24367" lon="6.48658">
        <ele>1112.52</ele>
        <time>2019-08-25T06:41:38.000Z</time>
      </trkpt>
      <trkpt lat="46.24381" lon="6.48636">
        <ele>1110.91</ele>
        <time>2019-08-25T06:41:41.000Z</time>
      </trkpt>
      <trkpt lat="46.2438" lon="6.48623">
        <ele>1109.19</ele>
        <time>2019-08-25T06:41:43.000Z</time>
      </trkpt>
      <trkpt lat="46.24372" lon="6.48604">
        <ele>1103.08</ele>
        <time>2019-08-25T06:41:49.000Z</time>
      </trkpt>
      <trkpt lat="46.24363" lon="6.48597">
        <ele>1100.46</ele>
        <time>2019-08-25T06:41:53.000Z</time>
      </trkpt>
      <trkpt lat="46.24348" lon="6.48592">
        <ele>1098.57</ele>
        <time>2019-08-25T06:41:57.000Z</time>
      </trkpt>
      <trkpt lat="46.24338" lon="6.48587">
        <ele>1098.16</ele>
        <time>2019-08-25T06:42:01.000Z</time>
      </trkpt>
      <trkpt lat="46.24326" lon="6.48581">
        <ele>1098.97</ele>
        <time>2019-08-25T06:42:05.000Z</time>
      </trkpt>
      <trkpt lat="46.24311" lon="6.48574">
        <ele>1099.89</ele>
        <time>2019-08-25T06:42:09.000Z</time>
      </trkpt>
      <trkpt lat="46.24298" lon="6.48567">
        <ele>1100.59</ele>
        <time>2019-08-25T06:42:12.000Z</time>
      </trkpt>
      <trkpt lat="46.24286" lon="6.48561">
        <ele>1101.68</ele>
        <time>2019-08-25T06:42:16.000Z</time>
      </trkpt>
      <trkpt lat="46.24274" lon="6.48553">
        <ele>1102.57</ele>
        <time>2019-08-25T06:42:19.000Z</time>
      </trkpt>
      <trkpt lat="46.24265" lon="6.48547">
        <ele>1103.41</ele>
        <time>2019-08-25T06:42:22.000Z</time>
      </trkpt>
      <trkpt lat="46.24255" lon="6.48539">
        <ele>1104.15</ele>
        <time>2019-08-25T06:42:25.000Z</time>
      </trkpt>
      <trkpt lat="46.24248" lon="6.48529">
        <ele>1104.76</ele>
        <time>2019-08-25T06:42:27.000Z</time>
      </trkpt>
      <trkpt lat="46.24239" lon="6.48515">
        <ele>1105.9</ele>
        <time>2019-08-25T06:42:31.000Z</time>
      </trkpt>
      <trkpt lat="46.2423" lon="6.48501">
        <ele>1106.53</ele>
        <time>2019-08-25T06:42:34.000Z</time>
      </trkpt>
      <trkpt lat="46.24221" lon="6.48489">
        <ele>1107.01</ele>
        <time>2019-08-25T06:42:37.000Z</time>
      </trkpt>
      <trkpt lat="46.24213" lon="6.48477">
        <ele>1107.5</ele>
        <time>2019-08-25T06:42:40.000Z</time>
      </trkpt>
      <trkpt lat="46.24207" lon="6.48461">
        <ele>1107.94</ele>
        <time>2019-08-25T06:42:43.000Z</time>
      </trkpt>
      <trkpt lat="46.24199" lon="6.48448">
        <ele>1108.24</ele>
        <time>2019-08-25T06:42:46.000Z</time>
      </trkpt>
      <trkpt lat="46.24192" lon="6.48434">
        <ele>1108.63</ele>
        <time>2019-08-25T06:42:49.000Z</time>
      </trkpt>
      <trkpt lat="46.24187" lon="6.48422">
        <ele>1108.86</ele>
        <time>2019-08-25T06:42:51.000Z</time>
      </trkpt>
      <trkpt lat="46.24176" lon="6.48404">
        <ele>1109.25</ele>
        <time>2019-08-25T06:42:55.000Z</time>
      </trkpt>
      <trkpt lat="46.24168" lon="6.48391">
        <ele>1109.49</ele>
        <time>2019-08-25T06:42:58.000Z</time>
      </trkpt>
      <trkpt lat="46.24162" lon="6.48376">
        <ele>1109.7</ele>
        <time>2019-08-25T06:43:01.000Z</time>
      </trkpt>
      <trkpt lat="46.24156" lon="6.48357">
        <ele>1109.92</ele>
        <time>2019-08-25T06:43:04.000Z</time>
      </trkpt>
      <trkpt lat="46.24154" lon="6.4834">
        <ele>1109.98</ele>
        <time>2019-08-25T06:43:06.000Z</time>
      </trkpt>
      <trkpt lat="46.24152" lon="6.48313">
        <ele>1109.87</ele>
        <time>2019-08-25T06:43:09.000Z</time>
      </trkpt>
      <trkpt lat="46.2414" lon="6.4829">
        <ele>1109.48</ele>
        <time>2019-08-25T06:43:12.000Z</time>
      </trkpt>
      <trkpt lat="46.2413" lon="6.48281">
        <ele>1109.08</ele>
        <time>2019-08-25T06:43:14.000Z</time>
      </trkpt>
      <trkpt lat="46.24122" lon="6.48271">
        <ele>1108.15</ele>
        <time>2019-08-25T06:43:18.000Z</time>
      </trkpt>
      <trkpt lat="46.24113" lon="6.4826">
        <ele>1107.54</ele>
        <time>2019-08-25T06:43:23.000Z</time>
      </trkpt>
      <trkpt lat="46.24104" lon="6.48249">
        <ele>1108.55</ele>
        <time>2019-08-25T06:43:30.000Z</time>
      </trkpt>
      <trkpt lat="46.24094" lon="6.48241">
        <ele>1110.14</ele>
        <time>2019-08-25T06:43:35.000Z</time>
      </trkpt>
      <trkpt lat="46.24082" lon="6.48233">
        <ele>1111.47</ele>
        <time>2019-08-25T06:43:40.000Z</time>
      </trkpt>
      <trkpt lat="46.24071" lon="6.48227">
        <ele>1112.64</ele>
        <time>2019-08-25T06:43:44.000Z</time>
      </trkpt>
      <trkpt lat="46.24062" lon="6.48219">
        <ele>1113.91</ele>
        <time>2019-08-25T06:43:48.000Z</time>
      </trkpt>
      <trkpt lat="46.24055" lon="6.48211">
        <ele>1114.46</ele>
        <time>2019-08-25T06:43:51.000Z</time>
      </trkpt>
      <trkpt lat="46.24046" lon="6.48206">
        <ele>1115.06</ele>
        <time>2019-08-25T06:43:55.000Z</time>
      </trkpt>
      <trkpt lat="46.24038" lon="6.48199">
        <ele>1115.84</ele>
        <time>2019-08-25T06:43:59.000Z</time>
      </trkpt>
      <trkpt lat="46.24025" lon="6.48193">
        <ele>1116.48</ele>
        <time>2019-08-25T06:44:04.000Z</time>
      </trkpt>
      <trkpt lat="46.24013" lon="6.48196">
        <ele>1117.62</ele>
        <time>2019-08-25T06:44:09.000Z</time>
      </trkpt>
      <trkpt lat="46.24001" lon="6.48198">
        <ele>1118.55</ele>
        <time>2019-08-25T06:44:13.000Z</time>
      </trkpt>
      <trkpt lat="46.23992" lon="6.48191">
        <ele>1119.53</ele>
        <time>2019-08-25T06:44:18.000Z</time>
      </trkpt>
      <trkpt lat="46.23988" lon="6.48178">
        <ele>1120.26</ele>
        <time>2019-08-25T06:44:21.000Z</time>
      </trkpt>
      <trkpt lat="46.23984" lon="6.48161">
        <ele>1121.24</ele>
        <time>2019-08-25T06:44:25.000Z</time>
      </trkpt>
      <trkpt lat="46.23973" lon="6.4815">
        <ele>1122.32</ele>
        <time>2019-08-25T06:44:29.000Z</time>
      </trkpt>
      <trkpt lat="46.23964" lon="6.48153">
        <ele>1123.26</ele>
        <time>2019-08-25T06:44:32.000Z</time>
      </trkpt>
      <trkpt lat="46.23952" lon="6.48157">
        <ele>1124.32</ele>
        <time>2019-08-25T06:44:36.000Z</time>
      </trkpt>
      <trkpt lat="46.2394" lon="6.48159">
        <ele>1125.02</ele>
        <time>2019-08-25T06:44:40.000Z</time>
      </trkpt>
      <trkpt lat="46.23929" lon="6.48156">
        <ele>1125.81</ele>
        <time>2019-08-25T06:44:45.000Z</time>
      </trkpt>
      <trkpt lat="46.2392" lon="6.48146">
        <ele>1126.43</ele>
        <time>2019-08-25T06:44:49.000Z</time>
      </trkpt>
      <trkpt lat="46.23913" lon="6.48133">
        <ele>1127.2</ele>
        <time>2019-08-25T06:44:53.000Z</time>
      </trkpt>
      <trkpt lat="46.23901" lon="6.48124">
        <ele>1128.46</ele>
        <time>2019-08-25T06:44:59.000Z</time>
      </trkpt>
      <trkpt lat="46.23891" lon="6.48115">
        <ele>1129.9</ele>
        <time>2019-08-25T06:45:04.000Z</time>
      </trkpt>
      <trkpt lat="46.23881" lon="6.48106">
        <ele>1130.78</ele>
        <time>2019-08-25T06:45:08.000Z</time>
      </trkpt>
      <trkpt lat="46.2387" lon="6.481">
        <ele>1131.45</ele>
        <time>2019-08-25T06:45:12.000Z</time>
      </trkpt>
      <trkpt lat="46.23862" lon="6.48094">
        <ele>1131.74</ele>
        <time>2019-08-25T06:45:15.000Z</time>
      </trkpt>
      <trkpt lat="46.23852" lon="6.48086">
        <ele>1131.95</ele>
        <time>2019-08-25T06:45:19.000Z</time>
      </trkpt>
      <trkpt lat="46.23841" lon="6.48075">
        <ele>1132.65</ele>
        <time>2019-08-25T06:45:25.000Z</time>
      </trkpt>
      <trkpt lat="46.23835" lon="6.48063">
        <ele>1133.88</ele>
        <time>2019-08-25T06:45:30.000Z</time>
      </trkpt>
      <trkpt lat="46.23825" lon="6.48058">
        <ele>1135.24</ele>
        <time>2019-08-25T06:45:34.000Z</time>
      </trkpt>
      <trkpt lat="46.23816" lon="6.48048">
        <ele>1136.25</ele>
        <time>2019-08-25T06:45:38.000Z</time>
      </trkpt>
      <trkpt lat="46.23806" lon="6.48039">
        <ele>1137.27</ele>
        <time>2019-08-25T06:45:42.000Z</time>
      </trkpt>
      <trkpt lat="46.23804" lon="6.48025">
        <ele>1137.77</ele>
        <time>2019-08-25T06:45:45.000Z</time>
      </trkpt>
      <trkpt lat="46.23801" lon="6.48013">
        <ele>1137.97</ele>
        <time>2019-08-25T06:45:48.000Z</time>
      </trkpt>
      <trkpt lat="46.23795" lon="6.47995">
        <ele>1138.99</ele>
        <time>2019-08-25T06:45:53.000Z</time>
      </trkpt>
      <trkpt lat="46.23787" lon="6.47984">
        <ele>1139.75</ele>
        <time>2019-08-25T06:45:57.000Z</time>
      </trkpt>
      <trkpt lat="46.2378" lon="6.47972">
        <ele>1140.39</ele>
        <time>2019-08-25T06:46:00.000Z</time>
      </trkpt>
      <trkpt lat="46.23771" lon="6.4796">
        <ele>1141.33</ele>
        <time>2019-08-25T06:46:03.000Z</time>
      </trkpt>
      <trkpt lat="46.23763" lon="6.47952">
        <ele>1142.06</ele>
        <time>2019-08-25T06:46:06.000Z</time>
      </trkpt>
      <trkpt lat="46.23755" lon="6.47943">
        <ele>1142.22</ele>
        <time>2019-08-25T06:46:09.000Z</time>
      </trkpt>
      <trkpt lat="46.23747" lon="6.47931">
        <ele>1142.73</ele>
        <time>2019-08-25T06:46:13.000Z</time>
      </trkpt>
      <trkpt lat="46.23742" lon="6.47912">
        <ele>1143.78</ele>
        <time>2019-08-25T06:46:17.000Z</time>
      </trkpt>
      <trkpt lat="46.2374" lon="6.4789">
        <ele>1144.9</ele>
        <time>2019-08-25T06:46:21.000Z</time>
      </trkpt>
      <trkpt lat="46.23746" lon="6.47866">
        <ele>1146.07</ele>
        <time>2019-08-25T06:46:24.000Z</time>
      </trkpt>
      <trkpt lat="46.23749" lon="6.47846">
        <ele>1147.92</ele>
        <time>2019-08-25T06:46:29.000Z</time>
      </trkpt>
      <trkpt lat="46.23748" lon="6.47829">
        <ele>1148.85</ele>
        <time>2019-08-25T06:46:33.000Z</time>
      </trkpt>
      <trkpt lat="46.23746" lon="6.47814">
        <ele>1149.39</ele>
        <time>2019-08-25T06:46:36.000Z</time>
      </trkpt>
      <trkpt lat="46.23748" lon="6.47791">
        <ele>1149.79</ele>
        <time>2019-08-25T06:46:40.000Z</time>
      </trkpt>
      <trkpt lat="46.23746" lon="6.47773">
        <ele>1150.36</ele>
        <time>2019-08-25T06:46:44.000Z</time>
      </trkpt>
      <trkpt lat="46.23744" lon="6.47757">
        <ele>1150.83</ele>
        <time>2019-08-25T06:46:46.000Z</time>
      </trkpt>
      <trkpt lat="46.23743" lon="6.47739">
        <ele>1151.74</ele>
        <time>2019-08-25T06:46:50.000Z</time>
      </trkpt>
      <trkpt lat="46.2374" lon="6.47723">
        <ele>1152.01</ele>
        <time>2019-08-25T06:46:53.000Z</time>
      </trkpt>
      <trkpt lat="46.2374" lon="6.47708">
        <ele>1152.35</ele>
        <time>2019-08-25T06:46:56.000Z</time>
      </trkpt>
      <trkpt lat="46.23738" lon="6.47693">
        <ele>1152.52</ele>
        <time>2019-08-25T06:46:58.000Z</time>
      </trkpt>
      <trkpt lat="46.23743" lon="6.47674">
        <ele>1152.68</ele>
        <time>2019-08-25T06:47:01.000Z</time>
      </trkpt>
      <trkpt lat="46.23746" lon="6.47658">
        <ele>1152.48</ele>
        <time>2019-08-25T06:47:04.000Z</time>
      </trkpt>
      <trkpt lat="46.23751" lon="6.47645">
        <ele>1152.34</ele>
        <time>2019-08-25T06:47:07.000Z</time>
      </trkpt>
      <trkpt lat="46.23754" lon="6.47629">
        <ele>1152.57</ele>
        <time>2019-08-25T06:47:11.000Z</time>
      </trkpt>
      <trkpt lat="46.23753" lon="6.47613">
        <ele>1152.95</ele>
        <time>2019-08-25T06:47:14.000Z</time>
      </trkpt>
      <trkpt lat="46.2375" lon="6.47601">
        <ele>1153.42</ele>
        <time>2019-08-25T06:47:17.000Z</time>
      </trkpt>
      <trkpt lat="46.23744" lon="6.47589">
        <ele>1154.13</ele>
        <time>2019-08-25T06:47:20.000Z</time>
      </trkpt>
      <trkpt lat="46.23736" lon="6.47581">
        <ele>1154.85</ele>
        <time>2019-08-25T06:47:23.000Z</time>
      </trkpt>
      <trkpt lat="46.23725" lon="6.47575">
        <ele>1155.88</ele>
        <time>2019-08-25T06:47:27.000Z</time>
      </trkpt>
      <trkpt lat="46.23713" lon="6.47574">
        <ele>1157.02</ele>
        <time>2019-08-25T06:47:31.000Z</time>
      </trkpt>
      <trkpt lat="46.23701" lon="6.47577">
        <ele>1158.25</ele>
        <time>2019-08-25T06:47:35.000Z</time>
      </trkpt>
      <trkpt lat="46.23693" lon="6.47581">
        <ele>1159.12</ele>
        <time>2019-08-25T06:47:38.000Z</time>
      </trkpt>
      <trkpt lat="46.2368" lon="6.4759">
        <ele>1160.53</ele>
        <time>2019-08-25T06:47:43.000Z</time>
      </trkpt>
      <trkpt lat="46.23669" lon="6.47596">
        <ele>1161.71</ele>
        <time>2019-08-25T06:47:47.000Z</time>
      </trkpt>
      <trkpt lat="46.23659" lon="6.47601">
        <ele>1162.94</ele>
        <time>2019-08-25T06:47:51.000Z</time>
      </trkpt>
      <trkpt lat="46.23648" lon="6.47604">
        <ele>1164.05</ele>
        <time>2019-08-25T06:47:55.000Z</time>
      </trkpt>
      <trkpt lat="46.23638" lon="6.47606">
        <ele>1165.22</ele>
        <time>2019-08-25T06:47:59.000Z</time>
      </trkpt>
      <trkpt lat="46.23624" lon="6.47611">
        <ele>1166.52</ele>
        <time>2019-08-25T06:48:03.000Z</time>
      </trkpt>
      <trkpt lat="46.23614" lon="6.47613">
        <ele>1167.13</ele>
        <time>2019-08-25T06:48:05.000Z</time>
      </trkpt>
      <trkpt lat="46.23605" lon="6.47615">
        <ele>1168.03</ele>
        <time>2019-08-25T06:48:08.000Z</time>
      </trkpt>
      <trkpt lat="46.23594" lon="6.47616">
        <ele>1168.93</ele>
        <time>2019-08-25T06:48:11.000Z</time>
      </trkpt>
      <trkpt lat="46.23584" lon="6.47617">
        <ele>1169.85</ele>
        <time>2019-08-25T06:48:14.000Z</time>
      </trkpt>
      <trkpt lat="46.2357" lon="6.47617">
        <ele>1170.57</ele>
        <time>2019-08-25T06:48:17.000Z</time>
      </trkpt>
      <trkpt lat="46.2356" lon="6.47619">
        <ele>1170.84</ele>
        <time>2019-08-25T06:48:21.000Z</time>
      </trkpt>
      <trkpt lat="46.23548" lon="6.4762">
        <ele>1171.23</ele>
        <time>2019-08-25T06:48:25.000Z</time>
      </trkpt>
      <trkpt lat="46.23537" lon="6.47624">
        <ele>1172.23</ele>
        <time>2019-08-25T06:48:29.000Z</time>
      </trkpt>
      <trkpt lat="46.23526" lon="6.47628">
        <ele>1173.57</ele>
        <time>2019-08-25T06:48:34.000Z</time>
      </trkpt>
      <trkpt lat="46.23517" lon="6.47631">
        <ele>1175.21</ele>
        <time>2019-08-25T06:48:38.000Z</time>
      </trkpt>
      <trkpt lat="46.23507" lon="6.47631">
        <ele>1176.85</ele>
        <time>2019-08-25T06:48:42.000Z</time>
      </trkpt>
      <trkpt lat="46.23496" lon="6.47623">
        <ele>1178.11</ele>
        <time>2019-08-25T06:48:46.000Z</time>
      </trkpt>
      <trkpt lat="46.23489" lon="6.47616">
        <ele>1178.75</ele>
        <time>2019-08-25T06:48:48.000Z</time>
      </trkpt>
      <trkpt lat="46.23475" lon="6.47608">
        <ele>1180.31</ele>
        <time>2019-08-25T06:48:52.000Z</time>
      </trkpt>
      <trkpt lat="46.23461" lon="6.47598">
        <ele>1181.13</ele>
        <time>2019-08-25T06:48:54.000Z</time>
      </trkpt>
      <trkpt lat="46.23448" lon="6.47595">
        <ele>1182.35</ele>
        <time>2019-08-25T06:48:58.000Z</time>
      </trkpt>
      <trkpt lat="46.23439" lon="6.47592">
        <ele>1183.09</ele>
        <time>2019-08-25T06:49:01.000Z</time>
      </trkpt>
      <trkpt lat="46.23428" lon="6.4759">
        <ele>1183.84</ele>
        <time>2019-08-25T06:49:04.000Z</time>
      </trkpt>
      <trkpt lat="46.23417" lon="6.47587">
        <ele>1184.24</ele>
        <time>2019-08-25T06:49:06.000Z</time>
      </trkpt>
      <trkpt lat="46.23403" lon="6.47589">
        <ele>1184.62</ele>
        <time>2019-08-25T06:49:08.000Z</time>
      </trkpt>
      <trkpt lat="46.23392" lon="6.47589">
        <ele>1184.85</ele>
        <time>2019-08-25T06:49:10.000Z</time>
      </trkpt>
      <trkpt lat="46.23376" lon="6.47599">
        <ele>1185.23</ele>
        <time>2019-08-25T06:49:13.000Z</time>
      </trkpt>
      <trkpt lat="46.23358" lon="6.47603">
        <ele>1185.49</ele>
        <time>2019-08-25T06:49:16.000Z</time>
      </trkpt>
      <trkpt lat="46.23347" lon="6.47607">
        <ele>1185.53</ele>
        <time>2019-08-25T06:49:18.000Z</time>
      </trkpt>
      <trkpt lat="46.23334" lon="6.47609">
        <ele>1185.48</ele>
        <time>2019-08-25T06:49:20.000Z</time>
      </trkpt>
      <trkpt lat="46.23324" lon="6.47616">
        <ele>1185.25</ele>
        <time>2019-08-25T06:49:22.000Z</time>
      </trkpt>
      <trkpt lat="46.23306" lon="6.47631">
        <ele>1184.68</ele>
        <time>2019-08-25T06:49:25.000Z</time>
      </trkpt>
      <trkpt lat="46.23294" lon="6.47654">
        <ele>1183.98</ele>
        <time>2019-08-25T06:49:28.000Z</time>
      </trkpt>
      <trkpt lat="46.23276" lon="6.47672">
        <ele>1183.17</ele>
        <time>2019-08-25T06:49:31.000Z</time>
      </trkpt>
      <trkpt lat="46.2326" lon="6.4768">
        <ele>1182.6</ele>
        <time>2019-08-25T06:49:34.000Z</time>
      </trkpt>
      <trkpt lat="46.23251" lon="6.47672">
        <ele>1182.39</ele>
        <time>2019-08-25T06:49:35.000Z</time>
      </trkpt>
      <trkpt lat="46.23241" lon="6.47681">
        <ele>1182.14</ele>
        <time>2019-08-25T06:49:37.000Z</time>
      </trkpt>
      <trkpt lat="46.23222" lon="6.47672">
        <ele>1181.83</ele>
        <time>2019-08-25T06:49:40.000Z</time>
      </trkpt>
      <trkpt lat="46.23212" lon="6.47666">
        <ele>1181.76</ele>
        <time>2019-08-25T06:49:41.000Z</time>
      </trkpt>
      <trkpt lat="46.23199" lon="6.47661">
        <ele>1181.66</ele>
        <time>2019-08-25T06:49:43.000Z</time>
      </trkpt>
      <trkpt lat="46.23187" lon="6.47659">
        <ele>1181.53</ele>
        <time>2019-08-25T06:49:45.000Z</time>
      </trkpt>
      <trkpt lat="46.23175" lon="6.47646">
        <ele>1181.34</ele>
        <time>2019-08-25T06:49:47.000Z</time>
      </trkpt>
      <trkpt lat="46.23166" lon="6.47635">
        <ele>1181.08</ele>
        <time>2019-08-25T06:49:49.000Z</time>
      </trkpt>
      <trkpt lat="46.23152" lon="6.47634">
        <ele>1180.92</ele>
        <time>2019-08-25T06:49:51.000Z</time>
      </trkpt>
      <trkpt lat="46.23135" lon="6.47635">
        <ele>1180.65</ele>
        <time>2019-08-25T06:49:53.000Z</time>
      </trkpt>
      <trkpt lat="46.2312" lon="6.4764">
        <ele>1180.29</ele>
        <time>2019-08-25T06:49:55.000Z</time>
      </trkpt>
      <trkpt lat="46.23102" lon="6.4764">
        <ele>1179.91</ele>
        <time>2019-08-25T06:49:57.000Z</time>
      </trkpt>
      <trkpt lat="46.23082" lon="6.47649">
        <ele>1179.58</ele>
        <time>2019-08-25T06:50:00.000Z</time>
      </trkpt>
      <trkpt lat="46.23065" lon="6.47664">
        <ele>1179.56</ele>
        <time>2019-08-25T06:50:03.000Z</time>
      </trkpt>
      <trkpt lat="46.23042" lon="6.47669">
        <ele>1179.41</ele>
        <time>2019-08-25T06:50:06.000Z</time>
      </trkpt>
      <trkpt lat="46.2303" lon="6.47676">
        <ele>1179.12</ele>
        <time>2019-08-25T06:50:08.000Z</time>
      </trkpt>
      <trkpt lat="46.23018" lon="6.47682">
        <ele>1178.83</ele>
        <time>2019-08-25T06:50:10.000Z</time>
      </trkpt>
      <trkpt lat="46.22997" lon="6.47689">
        <ele>1178.41</ele>
        <time>2019-08-25T06:50:13.000Z</time>
      </trkpt>
      <trkpt lat="46.22987" lon="6.47691">
        <ele>1178.26</ele>
        <time>2019-08-25T06:50:15.000Z</time>
      </trkpt>
      <trkpt lat="46.22974" lon="6.47694">
        <ele>1178.01</ele>
        <time>2019-08-25T06:50:17.000Z</time>
      </trkpt>
      <trkpt lat="46.22957" lon="6.47698">
        <ele>1177.65</ele>
        <time>2019-08-25T06:50:20.000Z</time>
      </trkpt>
      <trkpt lat="46.22941" lon="6.47703">
        <ele>1177.46</ele>
        <time>2019-08-25T06:50:23.000Z</time>
      </trkpt>
      <trkpt lat="46.22928" lon="6.47708">
        <ele>1177.71</ele>
        <time>2019-08-25T06:50:26.000Z</time>
      </trkpt>
      <trkpt lat="46.22921" lon="6.47716">
        <ele>1177.91</ele>
        <time>2019-08-25T06:50:28.000Z</time>
      </trkpt>
      <trkpt lat="46.2291" lon="6.47725">
        <ele>1178.22</ele>
        <time>2019-08-25T06:50:31.000Z</time>
      </trkpt>
      <trkpt lat="46.22899" lon="6.47736">
        <ele>1178.63</ele>
        <time>2019-08-25T06:50:34.000Z</time>
      </trkpt>
      <trkpt lat="46.2289" lon="6.47749">
        <ele>1179.16</ele>
        <time>2019-08-25T06:50:37.000Z</time>
      </trkpt>
      <trkpt lat="46.22884" lon="6.47766">
        <ele>1179.77</ele>
        <time>2019-08-25T06:50:40.000Z</time>
      </trkpt>
      <trkpt lat="46.22873" lon="6.47776">
        <ele>1180.41</ele>
        <time>2019-08-25T06:50:43.000Z</time>
      </trkpt>
      <trkpt lat="46.22858" lon="6.47777">
        <ele>1181.39</ele>
        <time>2019-08-25T06:50:47.000Z</time>
      </trkpt>
      <trkpt lat="46.22848" lon="6.47777">
        <ele>1181.81</ele>
        <time>2019-08-25T06:50:49.000Z</time>
      </trkpt>
      <trkpt lat="46.22838" lon="6.47776">
        <ele>1182.16</ele>
        <time>2019-08-25T06:50:51.000Z</time>
      </trkpt>
      <trkpt lat="46.22828" lon="6.47776">
        <ele>1182.41</ele>
        <time>2019-08-25T06:50:53.000Z</time>
      </trkpt>
      <trkpt lat="46.22819" lon="6.47778">
        <ele>1182.77</ele>
        <time>2019-08-25T06:50:58.000Z</time>
      </trkpt>
      <trkpt lat="46.22812" lon="6.4777">
        <ele>1181.16</ele>
        <time>2019-08-25T06:53:11.000Z</time>
      </trkpt>
      <trkpt lat="46.22799" lon="6.47766">
        <ele>1181.33</ele>
        <time>2019-08-25T06:53:14.000Z</time>
      </trkpt>
      <trkpt lat="46.22789" lon="6.47769">
        <ele>1181.51</ele>
        <time>2019-08-25T06:53:16.000Z</time>
      </trkpt>
      <trkpt lat="46.22779" lon="6.47769">
        <ele>1181.63</ele>
        <time>2019-08-25T06:53:18.000Z</time>
      </trkpt>
      <trkpt lat="46.22768" lon="6.47768">
        <ele>1181.74</ele>
        <time>2019-08-25T06:53:20.000Z</time>
      </trkpt>
      <trkpt lat="46.22753" lon="6.47766">
        <ele>1181.94</ele>
        <time>2019-08-25T06:53:23.000Z</time>
      </trkpt>
      <trkpt lat="46.22742" lon="6.47764">
        <ele>1182.15</ele>
        <time>2019-08-25T06:53:25.000Z</time>
      </trkpt>
      <trkpt lat="46.22731" lon="6.47764">
        <ele>1182.27</ele>
        <time>2019-08-25T06:53:27.000Z</time>
      </trkpt>
      <trkpt lat="46.2272" lon="6.47763">
        <ele>1182.28</ele>
        <time>2019-08-25T06:53:29.000Z</time>
      </trkpt>
      <trkpt lat="46.22709" lon="6.47761">
        <ele>1182.06</ele>
        <time>2019-08-25T06:53:31.000Z</time>
      </trkpt>
      <trkpt lat="46.22699" lon="6.4776">
        <ele>1181.83</ele>
        <time>2019-08-25T06:53:33.000Z</time>
      </trkpt>
      <trkpt lat="46.22689" lon="6.47758">
        <ele>1181.69</ele>
        <time>2019-08-25T06:53:35.000Z</time>
      </trkpt>
      <trkpt lat="46.22671" lon="6.47756">
        <ele>1181.6</ele>
        <time>2019-08-25T06:53:38.000Z</time>
      </trkpt>
      <trkpt lat="46.22659" lon="6.47751">
        <ele>1181.58</ele>
        <time>2019-08-25T06:53:40.000Z</time>
      </trkpt>
      <trkpt lat="46.22649" lon="6.47747">
        <ele>1181.66</ele>
        <time>2019-08-25T06:53:42.000Z</time>
      </trkpt>
      <trkpt lat="46.22639" lon="6.47741">
        <ele>1181.87</ele>
        <time>2019-08-25T06:53:44.000Z</time>
      </trkpt>
      <trkpt lat="46.22623" lon="6.47734">
        <ele>1182.37</ele>
        <time>2019-08-25T06:53:47.000Z</time>
      </trkpt>
      <trkpt lat="46.22611" lon="6.47732">
        <ele>1182.76</ele>
        <time>2019-08-25T06:53:49.000Z</time>
      </trkpt>
      <trkpt lat="46.226" lon="6.47731">
        <ele>1183.14</ele>
        <time>2019-08-25T06:53:51.000Z</time>
      </trkpt>
      <trkpt lat="46.2259" lon="6.4773">
        <ele>1183.49</ele>
        <time>2019-08-25T06:53:53.000Z</time>
      </trkpt>
      <trkpt lat="46.22577" lon="6.47713">
        <ele>1183.73</ele>
        <time>2019-08-25T06:53:56.000Z</time>
      </trkpt>
      <trkpt lat="46.22583" lon="6.47695">
        <ele>1183.62</ele>
        <time>2019-08-25T06:53:58.000Z</time>
      </trkpt>
      <trkpt lat="46.22589" lon="6.4767">
        <ele>1183.19</ele>
        <time>2019-08-25T06:54:01.000Z</time>
      </trkpt>
      <trkpt lat="46.22589" lon="6.47647">
        <ele>1182.74</ele>
        <time>2019-08-25T06:54:04.000Z</time>
      </trkpt>
      <trkpt lat="46.22586" lon="6.47633">
        <ele>1182.64</ele>
        <time>2019-08-25T06:54:06.000Z</time>
      </trkpt>
      <trkpt lat="46.22583" lon="6.47618">
        <ele>1182.52</ele>
        <time>2019-08-25T06:54:08.000Z</time>
      </trkpt>
      <trkpt lat="46.22581" lon="6.47605">
        <ele>1182.46</ele>
        <time>2019-08-25T06:54:10.000Z</time>
      </trkpt>
      <trkpt lat="46.22578" lon="6.4759">
        <ele>1182.46</ele>
        <time>2019-08-25T06:54:12.000Z</time>
      </trkpt>
      <trkpt lat="46.22571" lon="6.47581">
        <ele>1182.53</ele>
        <time>2019-08-25T06:54:14.000Z</time>
      </trkpt>
      <trkpt lat="46.22557" lon="6.47578">
        <ele>1183.01</ele>
        <time>2019-08-25T06:54:17.000Z</time>
      </trkpt>
      <trkpt lat="46.22545" lon="6.47583">
        <ele>1183.84</ele>
        <time>2019-08-25T06:54:21.000Z</time>
      </trkpt>
      <trkpt lat="46.22535" lon="6.47592">
        <ele>1184.81</ele>
        <time>2019-08-25T06:54:25.000Z</time>
      </trkpt>
      <trkpt lat="46.22527" lon="6.47599">
        <ele>1185.65</ele>
        <time>2019-08-25T06:54:28.000Z</time>
      </trkpt>
      <trkpt lat="46.22517" lon="6.47607">
        <ele>1186.59</ele>
        <time>2019-08-25T06:54:31.000Z</time>
      </trkpt>
      <trkpt lat="46.22506" lon="6.47617">
        <ele>1187.97</ele>
        <time>2019-08-25T06:54:35.000Z</time>
      </trkpt>
      <trkpt lat="46.22498" lon="6.47624">
        <ele>1188.97</ele>
        <time>2019-08-25T06:54:38.000Z</time>
      </trkpt>
      <trkpt lat="46.22488" lon="6.47631">
        <ele>1189.89</ele>
        <time>2019-08-25T06:54:41.000Z</time>
      </trkpt>
      <trkpt lat="46.22478" lon="6.47638">
        <ele>1191.11</ele>
        <time>2019-08-25T06:54:45.000Z</time>
      </trkpt>
      <trkpt lat="46.22469" lon="6.47642">
        <ele>1191.96</ele>
        <time>2019-08-25T06:54:48.000Z</time>
      </trkpt>
      <trkpt lat="46.22458" lon="6.47648">
        <ele>1193.2</ele>
        <time>2019-08-25T06:54:52.000Z</time>
      </trkpt>
      <trkpt lat="46.22448" lon="6.47653">
        <ele>1194.56</ele>
        <time>2019-08-25T06:54:56.000Z</time>
      </trkpt>
      <trkpt lat="46.22437" lon="6.47658">
        <ele>1195.92</ele>
        <time>2019-08-25T06:55:00.000Z</time>
      </trkpt>
      <trkpt lat="46.22427" lon="6.47665">
        <ele>1197.39</ele>
        <time>2019-08-25T06:55:04.000Z</time>
      </trkpt>
      <trkpt lat="46.22416" lon="6.47671">
        <ele>1198.65</ele>
        <time>2019-08-25T06:55:08.000Z</time>
      </trkpt>
      <trkpt lat="46.22401" lon="6.47677">
        <ele>1199.65</ele>
        <time>2019-08-25T06:55:13.000Z</time>
      </trkpt>
      <trkpt lat="46.22388" lon="6.47679">
        <ele>1200.51</ele>
        <time>2019-08-25T06:55:17.000Z</time>
      </trkpt>
      <trkpt lat="46.22373" lon="6.47681">
        <ele>1201.64</ele>
        <time>2019-08-25T06:55:22.000Z</time>
      </trkpt>
      <trkpt lat="46.22364" lon="6.47682">
        <ele>1202.38</ele>
        <time>2019-08-25T06:55:25.000Z</time>
      </trkpt>
      <trkpt lat="46.22353" lon="6.47685">
        <ele>1203.59</ele>
        <time>2019-08-25T06:55:29.000Z</time>
      </trkpt>
      <trkpt lat="46.22338" lon="6.4769">
        <ele>1204.77</ele>
        <time>2019-08-25T06:55:35.000Z</time>
      </trkpt>
      <trkpt lat="46.22329" lon="6.47694">
        <ele>1205.2</ele>
        <time>2019-08-25T06:55:38.000Z</time>
      </trkpt>
      <trkpt lat="46.22316" lon="6.47698">
        <ele>1206.04</ele>
        <time>2019-08-25T06:55:43.000Z</time>
      </trkpt>
      <trkpt lat="46.22306" lon="6.47701">
        <ele>1206.59</ele>
        <time>2019-08-25T06:55:46.000Z</time>
      </trkpt>
      <trkpt lat="46.22292" lon="6.47705">
        <ele>1207.53</ele>
        <time>2019-08-25T06:55:50.000Z</time>
      </trkpt>
      <trkpt lat="46.2228" lon="6.4771">
        <ele>1208.39</ele>
        <time>2019-08-25T06:55:54.000Z</time>
      </trkpt>
      <trkpt lat="46.22271" lon="6.47715">
        <ele>1208.67</ele>
        <time>2019-08-25T06:55:57.000Z</time>
      </trkpt>
      <trkpt lat="46.2226" lon="6.47722">
        <ele>1208.92</ele>
        <time>2019-08-25T06:56:01.000Z</time>
      </trkpt>
      <trkpt lat="46.22252" lon="6.47728">
        <ele>1209.31</ele>
        <time>2019-08-25T06:56:04.000Z</time>
      </trkpt>
      <trkpt lat="46.22244" lon="6.47738">
        <ele>1209.94</ele>
        <time>2019-08-25T06:56:08.000Z</time>
      </trkpt>
      <trkpt lat="46.22236" lon="6.47745">
        <ele>1210.86</ele>
        <time>2019-08-25T06:56:12.000Z</time>
      </trkpt>
      <trkpt lat="46.22226" lon="6.47746">
        <ele>1212.76</ele>
        <time>2019-08-25T06:56:18.000Z</time>
      </trkpt>
      <trkpt lat="46.22215" lon="6.4775">
        <ele>1214.03</ele>
        <time>2019-08-25T06:56:23.000Z</time>
      </trkpt>
      <trkpt lat="46.22203" lon="6.47754">
        <ele>1215.61</ele>
        <time>2019-08-25T06:56:29.000Z</time>
      </trkpt>
      <trkpt lat="46.22193" lon="6.47758">
        <ele>1217.55</ele>
        <time>2019-08-25T06:56:35.000Z</time>
      </trkpt>
      <trkpt lat="46.22183" lon="6.47764">
        <ele>1220.54</ele>
        <time>2019-08-25T06:56:43.000Z</time>
      </trkpt>
      <trkpt lat="46.22171" lon="6.4777">
        <ele>1223.78</ele>
        <time>2019-08-25T06:56:51.000Z</time>
      </trkpt>
      <trkpt lat="46.22163" lon="6.47777">
        <ele>1225.83</ele>
        <time>2019-08-25T06:56:57.000Z</time>
      </trkpt>
      <trkpt lat="46.22157" lon="6.47788">
        <ele>1228.04</ele>
        <time>2019-08-25T06:57:03.000Z</time>
      </trkpt>
      <trkpt lat="46.22151" lon="6.47798">
        <ele>1229.48</ele>
        <time>2019-08-25T06:57:08.000Z</time>
      </trkpt>
      <trkpt lat="46.22142" lon="6.4781">
        <ele>1231.92</ele>
        <time>2019-08-25T06:57:15.000Z</time>
      </trkpt>
      <trkpt lat="46.22133" lon="6.4782">
        <ele>1234.25</ele>
        <time>2019-08-25T06:57:22.000Z</time>
      </trkpt>
      <trkpt lat="46.22126" lon="6.47831">
        <ele>1236.15</ele>
        <time>2019-08-25T06:57:28.000Z</time>
      </trkpt>
      <trkpt lat="46.22119" lon="6.47841">
        <ele>1238.04</ele>
        <time>2019-08-25T06:57:35.000Z</time>
      </trkpt>
      <trkpt lat="46.22112" lon="6.47851">
        <ele>1239.43</ele>
        <time>2019-08-25T06:57:41.000Z</time>
      </trkpt>
      <trkpt lat="46.22103" lon="6.4786">
        <ele>1241.34</ele>
        <time>2019-08-25T06:57:47.000Z</time>
      </trkpt>
      <trkpt lat="46.22096" lon="6.47871">
        <ele>1243.96</ele>
        <time>2019-08-25T06:57:53.000Z</time>
      </trkpt>
      <trkpt lat="46.22089" lon="6.47883">
        <ele>1246.42</ele>
        <time>2019-08-25T06:58:00.000Z</time>
      </trkpt>
      <trkpt lat="46.22082" lon="6.47897">
        <ele>1248.29</ele>
        <time>2019-08-25T06:58:07.000Z</time>
      </trkpt>
      <trkpt lat="46.22073" lon="6.47904">
        <ele>1249.67</ele>
        <time>2019-08-25T06:58:13.000Z</time>
      </trkpt>
      <trkpt lat="46.22063" lon="6.47914">
        <ele>1251.49</ele>
        <time>2019-08-25T06:58:20.000Z</time>
      </trkpt>
      <trkpt lat="46.22057" lon="6.47925">
        <ele>1253.59</ele>
        <time>2019-08-25T06:58:26.000Z</time>
      </trkpt>
      <trkpt lat="46.22051" lon="6.47937">
        <ele>1255.26</ele>
        <time>2019-08-25T06:58:31.000Z</time>
      </trkpt>
      <trkpt lat="46.22041" lon="6.47949">
        <ele>1257.31</ele>
        <time>2019-08-25T06:58:37.000Z</time>
      </trkpt>
      <trkpt lat="46.22033" lon="6.47957">
        <ele>1259.02</ele>
        <time>2019-08-25T06:58:42.000Z</time>
      </trkpt>
      <trkpt lat="46.22023" lon="6.47964">
        <ele>1260.72</ele>
        <time>2019-08-25T06:58:47.000Z</time>
      </trkpt>
      <trkpt lat="46.22014" lon="6.47971">
        <ele>1262.05</ele>
        <time>2019-08-25T06:58:52.000Z</time>
      </trkpt>
      <trkpt lat="46.22006" lon="6.47978">
        <ele>1263.1</ele>
        <time>2019-08-25T06:58:56.000Z</time>
      </trkpt>
      <trkpt lat="46.21998" lon="6.47986">
        <ele>1264.1</ele>
        <time>2019-08-25T06:59:00.000Z</time>
      </trkpt>
      <trkpt lat="46.21989" lon="6.47994">
        <ele>1265.6</ele>
        <time>2019-08-25T06:59:05.000Z</time>
      </trkpt>
      <trkpt lat="46.2198" lon="6.48001">
        <ele>1267.48</ele>
        <time>2019-08-25T06:59:11.000Z</time>
      </trkpt>
      <trkpt lat="46.21971" lon="6.48008">
        <ele>1270.11</ele>
        <time>2019-08-25T06:59:18.000Z</time>
      </trkpt>
      <trkpt lat="46.21962" lon="6.48007">
        <ele>1273.82</ele>
        <time>2019-08-25T06:59:33.000Z</time>
      </trkpt>
      <trkpt lat="46.21952" lon="6.48008">
        <ele>1274.8</ele>
        <time>2019-08-25T06:59:38.000Z</time>
      </trkpt>
      <trkpt lat="46.21944" lon="6.48017">
        <ele>1277.38</ele>
        <time>2019-08-25T06:59:46.000Z</time>
      </trkpt>
      <trkpt lat="46.21936" lon="6.48026">
        <ele>1281.2</ele>
        <time>2019-08-25T07:00:01.000Z</time>
      </trkpt>
      <trkpt lat="46.21928" lon="6.48034">
        <ele>1281.39</ele>
        <time>2019-08-25T07:00:05.000Z</time>
      </trkpt>
      <trkpt lat="46.21917" lon="6.48046">
        <ele>1282.26</ele>
        <time>2019-08-25T07:00:10.000Z</time>
      </trkpt>
      <trkpt lat="46.21909" lon="6.48057">
        <ele>1283.33</ele>
        <time>2019-08-25T07:00:14.000Z</time>
      </trkpt>
      <trkpt lat="46.21901" lon="6.4807">
        <ele>1285</ele>
        <time>2019-08-25T07:00:19.000Z</time>
      </trkpt>
      <trkpt lat="46.21894" lon="6.48083">
        <ele>1286.15</ele>
        <time>2019-08-25T07:00:23.000Z</time>
      </trkpt>
      <trkpt lat="46.21885" lon="6.48096">
        <ele>1287.84</ele>
        <time>2019-08-25T07:00:28.000Z</time>
      </trkpt>
      <trkpt lat="46.21877" lon="6.48106">
        <ele>1289.33</ele>
        <time>2019-08-25T07:00:32.000Z</time>
      </trkpt>
      <trkpt lat="46.2187" lon="6.48116">
        <ele>1290.41</ele>
        <time>2019-08-25T07:00:35.000Z</time>
      </trkpt>
      <trkpt lat="46.21861" lon="6.48126">
        <ele>1291.81</ele>
        <time>2019-08-25T07:00:39.000Z</time>
      </trkpt>
      <trkpt lat="46.21848" lon="6.48146">
        <ele>1292.8</ele>
        <time>2019-08-25T07:00:43.000Z</time>
      </trkpt>
      <trkpt lat="46.21837" lon="6.48167">
        <ele>1293.13</ele>
        <time>2019-08-25T07:00:47.000Z</time>
      </trkpt>
      <trkpt lat="46.21825" lon="6.48176">
        <ele>1293.25</ele>
        <time>2019-08-25T07:00:50.000Z</time>
      </trkpt>
      <trkpt lat="46.21816" lon="6.48182">
        <ele>1293.36</ele>
        <time>2019-08-25T07:00:52.000Z</time>
      </trkpt>
      <trkpt lat="46.21803" lon="6.48192">
        <ele>1293.36</ele>
        <time>2019-08-25T07:00:55.000Z</time>
      </trkpt>
      <trkpt lat="46.21796" lon="6.48202">
        <ele>1293.25</ele>
        <time>2019-08-25T07:00:59.000Z</time>
      </trkpt>
      <trkpt lat="46.21788" lon="6.48206">
        <ele>1294.13</ele>
        <time>2019-08-25T07:01:03.000Z</time>
      </trkpt>
      <trkpt lat="46.21775" lon="6.4821">
        <ele>1295.19</ele>
        <time>2019-08-25T07:01:07.000Z</time>
      </trkpt>
      <trkpt lat="46.21766" lon="6.48211">
        <ele>1295.78</ele>
        <time>2019-08-25T07:01:11.000Z</time>
      </trkpt>
      <trkpt lat="46.21754" lon="6.48206">
        <ele>1297.28</ele>
        <time>2019-08-25T07:01:15.000Z</time>
      </trkpt>
      <trkpt lat="46.21745" lon="6.482">
        <ele>1298.33</ele>
        <time>2019-08-25T07:01:18.000Z</time>
      </trkpt>
      <trkpt lat="46.21736" lon="6.4819">
        <ele>1298.67</ele>
        <time>2019-08-25T07:01:20.000Z</time>
      </trkpt>
      <trkpt lat="46.21728" lon="6.48181">
        <ele>1299.21</ele>
        <time>2019-08-25T07:01:23.000Z</time>
      </trkpt>
      <trkpt lat="46.21719" lon="6.4817">
        <ele>1299.94</ele>
        <time>2019-08-25T07:01:26.000Z</time>
      </trkpt>
      <trkpt lat="46.21702" lon="6.48176">
        <ele>1300.89</ele>
        <time>2019-08-25T07:01:31.000Z</time>
      </trkpt>
      <trkpt lat="46.21694" lon="6.48184">
        <ele>1301.25</ele>
        <time>2019-08-25T07:01:33.000Z</time>
      </trkpt>
      <trkpt lat="46.21687" lon="6.48192">
        <ele>1301.58</ele>
        <time>2019-08-25T07:01:35.000Z</time>
      </trkpt>
      <trkpt lat="46.21679" lon="6.482">
        <ele>1301.94</ele>
        <time>2019-08-25T07:01:37.000Z</time>
      </trkpt>
      <trkpt lat="46.21671" lon="6.48206">
        <ele>1302.21</ele>
        <time>2019-08-25T07:01:39.000Z</time>
      </trkpt>
      <trkpt lat="46.21657" lon="6.48209">
        <ele>1302.55</ele>
        <time>2019-08-25T07:01:42.000Z</time>
      </trkpt>
      <trkpt lat="46.21643" lon="6.48217">
        <ele>1302.78</ele>
        <time>2019-08-25T07:01:45.000Z</time>
      </trkpt>
      <trkpt lat="46.21626" lon="6.48235">
        <ele>1301.23</ele>
        <time>2019-08-25T07:01:48.000Z</time>
      </trkpt>
      <trkpt lat="46.21608" lon="6.48257">
        <ele>1299.02</ele>
        <time>2019-08-25T07:01:51.000Z</time>
      </trkpt>
      <trkpt lat="46.21603" lon="6.48268">
        <ele>1298.09</ele>
        <time>2019-08-25T07:01:52.000Z</time>
      </trkpt>
      <trkpt lat="46.21576" lon="6.48291">
        <ele>1295.99</ele>
        <time>2019-08-25T07:01:55.000Z</time>
      </trkpt>
      <trkpt lat="46.21555" lon="6.48299">
        <ele>1294.51</ele>
        <time>2019-08-25T07:01:57.000Z</time>
      </trkpt>
      <trkpt lat="46.21533" lon="6.48313">
        <ele>1292.51</ele>
        <time>2019-08-25T07:01:59.000Z</time>
      </trkpt>
      <trkpt lat="46.21523" lon="6.4832">
        <ele>1291.56</ele>
        <time>2019-08-25T07:02:00.000Z</time>
      </trkpt>
      <trkpt lat="46.21511" lon="6.48325">
        <ele>1290.57</ele>
        <time>2019-08-25T07:02:01.000Z</time>
      </trkpt>
      <trkpt lat="46.21488" lon="6.48327">
        <ele>1288.61</ele>
        <time>2019-08-25T07:02:03.000Z</time>
      </trkpt>
      <trkpt lat="46.21478" lon="6.48326">
        <ele>1287.43</ele>
        <time>2019-08-25T07:02:04.000Z</time>
      </trkpt>
      <trkpt lat="46.21458" lon="6.48323">
        <ele>1285.39</ele>
        <time>2019-08-25T07:02:06.000Z</time>
      </trkpt>
      <trkpt lat="46.21438" lon="6.48325">
        <ele>1283.04</ele>
        <time>2019-08-25T07:02:08.000Z</time>
      </trkpt>
      <trkpt lat="46.21428" lon="6.48328">
        <ele>1281.91</ele>
        <time>2019-08-25T07:02:09.000Z</time>
      </trkpt>
      <trkpt lat="46.21409" lon="6.48339">
        <ele>1278.97</ele>
        <time>2019-08-25T07:02:11.000Z</time>
      </trkpt>
      <trkpt lat="46.21399" lon="6.48343">
        <ele>1277.51</ele>
        <time>2019-08-25T07:02:12.000Z</time>
      </trkpt>
      <trkpt lat="46.21375" lon="6.48348">
        <ele>1273.03</ele>
        <time>2019-08-25T07:02:15.000Z</time>
      </trkpt>
      <trkpt lat="46.2136" lon="6.48343">
        <ele>1270.15</ele>
        <time>2019-08-25T07:02:17.000Z</time>
      </trkpt>
      <trkpt lat="46.21343" lon="6.48353">
        <ele>1267.24</ele>
        <time>2019-08-25T07:02:21.000Z</time>
      </trkpt>
      <trkpt lat="46.21334" lon="6.48359">
        <ele>1266.03</ele>
        <time>2019-08-25T07:02:23.000Z</time>
      </trkpt>
      <trkpt lat="46.21322" lon="6.48369">
        <ele>1266.68</ele>
        <time>2019-08-25T07:02:26.000Z</time>
      </trkpt>
      <trkpt lat="46.21313" lon="6.48375">
        <ele>1267.82</ele>
        <time>2019-08-25T07:02:29.000Z</time>
      </trkpt>
      <trkpt lat="46.21302" lon="6.48384">
        <ele>1269.5</ele>
        <time>2019-08-25T07:02:32.000Z</time>
      </trkpt>
      <trkpt lat="46.21292" lon="6.48385">
        <ele>1270.46</ele>
        <time>2019-08-25T07:02:34.000Z</time>
      </trkpt>
      <trkpt lat="46.21283" lon="6.48387">
        <ele>1271.47</ele>
        <time>2019-08-25T07:02:36.000Z</time>
      </trkpt>
      <trkpt lat="46.21274" lon="6.48394">
        <ele>1272.14</ele>
        <time>2019-08-25T07:02:38.000Z</time>
      </trkpt>
      <trkpt lat="46.21264" lon="6.48399">
        <ele>1272.47</ele>
        <time>2019-08-25T07:02:40.000Z</time>
      </trkpt>
      <trkpt lat="46.21255" lon="6.48406">
        <ele>1272.68</ele>
        <time>2019-08-25T07:02:42.000Z</time>
      </trkpt>
      <trkpt lat="46.21244" lon="6.48409">
        <ele>1272.85</ele>
        <time>2019-08-25T07:02:44.000Z</time>
      </trkpt>
      <trkpt lat="46.2123" lon="6.4841">
        <ele>1273.17</ele>
        <time>2019-08-25T07:02:47.000Z</time>
      </trkpt>
      <trkpt lat="46.21219" lon="6.48406">
        <ele>1273.15</ele>
        <time>2019-08-25T07:02:49.000Z</time>
      </trkpt>
      <trkpt lat="46.21208" lon="6.48405">
        <ele>1273.2</ele>
        <time>2019-08-25T07:02:51.000Z</time>
      </trkpt>
      <trkpt lat="46.21194" lon="6.48406">
        <ele>1273.27</ele>
        <time>2019-08-25T07:02:53.000Z</time>
      </trkpt>
      <trkpt lat="46.21182" lon="6.48407">
        <ele>1273.38</ele>
        <time>2019-08-25T07:02:55.000Z</time>
      </trkpt>
      <trkpt lat="46.2117" lon="6.48406">
        <ele>1273.7</ele>
        <time>2019-08-25T07:02:57.000Z</time>
      </trkpt>
      <trkpt lat="46.21155" lon="6.48407">
        <ele>1273.74</ele>
        <time>2019-08-25T07:02:59.000Z</time>
      </trkpt>
      <trkpt lat="46.21143" lon="6.4841">
        <ele>1273.27</ele>
        <time>2019-08-25T07:03:01.000Z</time>
      </trkpt>
      <trkpt lat="46.21131" lon="6.48413">
        <ele>1272.79</ele>
        <time>2019-08-25T07:03:03.000Z</time>
      </trkpt>
      <trkpt lat="46.21119" lon="6.48421">
        <ele>1272.51</ele>
        <time>2019-08-25T07:03:05.000Z</time>
      </trkpt>
      <trkpt lat="46.211" lon="6.4843">
        <ele>1272.37</ele>
        <time>2019-08-25T07:03:08.000Z</time>
      </trkpt>
      <trkpt lat="46.2109" lon="6.48438">
        <ele>1272.2</ele>
        <time>2019-08-25T07:03:10.000Z</time>
      </trkpt>
      <trkpt lat="46.21081" lon="6.48441">
        <ele>1271.66</ele>
        <time>2019-08-25T07:03:12.000Z</time>
      </trkpt>
      <trkpt lat="46.21069" lon="6.48442">
        <ele>1271.07</ele>
        <time>2019-08-25T07:03:15.000Z</time>
      </trkpt>
      <trkpt lat="46.2106" lon="6.48443">
        <ele>1271.45</ele>
        <time>2019-08-25T07:03:18.000Z</time>
      </trkpt>
      <trkpt lat="46.2105" lon="6.48448">
        <ele>1272.78</ele>
        <time>2019-08-25T07:03:22.000Z</time>
      </trkpt>
      <trkpt lat="46.21038" lon="6.4845">
        <ele>1274</ele>
        <time>2019-08-25T07:03:26.000Z</time>
      </trkpt>
      <trkpt lat="46.21027" lon="6.48451">
        <ele>1275.56</ele>
        <time>2019-08-25T07:03:30.000Z</time>
      </trkpt>
      <trkpt lat="46.21018" lon="6.48451">
        <ele>1276.86</ele>
        <time>2019-08-25T07:03:34.000Z</time>
      </trkpt>
      <trkpt lat="46.21006" lon="6.4844">
        <ele>1277.79</ele>
        <time>2019-08-25T07:03:38.000Z</time>
      </trkpt>
      <trkpt lat="46.20994" lon="6.48434">
        <ele>1278.9</ele>
        <time>2019-08-25T07:03:42.000Z</time>
      </trkpt>
      <trkpt lat="46.20979" lon="6.48434">
        <ele>1280.01</ele>
        <time>2019-08-25T07:03:47.000Z</time>
      </trkpt>
      <trkpt lat="46.20967" lon="6.48434">
        <ele>1281.14</ele>
        <time>2019-08-25T07:03:51.000Z</time>
      </trkpt>
      <trkpt lat="46.20954" lon="6.48433">
        <ele>1282.21</ele>
        <time>2019-08-25T07:03:55.000Z</time>
      </trkpt>
      <trkpt lat="46.20943" lon="6.48432">
        <ele>1282.9</ele>
        <time>2019-08-25T07:03:59.000Z</time>
      </trkpt>
      <trkpt lat="46.20932" lon="6.48432">
        <ele>1284.59</ele>
        <time>2019-08-25T07:04:03.000Z</time>
      </trkpt>
      <trkpt lat="46.20921" lon="6.48435">
        <ele>1286.81</ele>
        <time>2019-08-25T07:04:08.000Z</time>
      </trkpt>
      <trkpt lat="46.20909" lon="6.48438">
        <ele>1288.32</ele>
        <time>2019-08-25T07:04:12.000Z</time>
      </trkpt>
      <trkpt lat="46.20895" lon="6.48441">
        <ele>1289.26</ele>
        <time>2019-08-25T07:04:16.000Z</time>
      </trkpt>
      <trkpt lat="46.20884" lon="6.48446">
        <ele>1289.71</ele>
        <time>2019-08-25T07:04:20.000Z</time>
      </trkpt>
      <trkpt lat="46.20875" lon="6.48451">
        <ele>1290.15</ele>
        <time>2019-08-25T07:04:24.000Z</time>
      </trkpt>
      <trkpt lat="46.20864" lon="6.48459">
        <ele>1290.43</ele>
        <time>2019-08-25T07:04:28.000Z</time>
      </trkpt>
      <trkpt lat="46.20856" lon="6.48465">
        <ele>1291.34</ele>
        <time>2019-08-25T07:04:32.000Z</time>
      </trkpt>
      <trkpt lat="46.20846" lon="6.48469">
        <ele>1292.75</ele>
        <time>2019-08-25T07:04:36.000Z</time>
      </trkpt>
      <trkpt lat="46.20838" lon="6.48477">
        <ele>1294.44</ele>
        <time>2019-08-25T07:04:40.000Z</time>
      </trkpt>
      <trkpt lat="46.20829" lon="6.48484">
        <ele>1296.83</ele>
        <time>2019-08-25T07:04:44.000Z</time>
      </trkpt>
      <trkpt lat="46.2082" lon="6.48492">
        <ele>1298.87</ele>
        <time>2019-08-25T07:04:49.000Z</time>
      </trkpt>
      <trkpt lat="46.20811" lon="6.48501">
        <ele>1300.55</ele>
        <time>2019-08-25T07:04:54.000Z</time>
      </trkpt>
      <trkpt lat="46.20803" lon="6.48513">
        <ele>1302.23</ele>
        <time>2019-08-25T07:05:00.000Z</time>
      </trkpt>
      <trkpt lat="46.20793" lon="6.48521">
        <ele>1303.75</ele>
        <time>2019-08-25T07:05:05.000Z</time>
      </trkpt>
      <trkpt lat="46.20782" lon="6.4853">
        <ele>1305.42</ele>
        <time>2019-08-25T07:05:10.000Z</time>
      </trkpt>
      <trkpt lat="46.20774" lon="6.48536">
        <ele>1306.5</ele>
        <time>2019-08-25T07:05:14.000Z</time>
      </trkpt>
      <trkpt lat="46.20763" lon="6.48539">
        <ele>1307.67</ele>
        <time>2019-08-25T07:05:19.000Z</time>
      </trkpt>
      <trkpt lat="46.20751" lon="6.48535">
        <ele>1308.76</ele>
        <time>2019-08-25T07:05:24.000Z</time>
      </trkpt>
      <trkpt lat="46.20742" lon="6.4853">
        <ele>1309.37</ele>
        <time>2019-08-25T07:05:30.000Z</time>
      </trkpt>
      <trkpt lat="46.20732" lon="6.48523">
        <ele>1309.72</ele>
        <time>2019-08-25T07:05:33.000Z</time>
      </trkpt>
      <trkpt lat="46.20723" lon="6.48513">
        <ele>1310.1</ele>
        <time>2019-08-25T07:05:38.000Z</time>
      </trkpt>
      <trkpt lat="46.20715" lon="6.48504">
        <ele>1310.88</ele>
        <time>2019-08-25T07:05:42.000Z</time>
      </trkpt>
      <trkpt lat="46.20708" lon="6.48497">
        <ele>1312.07</ele>
        <time>2019-08-25T07:05:46.000Z</time>
      </trkpt>
      <trkpt lat="46.20699" lon="6.48486">
        <ele>1314.17</ele>
        <time>2019-08-25T07:05:51.000Z</time>
      </trkpt>
      <trkpt lat="46.20691" lon="6.48475">
        <ele>1315.81</ele>
        <time>2019-08-25T07:05:56.000Z</time>
      </trkpt>
      <trkpt lat="46.20684" lon="6.48463">
        <ele>1317.55</ele>
        <time>2019-08-25T07:06:01.000Z</time>
      </trkpt>
      <trkpt lat="46.20679" lon="6.48452">
        <ele>1318.43</ele>
        <time>2019-08-25T07:06:05.000Z</time>
      </trkpt>
      <trkpt lat="46.20673" lon="6.48438">
        <ele>1319.16</ele>
        <time>2019-08-25T07:06:10.000Z</time>
      </trkpt>
      <trkpt lat="46.20669" lon="6.48421">
        <ele>1320.26</ele>
        <time>2019-08-25T07:06:15.000Z</time>
      </trkpt>
      <trkpt lat="46.20667" lon="6.48407">
        <ele>1320.89</ele>
        <time>2019-08-25T07:06:19.000Z</time>
      </trkpt>
      <trkpt lat="46.20667" lon="6.4839">
        <ele>1322.29</ele>
        <time>2019-08-25T07:06:23.000Z</time>
      </trkpt>
      <trkpt lat="46.20671" lon="6.48373">
        <ele>1323.59</ele>
        <time>2019-08-25T07:06:27.000Z</time>
      </trkpt>
      <trkpt lat="46.20678" lon="6.48364">
        <ele>1324.28</ele>
        <time>2019-08-25T07:06:30.000Z</time>
      </trkpt>
      <trkpt lat="46.20687" lon="6.48353">
        <ele>1325.07</ele>
        <time>2019-08-25T07:06:34.000Z</time>
      </trkpt>
      <trkpt lat="46.20694" lon="6.48346">
        <ele>1325.7</ele>
        <time>2019-08-25T07:06:37.000Z</time>
      </trkpt>
      <trkpt lat="46.20703" lon="6.48341">
        <ele>1326.09</ele>
        <time>2019-08-25T07:06:40.000Z</time>
      </trkpt>
      <trkpt lat="46.20714" lon="6.4834">
        <ele>1326.46</ele>
        <time>2019-08-25T07:06:44.000Z</time>
      </trkpt>
      <trkpt lat="46.20726" lon="6.48342">
        <ele>1327.72</ele>
        <time>2019-08-25T07:06:48.000Z</time>
      </trkpt>
      <trkpt lat="46.20735" lon="6.48342">
        <ele>1328.82</ele>
        <time>2019-08-25T07:06:51.000Z</time>
      </trkpt>
      <trkpt lat="46.20746" lon="6.48341">
        <ele>1329.76</ele>
        <time>2019-08-25T07:06:55.000Z</time>
      </trkpt>
      <trkpt lat="46.20759" lon="6.48343">
        <ele>1330.86</ele>
        <time>2019-08-25T07:07:00.000Z</time>
      </trkpt>
      <trkpt lat="46.2077" lon="6.48342">
        <ele>1331.68</ele>
        <time>2019-08-25T07:07:04.000Z</time>
      </trkpt>
      <trkpt lat="46.20781" lon="6.48342">
        <ele>1332.58</ele>
        <time>2019-08-25T07:07:08.000Z</time>
      </trkpt>
      <trkpt lat="46.20792" lon="6.48344">
        <ele>1333.77</ele>
        <time>2019-08-25T07:07:12.000Z</time>
      </trkpt>
      <trkpt lat="46.20801" lon="6.48346">
        <ele>1334.56</ele>
        <time>2019-08-25T07:07:15.000Z</time>
      </trkpt>
      <trkpt lat="46.20811" lon="6.48349">
        <ele>1335.64</ele>
        <time>2019-08-25T07:07:19.000Z</time>
      </trkpt>
      <trkpt lat="46.20822" lon="6.48353">
        <ele>1337.11</ele>
        <time>2019-08-25T07:07:23.000Z</time>
      </trkpt>
      <trkpt lat="46.20833" lon="6.48349">
        <ele>1338.29</ele>
        <time>2019-08-25T07:07:27.000Z</time>
      </trkpt>
      <trkpt lat="46.20835" lon="6.48336">
        <ele>1338.87</ele>
        <time>2019-08-25T07:07:31.000Z</time>
      </trkpt>
      <trkpt lat="46.20831" lon="6.48319">
        <ele>1339.28</ele>
        <time>2019-08-25T07:07:36.000Z</time>
      </trkpt>
      <trkpt lat="46.20826" lon="6.48304">
        <ele>1339.39</ele>
        <time>2019-08-25T07:07:38.000Z</time>
      </trkpt>
      <trkpt lat="46.20821" lon="6.48292">
        <ele>1339.72</ele>
        <time>2019-08-25T07:07:42.000Z</time>
      </trkpt>
      <trkpt lat="46.2081" lon="6.48282">
        <ele>1341.27</ele>
        <time>2019-08-25T07:07:46.000Z</time>
      </trkpt>
      <trkpt lat="46.20797" lon="6.48277">
        <ele>1343.55</ele>
        <time>2019-08-25T07:07:50.000Z</time>
      </trkpt>
      <trkpt lat="46.20785" lon="6.48275">
        <ele>1345.92</ele>
        <time>2019-08-25T07:07:54.000Z</time>
      </trkpt>
      <trkpt lat="46.20775" lon="6.48274">
        <ele>1347.74</ele>
        <time>2019-08-25T07:07:57.000Z</time>
      </trkpt>
      <trkpt lat="46.2076" lon="6.48271">
        <ele>1349.48</ele>
        <time>2019-08-25T07:08:01.000Z</time>
      </trkpt>
      <trkpt lat="46.20743" lon="6.48264">
        <ele>1350.67</ele>
        <time>2019-08-25T07:08:05.000Z</time>
      </trkpt>
      <trkpt lat="46.20733" lon="6.48259">
        <ele>1351.47</ele>
        <time>2019-08-25T07:08:09.000Z</time>
      </trkpt>
      <trkpt lat="46.20725" lon="6.48252">
        <ele>1352.19</ele>
        <time>2019-08-25T07:08:12.000Z</time>
      </trkpt>
      <trkpt lat="46.20718" lon="6.48244">
        <ele>1353.23</ele>
        <time>2019-08-25T07:08:15.000Z</time>
      </trkpt>
      <trkpt lat="46.20713" lon="6.48231">
        <ele>1354.25</ele>
        <time>2019-08-25T07:08:18.000Z</time>
      </trkpt>
      <trkpt lat="46.20709" lon="6.48215">
        <ele>1355.01</ele>
        <time>2019-08-25T07:08:20.000Z</time>
      </trkpt>
      <trkpt lat="46.20705" lon="6.48199">
        <ele>1357.21</ele>
        <time>2019-08-25T07:08:24.000Z</time>
      </trkpt>
      <trkpt lat="46.20704" lon="6.48184">
        <ele>1359.1</ele>
        <time>2019-08-25T07:08:28.000Z</time>
      </trkpt>
      <trkpt lat="46.20702" lon="6.48168">
        <ele>1359.94</ele>
        <time>2019-08-25T07:08:31.000Z</time>
      </trkpt>
      <trkpt lat="46.207" lon="6.48155">
        <ele>1360.99</ele>
        <time>2019-08-25T07:08:34.000Z</time>
      </trkpt>
      <trkpt lat="46.20695" lon="6.48136">
        <ele>1362.7</ele>
        <time>2019-08-25T07:08:39.000Z</time>
      </trkpt>
      <trkpt lat="46.2069" lon="6.48122">
        <ele>1363.99</ele>
        <time>2019-08-25T07:08:42.000Z</time>
      </trkpt>
      <trkpt lat="46.20682" lon="6.48108">
        <ele>1365.22</ele>
        <time>2019-08-25T07:08:46.000Z</time>
      </trkpt>
      <trkpt lat="46.20674" lon="6.48097">
        <ele>1366.71</ele>
        <time>2019-08-25T07:08:50.000Z</time>
      </trkpt>
      <trkpt lat="46.20665" lon="6.48087">
        <ele>1367.95</ele>
        <time>2019-08-25T07:08:54.000Z</time>
      </trkpt>
      <trkpt lat="46.20657" lon="6.48076">
        <ele>1369</ele>
        <time>2019-08-25T07:08:58.000Z</time>
      </trkpt>
      <trkpt lat="46.20648" lon="6.48066">
        <ele>1370</ele>
        <time>2019-08-25T07:09:02.000Z</time>
      </trkpt>
      <trkpt lat="46.2064" lon="6.48057">
        <ele>1371.47</ele>
        <time>2019-08-25T07:09:06.000Z</time>
      </trkpt>
      <trkpt lat="46.2063" lon="6.48045">
        <ele>1373.94</ele>
        <time>2019-08-25T07:09:11.000Z</time>
      </trkpt>
      <trkpt lat="46.2062" lon="6.48039">
        <ele>1375.84</ele>
        <time>2019-08-25T07:09:15.000Z</time>
      </trkpt>
      <trkpt lat="46.2061" lon="6.4803">
        <ele>1378.06</ele>
        <time>2019-08-25T07:09:19.000Z</time>
      </trkpt>
      <trkpt lat="46.206" lon="6.48017">
        <ele>1379.47</ele>
        <time>2019-08-25T07:09:23.000Z</time>
      </trkpt>
      <trkpt lat="46.20594" lon="6.48006">
        <ele>1379.87</ele>
        <time>2019-08-25T07:09:26.000Z</time>
      </trkpt>
      <trkpt lat="46.20589" lon="6.47995">
        <ele>1380.16</ele>
        <time>2019-08-25T07:09:29.000Z</time>
      </trkpt>
      <trkpt lat="46.20583" lon="6.47975">
        <ele>1380.46</ele>
        <time>2019-08-25T07:09:34.000Z</time>
      </trkpt>
      <trkpt lat="46.2058" lon="6.4796">
        <ele>1380.69</ele>
        <time>2019-08-25T07:09:38.000Z</time>
      </trkpt>
      <trkpt lat="46.20577" lon="6.47945">
        <ele>1381.67</ele>
        <time>2019-08-25T07:09:42.000Z</time>
      </trkpt>
      <trkpt lat="46.20575" lon="6.47927">
        <ele>1384.02</ele>
        <time>2019-08-25T07:09:47.000Z</time>
      </trkpt>
      <trkpt lat="46.20572" lon="6.47907">
        <ele>1386.34</ele>
        <time>2019-08-25T07:09:52.000Z</time>
      </trkpt>
      <trkpt lat="46.2057" lon="6.47893">
        <ele>1388.15</ele>
        <time>2019-08-25T07:09:56.000Z</time>
      </trkpt>
      <trkpt lat="46.20568" lon="6.47879">
        <ele>1389.05</ele>
        <time>2019-08-25T07:10:00.000Z</time>
      </trkpt>
      <trkpt lat="46.20564" lon="6.47864">
        <ele>1389.33</ele>
        <time>2019-08-25T07:10:04.000Z</time>
      </trkpt>
      <trkpt lat="46.20561" lon="6.47848">
        <ele>1390.16</ele>
        <time>2019-08-25T07:10:08.000Z</time>
      </trkpt>
      <trkpt lat="46.2056" lon="6.47835">
        <ele>1390.73</ele>
        <time>2019-08-25T07:10:11.000Z</time>
      </trkpt>
      <trkpt lat="46.2056" lon="6.47819">
        <ele>1392.1</ele>
        <time>2019-08-25T07:10:15.000Z</time>
      </trkpt>
      <trkpt lat="46.2056" lon="6.47804">
        <ele>1393.95</ele>
        <time>2019-08-25T07:10:19.000Z</time>
      </trkpt>
      <trkpt lat="46.20562" lon="6.4779">
        <ele>1394.6</ele>
        <time>2019-08-25T07:10:22.000Z</time>
      </trkpt>
      <trkpt lat="46.20562" lon="6.47777">
        <ele>1395.17</ele>
        <time>2019-08-25T07:10:25.000Z</time>
      </trkpt>
      <trkpt lat="46.20563" lon="6.47763">
        <ele>1395.82</ele>
        <time>2019-08-25T07:10:28.000Z</time>
      </trkpt>
      <trkpt lat="46.20565" lon="6.47736">
        <ele>1396.79</ele>
        <time>2019-08-25T07:10:32.000Z</time>
      </trkpt>
      <trkpt lat="46.20567" lon="6.47715">
        <ele>1397.82</ele>
        <time>2019-08-25T07:10:36.000Z</time>
      </trkpt>
      <trkpt lat="46.20568" lon="6.47692">
        <ele>1399.23</ele>
        <time>2019-08-25T07:10:40.000Z</time>
      </trkpt>
      <trkpt lat="46.20568" lon="6.47675">
        <ele>1400.42</ele>
        <time>2019-08-25T07:10:43.000Z</time>
      </trkpt>
      <trkpt lat="46.20568" lon="6.47658">
        <ele>1401.18</ele>
        <time>2019-08-25T07:10:46.000Z</time>
      </trkpt>
      <trkpt lat="46.20569" lon="6.4764">
        <ele>1401.25</ele>
        <time>2019-08-25T07:10:49.000Z</time>
      </trkpt>
      <trkpt lat="46.20571" lon="6.47618">
        <ele>1401.87</ele>
        <time>2019-08-25T07:10:53.000Z</time>
      </trkpt>
      <trkpt lat="46.20574" lon="6.47597">
        <ele>1402.88</ele>
        <time>2019-08-25T07:10:57.000Z</time>
      </trkpt>
      <trkpt lat="46.20576" lon="6.47583">
        <ele>1403.29</ele>
        <time>2019-08-25T07:11:00.000Z</time>
      </trkpt>
      <trkpt lat="46.20577" lon="6.47555">
        <ele>1404.85</ele>
        <time>2019-08-25T07:11:06.000Z</time>
      </trkpt>
      <trkpt lat="46.20575" lon="6.47534">
        <ele>1406.43</ele>
        <time>2019-08-25T07:11:09.000Z</time>
      </trkpt>
      <trkpt lat="46.20572" lon="6.47513">
        <ele>1407.54</ele>
        <time>2019-08-25T07:11:13.000Z</time>
      </trkpt>
      <trkpt lat="46.20569" lon="6.47498">
        <ele>1408.09</ele>
        <time>2019-08-25T07:11:16.000Z</time>
      </trkpt>
      <trkpt lat="46.20565" lon="6.47477">
        <ele>1408.6</ele>
        <time>2019-08-25T07:11:20.000Z</time>
      </trkpt>
      <trkpt lat="46.20558" lon="6.47457">
        <ele>1408.54</ele>
        <time>2019-08-25T07:11:24.000Z</time>
      </trkpt>
      <trkpt lat="46.20551" lon="6.47444">
        <ele>1408.33</ele>
        <time>2019-08-25T07:11:27.000Z</time>
      </trkpt>
      <trkpt lat="46.20545" lon="6.47428">
        <ele>1408.62</ele>
        <time>2019-08-25T07:11:30.000Z</time>
      </trkpt>
      <trkpt lat="46.20538" lon="6.47412">
        <ele>1409.18</ele>
        <time>2019-08-25T07:11:32.000Z</time>
      </trkpt>
      <trkpt lat="46.20532" lon="6.47402">
        <ele>1410.39</ele>
        <time>2019-08-25T07:11:35.000Z</time>
      </trkpt>
      <trkpt lat="46.20527" lon="6.47386">
        <ele>1411.08</ele>
        <time>2019-08-25T07:11:37.000Z</time>
      </trkpt>
      <trkpt lat="46.20521" lon="6.47371">
        <ele>1412.24</ele>
        <time>2019-08-25T07:11:40.000Z</time>
      </trkpt>
      <trkpt lat="46.20519" lon="6.47356">
        <ele>1413.68</ele>
        <time>2019-08-25T07:11:43.000Z</time>
      </trkpt>
      <trkpt lat="46.20522" lon="6.4734">
        <ele>1415.1</ele>
        <time>2019-08-25T07:11:46.000Z</time>
      </trkpt>
      <trkpt lat="46.20533" lon="6.47328">
        <ele>1416.24</ele>
        <time>2019-08-25T07:11:51.000Z</time>
      </trkpt>
      <trkpt lat="46.20543" lon="6.47322">
        <ele>1416.68</ele>
        <time>2019-08-25T07:11:55.000Z</time>
      </trkpt>
      <trkpt lat="46.20552" lon="6.47315">
        <ele>1416.7</ele>
        <time>2019-08-25T07:11:56.000Z</time>
      </trkpt>
      <trkpt lat="46.20566" lon="6.47316">
        <ele>1416.48</ele>
        <time>2019-08-25T07:11:59.000Z</time>
      </trkpt>
      <trkpt lat="46.20578" lon="6.47321">
        <ele>1415.83</ele>
        <time>2019-08-25T07:12:02.000Z</time>
      </trkpt>
      <trkpt lat="46.20589" lon="6.47328">
        <ele>1415.28</ele>
        <time>2019-08-25T07:12:09.000Z</time>
      </trkpt>
      <trkpt lat="46.20597" lon="6.47334">
        <ele>1415.16</ele>
        <time>2019-08-25T07:12:13.000Z</time>
      </trkpt>
      <trkpt lat="46.20606" lon="6.4734">
        <ele>1416.28</ele>
        <time>2019-08-25T07:12:18.000Z</time>
      </trkpt>
      <trkpt lat="46.20615" lon="6.47348">
        <ele>1418.07</ele>
        <time>2019-08-25T07:12:23.000Z</time>
      </trkpt>
      <trkpt lat="46.20623" lon="6.47358">
        <ele>1420.15</ele>
        <time>2019-08-25T07:12:28.000Z</time>
      </trkpt>
      <trkpt lat="46.20633" lon="6.47368">
        <ele>1421.6</ele>
        <time>2019-08-25T07:12:37.000Z</time>
      </trkpt>
      <trkpt lat="46.20645" lon="6.47372">
        <ele>1421.55</ele>
        <time>2019-08-25T07:12:38.000Z</time>
      </trkpt>
      <trkpt lat="46.20654" lon="6.47371">
        <ele>1421.5</ele>
        <time>2019-08-25T07:12:41.000Z</time>
      </trkpt>
      <trkpt lat="46.20663" lon="6.47368">
        <ele>1421.55</ele>
        <time>2019-08-25T07:12:44.000Z</time>
      </trkpt>
      <trkpt lat="46.20674" lon="6.47361">
        <ele>1421.4</ele>
        <time>2019-08-25T07:12:47.000Z</time>
      </trkpt>
      <trkpt lat="46.20687" lon="6.47357">
        <ele>1421.35</ele>
        <time>2019-08-25T07:12:51.000Z</time>
      </trkpt>
      <trkpt lat="46.20696" lon="6.47362">
        <ele>1421.41</ele>
        <time>2019-08-25T07:12:55.000Z</time>
      </trkpt>
      <trkpt lat="46.20705" lon="6.4737">
        <ele>1421.6</ele>
        <time>2019-08-25T07:13:00.000Z</time>
      </trkpt>
      <trkpt lat="46.20715" lon="6.4738">
        <ele>1422.66</ele>
        <time>2019-08-25T07:13:07.000Z</time>
      </trkpt>
      <trkpt lat="46.20724" lon="6.47385">
        <ele>1424.57</ele>
        <time>2019-08-25T07:13:13.000Z</time>
      </trkpt>
      <trkpt lat="46.20734" lon="6.47388">
        <ele>1427.28</ele>
        <time>2019-08-25T07:13:19.000Z</time>
      </trkpt>
      <trkpt lat="46.20745" lon="6.4739">
        <ele>1430.35</ele>
        <time>2019-08-25T07:13:25.000Z</time>
      </trkpt>
      <trkpt lat="46.20755" lon="6.47391">
        <ele>1433.12</ele>
        <time>2019-08-25T07:13:31.000Z</time>
      </trkpt>
      <trkpt lat="46.20765" lon="6.47393">
        <ele>1435.29</ele>
        <time>2019-08-25T07:13:36.000Z</time>
      </trkpt>
      <trkpt lat="46.20774" lon="6.47396">
        <ele>1437.69</ele>
        <time>2019-08-25T07:13:42.000Z</time>
      </trkpt>
      <trkpt lat="46.20787" lon="6.47399">
        <ele>1441.1</ele>
        <time>2019-08-25T07:13:49.000Z</time>
      </trkpt>
      <trkpt lat="46.20798" lon="6.47402">
        <ele>1444.24</ele>
        <time>2019-08-25T07:13:56.000Z</time>
      </trkpt>
      <trkpt lat="46.20807" lon="6.4741">
        <ele>1447.3</ele>
        <time>2019-08-25T07:14:02.000Z</time>
      </trkpt>
      <trkpt lat="46.20813" lon="6.47421">
        <ele>1450.52</ele>
        <time>2019-08-25T07:14:10.000Z</time>
      </trkpt>
      <trkpt lat="46.2082" lon="6.4743">
        <ele>1455.16</ele>
        <time>2019-08-25T07:14:34.000Z</time>
      </trkpt>
      <trkpt lat="46.20829" lon="6.47432">
        <ele>1457.66</ele>
        <time>2019-08-25T07:14:47.000Z</time>
      </trkpt>
      <trkpt lat="46.20835" lon="6.47441">
        <ele>1459.64</ele>
        <time>2019-08-25T07:14:59.000Z</time>
      </trkpt>
      <trkpt lat="46.20845" lon="6.47441">
        <ele>1461.93</ele>
        <time>2019-08-25T07:15:08.000Z</time>
      </trkpt>
      <trkpt lat="46.20854" lon="6.47444">
        <ele>1462.55</ele>
        <time>2019-08-25T07:15:13.000Z</time>
      </trkpt>
      <trkpt lat="46.20864" lon="6.4744">
        <ele>1464.35</ele>
        <time>2019-08-25T07:15:21.000Z</time>
      </trkpt>
      <trkpt lat="46.20869" lon="6.47428">
        <ele>1465.87</ele>
        <time>2019-08-25T07:15:27.000Z</time>
      </trkpt>
      <trkpt lat="46.20872" lon="6.47414">
        <ele>1467.99</ele>
        <time>2019-08-25T07:15:33.000Z</time>
      </trkpt>
      <trkpt lat="46.20876" lon="6.47403">
        <ele>1473.89</ele>
        <time>2019-08-25T07:15:42.000Z</time>
      </trkpt>
      <trkpt lat="46.20884" lon="6.4739">
        <ele>1477.16</ele>
        <time>2019-08-25T07:15:50.000Z</time>
      </trkpt>
      <trkpt lat="46.20893" lon="6.47379">
        <ele>1478.94</ele>
        <time>2019-08-25T07:15:57.000Z</time>
      </trkpt>
      <trkpt lat="46.20899" lon="6.47367">
        <ele>1480.37</ele>
        <time>2019-08-25T07:16:03.000Z</time>
      </trkpt>
      <trkpt lat="46.20908" lon="6.47358">
        <ele>1483.48</ele>
        <time>2019-08-25T07:16:11.000Z</time>
      </trkpt>
      <trkpt lat="46.20917" lon="6.47349">
        <ele>1486.08</ele>
        <time>2019-08-25T07:16:17.000Z</time>
      </trkpt>
      <trkpt lat="46.20927" lon="6.47339">
        <ele>1489.45</ele>
        <time>2019-08-25T07:16:24.000Z</time>
      </trkpt>
      <trkpt lat="46.20936" lon="6.47335">
        <ele>1492.82</ele>
        <time>2019-08-25T07:16:30.000Z</time>
      </trkpt>
      <trkpt lat="46.20945" lon="6.47331">
        <ele>1496.24</ele>
        <time>2019-08-25T07:16:36.000Z</time>
      </trkpt>
      <trkpt lat="46.20954" lon="6.47326">
        <ele>1499.57</ele>
        <time>2019-08-25T07:16:42.000Z</time>
      </trkpt>
      <trkpt lat="46.20964" lon="6.47317">
        <ele>1503.94</ele>
        <time>2019-08-25T07:16:50.000Z</time>
      </trkpt>
      <trkpt lat="46.20971" lon="6.47307">
        <ele>1506.11</ele>
        <time>2019-08-25T07:16:56.000Z</time>
      </trkpt>
      <trkpt lat="46.2098" lon="6.47297">
        <ele>1509.97</ele>
        <time>2019-08-25T07:17:04.000Z</time>
      </trkpt>
      <trkpt lat="46.20989" lon="6.47301">
        <ele>1512.99</ele>
        <time>2019-08-25T07:17:10.000Z</time>
      </trkpt>
      <trkpt lat="46.20992" lon="6.47316">
        <ele>1515.67</ele>
        <time>2019-08-25T07:17:17.000Z</time>
      </trkpt>
      <trkpt lat="46.20995" lon="6.47328">
        <ele>1525.99</ele>
        <time>2019-08-25T07:17:40.000Z</time>
      </trkpt>
      <trkpt lat="46.20998" lon="6.47341">
        <ele>1525.51</ele>
        <time>2019-08-25T07:17:50.000Z</time>
      </trkpt>
      <trkpt lat="46.21" lon="6.47354">
        <ele>1527.6</ele>
        <time>2019-08-25T07:18:01.000Z</time>
      </trkpt>
      <trkpt lat="46.20999" lon="6.47368">
        <ele>1531.95</ele>
        <time>2019-08-25T07:18:14.000Z</time>
      </trkpt>
      <trkpt lat="46.21003" lon="6.4738">
        <ele>1535.21</ele>
        <time>2019-08-25T07:18:25.000Z</time>
      </trkpt>
      <trkpt lat="46.21008" lon="6.47392">
        <ele>1537.5</ele>
        <time>2019-08-25T07:18:36.000Z</time>
      </trkpt>
      <trkpt lat="46.21019" lon="6.47402">
        <ele>1539.92</ele>
        <time>2019-08-25T07:18:54.000Z</time>
      </trkpt>
      <trkpt lat="46.21029" lon="6.47405">
        <ele>1540.6</ele>
        <time>2019-08-25T07:18:59.000Z</time>
      </trkpt>
      <trkpt lat="46.21038" lon="6.47402">
        <ele>1544.16</ele>
        <time>2019-08-25T07:19:09.000Z</time>
      </trkpt>
      <trkpt lat="46.21048" lon="6.47411">
        <ele>1545.91</ele>
        <time>2019-08-25T07:19:15.000Z</time>
      </trkpt>
      <trkpt lat="46.21058" lon="6.47416">
        <ele>1547.08</ele>
        <time>2019-08-25T07:19:20.000Z</time>
      </trkpt>
      <trkpt lat="46.21067" lon="6.47421">
        <ele>1550.08</ele>
        <time>2019-08-25T07:19:28.000Z</time>
      </trkpt>
      <trkpt lat="46.21063" lon="6.47405">
        <ele>1551.54</ele>
        <time>2019-08-25T07:19:50.000Z</time>
      </trkpt>
      <trkpt lat="46.21076" lon="6.47391">
        <ele>1551.56</ele>
        <time>2019-08-25T07:19:55.000Z</time>
      </trkpt>
      <trkpt lat="46.21086" lon="6.47387">
        <ele>1551.27</ele>
        <time>2019-08-25T07:19:57.000Z</time>
      </trkpt>
      <trkpt lat="46.21101" lon="6.47378">
        <ele>1550.17</ele>
        <time>2019-08-25T07:20:01.000Z</time>
      </trkpt>
      <trkpt lat="46.21109" lon="6.4737">
        <ele>1549.79</ele>
        <time>2019-08-25T07:20:03.000Z</time>
      </trkpt>
      <trkpt lat="46.21121" lon="6.47355">
        <ele>1549.4</ele>
        <time>2019-08-25T07:20:07.000Z</time>
      </trkpt>
      <trkpt lat="46.21129" lon="6.47339">
        <ele>1548.22</ele>
        <time>2019-08-25T07:20:10.000Z</time>
      </trkpt>
      <trkpt lat="46.21135" lon="6.47328">
        <ele>1546.5</ele>
        <time>2019-08-25T07:20:13.000Z</time>
      </trkpt>
      <trkpt lat="46.21142" lon="6.47314">
        <ele>1545.13</ele>
        <time>2019-08-25T07:20:16.000Z</time>
      </trkpt>
      <trkpt lat="46.21152" lon="6.47302">
        <ele>1542.59</ele>
        <time>2019-08-25T07:20:20.000Z</time>
      </trkpt>
      <trkpt lat="46.21164" lon="6.47285">
        <ele>1538.49</ele>
        <time>2019-08-25T07:20:24.000Z</time>
      </trkpt>
      <trkpt lat="46.21171" lon="6.47275">
        <ele>1537.11</ele>
        <time>2019-08-25T07:20:26.000Z</time>
      </trkpt>
      <trkpt lat="46.21178" lon="6.47267">
        <ele>1536.29</ele>
        <time>2019-08-25T07:20:28.000Z</time>
      </trkpt>
      <trkpt lat="46.21194" lon="6.47252">
        <ele>1533.64</ele>
        <time>2019-08-25T07:20:32.000Z</time>
      </trkpt>
      <trkpt lat="46.21202" lon="6.47244">
        <ele>1531.97</ele>
        <time>2019-08-25T07:20:34.000Z</time>
      </trkpt>
      <trkpt lat="46.21214" lon="6.47234">
        <ele>1530.21</ele>
        <time>2019-08-25T07:20:37.000Z</time>
      </trkpt>
      <trkpt lat="46.21222" lon="6.47221">
        <ele>1529.49</ele>
        <time>2019-08-25T07:20:42.000Z</time>
      </trkpt>
      <trkpt lat="46.21227" lon="6.47204">
        <ele>1528.88</ele>
        <time>2019-08-25T07:20:45.000Z</time>
      </trkpt>
      <trkpt lat="46.21235" lon="6.4719">
        <ele>1528.87</ele>
        <time>2019-08-25T07:20:47.000Z</time>
      </trkpt>
      <trkpt lat="46.21245" lon="6.47168">
        <ele>1527.85</ele>
        <time>2019-08-25T07:20:50.000Z</time>
      </trkpt>
      <trkpt lat="46.21248" lon="6.47155">
        <ele>1526.86</ele>
        <time>2019-08-25T07:20:52.000Z</time>
      </trkpt>
      <trkpt lat="46.21252" lon="6.47141">
        <ele>1524.82</ele>
        <time>2019-08-25T07:20:54.000Z</time>
      </trkpt>
      <trkpt lat="46.21253" lon="6.47126">
        <ele>1521.06</ele>
        <time>2019-08-25T07:20:58.000Z</time>
      </trkpt>
      <trkpt lat="46.21254" lon="6.47112">
        <ele>1519.11</ele>
        <time>2019-08-25T07:21:00.000Z</time>
      </trkpt>
      <trkpt lat="46.21261" lon="6.471">
        <ele>1510.24</ele>
        <time>2019-08-25T07:21:19.000Z</time>
      </trkpt>
      <trkpt lat="46.2127" lon="6.47092">
        <ele>1508.74</ele>
        <time>2019-08-25T07:21:24.000Z</time>
      </trkpt>
      <trkpt lat="46.21283" lon="6.47091">
        <ele>1506.13</ele>
        <time>2019-08-25T07:21:30.000Z</time>
      </trkpt>
      <trkpt lat="46.21292" lon="6.47091">
        <ele>1502.82</ele>
        <time>2019-08-25T07:21:35.000Z</time>
      </trkpt>
      <trkpt lat="46.21299" lon="6.4708">
        <ele>1495.49</ele>
        <time>2019-08-25T07:21:53.000Z</time>
      </trkpt>
      <trkpt lat="46.21305" lon="6.47069">
        <ele>1494.85</ele>
        <time>2019-08-25T07:21:57.000Z</time>
      </trkpt>
      <trkpt lat="46.21313" lon="6.47059">
        <ele>1493.1</ele>
        <time>2019-08-25T07:22:02.000Z</time>
      </trkpt>
      <trkpt lat="46.21322" lon="6.47044">
        <ele>1491.3</ele>
        <time>2019-08-25T07:22:06.000Z</time>
      </trkpt>
      <trkpt lat="46.21326" lon="6.47031">
        <ele>1489.78</ele>
        <time>2019-08-25T07:22:08.000Z</time>
      </trkpt>
      <trkpt lat="46.21336" lon="6.47012">
        <ele>1487.32</ele>
        <time>2019-08-25T07:22:12.000Z</time>
      </trkpt>
      <trkpt lat="46.21344" lon="6.46996">
        <ele>1485.78</ele>
        <time>2019-08-25T07:22:16.000Z</time>
      </trkpt>
      <trkpt lat="46.21351" lon="6.46984">
        <ele>1484.39</ele>
        <time>2019-08-25T07:22:18.000Z</time>
      </trkpt>
      <trkpt lat="46.21357" lon="6.4697">
        <ele>1482.8</ele>
        <time>2019-08-25T07:22:20.000Z</time>
      </trkpt>
      <trkpt lat="46.2136" lon="6.4695">
        <ele>1480.28</ele>
        <time>2019-08-25T07:22:23.000Z</time>
      </trkpt>
      <trkpt lat="46.2136" lon="6.4693">
        <ele>1478.3</ele>
        <time>2019-08-25T07:22:26.000Z</time>
      </trkpt>
      <trkpt lat="46.21357" lon="6.46904">
        <ele>1475.66</ele>
        <time>2019-08-25T07:22:29.000Z</time>
      </trkpt>
      <trkpt lat="46.21358" lon="6.46888">
        <ele>1473.65</ele>
        <time>2019-08-25T07:22:31.000Z</time>
      </trkpt>
      <trkpt lat="46.21358" lon="6.46868">
        <ele>1470.6</ele>
        <time>2019-08-25T07:22:34.000Z</time>
      </trkpt>
      <trkpt lat="46.2136" lon="6.46852">
        <ele>1466.89</ele>
        <time>2019-08-25T07:22:38.000Z</time>
      </trkpt>
      <trkpt lat="46.21378" lon="6.46852">
        <ele>1461.2</ele>
        <time>2019-08-25T07:22:46.000Z</time>
      </trkpt>
      <trkpt lat="46.2139" lon="6.4686">
        <ele>1460.43</ele>
        <time>2019-08-25T07:22:48.000Z</time>
      </trkpt>
      <trkpt lat="46.21405" lon="6.46871">
        <ele>1460.13</ele>
        <time>2019-08-25T07:22:50.000Z</time>
      </trkpt>
      <trkpt lat="46.2142" lon="6.46888">
        <ele>1460.13</ele>
        <time>2019-08-25T07:22:52.000Z</time>
      </trkpt>
      <trkpt lat="46.21428" lon="6.46898">
        <ele>1460.36</ele>
        <time>2019-08-25T07:22:53.000Z</time>
      </trkpt>
      <trkpt lat="46.21434" lon="6.46908">
        <ele>1460.62</ele>
        <time>2019-08-25T07:22:54.000Z</time>
      </trkpt>
      <trkpt lat="46.2145" lon="6.46926">
        <ele>1460.12</ele>
        <time>2019-08-25T07:22:56.000Z</time>
      </trkpt>
      <trkpt lat="46.21465" lon="6.46943">
        <ele>1458.91</ele>
        <time>2019-08-25T07:22:58.000Z</time>
      </trkpt>
      <trkpt lat="46.21472" lon="6.46951">
        <ele>1457.95</ele>
        <time>2019-08-25T07:22:59.000Z</time>
      </trkpt>
      <trkpt lat="46.2148" lon="6.4696">
        <ele>1456.87</ele>
        <time>2019-08-25T07:23:00.000Z</time>
      </trkpt>
      <trkpt lat="46.21495" lon="6.46973">
        <ele>1454.86</ele>
        <time>2019-08-25T07:23:02.000Z</time>
      </trkpt>
      <trkpt lat="46.21509" lon="6.46982">
        <ele>1453.6</ele>
        <time>2019-08-25T07:23:04.000Z</time>
      </trkpt>
      <trkpt lat="46.21526" lon="6.4699">
        <ele>1452.13</ele>
        <time>2019-08-25T07:23:06.000Z</time>
      </trkpt>
      <trkpt lat="46.21541" lon="6.46993">
        <ele>1450.77</ele>
        <time>2019-08-25T07:23:08.000Z</time>
      </trkpt>
      <trkpt lat="46.21556" lon="6.46995">
        <ele>1449.24</ele>
        <time>2019-08-25T07:23:10.000Z</time>
      </trkpt>
      <trkpt lat="46.21569" lon="6.46999">
        <ele>1449.24</ele>
        <time>2019-08-25T07:23:12.000Z</time>
      </trkpt>
      <trkpt lat="46.21582" lon="6.47003">
        <ele>1449.24</ele>
        <time>2019-08-25T07:23:14.000Z</time>
      </trkpt>
      <trkpt lat="46.21592" lon="6.4701">
        <ele>1448.43</ele>
        <time>2019-08-25T07:23:16.000Z</time>
      </trkpt>
      <trkpt lat="46.21601" lon="6.47018">
        <ele>1447.93</ele>
        <time>2019-08-25T07:23:18.000Z</time>
      </trkpt>
      <trkpt lat="46.21609" lon="6.47027">
        <ele>1446.69</ele>
        <time>2019-08-25T07:23:20.000Z</time>
      </trkpt>
      <trkpt lat="46.2162" lon="6.47039">
        <ele>1445.35</ele>
        <time>2019-08-25T07:23:22.000Z</time>
      </trkpt>
      <trkpt lat="46.21626" lon="6.47051">
        <ele>1443.53</ele>
        <time>2019-08-25T07:23:24.000Z</time>
      </trkpt>
      <trkpt lat="46.21633" lon="6.47066">
        <ele>1441.74</ele>
        <time>2019-08-25T07:23:26.000Z</time>
      </trkpt>
      <trkpt lat="46.21649" lon="6.47077">
        <ele>1439.69</ele>
        <time>2019-08-25T07:23:29.000Z</time>
      </trkpt>
      <trkpt lat="46.21663" lon="6.47064">
        <ele>1436.81</ele>
        <time>2019-08-25T07:23:32.000Z</time>
      </trkpt>
      <trkpt lat="46.21678" lon="6.47056">
        <ele>1434.84</ele>
        <time>2019-08-25T07:23:34.000Z</time>
      </trkpt>
      <trkpt lat="46.21692" lon="6.47044">
        <ele>1432.89</ele>
        <time>2019-08-25T07:23:36.000Z</time>
      </trkpt>
      <trkpt lat="46.21706" lon="6.47029">
        <ele>1430.91</ele>
        <time>2019-08-25T07:23:38.000Z</time>
      </trkpt>
      <trkpt lat="46.21716" lon="6.47013">
        <ele>1427.65</ele>
        <time>2019-08-25T07:23:40.000Z</time>
      </trkpt>
      <trkpt lat="46.21739" lon="6.47008">
        <ele>1420.85</ele>
        <time>2019-08-25T07:23:43.000Z</time>
      </trkpt>
      <trkpt lat="46.21761" lon="6.47012">
        <ele>1415.72</ele>
        <time>2019-08-25T07:23:45.000Z</time>
      </trkpt>
      <trkpt lat="46.21783" lon="6.47016">
        <ele>1410.65</ele>
        <time>2019-08-25T07:23:47.000Z</time>
      </trkpt>
      <trkpt lat="46.21793" lon="6.47018">
        <ele>1407.88</ele>
        <time>2019-08-25T07:23:48.000Z</time>
      </trkpt>
      <trkpt lat="46.2181" lon="6.47025">
        <ele>1402.78</ele>
        <time>2019-08-25T07:23:50.000Z</time>
      </trkpt>
      <trkpt lat="46.21831" lon="6.47033">
        <ele>1397.39</ele>
        <time>2019-08-25T07:23:53.000Z</time>
      </trkpt>
      <trkpt lat="46.21843" lon="6.47033">
        <ele>1395.53</ele>
        <time>2019-08-25T07:23:55.000Z</time>
      </trkpt>
      <trkpt lat="46.21856" lon="6.47043">
        <ele>1393.39</ele>
        <time>2019-08-25T07:23:59.000Z</time>
      </trkpt>
      <trkpt lat="46.21865" lon="6.47047">
        <ele>1392.13</ele>
        <time>2019-08-25T07:24:01.000Z</time>
      </trkpt>
      <trkpt lat="46.21876" lon="6.47048">
        <ele>1391.6</ele>
        <time>2019-08-25T07:24:03.000Z</time>
      </trkpt>
      <trkpt lat="46.21887" lon="6.47054">
        <ele>1391.64</ele>
        <time>2019-08-25T07:24:05.000Z</time>
      </trkpt>
      <trkpt lat="46.21898" lon="6.4706">
        <ele>1391.52</ele>
        <time>2019-08-25T07:24:07.000Z</time>
      </trkpt>
      <trkpt lat="46.21914" lon="6.47056">
        <ele>1390.85</ele>
        <time>2019-08-25T07:24:10.000Z</time>
      </trkpt>
      <trkpt lat="46.21925" lon="6.47054">
        <ele>1389.48</ele>
        <time>2019-08-25T07:24:12.000Z</time>
      </trkpt>
      <trkpt lat="46.21935" lon="6.47049">
        <ele>1388.15</ele>
        <time>2019-08-25T07:24:14.000Z</time>
      </trkpt>
      <trkpt lat="46.21949" lon="6.47046">
        <ele>1386.72</ele>
        <time>2019-08-25T07:24:17.000Z</time>
      </trkpt>
      <trkpt lat="46.21968" lon="6.47041">
        <ele>1385.42</ele>
        <time>2019-08-25T07:24:21.000Z</time>
      </trkpt>
      <trkpt lat="46.2198" lon="6.47043">
        <ele>1384.99</ele>
        <time>2019-08-25T07:24:23.000Z</time>
      </trkpt>
      <trkpt lat="46.21989" lon="6.47046">
        <ele>1384.54</ele>
        <time>2019-08-25T07:24:25.000Z</time>
      </trkpt>
      <trkpt lat="46.22005" lon="6.47051">
        <ele>1383.74</ele>
        <time>2019-08-25T07:24:28.000Z</time>
      </trkpt>
      <trkpt lat="46.22015" lon="6.47057">
        <ele>1383.24</ele>
        <time>2019-08-25T07:24:30.000Z</time>
      </trkpt>
      <trkpt lat="46.22027" lon="6.4706">
        <ele>1382.47</ele>
        <time>2019-08-25T07:24:32.000Z</time>
      </trkpt>
      <trkpt lat="46.22036" lon="6.47065">
        <ele>1381.37</ele>
        <time>2019-08-25T07:24:34.000Z</time>
      </trkpt>
      <trkpt lat="46.22051" lon="6.47077">
        <ele>1380.05</ele>
        <time>2019-08-25T07:24:37.000Z</time>
      </trkpt>
      <trkpt lat="46.2207" lon="6.47092">
        <ele>1378.59</ele>
        <time>2019-08-25T07:24:40.000Z</time>
      </trkpt>
      <trkpt lat="46.22082" lon="6.47101">
        <ele>1378.28</ele>
        <time>2019-08-25T07:24:42.000Z</time>
      </trkpt>
      <trkpt lat="46.22092" lon="6.47109">
        <ele>1378.16</ele>
        <time>2019-08-25T07:24:44.000Z</time>
      </trkpt>
      <trkpt lat="46.22107" lon="6.47117">
        <ele>1378.32</ele>
        <time>2019-08-25T07:24:46.000Z</time>
      </trkpt>
      <trkpt lat="46.2212" lon="6.47122">
        <ele>1378.15</ele>
        <time>2019-08-25T07:24:48.000Z</time>
      </trkpt>
      <trkpt lat="46.22135" lon="6.47127">
        <ele>1377.92</ele>
        <time>2019-08-25T07:24:50.000Z</time>
      </trkpt>
      <trkpt lat="46.22153" lon="6.47133">
        <ele>1377.09</ele>
        <time>2019-08-25T07:24:52.000Z</time>
      </trkpt>
      <trkpt lat="46.22167" lon="6.47137">
        <ele>1375.53</ele>
        <time>2019-08-25T07:24:54.000Z</time>
      </trkpt>
      <trkpt lat="46.22179" lon="6.47137">
        <ele>1373.3</ele>
        <time>2019-08-25T07:24:56.000Z</time>
      </trkpt>
      <trkpt lat="46.22191" lon="6.47131">
        <ele>1369.97</ele>
        <time>2019-08-25T07:24:58.000Z</time>
      </trkpt>
      <trkpt lat="46.222" lon="6.47115">
        <ele>1363.87</ele>
        <time>2019-08-25T07:25:02.000Z</time>
      </trkpt>
      <trkpt lat="46.222" lon="6.47102">
        <ele>1361.11</ele>
        <time>2019-08-25T07:25:04.000Z</time>
      </trkpt>
      <trkpt lat="46.22199" lon="6.47086">
        <ele>1358.6</ele>
        <time>2019-08-25T07:25:06.000Z</time>
      </trkpt>
      <trkpt lat="46.22195" lon="6.4707">
        <ele>1356.15</ele>
        <time>2019-08-25T07:25:08.000Z</time>
      </trkpt>
      <trkpt lat="46.22194" lon="6.47054">
        <ele>1354.04</ele>
        <time>2019-08-25T07:25:10.000Z</time>
      </trkpt>
      <trkpt lat="46.22191" lon="6.47037">
        <ele>1352.12</ele>
        <time>2019-08-25T07:25:12.000Z</time>
      </trkpt>
      <trkpt lat="46.22191" lon="6.47018">
        <ele>1350.45</ele>
        <time>2019-08-25T07:25:14.000Z</time>
      </trkpt>
      <trkpt lat="46.22186" lon="6.47001">
        <ele>1348.33</ele>
        <time>2019-08-25T07:25:16.000Z</time>
      </trkpt>
      <trkpt lat="46.22183" lon="6.46987">
        <ele>1345.55</ele>
        <time>2019-08-25T07:25:18.000Z</time>
      </trkpt>
      <trkpt lat="46.22195" lon="6.46964">
        <ele>1339.28</ele>
        <time>2019-08-25T07:25:22.000Z</time>
      </trkpt>
      <trkpt lat="46.22205" lon="6.46951">
        <ele>1335.98</ele>
        <time>2019-08-25T07:25:24.000Z</time>
      </trkpt>
      <trkpt lat="46.22214" lon="6.46935">
        <ele>1332.53</ele>
        <time>2019-08-25T07:25:26.000Z</time>
      </trkpt>
      <trkpt lat="46.22221" lon="6.46925">
        <ele>1329.14</ele>
        <time>2019-08-25T07:25:28.000Z</time>
      </trkpt>
      <trkpt lat="46.22232" lon="6.46921">
        <ele>1326.15</ele>
        <time>2019-08-25T07:25:30.000Z</time>
      </trkpt>
      <trkpt lat="46.22248" lon="6.46919">
        <ele>1323.08</ele>
        <time>2019-08-25T07:25:32.000Z</time>
      </trkpt>
      <trkpt lat="46.22258" lon="6.46919">
        <ele>1319.33</ele>
        <time>2019-08-25T07:25:34.000Z</time>
      </trkpt>
      <trkpt lat="46.22266" lon="6.46891">
        <ele>1312.18</ele>
        <time>2019-08-25T07:25:38.000Z</time>
      </trkpt>
      <trkpt lat="46.22269" lon="6.46873">
        <ele>1309.13</ele>
        <time>2019-08-25T07:25:40.000Z</time>
      </trkpt>
      <trkpt lat="46.22275" lon="6.46849">
        <ele>1305.64</ele>
        <time>2019-08-25T07:25:43.000Z</time>
      </trkpt>
      <trkpt lat="46.22284" lon="6.46827">
        <ele>1301.76</ele>
        <time>2019-08-25T07:25:46.000Z</time>
      </trkpt>
      <trkpt lat="46.2229" lon="6.46816">
        <ele>1296.02</ele>
        <time>2019-08-25T07:25:51.000Z</time>
      </trkpt>
      <trkpt lat="46.22285" lon="6.46803">
        <ele>1285.32</ele>
        <time>2019-08-25T07:26:00.000Z</time>
      </trkpt>
      <trkpt lat="46.22278" lon="6.46795">
        <ele>1283.45</ele>
        <time>2019-08-25T07:26:02.000Z</time>
      </trkpt>
      <trkpt lat="46.22264" lon="6.46782">
        <ele>1281.91</ele>
        <time>2019-08-25T07:26:05.000Z</time>
      </trkpt>
      <trkpt lat="46.22244" lon="6.46771">
        <ele>1280.87</ele>
        <time>2019-08-25T07:26:08.000Z</time>
      </trkpt>
      <trkpt lat="46.22229" lon="6.46768">
        <ele>1280.37</ele>
        <time>2019-08-25T07:26:10.000Z</time>
      </trkpt>
      <trkpt lat="46.22213" lon="6.4678">
        <ele>1279.41</ele>
        <time>2019-08-25T07:26:12.000Z</time>
      </trkpt>
      <trkpt lat="46.22198" lon="6.46792">
        <ele>1278.67</ele>
        <time>2019-08-25T07:26:14.000Z</time>
      </trkpt>
      <trkpt lat="46.22179" lon="6.46801">
        <ele>1278.1</ele>
        <time>2019-08-25T07:26:16.000Z</time>
      </trkpt>
      <trkpt lat="46.22159" lon="6.46804">
        <ele>1277.22</ele>
        <time>2019-08-25T07:26:18.000Z</time>
      </trkpt>
      <trkpt lat="46.22141" lon="6.46789">
        <ele>1276.22</ele>
        <time>2019-08-25T07:26:20.000Z</time>
      </trkpt>
      <trkpt lat="46.22124" lon="6.46783">
        <ele>1274.94</ele>
        <time>2019-08-25T07:26:22.000Z</time>
      </trkpt>
      <trkpt lat="46.2211" lon="6.46778">
        <ele>1274.03</ele>
        <time>2019-08-25T07:26:24.000Z</time>
      </trkpt>
      <trkpt lat="46.22096" lon="6.46778">
        <ele>1273.41</ele>
        <time>2019-08-25T07:26:26.000Z</time>
      </trkpt>
      <trkpt lat="46.22082" lon="6.46777">
        <ele>1273.44</ele>
        <time>2019-08-25T07:26:28.000Z</time>
      </trkpt>
      <trkpt lat="46.22071" lon="6.46775">
        <ele>1273.3</ele>
        <time>2019-08-25T07:26:30.000Z</time>
      </trkpt>
      <trkpt lat="46.2206" lon="6.46774">
        <ele>1273.24</ele>
        <time>2019-08-25T07:26:33.000Z</time>
      </trkpt>
      <trkpt lat="46.22049" lon="6.4677">
        <ele>1273.27</ele>
        <time>2019-08-25T07:26:35.000Z</time>
      </trkpt>
      <trkpt lat="46.22037" lon="6.46758">
        <ele>1273.67</ele>
        <time>2019-08-25T07:26:38.000Z</time>
      </trkpt>
      <trkpt lat="46.22029" lon="6.46751">
        <ele>1274.66</ele>
        <time>2019-08-25T07:26:44.000Z</time>
      </trkpt>
      <trkpt lat="46.2202" lon="6.46753">
        <ele>1275.98</ele>
        <time>2019-08-25T07:26:50.000Z</time>
      </trkpt>
      <trkpt lat="46.21999" lon="6.46746">
        <ele>1277.78</ele>
        <time>2019-08-25T07:26:55.000Z</time>
      </trkpt>
      <trkpt lat="46.21984" lon="6.46738">
        <ele>1278.89</ele>
        <time>2019-08-25T07:26:58.000Z</time>
      </trkpt>
      <trkpt lat="46.2197" lon="6.46733">
        <ele>1280.23</ele>
        <time>2019-08-25T07:27:01.000Z</time>
      </trkpt>
      <trkpt lat="46.2196" lon="6.46723">
        <ele>1280.99</ele>
        <time>2019-08-25T07:27:03.000Z</time>
      </trkpt>
      <trkpt lat="46.21949" lon="6.46705">
        <ele>1282.18</ele>
        <time>2019-08-25T07:27:06.000Z</time>
      </trkpt>
      <trkpt lat="46.2194" lon="6.46703">
        <ele>1283.07</ele>
        <time>2019-08-25T07:27:09.000Z</time>
      </trkpt>
      <trkpt lat="46.21935" lon="6.46689">
        <ele>1284.15</ele>
        <time>2019-08-25T07:27:14.000Z</time>
      </trkpt>
      <trkpt lat="46.21927" lon="6.46677">
        <ele>1285.12</ele>
        <time>2019-08-25T07:27:18.000Z</time>
      </trkpt>
      <trkpt lat="46.21916" lon="6.4667">
        <ele>1285.63</ele>
        <time>2019-08-25T07:27:22.000Z</time>
      </trkpt>
      <trkpt lat="46.21909" lon="6.4666">
        <ele>1286.46</ele>
        <time>2019-08-25T07:27:26.000Z</time>
      </trkpt>
      <trkpt lat="46.21899" lon="6.4665">
        <ele>1288.28</ele>
        <time>2019-08-25T07:27:30.000Z</time>
      </trkpt>
      <trkpt lat="46.21891" lon="6.46637">
        <ele>1290.75</ele>
        <time>2019-08-25T07:27:35.000Z</time>
      </trkpt>
      <trkpt lat="46.21882" lon="6.46624">
        <ele>1293.42</ele>
        <time>2019-08-25T07:27:39.000Z</time>
      </trkpt>
      <trkpt lat="46.21874" lon="6.4661">
        <ele>1296.5</ele>
        <time>2019-08-25T07:27:45.000Z</time>
      </trkpt>
      <trkpt lat="46.21869" lon="6.46599">
        <ele>1299.14</ele>
        <time>2019-08-25T07:27:51.000Z</time>
      </trkpt>
      <trkpt lat="46.21862" lon="6.46589">
        <ele>1302.35</ele>
        <time>2019-08-25T07:27:57.000Z</time>
      </trkpt>
      <trkpt lat="46.21855" lon="6.46573">
        <ele>1306.49</ele>
        <time>2019-08-25T07:28:05.000Z</time>
      </trkpt>
      <trkpt lat="46.21847" lon="6.46561">
        <ele>1308.28</ele>
        <time>2019-08-25T07:28:09.000Z</time>
      </trkpt>
      <trkpt lat="46.21843" lon="6.46546">
        <ele>1309.74</ele>
        <time>2019-08-25T07:28:13.000Z</time>
      </trkpt>
      <trkpt lat="46.21838" lon="6.46534">
        <ele>1310.87</ele>
        <time>2019-08-25T07:28:16.000Z</time>
      </trkpt>
      <trkpt lat="46.21832" lon="6.46519">
        <ele>1312.14</ele>
        <time>2019-08-25T07:28:20.000Z</time>
      </trkpt>
      <trkpt lat="46.21827" lon="6.46506">
        <ele>1312.89</ele>
        <time>2019-08-25T07:28:23.000Z</time>
      </trkpt>
      <trkpt lat="46.21817" lon="6.46494">
        <ele>1313.22</ele>
        <time>2019-08-25T07:28:25.000Z</time>
      </trkpt>
      <trkpt lat="46.21808" lon="6.46489">
        <ele>1313.45</ele>
        <time>2019-08-25T07:28:27.000Z</time>
      </trkpt>
      <trkpt lat="46.21798" lon="6.46484">
        <ele>1313.38</ele>
        <time>2019-08-25T07:28:30.000Z</time>
      </trkpt>
      <trkpt lat="46.21782" lon="6.46475">
        <ele>1313.35</ele>
        <time>2019-08-25T07:28:33.000Z</time>
      </trkpt>
      <trkpt lat="46.21773" lon="6.46481">
        <ele>1313.29</ele>
        <time>2019-08-25T07:28:35.000Z</time>
      </trkpt>
      <trkpt lat="46.21758" lon="6.46473">
        <ele>1313.21</ele>
        <time>2019-08-25T07:28:39.000Z</time>
      </trkpt>
      <trkpt lat="46.21748" lon="6.46472">
        <ele>1313.07</ele>
        <time>2019-08-25T07:28:41.000Z</time>
      </trkpt>
      <trkpt lat="46.21738" lon="6.46477">
        <ele>1313.14</ele>
        <time>2019-08-25T07:28:44.000Z</time>
      </trkpt>
      <trkpt lat="46.21719" lon="6.46479">
        <ele>1313.11</ele>
        <time>2019-08-25T07:28:48.000Z</time>
      </trkpt>
      <trkpt lat="46.21699" lon="6.4649">
        <ele>1312.6</ele>
        <time>2019-08-25T07:28:53.000Z</time>
      </trkpt>
      <trkpt lat="46.2168" lon="6.4647">
        <ele>1311.87</ele>
        <time>2019-08-25T07:28:56.000Z</time>
      </trkpt>
      <trkpt lat="46.21669" lon="6.46467">
        <ele>1311.44</ele>
        <time>2019-08-25T07:28:57.000Z</time>
      </trkpt>
      <trkpt lat="46.21651" lon="6.46466">
        <ele>1310.4</ele>
        <time>2019-08-25T07:28:59.000Z</time>
      </trkpt>
      <trkpt lat="46.21624" lon="6.46455">
        <ele>1309.14</ele>
        <time>2019-08-25T07:29:02.000Z</time>
      </trkpt>
      <trkpt lat="46.21615" lon="6.46449">
        <ele>1308.52</ele>
        <time>2019-08-25T07:29:03.000Z</time>
      </trkpt>
      <trkpt lat="46.21599" lon="6.4644">
        <ele>1307.51</ele>
        <time>2019-08-25T07:29:05.000Z</time>
      </trkpt>
      <trkpt lat="46.21591" lon="6.46432">
        <ele>1307</ele>
        <time>2019-08-25T07:29:06.000Z</time>
      </trkpt>
      <trkpt lat="46.21578" lon="6.46422">
        <ele>1305.52</ele>
        <time>2019-08-25T07:29:08.000Z</time>
      </trkpt>
      <trkpt lat="46.21559" lon="6.4641">
        <ele>1303.54</ele>
        <time>2019-08-25T07:29:11.000Z</time>
      </trkpt>
      <trkpt lat="46.21539" lon="6.46402">
        <ele>1303.31</ele>
        <time>2019-08-25T07:29:14.000Z</time>
      </trkpt>
      <trkpt lat="46.21521" lon="6.46398">
        <ele>1303.07</ele>
        <time>2019-08-25T07:29:16.000Z</time>
      </trkpt>
      <trkpt lat="46.21511" lon="6.46397">
        <ele>1303.07</ele>
        <time>2019-08-25T07:29:17.000Z</time>
      </trkpt>
      <trkpt lat="46.21492" lon="6.46391">
        <ele>1302.41</ele>
        <time>2019-08-25T07:29:20.000Z</time>
      </trkpt>
      <trkpt lat="46.21482" lon="6.46384">
        <ele>1301.99</ele>
        <time>2019-08-25T07:29:22.000Z</time>
      </trkpt>
      <trkpt lat="46.21473" lon="6.46379">
        <ele>1301.87</ele>
        <time>2019-08-25T07:29:24.000Z</time>
      </trkpt>
      <trkpt lat="46.21463" lon="6.46369">
        <ele>1301.73</ele>
        <time>2019-08-25T07:29:26.000Z</time>
      </trkpt>
      <trkpt lat="46.21449" lon="6.46358">
        <ele>1300.72</ele>
        <time>2019-08-25T07:29:29.000Z</time>
      </trkpt>
      <trkpt lat="46.21435" lon="6.46355">
        <ele>1299.29</ele>
        <time>2019-08-25T07:29:32.000Z</time>
      </trkpt>
      <trkpt lat="46.21424" lon="6.46348">
        <ele>1298.7</ele>
        <time>2019-08-25T07:29:34.000Z</time>
      </trkpt>
      <trkpt lat="46.21412" lon="6.46339">
        <ele>1298.94</ele>
        <time>2019-08-25T07:29:36.000Z</time>
      </trkpt>
      <trkpt lat="46.21396" lon="6.46322">
        <ele>1299.34</ele>
        <time>2019-08-25T07:29:38.000Z</time>
      </trkpt>
      <trkpt lat="46.21378" lon="6.46312">
        <ele>1299.31</ele>
        <time>2019-08-25T07:29:41.000Z</time>
      </trkpt>
      <trkpt lat="46.21363" lon="6.46304">
        <ele>1299.58</ele>
        <time>2019-08-25T07:29:44.000Z</time>
      </trkpt>
      <trkpt lat="46.21352" lon="6.46298">
        <ele>1300.08</ele>
        <time>2019-08-25T07:29:46.000Z</time>
      </trkpt>
      <trkpt lat="46.21342" lon="6.4629">
        <ele>1300.32</ele>
        <time>2019-08-25T07:29:48.000Z</time>
      </trkpt>
      <trkpt lat="46.21332" lon="6.46283">
        <ele>1299.42</ele>
        <time>2019-08-25T07:29:50.000Z</time>
      </trkpt>
      <trkpt lat="46.2132" lon="6.46273">
        <ele>1298.33</ele>
        <time>2019-08-25T07:29:52.000Z</time>
      </trkpt>
      <trkpt lat="46.2131" lon="6.46261">
        <ele>1297.35</ele>
        <time>2019-08-25T07:29:54.000Z</time>
      </trkpt>
      <trkpt lat="46.21295" lon="6.46251">
        <ele>1296.83</ele>
        <time>2019-08-25T07:29:56.000Z</time>
      </trkpt>
      <trkpt lat="46.2128" lon="6.46248">
        <ele>1296.44</ele>
        <time>2019-08-25T07:29:58.000Z</time>
      </trkpt>
      <trkpt lat="46.21264" lon="6.46249">
        <ele>1295.82</ele>
        <time>2019-08-25T07:30:00.000Z</time>
      </trkpt>
      <trkpt lat="46.21247" lon="6.46245">
        <ele>1295.1</ele>
        <time>2019-08-25T07:30:02.000Z</time>
      </trkpt>
      <trkpt lat="46.21233" lon="6.46242">
        <ele>1294.47</ele>
        <time>2019-08-25T07:30:04.000Z</time>
      </trkpt>
      <trkpt lat="46.21218" lon="6.46241">
        <ele>1294.67</ele>
        <time>2019-08-25T07:30:06.000Z</time>
      </trkpt>
      <trkpt lat="46.21199" lon="6.46239">
        <ele>1294.7</ele>
        <time>2019-08-25T07:30:09.000Z</time>
      </trkpt>
      <trkpt lat="46.21187" lon="6.46244">
        <ele>1294.7</ele>
        <time>2019-08-25T07:30:11.000Z</time>
      </trkpt>
      <trkpt lat="46.21178" lon="6.4625">
        <ele>1294.18</ele>
        <time>2019-08-25T07:30:13.000Z</time>
      </trkpt>
      <trkpt lat="46.21168" lon="6.46256">
        <ele>1292.74</ele>
        <time>2019-08-25T07:30:17.000Z</time>
      </trkpt>
      <trkpt lat="46.21158" lon="6.46263">
        <ele>1289.61</ele>
        <time>2019-08-25T07:30:22.000Z</time>
      </trkpt>
      <trkpt lat="46.2115" lon="6.46269">
        <ele>1289.19</ele>
        <time>2019-08-25T07:30:23.000Z</time>
      </trkpt>
      <trkpt lat="46.21133" lon="6.46274">
        <ele>1286.85</ele>
        <time>2019-08-25T07:30:27.000Z</time>
      </trkpt>
      <trkpt lat="46.21119" lon="6.46283">
        <ele>1283.22</ele>
        <time>2019-08-25T07:30:31.000Z</time>
      </trkpt>
      <trkpt lat="46.21111" lon="6.46276">
        <ele>1281.24</ele>
        <time>2019-08-25T07:30:33.000Z</time>
      </trkpt>
      <trkpt lat="46.21098" lon="6.46271">
        <ele>1278.14</ele>
        <time>2019-08-25T07:30:36.000Z</time>
      </trkpt>
      <trkpt lat="46.21085" lon="6.46269">
        <ele>1274.72</ele>
        <time>2019-08-25T07:30:39.000Z</time>
      </trkpt>
      <trkpt lat="46.21064" lon="6.46259">
        <ele>1270.22</ele>
        <time>2019-08-25T07:30:42.000Z</time>
      </trkpt>
      <trkpt lat="46.21051" lon="6.46256">
        <ele>1267.03</ele>
        <time>2019-08-25T07:30:44.000Z</time>
      </trkpt>
      <trkpt lat="46.21042" lon="6.46245">
        <ele>1263.58</ele>
        <time>2019-08-25T07:30:46.000Z</time>
      </trkpt>
      <trkpt lat="46.21036" lon="6.46235">
        <ele>1260.11</ele>
        <time>2019-08-25T07:30:48.000Z</time>
      </trkpt>
      <trkpt lat="46.21018" lon="6.46225">
        <ele>1254.79</ele>
        <time>2019-08-25T07:30:51.000Z</time>
      </trkpt>
      <trkpt lat="46.20999" lon="6.46219">
        <ele>1249.17</ele>
        <time>2019-08-25T07:30:54.000Z</time>
      </trkpt>
      <trkpt lat="46.20993" lon="6.46203">
        <ele>1245.68</ele>
        <time>2019-08-25T07:30:56.000Z</time>
      </trkpt>
      <trkpt lat="46.20983" lon="6.46183">
        <ele>1240.63</ele>
        <time>2019-08-25T07:31:00.000Z</time>
      </trkpt>
      <trkpt lat="46.20971" lon="6.46173">
        <ele>1237.68</ele>
        <time>2019-08-25T07:31:03.000Z</time>
      </trkpt>
      <trkpt lat="46.20961" lon="6.46178">
        <ele>1234.72</ele>
        <time>2019-08-25T07:31:06.000Z</time>
      </trkpt>
      <trkpt lat="46.20957" lon="6.46191">
        <ele>1233.21</ele>
        <time>2019-08-25T07:31:08.000Z</time>
      </trkpt>
      <trkpt lat="46.20959" lon="6.46216">
        <ele>1230.87</ele>
        <time>2019-08-25T07:31:11.000Z</time>
      </trkpt>
      <trkpt lat="46.2095" lon="6.46245">
        <ele>1228.97</ele>
        <time>2019-08-25T07:31:14.000Z</time>
      </trkpt>
      <trkpt lat="46.20946" lon="6.46267">
        <ele>1226.82</ele>
        <time>2019-08-25T07:31:17.000Z</time>
      </trkpt>
      <trkpt lat="46.20939" lon="6.46289">
        <ele>1225.57</ele>
        <time>2019-08-25T07:31:20.000Z</time>
      </trkpt>
      <trkpt lat="46.20936" lon="6.46307">
        <ele>1225.25</ele>
        <time>2019-08-25T07:31:23.000Z</time>
      </trkpt>
      <trkpt lat="46.20933" lon="6.46322">
        <ele>1225.44</ele>
        <time>2019-08-25T07:31:25.000Z</time>
      </trkpt>
      <trkpt lat="46.20928" lon="6.46337">
        <ele>1226.04</ele>
        <time>2019-08-25T07:31:27.000Z</time>
      </trkpt>
      <trkpt lat="46.20924" lon="6.46352">
        <ele>1226.87</ele>
        <time>2019-08-25T07:31:29.000Z</time>
      </trkpt>
      <trkpt lat="46.2092" lon="6.46364">
        <ele>1227.79</ele>
        <time>2019-08-25T07:31:31.000Z</time>
      </trkpt>
      <trkpt lat="46.20915" lon="6.46375">
        <ele>1228.71</ele>
        <time>2019-08-25T07:31:33.000Z</time>
      </trkpt>
      <trkpt lat="46.20906" lon="6.46385">
        <ele>1229.57</ele>
        <time>2019-08-25T07:31:36.000Z</time>
      </trkpt>
      <trkpt lat="46.20896" lon="6.46392">
        <ele>1230.2</ele>
        <time>2019-08-25T07:31:38.000Z</time>
      </trkpt>
      <trkpt lat="46.20891" lon="6.46405">
        <ele>1231</ele>
        <time>2019-08-25T07:31:41.000Z</time>
      </trkpt>
      <trkpt lat="46.20881" lon="6.46421">
        <ele>1231.54</ele>
        <time>2019-08-25T07:31:44.000Z</time>
      </trkpt>
      <trkpt lat="46.2087" lon="6.46435">
        <ele>1231.82</ele>
        <time>2019-08-25T07:31:47.000Z</time>
      </trkpt>
      <trkpt lat="46.20858" lon="6.46446">
        <ele>1232.09</ele>
        <time>2019-08-25T07:31:49.000Z</time>
      </trkpt>
      <trkpt lat="46.20841" lon="6.46454">
        <ele>1232.8</ele>
        <time>2019-08-25T07:31:53.000Z</time>
      </trkpt>
      <trkpt lat="46.20829" lon="6.46451">
        <ele>1233.22</ele>
        <time>2019-08-25T07:31:55.000Z</time>
      </trkpt>
      <trkpt lat="46.20815" lon="6.46454">
        <ele>1234.11</ele>
        <time>2019-08-25T07:31:58.000Z</time>
      </trkpt>
      <trkpt lat="46.208" lon="6.46451">
        <ele>1235.08</ele>
        <time>2019-08-25T07:32:01.000Z</time>
      </trkpt>
      <trkpt lat="46.20784" lon="6.4645">
        <ele>1235.89</ele>
        <time>2019-08-25T07:32:04.000Z</time>
      </trkpt>
      <trkpt lat="46.20768" lon="6.46446">
        <ele>1236.67</ele>
        <time>2019-08-25T07:32:07.000Z</time>
      </trkpt>
      <trkpt lat="46.20749" lon="6.46431">
        <ele>1237.93</ele>
        <time>2019-08-25T07:32:10.000Z</time>
      </trkpt>
      <trkpt lat="46.20732" lon="6.46403">
        <ele>1239.12</ele>
        <time>2019-08-25T07:32:13.000Z</time>
      </trkpt>
      <trkpt lat="46.20721" lon="6.46385">
        <ele>1239.74</ele>
        <time>2019-08-25T07:32:15.000Z</time>
      </trkpt>
      <trkpt lat="46.20709" lon="6.46362">
        <ele>1240.18</ele>
        <time>2019-08-25T07:32:17.000Z</time>
      </trkpt>
      <trkpt lat="46.20699" lon="6.46337">
        <ele>1240.48</ele>
        <time>2019-08-25T07:32:19.000Z</time>
      </trkpt>
      <trkpt lat="46.2069" lon="6.4631">
        <ele>1240.2</ele>
        <time>2019-08-25T07:32:21.000Z</time>
      </trkpt>
      <trkpt lat="46.20681" lon="6.4628">
        <ele>1239.43</ele>
        <time>2019-08-25T07:32:23.000Z</time>
      </trkpt>
      <trkpt lat="46.20676" lon="6.46265">
        <ele>1238.85</ele>
        <time>2019-08-25T07:32:24.000Z</time>
      </trkpt>
      <trkpt lat="46.20667" lon="6.46232">
        <ele>1237.43</ele>
        <time>2019-08-25T07:32:26.000Z</time>
      </trkpt>
      <trkpt lat="46.20664" lon="6.46216">
        <ele>1236.8</ele>
        <time>2019-08-25T07:32:27.000Z</time>
      </trkpt>
      <trkpt lat="46.20662" lon="6.46198">
        <ele>1236.07</ele>
        <time>2019-08-25T07:32:28.000Z</time>
      </trkpt>
      <trkpt lat="46.20655" lon="6.46166">
        <ele>1234.52</ele>
        <time>2019-08-25T07:32:30.000Z</time>
      </trkpt>
      <trkpt lat="46.20649" lon="6.46154">
        <ele>1233.79</ele>
        <time>2019-08-25T07:32:31.000Z</time>
      </trkpt>
      <trkpt lat="46.20641" lon="6.46141">
        <ele>1233.08</ele>
        <time>2019-08-25T07:32:32.000Z</time>
      </trkpt>
      <trkpt lat="46.20618" lon="6.4614">
        <ele>1231.26</ele>
        <time>2019-08-25T07:32:34.000Z</time>
      </trkpt>
      <trkpt lat="46.20597" lon="6.46137">
        <ele>1229.3</ele>
        <time>2019-08-25T07:32:36.000Z</time>
      </trkpt>
      <trkpt lat="46.20576" lon="6.46132">
        <ele>1227.08</ele>
        <time>2019-08-25T07:32:38.000Z</time>
      </trkpt>
      <trkpt lat="46.20556" lon="6.4613">
        <ele>1224.76</ele>
        <time>2019-08-25T07:32:40.000Z</time>
      </trkpt>
      <trkpt lat="46.20538" lon="6.46136">
        <ele>1222.4</ele>
        <time>2019-08-25T07:32:42.000Z</time>
      </trkpt>
      <trkpt lat="46.20528" lon="6.46141">
        <ele>1221.18</ele>
        <time>2019-08-25T07:32:43.000Z</time>
      </trkpt>
      <trkpt lat="46.20518" lon="6.46146">
        <ele>1220.04</ele>
        <time>2019-08-25T07:32:44.000Z</time>
      </trkpt>
      <trkpt lat="46.20507" lon="6.46148">
        <ele>1218.77</ele>
        <time>2019-08-25T07:32:45.000Z</time>
      </trkpt>
      <trkpt lat="46.20484" lon="6.46149">
        <ele>1215.94</ele>
        <time>2019-08-25T07:32:47.000Z</time>
      </trkpt>
      <trkpt lat="46.20472" lon="6.46149">
        <ele>1214.63</ele>
        <time>2019-08-25T07:32:48.000Z</time>
      </trkpt>
      <trkpt lat="46.20449" lon="6.46152">
        <ele>1212.22</ele>
        <time>2019-08-25T07:32:50.000Z</time>
      </trkpt>
      <trkpt lat="46.20437" lon="6.46156">
        <ele>1210.99</ele>
        <time>2019-08-25T07:32:51.000Z</time>
      </trkpt>
      <trkpt lat="46.20419" lon="6.46164">
        <ele>1209.02</ele>
        <time>2019-08-25T07:32:53.000Z</time>
      </trkpt>
      <trkpt lat="46.20406" lon="6.46159">
        <ele>1207.43</ele>
        <time>2019-08-25T07:32:55.000Z</time>
      </trkpt>
      <trkpt lat="46.20406" lon="6.46144">
        <ele>1205.61</ele>
        <time>2019-08-25T07:32:57.000Z</time>
      </trkpt>
      <trkpt lat="46.20415" lon="6.46132">
        <ele>1203.98</ele>
        <time>2019-08-25T07:32:59.000Z</time>
      </trkpt>
      <trkpt lat="46.20422" lon="6.46118">
        <ele>1201.99</ele>
        <time>2019-08-25T07:33:01.000Z</time>
      </trkpt>
      <trkpt lat="46.20424" lon="6.46103">
        <ele>1200.07</ele>
        <time>2019-08-25T07:33:03.000Z</time>
      </trkpt>
      <trkpt lat="46.20426" lon="6.46083">
        <ele>1198.15</ele>
        <time>2019-08-25T07:33:05.000Z</time>
      </trkpt>
      <trkpt lat="46.20434" lon="6.46052">
        <ele>1196.09</ele>
        <time>2019-08-25T07:33:08.000Z</time>
      </trkpt>
      <trkpt lat="46.20439" lon="6.46032">
        <ele>1194.17</ele>
        <time>2019-08-25T07:33:11.000Z</time>
      </trkpt>
      <trkpt lat="46.20435" lon="6.46016">
        <ele>1193.03</ele>
        <time>2019-08-25T07:33:13.000Z</time>
      </trkpt>
      <trkpt lat="46.20432" lon="6.46002">
        <ele>1192.18</ele>
        <time>2019-08-25T07:33:15.000Z</time>
      </trkpt>
      <trkpt lat="46.2043" lon="6.45988">
        <ele>1191.34</ele>
        <time>2019-08-25T07:33:17.000Z</time>
      </trkpt>
      <trkpt lat="46.20427" lon="6.45967">
        <ele>1189.61</ele>
        <time>2019-08-25T07:33:20.000Z</time>
      </trkpt>
      <trkpt lat="46.20422" lon="6.4595">
        <ele>1187.39</ele>
        <time>2019-08-25T07:33:23.000Z</time>
      </trkpt>
      <trkpt lat="46.20415" lon="6.45937">
        <ele>1184.82</ele>
        <time>2019-08-25T07:33:27.000Z</time>
      </trkpt>
      <trkpt lat="46.20409" lon="6.45924">
        <ele>1183.3</ele>
        <time>2019-08-25T07:33:31.000Z</time>
      </trkpt>
      <trkpt lat="46.20403" lon="6.45913">
        <ele>1183.37</ele>
        <time>2019-08-25T07:33:35.000Z</time>
      </trkpt>
      <trkpt lat="46.20394" lon="6.45902">
        <ele>1184.63</ele>
        <time>2019-08-25T07:33:39.000Z</time>
      </trkpt>
      <trkpt lat="46.20385" lon="6.45897">
        <ele>1185.53</ele>
        <time>2019-08-25T07:33:42.000Z</time>
      </trkpt>
      <trkpt lat="46.20375" lon="6.45893">
        <ele>1186.66</ele>
        <time>2019-08-25T07:33:45.000Z</time>
      </trkpt>
      <trkpt lat="46.20364" lon="6.45887">
        <ele>1187.88</ele>
        <time>2019-08-25T07:33:49.000Z</time>
      </trkpt>
      <trkpt lat="46.20354" lon="6.45881">
        <ele>1188.7</ele>
        <time>2019-08-25T07:33:53.000Z</time>
      </trkpt>
      <trkpt lat="46.20346" lon="6.45875">
        <ele>1189.49</ele>
        <time>2019-08-25T07:33:57.000Z</time>
      </trkpt>
      <trkpt lat="46.20337" lon="6.45866">
        <ele>1190.6</ele>
        <time>2019-08-25T07:34:03.000Z</time>
      </trkpt>
      <trkpt lat="46.20329" lon="6.45857">
        <ele>1191.59</ele>
        <time>2019-08-25T07:34:09.000Z</time>
      </trkpt>
      <trkpt lat="46.20321" lon="6.4585">
        <ele>1193.49</ele>
        <time>2019-08-25T07:34:15.000Z</time>
      </trkpt>
      <trkpt lat="46.20312" lon="6.45843">
        <ele>1195.91</ele>
        <time>2019-08-25T07:34:21.000Z</time>
      </trkpt>
      <trkpt lat="46.20303" lon="6.45838">
        <ele>1198.68</ele>
        <time>2019-08-25T07:34:28.000Z</time>
      </trkpt>
      <trkpt lat="46.20292" lon="6.45833">
        <ele>1200.87</ele>
        <time>2019-08-25T07:34:34.000Z</time>
      </trkpt>
      <trkpt lat="46.20284" lon="6.45826">
        <ele>1202.68</ele>
        <time>2019-08-25T07:34:40.000Z</time>
      </trkpt>
      <trkpt lat="46.20275" lon="6.45818">
        <ele>1204.09</ele>
        <time>2019-08-25T07:34:46.000Z</time>
      </trkpt>
      <trkpt lat="46.20267" lon="6.45812">
        <ele>1204.81</ele>
        <time>2019-08-25T07:34:50.000Z</time>
      </trkpt>
      <trkpt lat="46.20258" lon="6.45805">
        <ele>1205.42</ele>
        <time>2019-08-25T07:34:55.000Z</time>
      </trkpt>
      <trkpt lat="46.20251" lon="6.45791">
        <ele>1206.62</ele>
        <time>2019-08-25T07:35:03.000Z</time>
      </trkpt>
      <trkpt lat="46.20243" lon="6.45786">
        <ele>1207.51</ele>
        <time>2019-08-25T07:35:08.000Z</time>
      </trkpt>
      <trkpt lat="46.20236" lon="6.45777">
        <ele>1209.11</ele>
        <time>2019-08-25T07:35:15.000Z</time>
      </trkpt>
      <trkpt lat="46.20234" lon="6.45763">
        <ele>1212.78</ele>
        <time>2019-08-25T07:35:23.000Z</time>
      </trkpt>
      <trkpt lat="46.20233" lon="6.45749">
        <ele>1216.15</ele>
        <time>2019-08-25T07:35:29.000Z</time>
      </trkpt>
      <trkpt lat="46.20233" lon="6.45734">
        <ele>1219.26</ele>
        <time>2019-08-25T07:35:37.000Z</time>
      </trkpt>
      <trkpt lat="46.20229" lon="6.45722">
        <ele>1221.49</ele>
        <time>2019-08-25T07:35:43.000Z</time>
      </trkpt>
      <trkpt lat="46.20226" lon="6.45709">
        <ele>1223.75</ele>
        <time>2019-08-25T07:35:49.000Z</time>
      </trkpt>
      <trkpt lat="46.20224" lon="6.45696">
        <ele>1225.69</ele>
        <time>2019-08-25T07:35:55.000Z</time>
      </trkpt>
      <trkpt lat="46.20221" lon="6.45683">
        <ele>1227.27</ele>
        <time>2019-08-25T07:36:01.000Z</time>
      </trkpt>
      <trkpt lat="46.20215" lon="6.45669">
        <ele>1228.36</ele>
        <time>2019-08-25T07:36:06.000Z</time>
      </trkpt>
      <trkpt lat="46.2021" lon="6.45657">
        <ele>1229.25</ele>
        <time>2019-08-25T07:36:11.000Z</time>
      </trkpt>
      <trkpt lat="46.20209" lon="6.45644">
        <ele>1229.94</ele>
        <time>2019-08-25T07:36:15.000Z</time>
      </trkpt>
      <trkpt lat="46.20211" lon="6.45627">
        <ele>1231.11</ele>
        <time>2019-08-25T07:36:21.000Z</time>
      </trkpt>
      <trkpt lat="46.20211" lon="6.45611">
        <ele>1232.49</ele>
        <time>2019-08-25T07:36:27.000Z</time>
      </trkpt>
      <trkpt lat="46.20211" lon="6.45594">
        <ele>1233.91</ele>
        <time>2019-08-25T07:36:33.000Z</time>
      </trkpt>
      <trkpt lat="46.20208" lon="6.4558">
        <ele>1235.06</ele>
        <time>2019-08-25T07:36:42.000Z</time>
      </trkpt>
      <trkpt lat="46.20209" lon="6.45566">
        <ele>1237.61</ele>
        <time>2019-08-25T07:36:53.000Z</time>
      </trkpt>
      <trkpt lat="46.20208" lon="6.45547">
        <ele>1240.35</ele>
        <time>2019-08-25T07:37:03.000Z</time>
      </trkpt>
      <trkpt lat="46.20207" lon="6.45531">
        <ele>1241.73</ele>
        <time>2019-08-25T07:37:09.000Z</time>
      </trkpt>
      <trkpt lat="46.202" lon="6.45517">
        <ele>1243.37</ele>
        <time>2019-08-25T07:37:15.000Z</time>
      </trkpt>
      <trkpt lat="46.20193" lon="6.45506">
        <ele>1244.62</ele>
        <time>2019-08-25T07:37:20.000Z</time>
      </trkpt>
      <trkpt lat="46.20187" lon="6.45495">
        <ele>1245.75</ele>
        <time>2019-08-25T07:37:25.000Z</time>
      </trkpt>
      <trkpt lat="46.20178" lon="6.45485">
        <ele>1246.52</ele>
        <time>2019-08-25T07:37:31.000Z</time>
      </trkpt>
      <trkpt lat="46.20168" lon="6.45484">
        <ele>1246.81</ele>
        <time>2019-08-25T07:37:34.000Z</time>
      </trkpt>
      <trkpt lat="46.20159" lon="6.45486">
        <ele>1247.15</ele>
        <time>2019-08-25T07:37:37.000Z</time>
      </trkpt>
      <trkpt lat="46.2015" lon="6.45486">
        <ele>1247.5</ele>
        <time>2019-08-25T07:37:40.000Z</time>
      </trkpt>
      <trkpt lat="46.20138" lon="6.45487">
        <ele>1248.36</ele>
        <time>2019-08-25T07:37:44.000Z</time>
      </trkpt>
      <trkpt lat="46.20124" lon="6.45491">
        <ele>1249.49</ele>
        <time>2019-08-25T07:37:49.000Z</time>
      </trkpt>
      <trkpt lat="46.20115" lon="6.45496">
        <ele>1249.98</ele>
        <time>2019-08-25T07:37:52.000Z</time>
      </trkpt>
      <trkpt lat="46.20107" lon="6.45512">
        <ele>1250.86</ele>
        <time>2019-08-25T07:37:57.000Z</time>
      </trkpt>
      <trkpt lat="46.20097" lon="6.4552">
        <ele>1251.11</ele>
        <time>2019-08-25T07:38:00.000Z</time>
      </trkpt>
      <trkpt lat="46.20085" lon="6.45517">
        <ele>1251.31</ele>
        <time>2019-08-25T07:38:03.000Z</time>
      </trkpt>
      <trkpt lat="46.20071" lon="6.4552">
        <ele>1251.51</ele>
        <time>2019-08-25T07:38:06.000Z</time>
      </trkpt>
      <trkpt lat="46.20061" lon="6.45519">
        <ele>1251.58</ele>
        <time>2019-08-25T07:38:09.000Z</time>
      </trkpt>
      <trkpt lat="46.20044" lon="6.45516">
        <ele>1251.84</ele>
        <time>2019-08-25T07:38:14.000Z</time>
      </trkpt>
      <trkpt lat="46.20026" lon="6.45518">
        <ele>1253.67</ele>
        <time>2019-08-25T07:38:19.000Z</time>
      </trkpt>
      <trkpt lat="46.20012" lon="6.45523">
        <ele>1255.81</ele>
        <time>2019-08-25T07:38:24.000Z</time>
      </trkpt>
      <trkpt lat="46.19999" lon="6.45527">
        <ele>1257.63</ele>
        <time>2019-08-25T07:38:28.000Z</time>
      </trkpt>
      <trkpt lat="46.19986" lon="6.45531">
        <ele>1258.18</ele>
        <time>2019-08-25T07:38:32.000Z</time>
      </trkpt>
      <trkpt lat="46.19974" lon="6.45536">
        <ele>1258.44</ele>
        <time>2019-08-25T07:38:36.000Z</time>
      </trkpt>
      <trkpt lat="46.19962" lon="6.45542">
        <ele>1259.41</ele>
        <time>2019-08-25T07:38:40.000Z</time>
      </trkpt>
      <trkpt lat="46.19952" lon="6.45553">
        <ele>1260.49</ele>
        <time>2019-08-25T07:38:44.000Z</time>
      </trkpt>
      <trkpt lat="46.19943" lon="6.45558">
        <ele>1261.25</ele>
        <time>2019-08-25T07:38:46.000Z</time>
      </trkpt>
      <trkpt lat="46.19934" lon="6.45569">
        <ele>1263.13</ele>
        <time>2019-08-25T07:38:50.000Z</time>
      </trkpt>
      <trkpt lat="46.19923" lon="6.45581">
        <ele>1264.58</ele>
        <time>2019-08-25T07:38:54.000Z</time>
      </trkpt>
      <trkpt lat="46.19915" lon="6.45591">
        <ele>1265.25</ele>
        <time>2019-08-25T07:38:57.000Z</time>
      </trkpt>
      <trkpt lat="46.19904" lon="6.45604">
        <ele>1266.09</ele>
        <time>2019-08-25T07:39:00.000Z</time>
      </trkpt>
      <trkpt lat="46.19894" lon="6.45621">
        <ele>1267.03</ele>
        <time>2019-08-25T07:39:04.000Z</time>
      </trkpt>
      <trkpt lat="46.19883" lon="6.4564">
        <ele>1267.65</ele>
        <time>2019-08-25T07:39:08.000Z</time>
      </trkpt>
      <trkpt lat="46.19875" lon="6.45655">
        <ele>1268</ele>
        <time>2019-08-25T07:39:11.000Z</time>
      </trkpt>
      <trkpt lat="46.19868" lon="6.45673">
        <ele>1268.14</ele>
        <time>2019-08-25T07:39:14.000Z</time>
      </trkpt>
      <trkpt lat="46.19863" lon="6.45686">
        <ele>1268.15</ele>
        <time>2019-08-25T07:39:16.000Z</time>
      </trkpt>
      <trkpt lat="46.19858" lon="6.45704">
        <ele>1268.19</ele>
        <time>2019-08-25T07:39:19.000Z</time>
      </trkpt>
      <trkpt lat="46.19855" lon="6.45717">
        <ele>1268.05</ele>
        <time>2019-08-25T07:39:21.000Z</time>
      </trkpt>
      <trkpt lat="46.19854" lon="6.45731">
        <ele>1268.25</ele>
        <time>2019-08-25T07:39:23.000Z</time>
      </trkpt>
      <trkpt lat="46.19852" lon="6.45744">
        <ele>1268.56</ele>
        <time>2019-08-25T07:39:25.000Z</time>
      </trkpt>
      <trkpt lat="46.1985" lon="6.45757">
        <ele>1269.14</ele>
        <time>2019-08-25T07:39:27.000Z</time>
      </trkpt>
      <trkpt lat="46.19849" lon="6.45771">
        <ele>1269.69</ele>
        <time>2019-08-25T07:39:29.000Z</time>
      </trkpt>
      <trkpt lat="46.1985" lon="6.45789">
        <ele>1269.98</ele>
        <time>2019-08-25T07:39:31.000Z</time>
      </trkpt>
      <trkpt lat="46.19844" lon="6.45805">
        <ele>1269.98</ele>
        <time>2019-08-25T07:39:33.000Z</time>
      </trkpt>
      <trkpt lat="46.1983" lon="6.45813">
        <ele>1269.85</ele>
        <time>2019-08-25T07:39:35.000Z</time>
      </trkpt>
      <trkpt lat="46.19804" lon="6.45828">
        <ele>1269.25</ele>
        <time>2019-08-25T07:39:38.000Z</time>
      </trkpt>
      <trkpt lat="46.19795" lon="6.45835">
        <ele>1268.98</ele>
        <time>2019-08-25T07:39:39.000Z</time>
      </trkpt>
      <trkpt lat="46.19779" lon="6.45852">
        <ele>1268.21</ele>
        <time>2019-08-25T07:39:41.000Z</time>
      </trkpt>
      <trkpt lat="46.19773" lon="6.45864">
        <ele>1267.66</ele>
        <time>2019-08-25T07:39:42.000Z</time>
      </trkpt>
      <trkpt lat="46.19768" lon="6.45877">
        <ele>1267.21</ele>
        <time>2019-08-25T07:39:43.000Z</time>
      </trkpt>
      <trkpt lat="46.19758" lon="6.45905">
        <ele>1266.16</ele>
        <time>2019-08-25T07:39:45.000Z</time>
      </trkpt>
      <trkpt lat="46.19752" lon="6.4592">
        <ele>1265.56</ele>
        <time>2019-08-25T07:39:46.000Z</time>
      </trkpt>
      <trkpt lat="46.19741" lon="6.45947">
        <ele>1264.27</ele>
        <time>2019-08-25T07:39:48.000Z</time>
      </trkpt>
      <trkpt lat="46.19734" lon="6.45973">
        <ele>1262.86</ele>
        <time>2019-08-25T07:39:50.000Z</time>
      </trkpt>
      <trkpt lat="46.1973" lon="6.45994">
        <ele>1261.35</ele>
        <time>2019-08-25T07:39:52.000Z</time>
      </trkpt>
      <trkpt lat="46.19732" lon="6.46012">
        <ele>1259.86</ele>
        <time>2019-08-25T07:39:54.000Z</time>
      </trkpt>
      <trkpt lat="46.19738" lon="6.46025">
        <ele>1258.3</ele>
        <time>2019-08-25T07:39:57.000Z</time>
      </trkpt>
      <trkpt lat="46.19742" lon="6.46041">
        <ele>1257</ele>
        <time>2019-08-25T07:39:58.000Z</time>
      </trkpt>
      <trkpt lat="46.19744" lon="6.46059">
        <ele>1255.64</ele>
        <time>2019-08-25T07:40:00.000Z</time>
      </trkpt>
      <trkpt lat="46.19742" lon="6.4608">
        <ele>1254.64</ele>
        <time>2019-08-25T07:40:02.000Z</time>
      </trkpt>
      <trkpt lat="46.1974" lon="6.46103">
        <ele>1253.71</ele>
        <time>2019-08-25T07:40:04.000Z</time>
      </trkpt>
      <trkpt lat="46.1974" lon="6.46125">
        <ele>1252.98</ele>
        <time>2019-08-25T07:40:06.000Z</time>
      </trkpt>
      <trkpt lat="46.19738" lon="6.46147">
        <ele>1252.49</ele>
        <time>2019-08-25T07:40:08.000Z</time>
      </trkpt>
      <trkpt lat="46.19735" lon="6.46178">
        <ele>1251.84</ele>
        <time>2019-08-25T07:40:11.000Z</time>
      </trkpt>
      <trkpt lat="46.1973" lon="6.46192">
        <ele>1251.45</ele>
        <time>2019-08-25T07:40:13.000Z</time>
      </trkpt>
      <trkpt lat="46.19714" lon="6.46185">
        <ele>1250.85</ele>
        <time>2019-08-25T07:40:16.000Z</time>
      </trkpt>
      <trkpt lat="46.19701" lon="6.46178">
        <ele>1250.37</ele>
        <time>2019-08-25T07:40:18.000Z</time>
      </trkpt>
      <trkpt lat="46.19687" lon="6.46169">
        <ele>1249.74</ele>
        <time>2019-08-25T07:40:20.000Z</time>
      </trkpt>
      <trkpt lat="46.19667" lon="6.46157">
        <ele>1248.97</ele>
        <time>2019-08-25T07:40:23.000Z</time>
      </trkpt>
      <trkpt lat="46.19653" lon="6.46152">
        <ele>1248.72</ele>
        <time>2019-08-25T07:40:25.000Z</time>
      </trkpt>
      <trkpt lat="46.1964" lon="6.46149">
        <ele>1248.59</ele>
        <time>2019-08-25T07:40:27.000Z</time>
      </trkpt>
      <trkpt lat="46.19627" lon="6.46148">
        <ele>1248.48</ele>
        <time>2019-08-25T07:40:29.000Z</time>
      </trkpt>
      <trkpt lat="46.19618" lon="6.46146">
        <ele>1248.63</ele>
        <time>2019-08-25T07:40:31.000Z</time>
      </trkpt>
      <trkpt lat="46.19602" lon="6.46141">
        <ele>1250.78</ele>
        <time>2019-08-25T07:40:35.000Z</time>
      </trkpt>
      <trkpt lat="46.1959" lon="6.46137">
        <ele>1252.64</ele>
        <time>2019-08-25T07:40:39.000Z</time>
      </trkpt>
      <trkpt lat="46.19578" lon="6.46136">
        <ele>1253.23</ele>
        <time>2019-08-25T07:40:43.000Z</time>
      </trkpt>
      <trkpt lat="46.19568" lon="6.46136">
        <ele>1253.73</ele>
        <time>2019-08-25T07:40:46.000Z</time>
      </trkpt>
      <trkpt lat="46.19557" lon="6.46137">
        <ele>1253.59</ele>
        <time>2019-08-25T07:40:50.000Z</time>
      </trkpt>
      <trkpt lat="46.19543" lon="6.46135">
        <ele>1253.24</ele>
        <time>2019-08-25T07:40:52.000Z</time>
      </trkpt>
      <trkpt lat="46.19534" lon="6.46137">
        <ele>1253.74</ele>
        <time>2019-08-25T07:40:56.000Z</time>
      </trkpt>
      <trkpt lat="46.19525" lon="6.46136">
        <ele>1254.84</ele>
        <time>2019-08-25T07:41:00.000Z</time>
      </trkpt>
      <trkpt lat="46.19514" lon="6.46132">
        <ele>1255.89</ele>
        <time>2019-08-25T07:41:02.000Z</time>
      </trkpt>
      <trkpt lat="46.19501" lon="6.46121">
        <ele>1257.2</ele>
        <time>2019-08-25T07:41:06.000Z</time>
      </trkpt>
      <trkpt lat="46.19493" lon="6.46114">
        <ele>1257.91</ele>
        <time>2019-08-25T07:41:09.000Z</time>
      </trkpt>
      <trkpt lat="46.1948" lon="6.46105">
        <ele>1258.84</ele>
        <time>2019-08-25T07:41:14.000Z</time>
      </trkpt>
      <trkpt lat="46.19468" lon="6.46104">
        <ele>1259.66</ele>
        <time>2019-08-25T07:41:19.000Z</time>
      </trkpt>
      <trkpt lat="46.19458" lon="6.461">
        <ele>1260.86</ele>
        <time>2019-08-25T07:41:23.000Z</time>
      </trkpt>
      <trkpt lat="46.19448" lon="6.46099">
        <ele>1262.15</ele>
        <time>2019-08-25T07:41:27.000Z</time>
      </trkpt>
      <trkpt lat="46.19438" lon="6.46102">
        <ele>1263.63</ele>
        <time>2019-08-25T07:41:31.000Z</time>
      </trkpt>
      <trkpt lat="46.19429" lon="6.46105">
        <ele>1265.18</ele>
        <time>2019-08-25T07:41:35.000Z</time>
      </trkpt>
      <trkpt lat="46.19417" lon="6.46111">
        <ele>1266.51</ele>
        <time>2019-08-25T07:41:40.000Z</time>
      </trkpt>
      <trkpt lat="46.19408" lon="6.46114">
        <ele>1267.71</ele>
        <time>2019-08-25T07:41:44.000Z</time>
      </trkpt>
      <trkpt lat="46.19396" lon="6.4612">
        <ele>1268.96</ele>
        <time>2019-08-25T07:41:49.000Z</time>
      </trkpt>
      <trkpt lat="46.19387" lon="6.46123">
        <ele>1269.7</ele>
        <time>2019-08-25T07:41:53.000Z</time>
      </trkpt>
      <trkpt lat="46.19378" lon="6.46123">
        <ele>1270.78</ele>
        <time>2019-08-25T07:41:57.000Z</time>
      </trkpt>
      <trkpt lat="46.19367" lon="6.46124">
        <ele>1272.07</ele>
        <time>2019-08-25T07:42:01.000Z</time>
      </trkpt>
      <trkpt lat="46.19357" lon="6.46126">
        <ele>1273.31</ele>
        <time>2019-08-25T07:42:05.000Z</time>
      </trkpt>
      <trkpt lat="46.19346" lon="6.4613">
        <ele>1274.73</ele>
        <time>2019-08-25T07:42:09.000Z</time>
      </trkpt>
      <trkpt lat="46.19336" lon="6.46133">
        <ele>1275.49</ele>
        <time>2019-08-25T07:42:12.000Z</time>
      </trkpt>
      <trkpt lat="46.19326" lon="6.46133">
        <ele>1275.8</ele>
        <time>2019-08-25T07:42:14.000Z</time>
      </trkpt>
      <trkpt lat="46.19313" lon="6.46135">
        <ele>1276.18</ele>
        <time>2019-08-25T07:42:17.000Z</time>
      </trkpt>
      <trkpt lat="46.19304" lon="6.46139">
        <ele>1275.91</ele>
        <time>2019-08-25T07:42:19.000Z</time>
      </trkpt>
      <trkpt lat="46.19294" lon="6.46145">
        <ele>1275.67</ele>
        <time>2019-08-25T07:42:21.000Z</time>
      </trkpt>
      <trkpt lat="46.19287" lon="6.46157">
        <ele>1274.99</ele>
        <time>2019-08-25T07:42:24.000Z</time>
      </trkpt>
      <trkpt lat="46.19282" lon="6.46172">
        <ele>1274.1</ele>
        <time>2019-08-25T07:42:25.000Z</time>
      </trkpt>
      <trkpt lat="46.19279" lon="6.46201">
        <ele>1272.89</ele>
        <time>2019-08-25T07:42:28.000Z</time>
      </trkpt>
      <trkpt lat="46.19276" lon="6.46224">
        <ele>1272.16</ele>
        <time>2019-08-25T07:42:30.000Z</time>
      </trkpt>
      <trkpt lat="46.19269" lon="6.46248">
        <ele>1271.08</ele>
        <time>2019-08-25T07:42:32.000Z</time>
      </trkpt>
      <trkpt lat="46.19253" lon="6.46274">
        <ele>1269.63</ele>
        <time>2019-08-25T07:42:35.000Z</time>
      </trkpt>
      <trkpt lat="46.19246" lon="6.46282">
        <ele>1269.02</ele>
        <time>2019-08-25T07:42:36.000Z</time>
      </trkpt>
      <trkpt lat="46.19228" lon="6.46306">
        <ele>1267.44</ele>
        <time>2019-08-25T07:42:39.000Z</time>
      </trkpt>
      <trkpt lat="46.19218" lon="6.46319">
        <ele>1266.5</ele>
        <time>2019-08-25T07:42:41.000Z</time>
      </trkpt>
      <trkpt lat="46.19209" lon="6.46327">
        <ele>1265.51</ele>
        <time>2019-08-25T07:42:43.000Z</time>
      </trkpt>
      <trkpt lat="46.19196" lon="6.46341">
        <ele>1264.24</ele>
        <time>2019-08-25T07:42:46.000Z</time>
      </trkpt>
      <trkpt lat="46.19184" lon="6.46348">
        <ele>1263.63</ele>
        <time>2019-08-25T07:42:48.000Z</time>
      </trkpt>
      <trkpt lat="46.19169" lon="6.46358">
        <ele>1262.78</ele>
        <time>2019-08-25T07:42:50.000Z</time>
      </trkpt>
      <trkpt lat="46.19154" lon="6.46367">
        <ele>1261.54</ele>
        <time>2019-08-25T07:42:52.000Z</time>
      </trkpt>
      <trkpt lat="46.19142" lon="6.46374">
        <ele>1260.48</ele>
        <time>2019-08-25T07:42:54.000Z</time>
      </trkpt>
      <trkpt lat="46.19133" lon="6.46385">
        <ele>1258.39</ele>
        <time>2019-08-25T07:42:56.000Z</time>
      </trkpt>
      <trkpt lat="46.19126" lon="6.46404">
        <ele>1257.01</ele>
        <time>2019-08-25T07:42:58.000Z</time>
      </trkpt>
      <trkpt lat="46.19125" lon="6.46421">
        <ele>1253.06</ele>
        <time>2019-08-25T07:43:03.000Z</time>
      </trkpt>
      <trkpt lat="46.19123" lon="6.46436">
        <ele>1249.45</ele>
        <time>2019-08-25T07:43:09.000Z</time>
      </trkpt>
      <trkpt lat="46.19118" lon="6.46455">
        <ele>1248.41</ele>
        <time>2019-08-25T07:43:13.000Z</time>
      </trkpt>
      <trkpt lat="46.19119" lon="6.46476">
        <ele>1247.68</ele>
        <time>2019-08-25T07:43:16.000Z</time>
      </trkpt>
      <trkpt lat="46.19116" lon="6.46492">
        <ele>1247.54</ele>
        <time>2019-08-25T07:43:18.000Z</time>
      </trkpt>
      <trkpt lat="46.19116" lon="6.46513">
        <ele>1247.42</ele>
        <time>2019-08-25T07:43:21.000Z</time>
      </trkpt>
      <trkpt lat="46.19113" lon="6.46533">
        <ele>1247.42</ele>
        <time>2019-08-25T07:43:24.000Z</time>
      </trkpt>
      <trkpt lat="46.19111" lon="6.46548">
        <ele>1247.39</ele>
        <time>2019-08-25T07:43:27.000Z</time>
      </trkpt>
      <trkpt lat="46.19113" lon="6.46566">
        <ele>1247.65</ele>
        <time>2019-08-25T07:43:28.000Z</time>
      </trkpt>
      <trkpt lat="46.19107" lon="6.46592">
        <ele>1248.01</ele>
        <time>2019-08-25T07:43:31.000Z</time>
      </trkpt>
      <trkpt lat="46.19093" lon="6.46613">
        <ele>1247.8</ele>
        <time>2019-08-25T07:43:34.000Z</time>
      </trkpt>
      <trkpt lat="46.19085" lon="6.46625">
        <ele>1247.52</ele>
        <time>2019-08-25T07:43:36.000Z</time>
      </trkpt>
      <trkpt lat="46.19073" lon="6.46638">
        <ele>1247.14</ele>
        <time>2019-08-25T07:43:39.000Z</time>
      </trkpt>
      <trkpt lat="46.19068" lon="6.46665">
        <ele>1246.77</ele>
        <time>2019-08-25T07:43:44.000Z</time>
      </trkpt>
      <trkpt lat="46.19059" lon="6.46674">
        <ele>1246.56</ele>
        <time>2019-08-25T07:43:46.000Z</time>
      </trkpt>
      <trkpt lat="46.19053" lon="6.46688">
        <ele>1246.31</ele>
        <time>2019-08-25T07:43:48.000Z</time>
      </trkpt>
      <trkpt lat="46.19049" lon="6.46703">
        <ele>1246.27</ele>
        <time>2019-08-25T07:43:50.000Z</time>
      </trkpt>
      <trkpt lat="46.19043" lon="6.46726">
        <ele>1246.13</ele>
        <time>2019-08-25T07:43:53.000Z</time>
      </trkpt>
      <trkpt lat="46.19036" lon="6.4674">
        <ele>1246.04</ele>
        <time>2019-08-25T07:43:55.000Z</time>
      </trkpt>
      <trkpt lat="46.19036" lon="6.46771">
        <ele>1245.93</ele>
        <time>2019-08-25T07:43:58.000Z</time>
      </trkpt>
      <trkpt lat="46.19028" lon="6.4679">
        <ele>1245.89</ele>
        <time>2019-08-25T07:44:00.000Z</time>
      </trkpt>
      <trkpt lat="46.1902" lon="6.46807">
        <ele>1245.49</ele>
        <time>2019-08-25T07:44:02.000Z</time>
      </trkpt>
      <trkpt lat="46.19014" lon="6.46826">
        <ele>1244.72</ele>
        <time>2019-08-25T07:44:04.000Z</time>
      </trkpt>
      <trkpt lat="46.19012" lon="6.46844">
        <ele>1243.88</ele>
        <time>2019-08-25T07:44:06.000Z</time>
      </trkpt>
      <trkpt lat="46.19011" lon="6.46861">
        <ele>1243.12</ele>
        <time>2019-08-25T07:44:09.000Z</time>
      </trkpt>
      <trkpt lat="46.1901" lon="6.46886">
        <ele>1242.23</ele>
        <time>2019-08-25T07:44:11.000Z</time>
      </trkpt>
      <trkpt lat="46.19004" lon="6.46904">
        <ele>1241.06</ele>
        <time>2019-08-25T07:44:13.000Z</time>
      </trkpt>
      <trkpt lat="46.18992" lon="6.46924">
        <ele>1238.56</ele>
        <time>2019-08-25T07:44:16.000Z</time>
      </trkpt>
      <trkpt lat="46.18989" lon="6.46939">
        <ele>1237.26</ele>
        <time>2019-08-25T07:44:18.000Z</time>
      </trkpt>
      <trkpt lat="46.18996" lon="6.46959">
        <ele>1236.39</ele>
        <time>2019-08-25T07:44:21.000Z</time>
      </trkpt>
      <trkpt lat="46.19009" lon="6.46981">
        <ele>1236.06</ele>
        <time>2019-08-25T07:44:24.000Z</time>
      </trkpt>
      <trkpt lat="46.19017" lon="6.46997">
        <ele>1235.21</ele>
        <time>2019-08-25T07:44:26.000Z</time>
      </trkpt>
      <trkpt lat="46.19024" lon="6.47015">
        <ele>1234.58</ele>
        <time>2019-08-25T07:44:28.000Z</time>
      </trkpt>
      <trkpt lat="46.1903" lon="6.47033">
        <ele>1234.42</ele>
        <time>2019-08-25T07:44:30.000Z</time>
      </trkpt>
      <trkpt lat="46.19038" lon="6.47062">
        <ele>1235.27</ele>
        <time>2019-08-25T07:44:33.000Z</time>
      </trkpt>
      <trkpt lat="46.19045" lon="6.4708">
        <ele>1235.93</ele>
        <time>2019-08-25T07:44:35.000Z</time>
      </trkpt>
      <trkpt lat="46.19057" lon="6.47103">
        <ele>1236.14</ele>
        <time>2019-08-25T07:44:38.000Z</time>
      </trkpt>
      <trkpt lat="46.19064" lon="6.47117">
        <ele>1236.06</ele>
        <time>2019-08-25T07:44:40.000Z</time>
      </trkpt>
      <trkpt lat="46.19066" lon="6.47132">
        <ele>1236.39</ele>
        <time>2019-08-25T07:44:42.000Z</time>
      </trkpt>
      <trkpt lat="46.19061" lon="6.47151">
        <ele>1237.12</ele>
        <time>2019-08-25T07:44:45.000Z</time>
      </trkpt>
      <trkpt lat="46.19057" lon="6.47162">
        <ele>1237.37</ele>
        <time>2019-08-25T07:44:47.000Z</time>
      </trkpt>
      <trkpt lat="46.19049" lon="6.47193">
        <ele>1236.04</ele>
        <time>2019-08-25T07:44:51.000Z</time>
      </trkpt>
      <trkpt lat="46.19046" lon="6.47215">
        <ele>1234.69</ele>
        <time>2019-08-25T07:44:52.000Z</time>
      </trkpt>
      <trkpt lat="46.19041" lon="6.47245">
        <ele>1232.67</ele>
        <time>2019-08-25T07:44:55.000Z</time>
      </trkpt>
      <trkpt lat="46.19039" lon="6.4726">
        <ele>1231.68</ele>
        <time>2019-08-25T07:44:57.000Z</time>
      </trkpt>
      <trkpt lat="46.19037" lon="6.47284">
        <ele>1230.7</ele>
        <time>2019-08-25T07:45:00.000Z</time>
      </trkpt>
      <trkpt lat="46.19037" lon="6.47299">
        <ele>1230.03</ele>
        <time>2019-08-25T07:45:02.000Z</time>
      </trkpt>
      <trkpt lat="46.19034" lon="6.47316">
        <ele>1229.85</ele>
        <time>2019-08-25T07:45:04.000Z</time>
      </trkpt>
      <trkpt lat="46.19032" lon="6.47329">
        <ele>1230.29</ele>
        <time>2019-08-25T07:45:06.000Z</time>
      </trkpt>
      <trkpt lat="46.1903" lon="6.47343">
        <ele>1232.91</ele>
        <time>2019-08-25T07:45:12.000Z</time>
      </trkpt>
      <trkpt lat="46.19034" lon="6.47355">
        <ele>1235.06</ele>
        <time>2019-08-25T07:45:17.000Z</time>
      </trkpt>
      <trkpt lat="46.19025" lon="6.47358">
        <ele>1237.32</ele>
        <time>2019-08-25T07:45:27.000Z</time>
      </trkpt>
      <trkpt lat="46.19015" lon="6.47359">
        <ele>1238.5</ele>
        <time>2019-08-25T07:45:33.000Z</time>
      </trkpt>
      <trkpt lat="46.19005" lon="6.4736">
        <ele>1239.51</ele>
        <time>2019-08-25T07:45:37.000Z</time>
      </trkpt>
      <trkpt lat="46.18996" lon="6.47364">
        <ele>1240.55</ele>
        <time>2019-08-25T07:45:41.000Z</time>
      </trkpt>
      <trkpt lat="46.18985" lon="6.47369">
        <ele>1241.97</ele>
        <time>2019-08-25T07:45:47.000Z</time>
      </trkpt>
      <trkpt lat="46.18976" lon="6.47372">
        <ele>1243.43</ele>
        <time>2019-08-25T07:45:52.000Z</time>
      </trkpt>
      <trkpt lat="46.18964" lon="6.47375">
        <ele>1246.16</ele>
        <time>2019-08-25T07:45:59.000Z</time>
      </trkpt>
      <trkpt lat="46.18954" lon="6.47374">
        <ele>1247.47</ele>
        <time>2019-08-25T07:46:04.000Z</time>
      </trkpt>
      <trkpt lat="46.18944" lon="6.47373">
        <ele>1248.61</ele>
        <time>2019-08-25T07:46:08.000Z</time>
      </trkpt>
      <trkpt lat="46.18934" lon="6.47371">
        <ele>1249.03</ele>
        <time>2019-08-25T07:46:10.000Z</time>
      </trkpt>
      <trkpt lat="46.1892" lon="6.47361">
        <ele>1249.83</ele>
        <time>2019-08-25T07:46:15.000Z</time>
      </trkpt>
      <trkpt lat="46.18911" lon="6.47353">
        <ele>1250.1</ele>
        <time>2019-08-25T07:46:16.000Z</time>
      </trkpt>
      <trkpt lat="46.18903" lon="6.47346">
        <ele>1250.47</ele>
        <time>2019-08-25T07:46:18.000Z</time>
      </trkpt>
      <trkpt lat="46.18883" lon="6.47337">
        <ele>1250.44</ele>
        <time>2019-08-25T07:46:21.000Z</time>
      </trkpt>
      <trkpt lat="46.1887" lon="6.47338">
        <ele>1250.3</ele>
        <time>2019-08-25T07:46:23.000Z</time>
      </trkpt>
      <trkpt lat="46.18856" lon="6.47331">
        <ele>1249.81</ele>
        <time>2019-08-25T07:46:25.000Z</time>
      </trkpt>
      <trkpt lat="46.18846" lon="6.47322">
        <ele>1249.61</ele>
        <time>2019-08-25T07:46:27.000Z</time>
      </trkpt>
      <trkpt lat="46.18839" lon="6.47305">
        <ele>1248.56</ele>
        <time>2019-08-25T07:46:29.000Z</time>
      </trkpt>
      <trkpt lat="46.18832" lon="6.47288">
        <ele>1247.42</ele>
        <time>2019-08-25T07:46:31.000Z</time>
      </trkpt>
      <trkpt lat="46.18822" lon="6.47257">
        <ele>1245.18</ele>
        <time>2019-08-25T07:46:34.000Z</time>
      </trkpt>
      <trkpt lat="46.18817" lon="6.47246">
        <ele>1244.62</ele>
        <time>2019-08-25T07:46:36.000Z</time>
      </trkpt>
      <trkpt lat="46.18806" lon="6.47226">
        <ele>1243.81</ele>
        <time>2019-08-25T07:46:37.000Z</time>
      </trkpt>
      <trkpt lat="46.18797" lon="6.47205">
        <ele>1242.45</ele>
        <time>2019-08-25T07:46:39.000Z</time>
      </trkpt>
      <trkpt lat="46.18787" lon="6.47198">
        <ele>1241.85</ele>
        <time>2019-08-25T07:46:40.000Z</time>
      </trkpt>
      <trkpt lat="46.18773" lon="6.47183">
        <ele>1240.31</ele>
        <time>2019-08-25T07:46:42.000Z</time>
      </trkpt>
      <trkpt lat="46.1876" lon="6.47171">
        <ele>1238.55</ele>
        <time>2019-08-25T07:46:44.000Z</time>
      </trkpt>
      <trkpt lat="46.18734" lon="6.47153">
        <ele>1237.47</ele>
        <time>2019-08-25T07:46:47.000Z</time>
      </trkpt>
      <trkpt lat="46.18721" lon="6.47135">
        <ele>1236.64</ele>
        <time>2019-08-25T07:46:49.000Z</time>
      </trkpt>
      <trkpt lat="46.18711" lon="6.47118">
        <ele>1235.81</ele>
        <time>2019-08-25T07:46:51.000Z</time>
      </trkpt>
      <trkpt lat="46.18706" lon="6.47097">
        <ele>1233.44</ele>
        <time>2019-08-25T07:46:54.000Z</time>
      </trkpt>
      <trkpt lat="46.187" lon="6.47075">
        <ele>1232.31</ele>
        <time>2019-08-25T07:46:58.000Z</time>
      </trkpt>
      <trkpt lat="46.18695" lon="6.47056">
        <ele>1231.92</ele>
        <time>2019-08-25T07:47:01.000Z</time>
      </trkpt>
      <trkpt lat="46.1869" lon="6.47046">
        <ele>1231.52</ele>
        <time>2019-08-25T07:47:03.000Z</time>
      </trkpt>
      <trkpt lat="46.1868" lon="6.47031">
        <ele>1231.86</ele>
        <time>2019-08-25T07:47:07.000Z</time>
      </trkpt>
      <trkpt lat="46.1867" lon="6.47028">
        <ele>1234.07</ele>
        <time>2019-08-25T07:47:11.000Z</time>
      </trkpt>
      <trkpt lat="46.18656" lon="6.47021">
        <ele>1235.41</ele>
        <time>2019-08-25T07:47:14.000Z</time>
      </trkpt>
      <trkpt lat="46.18645" lon="6.47015">
        <ele>1236.66</ele>
        <time>2019-08-25T07:47:18.000Z</time>
      </trkpt>
      <trkpt lat="46.18634" lon="6.47005">
        <ele>1238.07</ele>
        <time>2019-08-25T07:47:20.000Z</time>
      </trkpt>
      <trkpt lat="46.18622" lon="6.46997">
        <ele>1239.38</ele>
        <time>2019-08-25T07:47:23.000Z</time>
      </trkpt>
      <trkpt lat="46.1861" lon="6.46985">
        <ele>1240.34</ele>
        <time>2019-08-25T07:47:26.000Z</time>
      </trkpt>
      <trkpt lat="46.18601" lon="6.46976">
        <ele>1240.98</ele>
        <time>2019-08-25T07:47:30.000Z</time>
      </trkpt>
      <trkpt lat="46.18608" lon="6.46964">
        <ele>1241.46</ele>
        <time>2019-08-25T07:47:33.000Z</time>
      </trkpt>
      <trkpt lat="46.18617" lon="6.46957">
        <ele>1241.75</ele>
        <time>2019-08-25T07:47:35.000Z</time>
      </trkpt>
      <trkpt lat="46.18625" lon="6.46948">
        <ele>1241.9</ele>
        <time>2019-08-25T07:47:37.000Z</time>
      </trkpt>
      <trkpt lat="46.18641" lon="6.46941">
        <ele>1241.89</ele>
        <time>2019-08-25T07:47:39.000Z</time>
      </trkpt>
      <trkpt lat="46.18656" lon="6.46925">
        <ele>1241.88</ele>
        <time>2019-08-25T07:47:42.000Z</time>
      </trkpt>
      <trkpt lat="46.18671" lon="6.46912">
        <ele>1241.99</ele>
        <time>2019-08-25T07:47:45.000Z</time>
      </trkpt>
      <trkpt lat="46.18682" lon="6.46905">
        <ele>1242.11</ele>
        <time>2019-08-25T07:47:47.000Z</time>
      </trkpt>
      <trkpt lat="46.18693" lon="6.46897">
        <ele>1242.2</ele>
        <time>2019-08-25T07:47:49.000Z</time>
      </trkpt>
      <trkpt lat="46.18702" lon="6.46893">
        <ele>1242.25</ele>
        <time>2019-08-25T07:47:51.000Z</time>
      </trkpt>
      <trkpt lat="46.1871" lon="6.46887">
        <ele>1242.28</ele>
        <time>2019-08-25T07:47:53.000Z</time>
      </trkpt>
      <trkpt lat="46.187" lon="6.46882">
        <ele>1242.9</ele>
        <time>2019-08-25T07:48:13.000Z</time>
      </trkpt>
      <trkpt lat="46.1869" lon="6.46881">
        <ele>1243.9</ele>
        <time>2019-08-25T07:48:18.000Z</time>
      </trkpt>
      <trkpt lat="46.1868" lon="6.46871">
        <ele>1245.68</ele>
        <time>2019-08-25T07:48:24.000Z</time>
      </trkpt>
      <trkpt lat="46.18667" lon="6.46866">
        <ele>1246.54</ele>
        <time>2019-08-25T07:48:28.000Z</time>
      </trkpt>
      <trkpt lat="46.1865" lon="6.46864">
        <ele>1247.04</ele>
        <time>2019-08-25T07:48:33.000Z</time>
      </trkpt>
      <trkpt lat="46.18641" lon="6.46862">
        <ele>1247.29</ele>
        <time>2019-08-25T07:48:37.000Z</time>
      </trkpt>
      <trkpt lat="46.18633" lon="6.46851">
        <ele>1248.86</ele>
        <time>2019-08-25T07:48:45.000Z</time>
      </trkpt>
      <trkpt lat="46.18623" lon="6.46843">
        <ele>1250.62</ele>
        <time>2019-08-25T07:48:54.000Z</time>
      </trkpt>
      <trkpt lat="46.18614" lon="6.46835">
        <ele>1253.23</ele>
        <time>2019-08-25T07:49:00.000Z</time>
      </trkpt>
      <trkpt lat="46.18607" lon="6.46824">
        <ele>1256.16</ele>
        <time>2019-08-25T07:49:06.000Z</time>
      </trkpt>
      <trkpt lat="46.18601" lon="6.46808">
        <ele>1259.05</ele>
        <time>2019-08-25T07:49:12.000Z</time>
      </trkpt>
      <trkpt lat="46.18591" lon="6.46802">
        <ele>1262.08</ele>
        <time>2019-08-25T07:49:18.000Z</time>
      </trkpt>
      <trkpt lat="46.18583" lon="6.46798">
        <ele>1264.22</ele>
        <time>2019-08-25T07:49:25.000Z</time>
      </trkpt>
      <trkpt lat="46.18572" lon="6.46789">
        <ele>1267.94</ele>
        <time>2019-08-25T07:49:35.000Z</time>
      </trkpt>
      <trkpt lat="46.18563" lon="6.4678">
        <ele>1270.39</ele>
        <time>2019-08-25T07:49:42.000Z</time>
      </trkpt>
      <trkpt lat="46.18556" lon="6.46771">
        <ele>1273.06</ele>
        <time>2019-08-25T07:49:50.000Z</time>
      </trkpt>
      <trkpt lat="46.1855" lon="6.46761">
        <ele>1275.19</ele>
        <time>2019-08-25T07:49:57.000Z</time>
      </trkpt>
      <trkpt lat="46.18538" lon="6.46732">
        <ele>1276.32</ele>
        <time>2019-08-25T07:50:02.000Z</time>
      </trkpt>
      <trkpt lat="46.18531" lon="6.46724">
        <ele>1276.89</ele>
        <time>2019-08-25T07:50:06.000Z</time>
      </trkpt>
      <trkpt lat="46.1852" lon="6.46717">
        <ele>1276.78</ele>
        <time>2019-08-25T07:50:11.000Z</time>
      </trkpt>
      <trkpt lat="46.18514" lon="6.46703">
        <ele>1279.18</ele>
        <time>2019-08-25T07:50:30.000Z</time>
      </trkpt>
      <trkpt lat="46.18507" lon="6.46689">
        <ele>1280.46</ele>
        <time>2019-08-25T07:50:35.000Z</time>
      </trkpt>
      <trkpt lat="46.18499" lon="6.46675">
        <ele>1281.25</ele>
        <time>2019-08-25T07:50:39.000Z</time>
      </trkpt>
      <trkpt lat="46.1849" lon="6.46657">
        <ele>1280.9</ele>
        <time>2019-08-25T07:50:41.000Z</time>
      </trkpt>
      <trkpt lat="46.18481" lon="6.46644">
        <ele>1279.52</ele>
        <time>2019-08-25T07:50:45.000Z</time>
      </trkpt>
      <trkpt lat="46.18473" lon="6.46618">
        <ele>1277.74</ele>
        <time>2019-08-25T07:50:48.000Z</time>
      </trkpt>
      <trkpt lat="46.18472" lon="6.46604">
        <ele>1274.57</ele>
        <time>2019-08-25T07:50:52.000Z</time>
      </trkpt>
      <trkpt lat="46.18467" lon="6.4659">
        <ele>1274.29</ele>
        <time>2019-08-25T07:50:57.000Z</time>
      </trkpt>
      <trkpt lat="46.18461" lon="6.4658">
        <ele>1275.84</ele>
        <time>2019-08-25T07:51:01.000Z</time>
      </trkpt>
      <trkpt lat="46.18451" lon="6.46561">
        <ele>1278.69</ele>
        <time>2019-08-25T07:51:06.000Z</time>
      </trkpt>
      <trkpt lat="46.18445" lon="6.4655">
        <ele>1279.3</ele>
        <time>2019-08-25T07:51:08.000Z</time>
      </trkpt>
      <trkpt lat="46.18435" lon="6.46535">
        <ele>1279.54</ele>
        <time>2019-08-25T07:51:13.000Z</time>
      </trkpt>
      <trkpt lat="46.18419" lon="6.46523">
        <ele>1279.92</ele>
        <time>2019-08-25T07:51:16.000Z</time>
      </trkpt>
      <trkpt lat="46.18406" lon="6.46518">
        <ele>1281</ele>
        <time>2019-08-25T07:51:21.000Z</time>
      </trkpt>
      <trkpt lat="46.18399" lon="6.46508">
        <ele>1284.21</ele>
        <time>2019-08-25T07:51:36.000Z</time>
      </trkpt>
      <trkpt lat="46.18395" lon="6.46494">
        <ele>1286.19</ele>
        <time>2019-08-25T07:51:44.000Z</time>
      </trkpt>
      <trkpt lat="46.18392" lon="6.4648">
        <ele>1288.13</ele>
        <time>2019-08-25T07:51:49.000Z</time>
      </trkpt>
      <trkpt lat="46.18383" lon="6.46467">
        <ele>1288.95</ele>
        <time>2019-08-25T07:51:52.000Z</time>
      </trkpt>
      <trkpt lat="46.18374" lon="6.4646">
        <ele>1289.2</ele>
        <time>2019-08-25T07:51:54.000Z</time>
      </trkpt>
      <trkpt lat="46.18363" lon="6.46457">
        <ele>1289.15</ele>
        <time>2019-08-25T07:51:58.000Z</time>
      </trkpt>
      <trkpt lat="46.18349" lon="6.46455">
        <ele>1289.22</ele>
        <time>2019-08-25T07:52:01.000Z</time>
      </trkpt>
      <trkpt lat="46.1834" lon="6.4645">
        <ele>1289.61</ele>
        <time>2019-08-25T07:52:05.000Z</time>
      </trkpt>
      <trkpt lat="46.18329" lon="6.46446">
        <ele>1293.82</ele>
        <time>2019-08-25T07:52:22.000Z</time>
      </trkpt>
      <trkpt lat="46.18317" lon="6.46441">
        <ele>1293.84</ele>
        <time>2019-08-25T07:52:27.000Z</time>
      </trkpt>
      <trkpt lat="46.18307" lon="6.4643">
        <ele>1293.78</ele>
        <time>2019-08-25T07:52:30.000Z</time>
      </trkpt>
      <trkpt lat="46.18309" lon="6.46404">
        <ele>1293.68</ele>
        <time>2019-08-25T07:52:34.000Z</time>
      </trkpt>
      <trkpt lat="46.18309" lon="6.46385">
        <ele>1293.46</ele>
        <time>2019-08-25T07:52:36.000Z</time>
      </trkpt>
      <trkpt lat="46.18309" lon="6.46367">
        <ele>1293.25</ele>
        <time>2019-08-25T07:52:38.000Z</time>
      </trkpt>
      <trkpt lat="46.18304" lon="6.4634">
        <ele>1292.89</ele>
        <time>2019-08-25T07:52:41.000Z</time>
      </trkpt>
      <trkpt lat="46.18287" lon="6.46317">
        <ele>1292.54</ele>
        <time>2019-08-25T07:52:44.000Z</time>
      </trkpt>
      <trkpt lat="46.1828" lon="6.46309">
        <ele>1291.85</ele>
        <time>2019-08-25T07:52:46.000Z</time>
      </trkpt>
      <trkpt lat="46.18268" lon="6.46299">
        <ele>1291.4</ele>
        <time>2019-08-25T07:52:47.000Z</time>
      </trkpt>
      <trkpt lat="46.1826" lon="6.46293">
        <ele>1288.58</ele>
        <time>2019-08-25T07:52:51.000Z</time>
      </trkpt>
      <trkpt lat="46.18249" lon="6.46296">
        <ele>1276.74</ele>
        <time>2019-08-25T07:53:23.000Z</time>
      </trkpt>
      <trkpt lat="46.18237" lon="6.46282">
        <ele>1276.86</ele>
        <time>2019-08-25T07:53:24.000Z</time>
      </trkpt>
      <trkpt lat="46.18229" lon="6.46273">
        <ele>1277.19</ele>
        <time>2019-08-25T07:53:26.000Z</time>
      </trkpt>
      <trkpt lat="46.18218" lon="6.46264">
        <ele>1277.43</ele>
        <time>2019-08-25T07:53:28.000Z</time>
      </trkpt>
      <trkpt lat="46.18206" lon="6.46255">
        <ele>1277.58</ele>
        <time>2019-08-25T07:53:30.000Z</time>
      </trkpt>
      <trkpt lat="46.18198" lon="6.46248">
        <ele>1277.53</ele>
        <time>2019-08-25T07:53:32.000Z</time>
      </trkpt>
      <trkpt lat="46.18187" lon="6.4624">
        <ele>1277.43</ele>
        <time>2019-08-25T07:53:35.000Z</time>
      </trkpt>
      <trkpt lat="46.18177" lon="6.46238">
        <ele>1277.13</ele>
        <time>2019-08-25T07:53:38.000Z</time>
      </trkpt>
      <trkpt lat="46.18168" lon="6.46237">
        <ele>1276.81</ele>
        <time>2019-08-25T07:53:40.000Z</time>
      </trkpt>
      <trkpt lat="46.18151" lon="6.46231">
        <ele>1276.33</ele>
        <time>2019-08-25T07:53:43.000Z</time>
      </trkpt>
      <trkpt lat="46.18139" lon="6.46228">
        <ele>1276.44</ele>
        <time>2019-08-25T07:53:45.000Z</time>
      </trkpt>
      <trkpt lat="46.18127" lon="6.46224">
        <ele>1276.55</ele>
        <time>2019-08-25T07:53:47.000Z</time>
      </trkpt>
      <trkpt lat="46.18114" lon="6.4622">
        <ele>1276.79</ele>
        <time>2019-08-25T07:53:49.000Z</time>
      </trkpt>
      <trkpt lat="46.18099" lon="6.46212">
        <ele>1277.09</ele>
        <time>2019-08-25T07:53:52.000Z</time>
      </trkpt>
      <trkpt lat="46.18091" lon="6.46199">
        <ele>1277.29</ele>
        <time>2019-08-25T07:53:55.000Z</time>
      </trkpt>
      <trkpt lat="46.18086" lon="6.46183">
        <ele>1277.27</ele>
        <time>2019-08-25T07:53:57.000Z</time>
      </trkpt>
      <trkpt lat="46.18074" lon="6.46167">
        <ele>1276.32</ele>
        <time>2019-08-25T07:54:00.000Z</time>
      </trkpt>
      <trkpt lat="46.1806" lon="6.46159">
        <ele>1275.5</ele>
        <time>2019-08-25T07:54:02.000Z</time>
      </trkpt>
      <trkpt lat="46.18039" lon="6.46155">
        <ele>1273.96</ele>
        <time>2019-08-25T07:54:05.000Z</time>
      </trkpt>
      <trkpt lat="46.18017" lon="6.46151">
        <ele>1272.16</ele>
        <time>2019-08-25T07:54:08.000Z</time>
      </trkpt>
      <trkpt lat="46.18002" lon="6.46142">
        <ele>1269.97</ele>
        <time>2019-08-25T07:54:11.000Z</time>
      </trkpt>
      <trkpt lat="46.17989" lon="6.46125">
        <ele>1268.18</ele>
        <time>2019-08-25T07:54:14.000Z</time>
      </trkpt>
      <trkpt lat="46.17976" lon="6.46099">
        <ele>1267.62</ele>
        <time>2019-08-25T07:54:17.000Z</time>
      </trkpt>
      <trkpt lat="46.17969" lon="6.46083">
        <ele>1267.05</ele>
        <time>2019-08-25T07:54:19.000Z</time>
      </trkpt>
      <trkpt lat="46.17957" lon="6.46068">
        <ele>1265.74</ele>
        <time>2019-08-25T07:54:23.000Z</time>
      </trkpt>
      <trkpt lat="46.17941" lon="6.46067">
        <ele>1264.59</ele>
        <time>2019-08-25T07:54:25.000Z</time>
      </trkpt>
      <trkpt lat="46.17932" lon="6.46068">
        <ele>1264</ele>
        <time>2019-08-25T07:54:26.000Z</time>
      </trkpt>
      <trkpt lat="46.17922" lon="6.46071">
        <ele>1263.17</ele>
        <time>2019-08-25T07:54:27.000Z</time>
      </trkpt>
      <trkpt lat="46.17902" lon="6.46076">
        <ele>1261.68</ele>
        <time>2019-08-25T07:54:29.000Z</time>
      </trkpt>
      <trkpt lat="46.1788" lon="6.46086">
        <ele>1259.4</ele>
        <time>2019-08-25T07:54:32.000Z</time>
      </trkpt>
      <trkpt lat="46.17871" lon="6.461">
        <ele>1257.48</ele>
        <time>2019-08-25T07:54:34.000Z</time>
      </trkpt>
      <trkpt lat="46.17859" lon="6.46118">
        <ele>1255.42</ele>
        <time>2019-08-25T07:54:36.000Z</time>
      </trkpt>
      <trkpt lat="46.17853" lon="6.46129">
        <ele>1254.21</ele>
        <time>2019-08-25T07:54:37.000Z</time>
      </trkpt>
      <trkpt lat="46.17836" lon="6.4615">
        <ele>1252.09</ele>
        <time>2019-08-25T07:54:39.000Z</time>
      </trkpt>
      <trkpt lat="46.17821" lon="6.46164">
        <ele>1250.33</ele>
        <time>2019-08-25T07:54:41.000Z</time>
      </trkpt>
      <trkpt lat="46.17806" lon="6.46169">
        <ele>1249.03</ele>
        <time>2019-08-25T07:54:43.000Z</time>
      </trkpt>
      <trkpt lat="46.17795" lon="6.46169">
        <ele>1247.84</ele>
        <time>2019-08-25T07:54:45.000Z</time>
      </trkpt>
      <trkpt lat="46.17785" lon="6.46176">
        <ele>1246.52</ele>
        <time>2019-08-25T07:54:47.000Z</time>
      </trkpt>
      <trkpt lat="46.17776" lon="6.46182">
        <ele>1245.21</ele>
        <time>2019-08-25T07:54:49.000Z</time>
      </trkpt>
      <trkpt lat="46.17762" lon="6.46188">
        <ele>1244.13</ele>
        <time>2019-08-25T07:54:51.000Z</time>
      </trkpt>
      <trkpt lat="46.17747" lon="6.46189">
        <ele>1243.55</ele>
        <time>2019-08-25T07:54:53.000Z</time>
      </trkpt>
      <trkpt lat="46.17736" lon="6.4619">
        <ele>1243.51</ele>
        <time>2019-08-25T07:54:55.000Z</time>
      </trkpt>
      <trkpt lat="46.17724" lon="6.4619">
        <ele>1243.93</ele>
        <time>2019-08-25T07:54:57.000Z</time>
      </trkpt>
      <trkpt lat="46.17713" lon="6.4619">
        <ele>1244.42</ele>
        <time>2019-08-25T07:54:59.000Z</time>
      </trkpt>
      <trkpt lat="46.17703" lon="6.46185">
        <ele>1244.69</ele>
        <time>2019-08-25T07:55:01.000Z</time>
      </trkpt>
      <trkpt lat="46.17694" lon="6.46169">
        <ele>1244.83</ele>
        <time>2019-08-25T07:55:05.000Z</time>
      </trkpt>
      <trkpt lat="46.17694" lon="6.46147">
        <ele>1245.44</ele>
        <time>2019-08-25T07:55:09.000Z</time>
      </trkpt>
      <trkpt lat="46.17696" lon="6.46133">
        <ele>1245.6</ele>
        <time>2019-08-25T07:55:11.000Z</time>
      </trkpt>
      <trkpt lat="46.17702" lon="6.4612">
        <ele>1245.65</ele>
        <time>2019-08-25T07:55:14.000Z</time>
      </trkpt>
      <trkpt lat="46.17695" lon="6.46106">
        <ele>1245.83</ele>
        <time>2019-08-25T07:55:18.000Z</time>
      </trkpt>
      <trkpt lat="46.177" lon="6.46118">
        <ele>1244.5</ele>
        <time>2019-08-25T07:59:26.000Z</time>
      </trkpt>
      <trkpt lat="46.17708" lon="6.46124">
        <ele>1245.18</ele>
        <time>2019-08-25T07:59:29.000Z</time>
      </trkpt>
      <trkpt lat="46.17719" lon="6.46119">
        <ele>1245.98</ele>
        <time>2019-08-25T07:59:32.000Z</time>
      </trkpt>
      <trkpt lat="46.17728" lon="6.46098">
        <ele>1246.49</ele>
        <time>2019-08-25T07:59:34.000Z</time>
      </trkpt>
      <trkpt lat="46.17735" lon="6.46088">
        <ele>1247.01</ele>
        <time>2019-08-25T07:59:36.000Z</time>
      </trkpt>
      <trkpt lat="46.17747" lon="6.46075">
        <ele>1247.16</ele>
        <time>2019-08-25T07:59:39.000Z</time>
      </trkpt>
      <trkpt lat="46.17755" lon="6.46066">
        <ele>1246.79</ele>
        <time>2019-08-25T07:59:41.000Z</time>
      </trkpt>
      <trkpt lat="46.17761" lon="6.46054">
        <ele>1245.65</ele>
        <time>2019-08-25T07:59:44.000Z</time>
      </trkpt>
      <trkpt lat="46.17767" lon="6.46043">
        <ele>1245.23</ele>
        <time>2019-08-25T07:59:46.000Z</time>
      </trkpt>
      <trkpt lat="46.1777" lon="6.46028">
        <ele>1245.02</ele>
        <time>2019-08-25T07:59:49.000Z</time>
      </trkpt>
      <trkpt lat="46.17773" lon="6.4601">
        <ele>1244.76</ele>
        <time>2019-08-25T07:59:52.000Z</time>
      </trkpt>
      <trkpt lat="46.17779" lon="6.45988">
        <ele>1245.44</ele>
        <time>2019-08-25T07:59:56.000Z</time>
      </trkpt>
      <trkpt lat="46.17778" lon="6.45974">
        <ele>1246.28</ele>
        <time>2019-08-25T07:59:58.000Z</time>
      </trkpt>
      <trkpt lat="46.17777" lon="6.45955">
        <ele>1247.88</ele>
        <time>2019-08-25T08:00:01.000Z</time>
      </trkpt>
      <trkpt lat="46.17764" lon="6.45938">
        <ele>1248.33</ele>
        <time>2019-08-25T08:00:04.000Z</time>
      </trkpt>
      <trkpt lat="46.17756" lon="6.45918">
        <ele>1248.69</ele>
        <time>2019-08-25T08:00:08.000Z</time>
      </trkpt>
      <trkpt lat="46.17748" lon="6.45898">
        <ele>1249.27</ele>
        <time>2019-08-25T08:00:12.000Z</time>
      </trkpt>
      <trkpt lat="46.17747" lon="6.45885">
        <ele>1249.69</ele>
        <time>2019-08-25T08:00:30.000Z</time>
      </trkpt>
      <trkpt lat="46.17748" lon="6.45867">
        <ele>1249.05</ele>
        <time>2019-08-25T08:00:35.000Z</time>
      </trkpt>
      <trkpt lat="46.17751" lon="6.45853">
        <ele>1248.44</ele>
        <time>2019-08-25T08:00:37.000Z</time>
      </trkpt>
      <trkpt lat="46.17757" lon="6.45826">
        <ele>1248.65</ele>
        <time>2019-08-25T08:00:41.000Z</time>
      </trkpt>
      <trkpt lat="46.17761" lon="6.45814">
        <ele>1249.32</ele>
        <time>2019-08-25T08:00:43.000Z</time>
      </trkpt>
      <trkpt lat="46.17766" lon="6.45794">
        <ele>1249.63</ele>
        <time>2019-08-25T08:00:46.000Z</time>
      </trkpt>
      <trkpt lat="46.17775" lon="6.45774">
        <ele>1249.43</ele>
        <time>2019-08-25T08:00:49.000Z</time>
      </trkpt>
      <trkpt lat="46.17788" lon="6.45754">
        <ele>1249.21</ele>
        <time>2019-08-25T08:00:52.000Z</time>
      </trkpt>
      <trkpt lat="46.17795" lon="6.4574">
        <ele>1249.25</ele>
        <time>2019-08-25T08:00:54.000Z</time>
      </trkpt>
      <trkpt lat="46.178" lon="6.4571">
        <ele>1248.66</ele>
        <time>2019-08-25T08:00:57.000Z</time>
      </trkpt>
      <trkpt lat="46.17793" lon="6.45702">
        <ele>1246.56</ele>
        <time>2019-08-25T08:01:02.000Z</time>
      </trkpt>
      <trkpt lat="46.17783" lon="6.45699">
        <ele>1244.7</ele>
        <time>2019-08-25T08:01:04.000Z</time>
      </trkpt>
      <trkpt lat="46.17768" lon="6.45693">
        <ele>1240.84</ele>
        <time>2019-08-25T08:01:07.000Z</time>
      </trkpt>
      <trkpt lat="46.17756" lon="6.45683">
        <ele>1237.82</ele>
        <time>2019-08-25T08:01:09.000Z</time>
      </trkpt>
      <trkpt lat="46.17745" lon="6.45679">
        <ele>1235.26</ele>
        <time>2019-08-25T08:01:11.000Z</time>
      </trkpt>
      <trkpt lat="46.17733" lon="6.45678">
        <ele>1233.5</ele>
        <time>2019-08-25T08:01:13.000Z</time>
      </trkpt>
      <trkpt lat="46.17722" lon="6.45675">
        <ele>1232.13</ele>
        <time>2019-08-25T08:01:15.000Z</time>
      </trkpt>
      <trkpt lat="46.17713" lon="6.45672">
        <ele>1231.71</ele>
        <time>2019-08-25T08:01:17.000Z</time>
      </trkpt>
      <trkpt lat="46.17696" lon="6.45668">
        <ele>1232.28</ele>
        <time>2019-08-25T08:01:21.000Z</time>
      </trkpt>
      <trkpt lat="46.17686" lon="6.45668">
        <ele>1233.7</ele>
        <time>2019-08-25T08:01:23.000Z</time>
      </trkpt>
      <trkpt lat="46.17676" lon="6.45671">
        <ele>1234.85</ele>
        <time>2019-08-25T08:01:25.000Z</time>
      </trkpt>
      <trkpt lat="46.17662" lon="6.45675">
        <ele>1235.34</ele>
        <time>2019-08-25T08:01:29.000Z</time>
      </trkpt>
      <trkpt lat="46.17651" lon="6.45679">
        <ele>1232.08</ele>
        <time>2019-08-25T08:01:36.000Z</time>
      </trkpt>
      <trkpt lat="46.17634" lon="6.45664">
        <ele>1228.85</ele>
        <time>2019-08-25T08:01:45.000Z</time>
      </trkpt>
      <trkpt lat="46.17627" lon="6.45645">
        <ele>1228.57</ele>
        <time>2019-08-25T08:01:47.000Z</time>
      </trkpt>
      <trkpt lat="46.17624" lon="6.45632">
        <ele>1228.35</ele>
        <time>2019-08-25T08:01:48.000Z</time>
      </trkpt>
      <trkpt lat="46.1762" lon="6.45619">
        <ele>1228.14</ele>
        <time>2019-08-25T08:01:49.000Z</time>
      </trkpt>
      <trkpt lat="46.17616" lon="6.456">
        <ele>1227.63</ele>
        <time>2019-08-25T08:01:51.000Z</time>
      </trkpt>
      <trkpt lat="46.17607" lon="6.45588">
        <ele>1226.91</ele>
        <time>2019-08-25T08:01:53.000Z</time>
      </trkpt>
      <trkpt lat="46.176" lon="6.45579">
        <ele>1226.42</ele>
        <time>2019-08-25T08:01:55.000Z</time>
      </trkpt>
      <trkpt lat="46.1759" lon="6.45564">
        <ele>1225.19</ele>
        <time>2019-08-25T08:01:59.000Z</time>
      </trkpt>
      <trkpt lat="46.17581" lon="6.45555">
        <ele>1224.41</ele>
        <time>2019-08-25T08:02:02.000Z</time>
      </trkpt>
      <trkpt lat="46.1757" lon="6.45538">
        <ele>1223.96</ele>
        <time>2019-08-25T08:02:05.000Z</time>
      </trkpt>
      <trkpt lat="46.17565" lon="6.45525">
        <ele>1223.61</ele>
        <time>2019-08-25T08:02:07.000Z</time>
      </trkpt>
      <trkpt lat="46.17559" lon="6.45513">
        <ele>1223.7</ele>
        <time>2019-08-25T08:02:09.000Z</time>
      </trkpt>
      <trkpt lat="46.17558" lon="6.455">
        <ele>1223.86</ele>
        <time>2019-08-25T08:02:11.000Z</time>
      </trkpt>
      <trkpt lat="46.17554" lon="6.45486">
        <ele>1224.59</ele>
        <time>2019-08-25T08:02:13.000Z</time>
      </trkpt>
      <trkpt lat="46.17551" lon="6.45465">
        <ele>1225.37</ele>
        <time>2019-08-25T08:02:16.000Z</time>
      </trkpt>
      <trkpt lat="46.17553" lon="6.45449">
        <ele>1225.27</ele>
        <time>2019-08-25T08:02:18.000Z</time>
      </trkpt>
      <trkpt lat="46.17554" lon="6.45434">
        <ele>1224.23</ele>
        <time>2019-08-25T08:02:20.000Z</time>
      </trkpt>
      <trkpt lat="46.17563" lon="6.45411">
        <ele>1222.68</ele>
        <time>2019-08-25T08:02:23.000Z</time>
      </trkpt>
      <trkpt lat="46.17574" lon="6.45398">
        <ele>1221.74</ele>
        <time>2019-08-25T08:02:25.000Z</time>
      </trkpt>
      <trkpt lat="46.17588" lon="6.45382">
        <ele>1221.18</ele>
        <time>2019-08-25T08:02:27.000Z</time>
      </trkpt>
      <trkpt lat="46.17601" lon="6.45365">
        <ele>1219.94</ele>
        <time>2019-08-25T08:02:29.000Z</time>
      </trkpt>
      <trkpt lat="46.17617" lon="6.45347">
        <ele>1218.84</ele>
        <time>2019-08-25T08:02:31.000Z</time>
      </trkpt>
      <trkpt lat="46.17633" lon="6.45343">
        <ele>1217.71</ele>
        <time>2019-08-25T08:02:33.000Z</time>
      </trkpt>
      <trkpt lat="46.17646" lon="6.45338">
        <ele>1216.79</ele>
        <time>2019-08-25T08:02:35.000Z</time>
      </trkpt>
      <trkpt lat="46.17657" lon="6.45334">
        <ele>1216.42</ele>
        <time>2019-08-25T08:02:37.000Z</time>
      </trkpt>
      <trkpt lat="46.17674" lon="6.45325">
        <ele>1215.31</ele>
        <time>2019-08-25T08:02:40.000Z</time>
      </trkpt>
      <trkpt lat="46.17689" lon="6.45307">
        <ele>1214</ele>
        <time>2019-08-25T08:02:43.000Z</time>
      </trkpt>
      <trkpt lat="46.17702" lon="6.45298">
        <ele>1212.73</ele>
        <time>2019-08-25T08:02:45.000Z</time>
      </trkpt>
      <trkpt lat="46.17713" lon="6.4529">
        <ele>1211.41</ele>
        <time>2019-08-25T08:02:47.000Z</time>
      </trkpt>
      <trkpt lat="46.17724" lon="6.45285">
        <ele>1210.1</ele>
        <time>2019-08-25T08:02:49.000Z</time>
      </trkpt>
      <trkpt lat="46.17741" lon="6.45274">
        <ele>1208.06</ele>
        <time>2019-08-25T08:02:52.000Z</time>
      </trkpt>
      <trkpt lat="46.17756" lon="6.45261">
        <ele>1205.81</ele>
        <time>2019-08-25T08:02:55.000Z</time>
      </trkpt>
      <trkpt lat="46.1777" lon="6.45256">
        <ele>1204.6</ele>
        <time>2019-08-25T08:02:57.000Z</time>
      </trkpt>
      <trkpt lat="46.17788" lon="6.45245">
        <ele>1203.18</ele>
        <time>2019-08-25T08:03:00.000Z</time>
      </trkpt>
      <trkpt lat="46.17799" lon="6.45238">
        <ele>1202.54</ele>
        <time>2019-08-25T08:03:02.000Z</time>
      </trkpt>
      <trkpt lat="46.17815" lon="6.45232">
        <ele>1201.76</ele>
        <time>2019-08-25T08:03:04.000Z</time>
      </trkpt>
      <trkpt lat="46.17828" lon="6.45225">
        <ele>1201.23</ele>
        <time>2019-08-25T08:03:06.000Z</time>
      </trkpt>
      <trkpt lat="46.1784" lon="6.4522">
        <ele>1201.15</ele>
        <time>2019-08-25T08:03:08.000Z</time>
      </trkpt>
      <trkpt lat="46.17852" lon="6.45217">
        <ele>1201.6</ele>
        <time>2019-08-25T08:03:10.000Z</time>
      </trkpt>
      <trkpt lat="46.17865" lon="6.45217">
        <ele>1202.63</ele>
        <time>2019-08-25T08:03:12.000Z</time>
      </trkpt>
      <trkpt lat="46.17878" lon="6.45214">
        <ele>1203.61</ele>
        <time>2019-08-25T08:03:14.000Z</time>
      </trkpt>
      <trkpt lat="46.17898" lon="6.4522">
        <ele>1204.36</ele>
        <time>2019-08-25T08:03:17.000Z</time>
      </trkpt>
      <trkpt lat="46.17915" lon="6.45215">
        <ele>1204.77</ele>
        <time>2019-08-25T08:03:20.000Z</time>
      </trkpt>
      <trkpt lat="46.17926" lon="6.45216">
        <ele>1205.01</ele>
        <time>2019-08-25T08:03:22.000Z</time>
      </trkpt>
      <trkpt lat="46.1794" lon="6.45204">
        <ele>1205.04</ele>
        <time>2019-08-25T08:03:26.000Z</time>
      </trkpt>
      <trkpt lat="46.17949" lon="6.45181">
        <ele>1204.87</ele>
        <time>2019-08-25T08:03:30.000Z</time>
      </trkpt>
      <trkpt lat="46.17956" lon="6.45164">
        <ele>1204.66</ele>
        <time>2019-08-25T08:03:32.000Z</time>
      </trkpt>
      <trkpt lat="46.17963" lon="6.45148">
        <ele>1204.02</ele>
        <time>2019-08-25T08:03:34.000Z</time>
      </trkpt>
      <trkpt lat="46.17974" lon="6.45132">
        <ele>1203.07</ele>
        <time>2019-08-25T08:03:36.000Z</time>
      </trkpt>
      <trkpt lat="46.17986" lon="6.45115">
        <ele>1201.99</ele>
        <time>2019-08-25T08:03:38.000Z</time>
      </trkpt>
      <trkpt lat="46.17994" lon="6.45108">
        <ele>1201.53</ele>
        <time>2019-08-25T08:03:39.000Z</time>
      </trkpt>
      <trkpt lat="46.18003" lon="6.45101">
        <ele>1201.11</ele>
        <time>2019-08-25T08:03:40.000Z</time>
      </trkpt>
      <trkpt lat="46.18019" lon="6.45086">
        <ele>1200.23</ele>
        <time>2019-08-25T08:03:42.000Z</time>
      </trkpt>
      <trkpt lat="46.18027" lon="6.45079">
        <ele>1199.71</ele>
        <time>2019-08-25T08:03:43.000Z</time>
      </trkpt>
      <trkpt lat="46.18036" lon="6.4506">
        <ele>1198.55</ele>
        <time>2019-08-25T08:03:45.000Z</time>
      </trkpt>
      <trkpt lat="46.18044" lon="6.45042">
        <ele>1197.22</ele>
        <time>2019-08-25T08:03:47.000Z</time>
      </trkpt>
      <trkpt lat="46.18053" lon="6.45022">
        <ele>1196.27</ele>
        <time>2019-08-25T08:03:49.000Z</time>
      </trkpt>
      <trkpt lat="46.18069" lon="6.44992">
        <ele>1194.66</ele>
        <time>2019-08-25T08:03:52.000Z</time>
      </trkpt>
      <trkpt lat="46.18085" lon="6.44975">
        <ele>1193.42</ele>
        <time>2019-08-25T08:03:54.000Z</time>
      </trkpt>
      <trkpt lat="46.18098" lon="6.44956">
        <ele>1192.06</ele>
        <time>2019-08-25T08:03:56.000Z</time>
      </trkpt>
      <trkpt lat="46.18112" lon="6.44934">
        <ele>1190.23</ele>
        <time>2019-08-25T08:03:59.000Z</time>
      </trkpt>
      <trkpt lat="46.18116" lon="6.44919">
        <ele>1188.31</ele>
        <time>2019-08-25T08:04:02.000Z</time>
      </trkpt>
      <trkpt lat="46.18108" lon="6.44911">
        <ele>1186.02</ele>
        <time>2019-08-25T08:04:05.000Z</time>
      </trkpt>
      <trkpt lat="46.18092" lon="6.44905">
        <ele>1184.59</ele>
        <time>2019-08-25T08:04:08.000Z</time>
      </trkpt>
      <trkpt lat="46.18074" lon="6.44905">
        <ele>1184.09</ele>
        <time>2019-08-25T08:04:11.000Z</time>
      </trkpt>
      <trkpt lat="46.18063" lon="6.44904">
        <ele>1183.77</ele>
        <time>2019-08-25T08:04:13.000Z</time>
      </trkpt>
      <trkpt lat="46.18053" lon="6.449">
        <ele>1183.42</ele>
        <time>2019-08-25T08:04:15.000Z</time>
      </trkpt>
      <trkpt lat="46.18046" lon="6.4489">
        <ele>1183.1</ele>
        <time>2019-08-25T08:04:17.000Z</time>
      </trkpt>
      <trkpt lat="46.18035" lon="6.4488">
        <ele>1183.26</ele>
        <time>2019-08-25T08:04:20.000Z</time>
      </trkpt>
      <trkpt lat="46.18028" lon="6.4487">
        <ele>1183.73</ele>
        <time>2019-08-25T08:04:23.000Z</time>
      </trkpt>
      <trkpt lat="46.18022" lon="6.4486">
        <ele>1184.27</ele>
        <time>2019-08-25T08:04:25.000Z</time>
      </trkpt>
      <trkpt lat="46.18011" lon="6.44842">
        <ele>1185.2</ele>
        <time>2019-08-25T08:04:29.000Z</time>
      </trkpt>
      <trkpt lat="46.18004" lon="6.4483">
        <ele>1186.18</ele>
        <time>2019-08-25T08:04:32.000Z</time>
      </trkpt>
      <trkpt lat="46.17997" lon="6.44817">
        <ele>1188.14</ele>
        <time>2019-08-25T08:04:36.000Z</time>
      </trkpt>
      <trkpt lat="46.17988" lon="6.44807">
        <ele>1189.43</ele>
        <time>2019-08-25T08:04:39.000Z</time>
      </trkpt>
      <trkpt lat="46.17977" lon="6.44799">
        <ele>1191</ele>
        <time>2019-08-25T08:04:43.000Z</time>
      </trkpt>
      <trkpt lat="46.17966" lon="6.44795">
        <ele>1192.66</ele>
        <time>2019-08-25T08:04:47.000Z</time>
      </trkpt>
      <trkpt lat="46.17954" lon="6.44793">
        <ele>1193.93</ele>
        <time>2019-08-25T08:04:51.000Z</time>
      </trkpt>
      <trkpt lat="46.17942" lon="6.4479">
        <ele>1195.23</ele>
        <time>2019-08-25T08:04:55.000Z</time>
      </trkpt>
      <trkpt lat="46.17931" lon="6.44789">
        <ele>1196.38</ele>
        <time>2019-08-25T08:04:58.000Z</time>
      </trkpt>
      <trkpt lat="46.1792" lon="6.44788">
        <ele>1197.31</ele>
        <time>2019-08-25T08:05:01.000Z</time>
      </trkpt>
      <trkpt lat="46.1791" lon="6.44787">
        <ele>1198.27</ele>
        <time>2019-08-25T08:05:04.000Z</time>
      </trkpt>
      <trkpt lat="46.17898" lon="6.44785">
        <ele>1199.32</ele>
        <time>2019-08-25T08:05:08.000Z</time>
      </trkpt>
      <trkpt lat="46.17886" lon="6.44784">
        <ele>1200.29</ele>
        <time>2019-08-25T08:05:12.000Z</time>
      </trkpt>
      <trkpt lat="46.17873" lon="6.44784">
        <ele>1201.39</ele>
        <time>2019-08-25T08:05:16.000Z</time>
      </trkpt>
      <trkpt lat="46.17857" lon="6.44781">
        <ele>1203</ele>
        <time>2019-08-25T08:05:21.000Z</time>
      </trkpt>
      <trkpt lat="46.17845" lon="6.4478">
        <ele>1204.02</ele>
        <time>2019-08-25T08:05:24.000Z</time>
      </trkpt>
      <trkpt lat="46.1783" lon="6.4478">
        <ele>1205.55</ele>
        <time>2019-08-25T08:05:29.000Z</time>
      </trkpt>
      <trkpt lat="46.1782" lon="6.44778">
        <ele>1206.3</ele>
        <time>2019-08-25T08:05:32.000Z</time>
      </trkpt>
      <trkpt lat="46.17809" lon="6.44775">
        <ele>1206.84</ele>
        <time>2019-08-25T08:05:35.000Z</time>
      </trkpt>
      <trkpt lat="46.178" lon="6.44773">
        <ele>1207.18</ele>
        <time>2019-08-25T08:05:37.000Z</time>
      </trkpt>
      <trkpt lat="46.1779" lon="6.44771">
        <ele>1207.72</ele>
        <time>2019-08-25T08:05:41.000Z</time>
      </trkpt>
      <trkpt lat="46.17776" lon="6.44767">
        <ele>1208.18</ele>
        <time>2019-08-25T08:05:44.000Z</time>
      </trkpt>
      <trkpt lat="46.17764" lon="6.44766">
        <ele>1209.04</ele>
        <time>2019-08-25T08:05:48.000Z</time>
      </trkpt>
      <trkpt lat="46.17752" lon="6.44764">
        <ele>1209.94</ele>
        <time>2019-08-25T08:05:52.000Z</time>
      </trkpt>
      <trkpt lat="46.17739" lon="6.44758">
        <ele>1210.99</ele>
        <time>2019-08-25T08:05:56.000Z</time>
      </trkpt>
      <trkpt lat="46.17729" lon="6.44749">
        <ele>1211.61</ele>
        <time>2019-08-25T08:05:59.000Z</time>
      </trkpt>
      <trkpt lat="46.17722" lon="6.44737">
        <ele>1212.05</ele>
        <time>2019-08-25T08:06:02.000Z</time>
      </trkpt>
      <trkpt lat="46.17716" lon="6.44726">
        <ele>1212.65</ele>
        <time>2019-08-25T08:06:05.000Z</time>
      </trkpt>
      <trkpt lat="46.1771" lon="6.44713">
        <ele>1213.46</ele>
        <time>2019-08-25T08:06:08.000Z</time>
      </trkpt>
      <trkpt lat="46.17703" lon="6.44702">
        <ele>1214.41</ele>
        <time>2019-08-25T08:06:11.000Z</time>
      </trkpt>
      <trkpt lat="46.17698" lon="6.44691">
        <ele>1215.3</ele>
        <time>2019-08-25T08:06:14.000Z</time>
      </trkpt>
      <trkpt lat="46.17696" lon="6.44677">
        <ele>1215.94</ele>
        <time>2019-08-25T08:06:16.000Z</time>
      </trkpt>
      <trkpt lat="46.17693" lon="6.44656">
        <ele>1217.66</ele>
        <time>2019-08-25T08:06:22.000Z</time>
      </trkpt>
      <trkpt lat="46.1769" lon="6.4464">
        <ele>1218.21</ele>
        <time>2019-08-25T08:06:25.000Z</time>
      </trkpt>
      <trkpt lat="46.17686" lon="6.44622">
        <ele>1219.18</ele>
        <time>2019-08-25T08:06:30.000Z</time>
      </trkpt>
      <trkpt lat="46.17677" lon="6.44608">
        <ele>1220.21</ele>
        <time>2019-08-25T08:06:34.000Z</time>
      </trkpt>
      <trkpt lat="46.17665" lon="6.446">
        <ele>1220.82</ele>
        <time>2019-08-25T08:06:36.000Z</time>
      </trkpt>
      <trkpt lat="46.17654" lon="6.44591">
        <ele>1222.01</ele>
        <time>2019-08-25T08:06:40.000Z</time>
      </trkpt>
      <trkpt lat="46.17643" lon="6.44584">
        <ele>1222.71</ele>
        <time>2019-08-25T08:06:43.000Z</time>
      </trkpt>
      <trkpt lat="46.17635" lon="6.44579">
        <ele>1223.29</ele>
        <time>2019-08-25T08:06:46.000Z</time>
      </trkpt>
      <trkpt lat="46.17625" lon="6.44575">
        <ele>1223.79</ele>
        <time>2019-08-25T08:06:49.000Z</time>
      </trkpt>
      <trkpt lat="46.17615" lon="6.44571">
        <ele>1224.07</ele>
        <time>2019-08-25T08:06:52.000Z</time>
      </trkpt>
      <trkpt lat="46.17604" lon="6.4457">
        <ele>1224.31</ele>
        <time>2019-08-25T08:06:56.000Z</time>
      </trkpt>
      <trkpt lat="46.17591" lon="6.44566">
        <ele>1224.64</ele>
        <time>2019-08-25T08:06:58.000Z</time>
      </trkpt>
      <trkpt lat="46.17582" lon="6.44564">
        <ele>1224.94</ele>
        <time>2019-08-25T08:07:00.000Z</time>
      </trkpt>
      <trkpt lat="46.17566" lon="6.44559">
        <ele>1225.69</ele>
        <time>2019-08-25T08:07:04.000Z</time>
      </trkpt>
      <trkpt lat="46.17556" lon="6.44554">
        <ele>1226.1</ele>
        <time>2019-08-25T08:07:06.000Z</time>
      </trkpt>
      <trkpt lat="46.17541" lon="6.44548">
        <ele>1226.68</ele>
        <time>2019-08-25T08:07:09.000Z</time>
      </trkpt>
      <trkpt lat="46.17528" lon="6.44542">
        <ele>1227.33</ele>
        <time>2019-08-25T08:07:12.000Z</time>
      </trkpt>
      <trkpt lat="46.17515" lon="6.44539">
        <ele>1227.93</ele>
        <time>2019-08-25T08:07:15.000Z</time>
      </trkpt>
      <trkpt lat="46.175" lon="6.44535">
        <ele>1228.41</ele>
        <time>2019-08-25T08:07:18.000Z</time>
      </trkpt>
      <trkpt lat="46.17487" lon="6.4453">
        <ele>1228.65</ele>
        <time>2019-08-25T08:07:21.000Z</time>
      </trkpt>
      <trkpt lat="46.17475" lon="6.44522">
        <ele>1229.06</ele>
        <time>2019-08-25T08:07:24.000Z</time>
      </trkpt>
      <trkpt lat="46.17464" lon="6.44522">
        <ele>1229.71</ele>
        <time>2019-08-25T08:07:27.000Z</time>
      </trkpt>
      <trkpt lat="46.17451" lon="6.44521">
        <ele>1230.48</ele>
        <time>2019-08-25T08:07:30.000Z</time>
      </trkpt>
      <trkpt lat="46.17437" lon="6.4452">
        <ele>1231.25</ele>
        <time>2019-08-25T08:07:33.000Z</time>
      </trkpt>
      <trkpt lat="46.17428" lon="6.44521">
        <ele>1231.73</ele>
        <time>2019-08-25T08:07:35.000Z</time>
      </trkpt>
      <trkpt lat="46.17418" lon="6.44521">
        <ele>1232.15</ele>
        <time>2019-08-25T08:07:38.000Z</time>
      </trkpt>
      <trkpt lat="46.17408" lon="6.44517">
        <ele>1232.48</ele>
        <time>2019-08-25T08:07:39.000Z</time>
      </trkpt>
      <trkpt lat="46.17402" lon="6.44508">
        <ele>1232.72</ele>
        <time>2019-08-25T08:07:41.000Z</time>
      </trkpt>
      <trkpt lat="46.17401" lon="6.44479">
        <ele>1232.69</ele>
        <time>2019-08-25T08:07:45.000Z</time>
      </trkpt>
      <trkpt lat="46.17402" lon="6.44461">
        <ele>1232.52</ele>
        <time>2019-08-25T08:07:48.000Z</time>
      </trkpt>
      <trkpt lat="46.17406" lon="6.44446">
        <ele>1232.84</ele>
        <time>2019-08-25T08:07:52.000Z</time>
      </trkpt>
      <trkpt lat="46.17411" lon="6.44435">
        <ele>1233.51</ele>
        <time>2019-08-25T08:07:55.000Z</time>
      </trkpt>
      <trkpt lat="46.17418" lon="6.44419">
        <ele>1234.88</ele>
        <time>2019-08-25T08:07:59.000Z</time>
      </trkpt>
      <trkpt lat="46.17425" lon="6.44403">
        <ele>1236.99</ele>
        <time>2019-08-25T08:08:03.000Z</time>
      </trkpt>
      <trkpt lat="46.17431" lon="6.44386">
        <ele>1239.22</ele>
        <time>2019-08-25T08:08:07.000Z</time>
      </trkpt>
      <trkpt lat="46.17435" lon="6.44373">
        <ele>1240.49</ele>
        <time>2019-08-25T08:08:10.000Z</time>
      </trkpt>
      <trkpt lat="46.1744" lon="6.44355">
        <ele>1241.31</ele>
        <time>2019-08-25T08:08:13.000Z</time>
      </trkpt>
      <trkpt lat="46.17444" lon="6.44341">
        <ele>1241.99</ele>
        <time>2019-08-25T08:08:16.000Z</time>
      </trkpt>
      <trkpt lat="46.17447" lon="6.44328">
        <ele>1242.62</ele>
        <time>2019-08-25T08:08:20.000Z</time>
      </trkpt>
      <trkpt lat="46.17453" lon="6.44313">
        <ele>1243.39</ele>
        <time>2019-08-25T08:08:23.000Z</time>
      </trkpt>
      <trkpt lat="46.17457" lon="6.443">
        <ele>1244.18</ele>
        <time>2019-08-25T08:08:26.000Z</time>
      </trkpt>
      <trkpt lat="46.17464" lon="6.44288">
        <ele>1245.53</ele>
        <time>2019-08-25T08:08:30.000Z</time>
      </trkpt>
      <trkpt lat="46.17477" lon="6.44272">
        <ele>1247.25</ele>
        <time>2019-08-25T08:08:35.000Z</time>
      </trkpt>
      <trkpt lat="46.17485" lon="6.44263">
        <ele>1248.52</ele>
        <time>2019-08-25T08:08:39.000Z</time>
      </trkpt>
      <trkpt lat="46.17495" lon="6.44254">
        <ele>1249.77</ele>
        <time>2019-08-25T08:08:43.000Z</time>
      </trkpt>
      <trkpt lat="46.17507" lon="6.44242">
        <ele>1251.63</ele>
        <time>2019-08-25T08:08:48.000Z</time>
      </trkpt>
      <trkpt lat="46.17514" lon="6.4423">
        <ele>1253.17</ele>
        <time>2019-08-25T08:08:52.000Z</time>
      </trkpt>
      <trkpt lat="46.17519" lon="6.44215">
        <ele>1254.67</ele>
        <time>2019-08-25T08:08:56.000Z</time>
      </trkpt>
      <trkpt lat="46.1752" lon="6.442">
        <ele>1255.82</ele>
        <time>2019-08-25T08:09:00.000Z</time>
      </trkpt>
      <trkpt lat="46.17516" lon="6.44184">
        <ele>1256.65</ele>
        <time>2019-08-25T08:09:04.000Z</time>
      </trkpt>
      <trkpt lat="46.17507" lon="6.44172">
        <ele>1257.42</ele>
        <time>2019-08-25T08:09:08.000Z</time>
      </trkpt>
      <trkpt lat="46.17496" lon="6.44167">
        <ele>1257.8</ele>
        <time>2019-08-25T08:09:10.000Z</time>
      </trkpt>
      <trkpt lat="46.17487" lon="6.44167">
        <ele>1258.78</ele>
        <time>2019-08-25T08:09:14.000Z</time>
      </trkpt>
      <trkpt lat="46.17475" lon="6.44169">
        <ele>1260.13</ele>
        <time>2019-08-25T08:09:18.000Z</time>
      </trkpt>
      <trkpt lat="46.17464" lon="6.44172">
        <ele>1261.33</ele>
        <time>2019-08-25T08:09:23.000Z</time>
      </trkpt>
      <trkpt lat="46.17454" lon="6.44179">
        <ele>1263.18</ele>
        <time>2019-08-25T08:09:28.000Z</time>
      </trkpt>
      <trkpt lat="46.17445" lon="6.44183">
        <ele>1264.25</ele>
        <time>2019-08-25T08:09:32.000Z</time>
      </trkpt>
      <trkpt lat="46.17432" lon="6.44187">
        <ele>1265.63</ele>
        <time>2019-08-25T08:09:38.000Z</time>
      </trkpt>
      <trkpt lat="46.17419" lon="6.44191">
        <ele>1267.07</ele>
        <time>2019-08-25T08:09:44.000Z</time>
      </trkpt>
      <trkpt lat="46.17409" lon="6.44193">
        <ele>1267.92</ele>
        <time>2019-08-25T08:09:47.000Z</time>
      </trkpt>
      <trkpt lat="46.17398" lon="6.44199">
        <ele>1269.24</ele>
        <time>2019-08-25T08:09:52.000Z</time>
      </trkpt>
      <trkpt lat="46.17388" lon="6.44205">
        <ele>1270.06</ele>
        <time>2019-08-25T08:09:56.000Z</time>
      </trkpt>
      <trkpt lat="46.17376" lon="6.44214">
        <ele>1270.98</ele>
        <time>2019-08-25T08:10:00.000Z</time>
      </trkpt>
      <trkpt lat="46.17369" lon="6.44225">
        <ele>1272.37</ele>
        <time>2019-08-25T08:10:05.000Z</time>
      </trkpt>
      <trkpt lat="46.17364" lon="6.44238">
        <ele>1273.83</ele>
        <time>2019-08-25T08:10:08.000Z</time>
      </trkpt>
      <trkpt lat="46.17357" lon="6.4425">
        <ele>1275.4</ele>
        <time>2019-08-25T08:10:12.000Z</time>
      </trkpt>
      <trkpt lat="46.1735" lon="6.44261">
        <ele>1276.98</ele>
        <time>2019-08-25T08:10:16.000Z</time>
      </trkpt>
      <trkpt lat="46.17341" lon="6.44267">
        <ele>1278.14</ele>
        <time>2019-08-25T08:10:20.000Z</time>
      </trkpt>
      <trkpt lat="46.17329" lon="6.4427">
        <ele>1279.14</ele>
        <time>2019-08-25T08:10:24.000Z</time>
      </trkpt>
      <trkpt lat="46.17318" lon="6.4427">
        <ele>1280.51</ele>
        <time>2019-08-25T08:10:29.000Z</time>
      </trkpt>
      <trkpt lat="46.17309" lon="6.4427">
        <ele>1281.31</ele>
        <time>2019-08-25T08:10:32.000Z</time>
      </trkpt>
      <trkpt lat="46.17297" lon="6.44277">
        <ele>1282.84</ele>
        <time>2019-08-25T08:10:37.000Z</time>
      </trkpt>
      <trkpt lat="46.17288" lon="6.44286">
        <ele>1284.17</ele>
        <time>2019-08-25T08:10:41.000Z</time>
      </trkpt>
      <trkpt lat="46.17278" lon="6.44297">
        <ele>1285.67</ele>
        <time>2019-08-25T08:10:47.000Z</time>
      </trkpt>
      <trkpt lat="46.17268" lon="6.44305">
        <ele>1287.12</ele>
        <time>2019-08-25T08:10:50.000Z</time>
      </trkpt>
      <trkpt lat="46.1726" lon="6.44309">
        <ele>1288.29</ele>
        <time>2019-08-25T08:10:53.000Z</time>
      </trkpt>
      <trkpt lat="46.1725" lon="6.4431">
        <ele>1289.4</ele>
        <time>2019-08-25T08:10:56.000Z</time>
      </trkpt>
      <trkpt lat="46.17238" lon="6.44311">
        <ele>1290.77</ele>
        <time>2019-08-25T08:11:01.000Z</time>
      </trkpt>
      <trkpt lat="46.17226" lon="6.44309">
        <ele>1291.86</ele>
        <time>2019-08-25T08:11:04.000Z</time>
      </trkpt>
      <trkpt lat="46.17215" lon="6.44311">
        <ele>1292.81</ele>
        <time>2019-08-25T08:11:09.000Z</time>
      </trkpt>
      <trkpt lat="46.17202" lon="6.44312">
        <ele>1293.68</ele>
        <time>2019-08-25T08:11:13.000Z</time>
      </trkpt>
      <trkpt lat="46.17191" lon="6.44311">
        <ele>1294.47</ele>
        <time>2019-08-25T08:11:16.000Z</time>
      </trkpt>
      <trkpt lat="46.17184" lon="6.44297">
        <ele>1295.87</ele>
        <time>2019-08-25T08:11:23.000Z</time>
      </trkpt>
      <trkpt lat="46.17194" lon="6.4428">
        <ele>1296.87</ele>
        <time>2019-08-25T08:11:27.000Z</time>
      </trkpt>
      <trkpt lat="46.17207" lon="6.44271">
        <ele>1297.91</ele>
        <time>2019-08-25T08:11:32.000Z</time>
      </trkpt>
      <trkpt lat="46.17216" lon="6.44264">
        <ele>1299.24</ele>
        <time>2019-08-25T08:11:35.000Z</time>
      </trkpt>
      <trkpt lat="46.17226" lon="6.44258">
        <ele>1300.53</ele>
        <time>2019-08-25T08:11:40.000Z</time>
      </trkpt>
      <trkpt lat="46.17237" lon="6.44251">
        <ele>1301.83</ele>
        <time>2019-08-25T08:11:44.000Z</time>
      </trkpt>
      <trkpt lat="46.17245" lon="6.44245">
        <ele>1302.73</ele>
        <time>2019-08-25T08:11:46.000Z</time>
      </trkpt>
      <trkpt lat="46.1725" lon="6.4423">
        <ele>1304.23</ele>
        <time>2019-08-25T08:11:52.000Z</time>
      </trkpt>
      <trkpt lat="46.17249" lon="6.44214">
        <ele>1305.16</ele>
        <time>2019-08-25T08:11:56.000Z</time>
      </trkpt>
      <trkpt lat="46.17242" lon="6.44201">
        <ele>1306.04</ele>
        <time>2019-08-25T08:12:00.000Z</time>
      </trkpt>
      <trkpt lat="46.17235" lon="6.44187">
        <ele>1306.97</ele>
        <time>2019-08-25T08:12:04.000Z</time>
      </trkpt>
      <trkpt lat="46.1723" lon="6.44176">
        <ele>1307.65</ele>
        <time>2019-08-25T08:12:07.000Z</time>
      </trkpt>
      <trkpt lat="46.17224" lon="6.44164">
        <ele>1308.75</ele>
        <time>2019-08-25T08:12:11.000Z</time>
      </trkpt>
      <trkpt lat="46.17219" lon="6.44151">
        <ele>1310.14</ele>
        <time>2019-08-25T08:12:15.000Z</time>
      </trkpt>
      <trkpt lat="46.17218" lon="6.44135">
        <ele>1311.47</ele>
        <time>2019-08-25T08:12:18.000Z</time>
      </trkpt>
      <trkpt lat="46.17212" lon="6.44125">
        <ele>1313.46</ele>
        <time>2019-08-25T08:12:26.000Z</time>
      </trkpt>
      <trkpt lat="46.17206" lon="6.44135">
        <ele>1314.44</ele>
        <time>2019-08-25T08:12:30.000Z</time>
      </trkpt>
      <trkpt lat="46.172" lon="6.44146">
        <ele>1315.66</ele>
        <time>2019-08-25T08:12:34.000Z</time>
      </trkpt>
      <trkpt lat="46.17195" lon="6.44158">
        <ele>1317.02</ele>
        <time>2019-08-25T08:12:38.000Z</time>
      </trkpt>
      <trkpt lat="46.17189" lon="6.44169">
        <ele>1318.71</ele>
        <time>2019-08-25T08:12:42.000Z</time>
      </trkpt>
      <trkpt lat="46.1718" lon="6.44176">
        <ele>1320.19</ele>
        <time>2019-08-25T08:12:46.000Z</time>
      </trkpt>
      <trkpt lat="46.17172" lon="6.44185">
        <ele>1321.03</ele>
        <time>2019-08-25T08:12:50.000Z</time>
      </trkpt>
      <trkpt lat="46.17162" lon="6.44191">
        <ele>1321.65</ele>
        <time>2019-08-25T08:12:54.000Z</time>
      </trkpt>
      <trkpt lat="46.1715" lon="6.44198">
        <ele>1322.33</ele>
        <time>2019-08-25T08:12:59.000Z</time>
      </trkpt>
      <trkpt lat="46.17137" lon="6.44207">
        <ele>1323.04</ele>
        <time>2019-08-25T08:13:04.000Z</time>
      </trkpt>
      <trkpt lat="46.17131" lon="6.44219">
        <ele>1323.47</ele>
        <time>2019-08-25T08:13:08.000Z</time>
      </trkpt>
      <trkpt lat="46.17131" lon="6.44235">
        <ele>1323.93</ele>
        <time>2019-08-25T08:13:14.000Z</time>
      </trkpt>
      <trkpt lat="46.1713" lon="6.44248">
        <ele>1324.54</ele>
        <time>2019-08-25T08:13:19.000Z</time>
      </trkpt>
      <trkpt lat="46.17132" lon="6.44265">
        <ele>1326.04</ele>
        <time>2019-08-25T08:13:25.000Z</time>
      </trkpt>
      <trkpt lat="46.17129" lon="6.44281">
        <ele>1327.93</ele>
        <time>2019-08-25T08:13:31.000Z</time>
      </trkpt>
      <trkpt lat="46.17121" lon="6.44293">
        <ele>1330.86</ele>
        <time>2019-08-25T08:13:39.000Z</time>
      </trkpt>
      <trkpt lat="46.17112" lon="6.44297">
        <ele>1332.73</ele>
        <time>2019-08-25T08:13:43.000Z</time>
      </trkpt>
      <trkpt lat="46.17101" lon="6.44299">
        <ele>1334.18</ele>
        <time>2019-08-25T08:13:47.000Z</time>
      </trkpt>
      <trkpt lat="46.1709" lon="6.44301">
        <ele>1335.59</ele>
        <time>2019-08-25T08:13:51.000Z</time>
      </trkpt>
      <trkpt lat="46.17079" lon="6.44307">
        <ele>1337.15</ele>
        <time>2019-08-25T08:13:57.000Z</time>
      </trkpt>
      <trkpt lat="46.17067" lon="6.44314">
        <ele>1338.66</ele>
        <time>2019-08-25T08:14:03.000Z</time>
      </trkpt>
      <trkpt lat="46.17057" lon="6.44318">
        <ele>1340.02</ele>
        <time>2019-08-25T08:14:07.000Z</time>
      </trkpt>
      <trkpt lat="46.17046" lon="6.44321">
        <ele>1341.31</ele>
        <time>2019-08-25T08:14:12.000Z</time>
      </trkpt>
      <trkpt lat="46.17034" lon="6.44321">
        <ele>1343.72</ele>
        <time>2019-08-25T08:14:18.000Z</time>
      </trkpt>
      <trkpt lat="46.17024" lon="6.4432">
        <ele>1345.92</ele>
        <time>2019-08-25T08:14:25.000Z</time>
      </trkpt>
      <trkpt lat="46.17014" lon="6.44316">
        <ele>1347.52</ele>
        <time>2019-08-25T08:14:30.000Z</time>
      </trkpt>
      <trkpt lat="46.17005" lon="6.4431">
        <ele>1348.67</ele>
        <time>2019-08-25T08:14:35.000Z</time>
      </trkpt>
      <trkpt lat="46.16995" lon="6.44308">
        <ele>1350.01</ele>
        <time>2019-08-25T08:14:40.000Z</time>
      </trkpt>
      <trkpt lat="46.16982" lon="6.44306">
        <ele>1351.53</ele>
        <time>2019-08-25T08:14:46.000Z</time>
      </trkpt>
      <trkpt lat="46.16971" lon="6.44311">
        <ele>1353.4</ele>
        <time>2019-08-25T08:14:52.000Z</time>
      </trkpt>
      <trkpt lat="46.1696" lon="6.4432">
        <ele>1355.06</ele>
        <time>2019-08-25T08:14:58.000Z</time>
      </trkpt>
      <trkpt lat="46.16953" lon="6.44329">
        <ele>1356.54</ele>
        <time>2019-08-25T08:15:03.000Z</time>
      </trkpt>
      <trkpt lat="46.16943" lon="6.44337">
        <ele>1358.18</ele>
        <time>2019-08-25T08:15:09.000Z</time>
      </trkpt>
      <trkpt lat="46.16933" lon="6.44346">
        <ele>1360.2</ele>
        <time>2019-08-25T08:15:15.000Z</time>
      </trkpt>
      <trkpt lat="46.16924" lon="6.4435">
        <ele>1361.87</ele>
        <time>2019-08-25T08:15:20.000Z</time>
      </trkpt>
      <trkpt lat="46.16914" lon="6.44349">
        <ele>1362.94</ele>
        <time>2019-08-25T08:15:24.000Z</time>
      </trkpt>
      <trkpt lat="46.16904" lon="6.44349">
        <ele>1364.16</ele>
        <time>2019-08-25T08:15:29.000Z</time>
      </trkpt>
      <trkpt lat="46.16894" lon="6.44345">
        <ele>1365.52</ele>
        <time>2019-08-25T08:15:33.000Z</time>
      </trkpt>
      <trkpt lat="46.16882" lon="6.4434">
        <ele>1366.57</ele>
        <time>2019-08-25T08:15:37.000Z</time>
      </trkpt>
      <trkpt lat="46.16873" lon="6.44337">
        <ele>1367.04</ele>
        <time>2019-08-25T08:15:40.000Z</time>
      </trkpt>
      <trkpt lat="46.16865" lon="6.44333">
        <ele>1367.59</ele>
        <time>2019-08-25T08:15:43.000Z</time>
      </trkpt>
      <trkpt lat="46.16853" lon="6.44329">
        <ele>1367.86</ele>
        <time>2019-08-25T08:15:47.000Z</time>
      </trkpt>
      <trkpt lat="46.16838" lon="6.44324">
        <ele>1367.51</ele>
        <time>2019-08-25T08:15:52.000Z</time>
      </trkpt>
      <trkpt lat="46.16828" lon="6.44322">
        <ele>1367.66</ele>
        <time>2019-08-25T08:15:55.000Z</time>
      </trkpt>
      <trkpt lat="46.1682" lon="6.44329">
        <ele>1367.71</ele>
        <time>2019-08-25T08:16:01.000Z</time>
      </trkpt>
      <trkpt lat="46.16817" lon="6.44341">
        <ele>1368.79</ele>
        <time>2019-08-25T08:16:07.000Z</time>
      </trkpt>
      <trkpt lat="46.1681" lon="6.44354">
        <ele>1371.15</ele>
        <time>2019-08-25T08:16:15.000Z</time>
      </trkpt>
      <trkpt lat="46.16802" lon="6.44365">
        <ele>1373.29</ele>
        <time>2019-08-25T08:16:22.000Z</time>
      </trkpt>
      <trkpt lat="46.16793" lon="6.44372">
        <ele>1375.63</ele>
        <time>2019-08-25T08:16:29.000Z</time>
      </trkpt>
      <trkpt lat="46.16782" lon="6.44375">
        <ele>1378.41</ele>
        <time>2019-08-25T08:16:36.000Z</time>
      </trkpt>
      <trkpt lat="46.16772" lon="6.44372">
        <ele>1380.6</ele>
        <time>2019-08-25T08:16:43.000Z</time>
      </trkpt>
      <trkpt lat="46.1676" lon="6.44374">
        <ele>1382.4</ele>
        <time>2019-08-25T08:16:50.000Z</time>
      </trkpt>
      <trkpt lat="46.1675" lon="6.44376">
        <ele>1384.08</ele>
        <time>2019-08-25T08:16:57.000Z</time>
      </trkpt>
      <trkpt lat="46.1674" lon="6.44377">
        <ele>1385.74</ele>
        <time>2019-08-25T08:17:03.000Z</time>
      </trkpt>
      <trkpt lat="46.1673" lon="6.44375">
        <ele>1387.48</ele>
        <time>2019-08-25T08:17:09.000Z</time>
      </trkpt>
      <trkpt lat="46.16719" lon="6.44375">
        <ele>1389.46</ele>
        <time>2019-08-25T08:17:16.000Z</time>
      </trkpt>
      <trkpt lat="46.1671" lon="6.44374">
        <ele>1391.32</ele>
        <time>2019-08-25T08:17:22.000Z</time>
      </trkpt>
      <trkpt lat="46.16701" lon="6.44371">
        <ele>1393.56</ele>
        <time>2019-08-25T08:17:28.000Z</time>
      </trkpt>
      <trkpt lat="46.16691" lon="6.44366">
        <ele>1395.17</ele>
        <time>2019-08-25T08:17:35.000Z</time>
      </trkpt>
      <trkpt lat="46.16674" lon="6.44361">
        <ele>1397.59</ele>
        <time>2019-08-25T08:17:46.000Z</time>
      </trkpt>
      <trkpt lat="46.16665" lon="6.44361">
        <ele>1398.99</ele>
        <time>2019-08-25T08:17:51.000Z</time>
      </trkpt>
      <trkpt lat="46.16654" lon="6.44356">
        <ele>1400.96</ele>
        <time>2019-08-25T08:17:57.000Z</time>
      </trkpt>
      <trkpt lat="46.16645" lon="6.44354">
        <ele>1402.78</ele>
        <time>2019-08-25T08:18:03.000Z</time>
      </trkpt>
      <trkpt lat="46.16635" lon="6.44354">
        <ele>1405.07</ele>
        <time>2019-08-25T08:18:10.000Z</time>
      </trkpt>
      <trkpt lat="46.16626" lon="6.44354">
        <ele>1406.99</ele>
        <time>2019-08-25T08:18:16.000Z</time>
      </trkpt>
      <trkpt lat="46.16615" lon="6.44354">
        <ele>1408.92</ele>
        <time>2019-08-25T08:18:22.000Z</time>
      </trkpt>
      <trkpt lat="46.16606" lon="6.44355">
        <ele>1410.85</ele>
        <time>2019-08-25T08:18:27.000Z</time>
      </trkpt>
      <trkpt lat="46.16597" lon="6.44355">
        <ele>1413.06</ele>
        <time>2019-08-25T08:18:33.000Z</time>
      </trkpt>
      <trkpt lat="46.16587" lon="6.44354">
        <ele>1415.43</ele>
        <time>2019-08-25T08:18:39.000Z</time>
      </trkpt>
      <trkpt lat="46.16577" lon="6.44355">
        <ele>1417.6</ele>
        <time>2019-08-25T08:18:47.000Z</time>
      </trkpt>
      <trkpt lat="46.16567" lon="6.44353">
        <ele>1421.02</ele>
        <time>2019-08-25T08:18:56.000Z</time>
      </trkpt>
      <trkpt lat="46.16557" lon="6.44351">
        <ele>1423.83</ele>
        <time>2019-08-25T08:19:03.000Z</time>
      </trkpt>
      <trkpt lat="46.16547" lon="6.44347">
        <ele>1426.54</ele>
        <time>2019-08-25T08:19:10.000Z</time>
      </trkpt>
      <trkpt lat="46.16536" lon="6.44344">
        <ele>1430.11</ele>
        <time>2019-08-25T08:19:17.000Z</time>
      </trkpt>
      <trkpt lat="46.16525" lon="6.44343">
        <ele>1432.7</ele>
        <time>2019-08-25T08:19:23.000Z</time>
      </trkpt>
      <trkpt lat="46.16516" lon="6.44339">
        <ele>1434.87</ele>
        <time>2019-08-25T08:19:29.000Z</time>
      </trkpt>
      <trkpt lat="46.16507" lon="6.44337">
        <ele>1436.63</ele>
        <time>2019-08-25T08:19:35.000Z</time>
      </trkpt>
      <trkpt lat="46.16499" lon="6.44341">
        <ele>1437.96</ele>
        <time>2019-08-25T08:19:41.000Z</time>
      </trkpt>
      <trkpt lat="46.1649" lon="6.44349">
        <ele>1439.87</ele>
        <time>2019-08-25T08:19:48.000Z</time>
      </trkpt>
      <trkpt lat="46.16481" lon="6.44358">
        <ele>1442.06</ele>
        <time>2019-08-25T08:19:55.000Z</time>
      </trkpt>
      <trkpt lat="46.16473" lon="6.44365">
        <ele>1444.45</ele>
        <time>2019-08-25T08:20:02.000Z</time>
      </trkpt>
      <trkpt lat="46.16464" lon="6.44371">
        <ele>1447.08</ele>
        <time>2019-08-25T08:20:10.000Z</time>
      </trkpt>
      <trkpt lat="46.16454" lon="6.44376">
        <ele>1449.4</ele>
        <time>2019-08-25T08:20:17.000Z</time>
      </trkpt>
      <trkpt lat="46.16444" lon="6.44385">
        <ele>1452.31</ele>
        <time>2019-08-25T08:20:24.000Z</time>
      </trkpt>
      <trkpt lat="46.16437" lon="6.44393">
        <ele>1454.64</ele>
        <time>2019-08-25T08:20:30.000Z</time>
      </trkpt>
      <trkpt lat="46.16427" lon="6.44394">
        <ele>1456.66</ele>
        <time>2019-08-25T08:20:36.000Z</time>
      </trkpt>
      <trkpt lat="46.1642" lon="6.44386">
        <ele>1458.67</ele>
        <time>2019-08-25T08:20:42.000Z</time>
      </trkpt>
      <trkpt lat="46.16414" lon="6.44375">
        <ele>1461.33</ele>
        <time>2019-08-25T08:20:48.000Z</time>
      </trkpt>
      <trkpt lat="46.16407" lon="6.44365">
        <ele>1464.97</ele>
        <time>2019-08-25T08:20:56.000Z</time>
      </trkpt>
      <trkpt lat="46.164" lon="6.44356">
        <ele>1468.42</ele>
        <time>2019-08-25T08:21:03.000Z</time>
      </trkpt>
      <trkpt lat="46.16392" lon="6.44345">
        <ele>1472.85</ele>
        <time>2019-08-25T08:21:11.000Z</time>
      </trkpt>
      <trkpt lat="46.16383" lon="6.4434">
        <ele>1477.01</ele>
        <time>2019-08-25T08:21:19.000Z</time>
      </trkpt>
      <trkpt lat="46.16373" lon="6.44334">
        <ele>1480.74</ele>
        <time>2019-08-25T08:21:27.000Z</time>
      </trkpt>
      <trkpt lat="46.16365" lon="6.44325">
        <ele>1484.92</ele>
        <time>2019-08-25T08:21:36.000Z</time>
      </trkpt>
      <trkpt lat="46.16358" lon="6.44317">
        <ele>1488.29</ele>
        <time>2019-08-25T08:21:43.000Z</time>
      </trkpt>
      <trkpt lat="46.1635" lon="6.44311">
        <ele>1491.52</ele>
        <time>2019-08-25T08:21:51.000Z</time>
      </trkpt>
      <trkpt lat="46.16341" lon="6.44316">
        <ele>1494.74</ele>
        <time>2019-08-25T08:22:01.000Z</time>
      </trkpt>
      <trkpt lat="46.16339" lon="6.44331">
        <ele>1496.17</ele>
        <time>2019-08-25T08:30:29.000Z</time>
      </trkpt>
      <trkpt lat="46.16332" lon="6.4435">
        <ele>1495.81</ele>
        <time>2019-08-25T08:30:36.000Z</time>
      </trkpt>
      <trkpt lat="46.16324" lon="6.44369">
        <ele>1494.81</ele>
        <time>2019-08-25T08:30:40.000Z</time>
      </trkpt>
      <trkpt lat="46.1632" lon="6.44386">
        <ele>1493.98</ele>
        <time>2019-08-25T08:30:44.000Z</time>
      </trkpt>
      <trkpt lat="46.16315" lon="6.44399">
        <ele>1490.03</ele>
        <time>2019-08-25T08:30:50.000Z</time>
      </trkpt>
      <trkpt lat="46.1631" lon="6.44419">
        <ele>1487.43</ele>
        <time>2019-08-25T08:30:53.000Z</time>
      </trkpt>
      <trkpt lat="46.16307" lon="6.44439">
        <ele>1483.77</ele>
        <time>2019-08-25T08:30:57.000Z</time>
      </trkpt>
      <trkpt lat="46.16306" lon="6.44452">
        <ele>1476.64</ele>
        <time>2019-08-25T08:31:03.000Z</time>
      </trkpt>
      <trkpt lat="46.16305" lon="6.44466">
        <ele>1468.7</ele>
        <time>2019-08-25T08:31:11.000Z</time>
      </trkpt>
      <trkpt lat="46.16301" lon="6.44478">
        <ele>1464.97</ele>
        <time>2019-08-25T08:31:16.000Z</time>
      </trkpt>
      <trkpt lat="46.16298" lon="6.44496">
        <ele>1463.2</ele>
        <time>2019-08-25T08:31:20.000Z</time>
      </trkpt>
      <trkpt lat="46.16296" lon="6.44516">
        <ele>1459.27</ele>
        <time>2019-08-25T08:31:25.000Z</time>
      </trkpt>
      <trkpt lat="46.16299" lon="6.44534">
        <ele>1455.92</ele>
        <time>2019-08-25T08:31:28.000Z</time>
      </trkpt>
      <trkpt lat="46.16301" lon="6.44548">
        <ele>1452.47</ele>
        <time>2019-08-25T08:31:31.000Z</time>
      </trkpt>
      <trkpt lat="46.16308" lon="6.44559">
        <ele>1447.83</ele>
        <time>2019-08-25T08:31:35.000Z</time>
      </trkpt>
      <trkpt lat="46.16297" lon="6.44561">
        <ele>1436.78</ele>
        <time>2019-08-25T08:32:12.000Z</time>
      </trkpt>
      <trkpt lat="46.16282" lon="6.4456">
        <ele>1437.01</ele>
        <time>2019-08-25T08:32:16.000Z</time>
      </trkpt>
      <trkpt lat="46.1627" lon="6.44563">
        <ele>1436.61</ele>
        <time>2019-08-25T08:32:20.000Z</time>
      </trkpt>
      <trkpt lat="46.16259" lon="6.44563">
        <ele>1435.51</ele>
        <time>2019-08-25T08:32:25.000Z</time>
      </trkpt>
      <trkpt lat="46.16248" lon="6.44561">
        <ele>1434.89</ele>
        <time>2019-08-25T08:32:30.000Z</time>
      </trkpt>
      <trkpt lat="46.16238" lon="6.44564">
        <ele>1435.33</ele>
        <time>2019-08-25T08:32:35.000Z</time>
      </trkpt>
      <trkpt lat="46.16228" lon="6.44568">
        <ele>1435.74</ele>
        <time>2019-08-25T08:32:41.000Z</time>
      </trkpt>
      <trkpt lat="46.16217" lon="6.44574">
        <ele>1434.73</ele>
        <time>2019-08-25T08:32:47.000Z</time>
      </trkpt>
      <trkpt lat="46.16211" lon="6.44589">
        <ele>1432.19</ele>
        <time>2019-08-25T08:32:52.000Z</time>
      </trkpt>
      <trkpt lat="46.16209" lon="6.44609">
        <ele>1429.57</ele>
        <time>2019-08-25T08:32:55.000Z</time>
      </trkpt>
      <trkpt lat="46.16204" lon="6.44631">
        <ele>1427.09</ele>
        <time>2019-08-25T08:32:58.000Z</time>
      </trkpt>
      <trkpt lat="46.16196" lon="6.44647">
        <ele>1425.63</ele>
        <time>2019-08-25T08:33:01.000Z</time>
      </trkpt>
      <trkpt lat="46.16187" lon="6.44658">
        <ele>1424.09</ele>
        <time>2019-08-25T08:33:02.000Z</time>
      </trkpt>
      <trkpt lat="46.16178" lon="6.44662">
        <ele>1421.17</ele>
        <time>2019-08-25T08:33:05.000Z</time>
      </trkpt>
      <trkpt lat="46.16167" lon="6.44664">
        <ele>1417.04</ele>
        <time>2019-08-25T08:33:10.000Z</time>
      </trkpt>
      <trkpt lat="46.16156" lon="6.44665">
        <ele>1415.38</ele>
        <time>2019-08-25T08:33:14.000Z</time>
      </trkpt>
      <trkpt lat="46.16146" lon="6.4467">
        <ele>1414.44</ele>
        <time>2019-08-25T08:33:18.000Z</time>
      </trkpt>
      <trkpt lat="46.16134" lon="6.4468">
        <ele>1414.82</ele>
        <time>2019-08-25T08:33:23.000Z</time>
      </trkpt>
      <trkpt lat="46.16124" lon="6.4469">
        <ele>1416.55</ele>
        <time>2019-08-25T08:33:32.000Z</time>
      </trkpt>
      <trkpt lat="46.16117" lon="6.44699">
        <ele>1416.91</ele>
        <time>2019-08-25T08:33:35.000Z</time>
      </trkpt>
      <trkpt lat="46.16107" lon="6.44706">
        <ele>1416.78</ele>
        <time>2019-08-25T08:33:39.000Z</time>
      </trkpt>
      <trkpt lat="46.16098" lon="6.44711">
        <ele>1416.45</ele>
        <time>2019-08-25T08:33:43.000Z</time>
      </trkpt>
      <trkpt lat="46.1609" lon="6.44717">
        <ele>1416.42</ele>
        <time>2019-08-25T08:33:45.000Z</time>
      </trkpt>
      <trkpt lat="46.16079" lon="6.44729">
        <ele>1416.75</ele>
        <time>2019-08-25T08:33:50.000Z</time>
      </trkpt>
      <trkpt lat="46.16076" lon="6.44742">
        <ele>1417.58</ele>
        <time>2019-08-25T08:33:57.000Z</time>
      </trkpt>
      <trkpt lat="46.16065" lon="6.44762">
        <ele>1416.21</ele>
        <time>2019-08-25T08:34:02.000Z</time>
      </trkpt>
      <trkpt lat="46.16056" lon="6.44776">
        <ele>1414.43</ele>
        <time>2019-08-25T08:34:05.000Z</time>
      </trkpt>
      <trkpt lat="46.16046" lon="6.44788">
        <ele>1411.58</ele>
        <time>2019-08-25T08:34:10.000Z</time>
      </trkpt>
      <trkpt lat="46.16033" lon="6.44796">
        <ele>1412.15</ele>
        <time>2019-08-25T08:34:15.000Z</time>
      </trkpt>
      <trkpt lat="46.16023" lon="6.448">
        <ele>1414.59</ele>
        <time>2019-08-25T08:34:22.000Z</time>
      </trkpt>
      <trkpt lat="46.16009" lon="6.44809">
        <ele>1415.79</ele>
        <time>2019-08-25T08:34:27.000Z</time>
      </trkpt>
      <trkpt lat="46.15997" lon="6.44821">
        <ele>1416.11</ele>
        <time>2019-08-25T08:34:32.000Z</time>
      </trkpt>
      <trkpt lat="46.15989" lon="6.44833">
        <ele>1415.92</ele>
        <time>2019-08-25T08:34:38.000Z</time>
      </trkpt>
      <trkpt lat="46.1598" lon="6.44842">
        <ele>1415.26</ele>
        <time>2019-08-25T08:34:46.000Z</time>
      </trkpt>
      <trkpt lat="46.15973" lon="6.4485">
        <ele>1417.01</ele>
        <time>2019-08-25T08:34:51.000Z</time>
      </trkpt>
      <trkpt lat="46.15966" lon="6.4486">
        <ele>1418.74</ele>
        <time>2019-08-25T08:34:58.000Z</time>
      </trkpt>
      <trkpt lat="46.1596" lon="6.44871">
        <ele>1422.97</ele>
        <time>2019-08-25T08:35:05.000Z</time>
      </trkpt>
      <trkpt lat="46.15954" lon="6.4488">
        <ele>1425.3</ele>
        <time>2019-08-25T08:35:10.000Z</time>
      </trkpt>
      <trkpt lat="46.15948" lon="6.44891">
        <ele>1428.63</ele>
        <time>2019-08-25T08:35:16.000Z</time>
      </trkpt>
      <trkpt lat="46.1594" lon="6.44899">
        <ele>1431.43</ele>
        <time>2019-08-25T08:35:21.000Z</time>
      </trkpt>
      <trkpt lat="46.15931" lon="6.44906">
        <ele>1434.13</ele>
        <time>2019-08-25T08:35:28.000Z</time>
      </trkpt>
      <trkpt lat="46.15922" lon="6.44915">
        <ele>1436.34</ele>
        <time>2019-08-25T08:35:33.000Z</time>
      </trkpt>
      <trkpt lat="46.15915" lon="6.44923">
        <ele>1437.17</ele>
        <time>2019-08-25T08:35:38.000Z</time>
      </trkpt>
      <trkpt lat="46.15906" lon="6.44933">
        <ele>1437.71</ele>
        <time>2019-08-25T08:35:44.000Z</time>
      </trkpt>
      <trkpt lat="46.15899" lon="6.44943">
        <ele>1437.2</ele>
        <time>2019-08-25T08:35:49.000Z</time>
      </trkpt>
      <trkpt lat="46.15892" lon="6.44956">
        <ele>1437.1</ele>
        <time>2019-08-25T08:35:55.000Z</time>
      </trkpt>
      <trkpt lat="46.15886" lon="6.4497">
        <ele>1437.73</ele>
        <time>2019-08-25T08:36:00.000Z</time>
      </trkpt>
      <trkpt lat="46.1588" lon="6.44984">
        <ele>1438.38</ele>
        <time>2019-08-25T08:36:03.000Z</time>
      </trkpt>
      <trkpt lat="46.15872" lon="6.44999">
        <ele>1439.01</ele>
        <time>2019-08-25T08:36:06.000Z</time>
      </trkpt>
      <trkpt lat="46.15868" lon="6.45012">
        <ele>1439.2</ele>
        <time>2019-08-25T08:36:10.000Z</time>
      </trkpt>
      <trkpt lat="46.15865" lon="6.45025">
        <ele>1439.25</ele>
        <time>2019-08-25T08:36:11.000Z</time>
      </trkpt>
      <trkpt lat="46.15859" lon="6.45041">
        <ele>1439.18</ele>
        <time>2019-08-25T08:36:14.000Z</time>
      </trkpt>
      <trkpt lat="46.15846" lon="6.4505">
        <ele>1439.5</ele>
        <time>2019-08-25T08:36:18.000Z</time>
      </trkpt>
      <trkpt lat="46.15834" lon="6.45058">
        <ele>1440.54</ele>
        <time>2019-08-25T08:36:26.000Z</time>
      </trkpt>
      <trkpt lat="46.15804" lon="6.45088">
        <ele>1440.13</ele>
        <time>2019-08-25T08:36:28.000Z</time>
      </trkpt>
      <trkpt lat="46.15796" lon="6.45096">
        <ele>1439.36</ele>
        <time>2019-08-25T08:36:31.000Z</time>
      </trkpt>
      <trkpt lat="46.15791" lon="6.4511">
        <ele>1437.89</ele>
        <time>2019-08-25T08:36:33.000Z</time>
      </trkpt>
      <trkpt lat="46.15784" lon="6.45122">
        <ele>1435.76</ele>
        <time>2019-08-25T08:36:35.000Z</time>
      </trkpt>
      <trkpt lat="46.15774" lon="6.45136">
        <ele>1435.76</ele>
        <time>2019-08-25T08:36:37.000Z</time>
      </trkpt>
      <trkpt lat="46.15765" lon="6.45146">
        <ele>1433.87</ele>
        <time>2019-08-25T08:36:42.000Z</time>
      </trkpt>
      <trkpt lat="46.15757" lon="6.45137">
        <ele>1429.36</ele>
        <time>2019-08-25T08:38:22.000Z</time>
      </trkpt>
      <trkpt lat="46.15753" lon="6.45124">
        <ele>1429.23</ele>
        <time>2019-08-25T08:38:26.000Z</time>
      </trkpt>
      <trkpt lat="46.1575" lon="6.45101">
        <ele>1428.71</ele>
        <time>2019-08-25T08:38:30.000Z</time>
      </trkpt>
      <trkpt lat="46.15746" lon="6.45084">
        <ele>1428.34</ele>
        <time>2019-08-25T08:38:33.000Z</time>
      </trkpt>
      <trkpt lat="46.15741" lon="6.45069">
        <ele>1427.2</ele>
        <time>2019-08-25T08:38:37.000Z</time>
      </trkpt>
      <trkpt lat="46.15733" lon="6.45045">
        <ele>1425.37</ele>
        <time>2019-08-25T08:38:41.000Z</time>
      </trkpt>
      <trkpt lat="46.15733" lon="6.45032">
        <ele>1425.01</ele>
        <time>2019-08-25T08:38:43.000Z</time>
      </trkpt>
      <trkpt lat="46.15734" lon="6.45018">
        <ele>1422.59</ele>
        <time>2019-08-25T08:38:48.000Z</time>
      </trkpt>
      <trkpt lat="46.15729" lon="6.45033">
        <ele>1416.97</ele>
        <time>2019-08-25T08:44:35.000Z</time>
      </trkpt>
      <trkpt lat="46.1573" lon="6.45048">
        <ele>1417.67</ele>
        <time>2019-08-25T08:44:40.000Z</time>
      </trkpt>
      <trkpt lat="46.15734" lon="6.45062">
        <ele>1417.53</ele>
        <time>2019-08-25T08:44:45.000Z</time>
      </trkpt>
      <trkpt lat="46.15738" lon="6.45075">
        <ele>1417.18</ele>
        <time>2019-08-25T08:44:51.000Z</time>
      </trkpt>
      <trkpt lat="46.15742" lon="6.45089">
        <ele>1418.04</ele>
        <time>2019-08-25T08:44:57.000Z</time>
      </trkpt>
      <trkpt lat="46.15746" lon="6.45102">
        <ele>1420.13</ele>
        <time>2019-08-25T08:45:03.000Z</time>
      </trkpt>
      <trkpt lat="46.15747" lon="6.45118">
        <ele>1422.14</ele>
        <time>2019-08-25T08:45:10.000Z</time>
      </trkpt>
      <trkpt lat="46.15747" lon="6.45131">
        <ele>1424.35</ele>
        <time>2019-08-25T08:45:18.000Z</time>
      </trkpt>
      <trkpt lat="46.15746" lon="6.45147">
        <ele>1427.51</ele>
        <time>2019-08-25T08:45:27.000Z</time>
      </trkpt>
      <trkpt lat="46.15737" lon="6.45157">
        <ele>1429.09</ele>
        <time>2019-08-25T08:45:35.000Z</time>
      </trkpt>
      <trkpt lat="46.1573" lon="6.45164">
        <ele>1430.34</ele>
        <time>2019-08-25T08:45:41.000Z</time>
      </trkpt>
      <trkpt lat="46.15723" lon="6.45173">
        <ele>1431.84</ele>
        <time>2019-08-25T08:45:47.000Z</time>
      </trkpt>
      <trkpt lat="46.15717" lon="6.45184">
        <ele>1433.77</ele>
        <time>2019-08-25T08:45:53.000Z</time>
      </trkpt>
      <trkpt lat="46.15711" lon="6.452">
        <ele>1436.84</ele>
        <time>2019-08-25T08:46:03.000Z</time>
      </trkpt>
      <trkpt lat="46.15703" lon="6.45208">
        <ele>1437.25</ele>
        <time>2019-08-25T08:46:09.000Z</time>
      </trkpt>
      <trkpt lat="46.15701" lon="6.45221">
        <ele>1434.39</ele>
        <time>2019-08-25T08:46:27.000Z</time>
      </trkpt>
      <trkpt lat="46.15705" lon="6.45246">
        <ele>1434.05</ele>
        <time>2019-08-25T08:46:31.000Z</time>
      </trkpt>
      <trkpt lat="46.15709" lon="6.45262">
        <ele>1433.24</ele>
        <time>2019-08-25T08:46:35.000Z</time>
      </trkpt>
      <trkpt lat="46.15718" lon="6.45267">
        <ele>1432.32</ele>
        <time>2019-08-25T08:46:39.000Z</time>
      </trkpt>
      <trkpt lat="46.1573" lon="6.45261">
        <ele>1430.84</ele>
        <time>2019-08-25T08:46:44.000Z</time>
      </trkpt>
      <trkpt lat="46.1574" lon="6.45256">
        <ele>1430.08</ele>
        <time>2019-08-25T08:46:49.000Z</time>
      </trkpt>
      <trkpt lat="46.15749" lon="6.4526">
        <ele>1429.6</ele>
        <time>2019-08-25T08:46:53.000Z</time>
      </trkpt>
      <trkpt lat="46.15757" lon="6.45271">
        <ele>1429.4</ele>
        <time>2019-08-25T08:46:56.000Z</time>
      </trkpt>
      <trkpt lat="46.15768" lon="6.45283">
        <ele>1429.26</ele>
        <time>2019-08-25T08:46:59.000Z</time>
      </trkpt>
      <trkpt lat="46.15776" lon="6.45293">
        <ele>1428.93</ele>
        <time>2019-08-25T08:47:01.000Z</time>
      </trkpt>
      <trkpt lat="46.15787" lon="6.45298">
        <ele>1427.84</ele>
        <time>2019-08-25T08:47:05.000Z</time>
      </trkpt>
      <trkpt lat="46.15797" lon="6.45302">
        <ele>1426.75</ele>
        <time>2019-08-25T08:47:09.000Z</time>
      </trkpt>
      <trkpt lat="46.15788" lon="6.45298">
        <ele>1424.19</ele>
        <time>2019-08-25T08:47:23.000Z</time>
      </trkpt>
      <trkpt lat="46.15779" lon="6.45295">
        <ele>1424.36</ele>
        <time>2019-08-25T08:47:27.000Z</time>
      </trkpt>
      <trkpt lat="46.15768" lon="6.4529">
        <ele>1424.92</ele>
        <time>2019-08-25T08:47:32.000Z</time>
      </trkpt>
      <trkpt lat="46.15758" lon="6.45282">
        <ele>1425.76</ele>
        <time>2019-08-25T08:47:37.000Z</time>
      </trkpt>
      <trkpt lat="46.15751" lon="6.45273">
        <ele>1426.53</ele>
        <time>2019-08-25T08:47:41.000Z</time>
      </trkpt>
      <trkpt lat="46.15743" lon="6.45262">
        <ele>1427.68</ele>
        <time>2019-08-25T08:47:46.000Z</time>
      </trkpt>
      <trkpt lat="46.15734" lon="6.45253">
        <ele>1428.96</ele>
        <time>2019-08-25T08:47:51.000Z</time>
      </trkpt>
      <trkpt lat="46.15726" lon="6.45259">
        <ele>1429.12</ele>
        <time>2019-08-25T08:47:56.000Z</time>
      </trkpt>
      <trkpt lat="46.15719" lon="6.45269">
        <ele>1428.77</ele>
        <time>2019-08-25T08:48:01.000Z</time>
      </trkpt>
      <trkpt lat="46.15709" lon="6.45271">
        <ele>1428.89</ele>
        <time>2019-08-25T08:48:07.000Z</time>
      </trkpt>
      <trkpt lat="46.15703" lon="6.45259">
        <ele>1430.32</ele>
        <time>2019-08-25T08:48:13.000Z</time>
      </trkpt>
      <trkpt lat="46.15701" lon="6.45244">
        <ele>1431.79</ele>
        <time>2019-08-25T08:48:19.000Z</time>
      </trkpt>
      <trkpt lat="46.1569" lon="6.45241">
        <ele>1433.05</ele>
        <time>2019-08-25T08:48:27.000Z</time>
      </trkpt>
      <trkpt lat="46.15681" lon="6.45242">
        <ele>1433.72</ele>
        <time>2019-08-25T08:48:32.000Z</time>
      </trkpt>
      <trkpt lat="46.15671" lon="6.45237">
        <ele>1433.95</ele>
        <time>2019-08-25T08:48:38.000Z</time>
      </trkpt>
      <trkpt lat="46.15666" lon="6.45226">
        <ele>1433.87</ele>
        <time>2019-08-25T08:48:45.000Z</time>
      </trkpt>
      <trkpt lat="46.1566" lon="6.45215">
        <ele>1433.13</ele>
        <time>2019-08-25T08:49:08.000Z</time>
      </trkpt>
      <trkpt lat="46.1566" lon="6.45201">
        <ele>1433.81</ele>
        <time>2019-08-25T08:49:14.000Z</time>
      </trkpt>
      <trkpt lat="46.15668" lon="6.45185">
        <ele>1436.05</ele>
        <time>2019-08-25T08:49:22.000Z</time>
      </trkpt>
      <trkpt lat="46.15679" lon="6.45183">
        <ele>1437.85</ele>
        <time>2019-08-25T08:49:26.000Z</time>
      </trkpt>
      <trkpt lat="46.15687" lon="6.45173">
        <ele>1439.73</ele>
        <time>2019-08-25T08:49:32.000Z</time>
      </trkpt>
      <trkpt lat="46.15692" lon="6.45161">
        <ele>1440.44</ele>
        <time>2019-08-25T08:49:37.000Z</time>
      </trkpt>
      <trkpt lat="46.15699" lon="6.45149">
        <ele>1441.31</ele>
        <time>2019-08-25T08:50:00.000Z</time>
      </trkpt>
      <trkpt lat="46.15695" lon="6.45135">
        <ele>1440.68</ele>
        <time>2019-08-25T08:50:06.000Z</time>
      </trkpt>
      <trkpt lat="46.15688" lon="6.45124">
        <ele>1439.76</ele>
        <time>2019-08-25T08:50:10.000Z</time>
      </trkpt>
      <trkpt lat="46.1569" lon="6.45107">
        <ele>1438.29</ele>
        <time>2019-08-25T08:50:15.000Z</time>
      </trkpt>
      <trkpt lat="46.15702" lon="6.45104">
        <ele>1437.06</ele>
        <time>2019-08-25T08:50:17.000Z</time>
      </trkpt>
      <trkpt lat="46.15711" lon="6.45095">
        <ele>1433.65</ele>
        <time>2019-08-25T08:50:20.000Z</time>
      </trkpt>
      <trkpt lat="46.15722" lon="6.45094">
        <ele>1429.43</ele>
        <time>2019-08-25T08:50:24.000Z</time>
      </trkpt>
      <trkpt lat="46.15726" lon="6.4508">
        <ele>1425.44</ele>
        <time>2019-08-25T08:50:30.000Z</time>
      </trkpt>
      <trkpt lat="46.15731" lon="6.45061">
        <ele>1423.33</ele>
        <time>2019-08-25T08:50:34.000Z</time>
      </trkpt>
      <trkpt lat="46.15733" lon="6.45045">
        <ele>1423.2</ele>
        <time>2019-08-25T08:50:37.000Z</time>
      </trkpt>
      <trkpt lat="46.15734" lon="6.45027">
        <ele>1422.71</ele>
        <time>2019-08-25T08:50:41.000Z</time>
      </trkpt>
      <trkpt lat="46.15732" lon="6.45014">
        <ele>1417.2</ele>
        <time>2019-08-25T08:50:58.000Z</time>
      </trkpt>
      <trkpt lat="46.15729" lon="6.45002">
        <ele>1417.3</ele>
        <time>2019-08-25T08:51:01.000Z</time>
      </trkpt>
      <trkpt lat="46.15724" lon="6.44989">
        <ele>1417.48</ele>
        <time>2019-08-25T08:51:05.000Z</time>
      </trkpt>
      <trkpt lat="46.15718" lon="6.44978">
        <ele>1416.92</ele>
        <time>2019-08-25T08:51:08.000Z</time>
      </trkpt>
      <trkpt lat="46.1571" lon="6.44968">
        <ele>1415.2</ele>
        <time>2019-08-25T08:51:12.000Z</time>
      </trkpt>
      <trkpt lat="46.15705" lon="6.44955">
        <ele>1411.24</ele>
        <time>2019-08-25T08:51:23.000Z</time>
      </trkpt>
      <trkpt lat="46.15701" lon="6.44941">
        <ele>1410.09</ele>
        <time>2019-08-25T08:51:29.000Z</time>
      </trkpt>
      <trkpt lat="46.15694" lon="6.4493">
        <ele>1408.73</ele>
        <time>2019-08-25T08:51:34.000Z</time>
      </trkpt>
      <trkpt lat="46.15685" lon="6.4492">
        <ele>1407.49</ele>
        <time>2019-08-25T08:51:37.000Z</time>
      </trkpt>
      <trkpt lat="46.15676" lon="6.44913">
        <ele>1406</ele>
        <time>2019-08-25T08:51:40.000Z</time>
      </trkpt>
      <trkpt lat="46.15667" lon="6.44907">
        <ele>1405.07</ele>
        <time>2019-08-25T08:51:42.000Z</time>
      </trkpt>
      <trkpt lat="46.15656" lon="6.44901">
        <ele>1403.18</ele>
        <time>2019-08-25T08:51:45.000Z</time>
      </trkpt>
      <trkpt lat="46.15642" lon="6.44895">
        <ele>1400.75</ele>
        <time>2019-08-25T08:51:48.000Z</time>
      </trkpt>
      <trkpt lat="46.15629" lon="6.44889">
        <ele>1398.32</ele>
        <time>2019-08-25T08:51:52.000Z</time>
      </trkpt>
      <trkpt lat="46.15616" lon="6.44884">
        <ele>1397.22</ele>
        <time>2019-08-25T08:51:55.000Z</time>
      </trkpt>
      <trkpt lat="46.15602" lon="6.44879">
        <ele>1396.19</ele>
        <time>2019-08-25T08:51:58.000Z</time>
      </trkpt>
      <trkpt lat="46.15593" lon="6.44871">
        <ele>1395.69</ele>
        <time>2019-08-25T08:52:00.000Z</time>
      </trkpt>
      <trkpt lat="46.15583" lon="6.44864">
        <ele>1395.25</ele>
        <time>2019-08-25T08:52:04.000Z</time>
      </trkpt>
      <trkpt lat="46.15574" lon="6.4486">
        <ele>1389.29</ele>
        <time>2019-08-25T08:52:19.000Z</time>
      </trkpt>
      <trkpt lat="46.15563" lon="6.44856">
        <ele>1387.56</ele>
        <time>2019-08-25T08:52:25.000Z</time>
      </trkpt>
      <trkpt lat="46.15552" lon="6.44854">
        <ele>1386.72</ele>
        <time>2019-08-25T08:52:30.000Z</time>
      </trkpt>
      <trkpt lat="46.15541" lon="6.44851">
        <ele>1384.32</ele>
        <time>2019-08-25T08:52:36.000Z</time>
      </trkpt>
      <trkpt lat="46.15531" lon="6.44841">
        <ele>1378.03</ele>
        <time>2019-08-25T08:52:45.000Z</time>
      </trkpt>
      <trkpt lat="46.15523" lon="6.44834">
        <ele>1376.28</ele>
        <time>2019-08-25T08:52:48.000Z</time>
      </trkpt>
      <trkpt lat="46.15512" lon="6.44833">
        <ele>1373.22</ele>
        <time>2019-08-25T08:52:52.000Z</time>
      </trkpt>
      <trkpt lat="46.15503" lon="6.44827">
        <ele>1371.27</ele>
        <time>2019-08-25T08:52:55.000Z</time>
      </trkpt>
      <trkpt lat="46.15494" lon="6.44822">
        <ele>1370.19</ele>
        <time>2019-08-25T08:52:58.000Z</time>
      </trkpt>
      <trkpt lat="46.15469" lon="6.44802">
        <ele>1366.9</ele>
        <time>2019-08-25T08:53:04.000Z</time>
      </trkpt>
      <trkpt lat="46.15461" lon="6.44793">
        <ele>1365.02</ele>
        <time>2019-08-25T08:53:07.000Z</time>
      </trkpt>
      <trkpt lat="46.1545" lon="6.44782">
        <ele>1361.69</ele>
        <time>2019-08-25T08:53:11.000Z</time>
      </trkpt>
      <trkpt lat="46.15441" lon="6.44773">
        <ele>1359.41</ele>
        <time>2019-08-25T08:53:13.000Z</time>
      </trkpt>
      <trkpt lat="46.15433" lon="6.44755">
        <ele>1356.71</ele>
        <time>2019-08-25T08:53:16.000Z</time>
      </trkpt>
      <trkpt lat="46.15424" lon="6.44734">
        <ele>1353.7</ele>
        <time>2019-08-25T08:53:19.000Z</time>
      </trkpt>
      <trkpt lat="46.15418" lon="6.44724">
        <ele>1351.33</ele>
        <time>2019-08-25T08:53:21.000Z</time>
      </trkpt>
      <trkpt lat="46.15412" lon="6.44709">
        <ele>1347.04</ele>
        <time>2019-08-25T08:53:25.000Z</time>
      </trkpt>
      <trkpt lat="46.15403" lon="6.44699">
        <ele>1343.18</ele>
        <time>2019-08-25T08:53:37.000Z</time>
      </trkpt>
      <trkpt lat="46.15401" lon="6.44686">
        <ele>1339.52</ele>
        <time>2019-08-25T08:54:01.000Z</time>
      </trkpt>
      <trkpt lat="46.15395" lon="6.44675">
        <ele>1335.95</ele>
        <time>2019-08-25T08:54:15.000Z</time>
      </trkpt>
      <trkpt lat="46.15374" lon="6.4468">
        <ele>1334.34</ele>
        <time>2019-08-25T08:54:23.000Z</time>
      </trkpt>
      <trkpt lat="46.15366" lon="6.44693">
        <ele>1333.91</ele>
        <time>2019-08-25T08:54:25.000Z</time>
      </trkpt>
      <trkpt lat="46.15356" lon="6.44705">
        <ele>1332.68</ele>
        <time>2019-08-25T08:54:28.000Z</time>
      </trkpt>
      <trkpt lat="46.15342" lon="6.44718">
        <ele>1330.75</ele>
        <time>2019-08-25T08:54:31.000Z</time>
      </trkpt>
      <trkpt lat="46.15327" lon="6.44723">
        <ele>1329.35</ele>
        <time>2019-08-25T08:54:33.000Z</time>
      </trkpt>
      <trkpt lat="46.15312" lon="6.44726">
        <ele>1326.28</ele>
        <time>2019-08-25T08:54:36.000Z</time>
      </trkpt>
      <trkpt lat="46.15303" lon="6.4473">
        <ele>1323.22</ele>
        <time>2019-08-25T08:54:38.000Z</time>
      </trkpt>
      <trkpt lat="46.15297" lon="6.4474">
        <ele>1319.91</ele>
        <time>2019-08-25T08:54:40.000Z</time>
      </trkpt>
      <trkpt lat="46.1529" lon="6.44751">
        <ele>1316.49</ele>
        <time>2019-08-25T08:54:42.000Z</time>
      </trkpt>
      <trkpt lat="46.15282" lon="6.44758">
        <ele>1299.69</ele>
        <time>2019-08-25T08:54:53.000Z</time>
      </trkpt>
      <trkpt lat="46.15266" lon="6.4477">
        <ele>1295.09</ele>
        <time>2019-08-25T08:55:07.000Z</time>
      </trkpt>
      <trkpt lat="46.15254" lon="6.44778">
        <ele>1294.78</ele>
        <time>2019-08-25T08:55:09.000Z</time>
      </trkpt>
      <trkpt lat="46.15241" lon="6.44781">
        <ele>1294.29</ele>
        <time>2019-08-25T08:55:11.000Z</time>
      </trkpt>
      <trkpt lat="46.15231" lon="6.44779">
        <ele>1292.8</ele>
        <time>2019-08-25T08:55:15.000Z</time>
      </trkpt>
      <trkpt lat="46.15219" lon="6.44775">
        <ele>1291.34</ele>
        <time>2019-08-25T08:55:18.000Z</time>
      </trkpt>
      <trkpt lat="46.1521" lon="6.44772">
        <ele>1290.29</ele>
        <time>2019-08-25T08:55:20.000Z</time>
      </trkpt>
      <trkpt lat="46.152" lon="6.4477">
        <ele>1289.32</ele>
        <time>2019-08-25T08:55:22.000Z</time>
      </trkpt>
      <trkpt lat="46.1519" lon="6.44774">
        <ele>1288.26</ele>
        <time>2019-08-25T08:55:24.000Z</time>
      </trkpt>
      <trkpt lat="46.15182" lon="6.44781">
        <ele>1286.23</ele>
        <time>2019-08-25T08:55:27.000Z</time>
      </trkpt>
      <trkpt lat="46.15174" lon="6.44787">
        <ele>1281.28</ele>
        <time>2019-08-25T08:55:32.000Z</time>
      </trkpt>
      <trkpt lat="46.15169" lon="6.44773">
        <ele>1275.8</ele>
        <time>2019-08-25T08:55:38.000Z</time>
      </trkpt>
      <trkpt lat="46.15164" lon="6.44759">
        <ele>1271.86</ele>
        <time>2019-08-25T08:55:42.000Z</time>
      </trkpt>
      <trkpt lat="46.15162" lon="6.44744">
        <ele>1268.87</ele>
        <time>2019-08-25T08:55:47.000Z</time>
      </trkpt>
      <trkpt lat="46.1517" lon="6.4473">
        <ele>1263.28</ele>
        <time>2019-08-25T08:55:59.000Z</time>
      </trkpt>
      <trkpt lat="46.15179" lon="6.44716">
        <ele>1261.57</ele>
        <time>2019-08-25T08:56:02.000Z</time>
      </trkpt>
      <trkpt lat="46.15192" lon="6.44708">
        <ele>1259.97</ele>
        <time>2019-08-25T08:56:05.000Z</time>
      </trkpt>
      <trkpt lat="46.15206" lon="6.44699">
        <ele>1258.81</ele>
        <time>2019-08-25T08:56:10.000Z</time>
      </trkpt>
      <trkpt lat="46.15216" lon="6.44689">
        <ele>1258.33</ele>
        <time>2019-08-25T08:56:14.000Z</time>
      </trkpt>
      <trkpt lat="46.15226" lon="6.44673">
        <ele>1258.6</ele>
        <time>2019-08-25T08:56:18.000Z</time>
      </trkpt>
      <trkpt lat="46.15233" lon="6.44664">
        <ele>1258.42</ele>
        <time>2019-08-25T08:56:22.000Z</time>
      </trkpt>
      <trkpt lat="46.15239" lon="6.4465">
        <ele>1256.86</ele>
        <time>2019-08-25T08:56:27.000Z</time>
      </trkpt>
      <trkpt lat="46.15242" lon="6.44635">
        <ele>1254.21</ele>
        <time>2019-08-25T08:56:31.000Z</time>
      </trkpt>
      <trkpt lat="46.15251" lon="6.44625">
        <ele>1252.33</ele>
        <time>2019-08-25T08:56:34.000Z</time>
      </trkpt>
      <trkpt lat="46.1526" lon="6.4462">
        <ele>1249.6</ele>
        <time>2019-08-25T08:56:39.000Z</time>
      </trkpt>
      <trkpt lat="46.15268" lon="6.44614">
        <ele>1245.19</ele>
        <time>2019-08-25T08:56:48.000Z</time>
      </trkpt>
      <trkpt lat="46.15279" lon="6.44611">
        <ele>1243.11</ele>
        <time>2019-08-25T08:56:55.000Z</time>
      </trkpt>
      <trkpt lat="46.15296" lon="6.44611">
        <ele>1242.94</ele>
        <time>2019-08-25T08:57:01.000Z</time>
      </trkpt>
      <trkpt lat="46.15315" lon="6.44606">
        <ele>1243.89</ele>
        <time>2019-08-25T08:57:05.000Z</time>
      </trkpt>
      <trkpt lat="46.15331" lon="6.44592">
        <ele>1244.27</ele>
        <time>2019-08-25T08:57:07.000Z</time>
      </trkpt>
      <trkpt lat="46.15344" lon="6.44574">
        <ele>1243.9</ele>
        <time>2019-08-25T08:57:11.000Z</time>
      </trkpt>
      <trkpt lat="46.15353" lon="6.44559">
        <ele>1242.69</ele>
        <time>2019-08-25T08:57:13.000Z</time>
      </trkpt>
      <trkpt lat="46.15365" lon="6.44551">
        <ele>1239.13</ele>
        <time>2019-08-25T08:57:17.000Z</time>
      </trkpt>
      <trkpt lat="46.15377" lon="6.44534">
        <ele>1237.54</ele>
        <time>2019-08-25T08:57:19.000Z</time>
      </trkpt>
      <trkpt lat="46.15391" lon="6.4452">
        <ele>1235.9</ele>
        <time>2019-08-25T08:57:22.000Z</time>
      </trkpt>
      <trkpt lat="46.154" lon="6.44516">
        <ele>1234.2</ele>
        <time>2019-08-25T08:57:24.000Z</time>
      </trkpt>
      <trkpt lat="46.15412" lon="6.44517">
        <ele>1232.02</ele>
        <time>2019-08-25T08:57:28.000Z</time>
      </trkpt>
      <trkpt lat="46.15423" lon="6.44517">
        <ele>1231.81</ele>
        <time>2019-08-25T08:57:30.000Z</time>
      </trkpt>
      <trkpt lat="46.15434" lon="6.44517">
        <ele>1232.87</ele>
        <time>2019-08-25T08:57:33.000Z</time>
      </trkpt>
      <trkpt lat="46.15443" lon="6.44522">
        <ele>1233.43</ele>
        <time>2019-08-25T08:57:37.000Z</time>
      </trkpt>
      <trkpt lat="46.15454" lon="6.44524">
        <ele>1233.02</ele>
        <time>2019-08-25T08:57:42.000Z</time>
      </trkpt>
      <trkpt lat="46.15464" lon="6.44525">
        <ele>1235.09</ele>
        <time>2019-08-25T08:58:10.000Z</time>
      </trkpt>
      <trkpt lat="46.15476" lon="6.44539">
        <ele>1235.18</ele>
        <time>2019-08-25T08:58:16.000Z</time>
      </trkpt>
      <trkpt lat="46.15486" lon="6.44547">
        <ele>1234.27</ele>
        <time>2019-08-25T08:58:20.000Z</time>
      </trkpt>
      <trkpt lat="46.15494" lon="6.44554">
        <ele>1232.82</ele>
        <time>2019-08-25T08:58:24.000Z</time>
      </trkpt>
      <trkpt lat="46.15504" lon="6.44561">
        <ele>1232.02</ele>
        <time>2019-08-25T08:58:28.000Z</time>
      </trkpt>
      <trkpt lat="46.15517" lon="6.44565">
        <ele>1231.6</ele>
        <time>2019-08-25T08:58:33.000Z</time>
      </trkpt>
      <trkpt lat="46.15527" lon="6.44567">
        <ele>1232.54</ele>
        <time>2019-08-25T08:58:39.000Z</time>
      </trkpt>
      <trkpt lat="46.15538" lon="6.44566">
        <ele>1233.09</ele>
        <time>2019-08-25T08:58:47.000Z</time>
      </trkpt>
      <trkpt lat="46.15548" lon="6.44564">
        <ele>1232.77</ele>
        <time>2019-08-25T08:58:54.000Z</time>
      </trkpt>
      <trkpt lat="46.15561" lon="6.44564">
        <ele>1232.54</ele>
        <time>2019-08-25T08:59:00.000Z</time>
      </trkpt>
      <trkpt lat="46.15574" lon="6.4456">
        <ele>1232.9</ele>
        <time>2019-08-25T08:59:05.000Z</time>
      </trkpt>
      <trkpt lat="46.15584" lon="6.44556">
        <ele>1233.72</ele>
        <time>2019-08-25T08:59:09.000Z</time>
      </trkpt>
      <trkpt lat="46.15595" lon="6.44553">
        <ele>1235.01</ele>
        <time>2019-08-25T08:59:14.000Z</time>
      </trkpt>
      <trkpt lat="46.15608" lon="6.44552">
        <ele>1237.66</ele>
        <time>2019-08-25T08:59:20.000Z</time>
      </trkpt>
      <trkpt lat="46.15623" lon="6.44558">
        <ele>1238.04</ele>
        <time>2019-08-25T08:59:25.000Z</time>
      </trkpt>
      <trkpt lat="46.15638" lon="6.44568">
        <ele>1237.09</ele>
        <time>2019-08-25T08:59:29.000Z</time>
      </trkpt>
      <trkpt lat="46.15655" lon="6.44571">
        <ele>1235.05</ele>
        <time>2019-08-25T08:59:34.000Z</time>
      </trkpt>
      <trkpt lat="46.15667" lon="6.44573">
        <ele>1233.68</ele>
        <time>2019-08-25T08:59:37.000Z</time>
      </trkpt>
      <trkpt lat="46.15678" lon="6.44577">
        <ele>1231.5</ele>
        <time>2019-08-25T08:59:41.000Z</time>
      </trkpt>
      <trkpt lat="46.15688" lon="6.44579">
        <ele>1230.49</ele>
        <time>2019-08-25T08:59:45.000Z</time>
      </trkpt>
      <trkpt lat="46.15699" lon="6.44578">
        <ele>1230.08</ele>
        <time>2019-08-25T08:59:49.000Z</time>
      </trkpt>
      <trkpt lat="46.15709" lon="6.44576">
        <ele>1231.29</ele>
        <time>2019-08-25T08:59:56.000Z</time>
      </trkpt>
      <trkpt lat="46.15718" lon="6.4457">
        <ele>1234.76</ele>
        <time>2019-08-25T09:00:15.000Z</time>
      </trkpt>
      <trkpt lat="46.15727" lon="6.44571">
        <ele>1235.23</ele>
        <time>2019-08-25T09:00:48.000Z</time>
      </trkpt>
      <trkpt lat="46.15736" lon="6.44567">
        <ele>1235.66</ele>
        <time>2019-08-25T09:01:02.000Z</time>
      </trkpt>
      <trkpt lat="46.15742" lon="6.44556">
        <ele>1235.01</ele>
        <time>2019-08-25T09:01:10.000Z</time>
      </trkpt>
      <trkpt lat="46.15751" lon="6.4455">
        <ele>1236.45</ele>
        <time>2019-08-25T09:01:19.000Z</time>
      </trkpt>
      <trkpt lat="46.15759" lon="6.44541">
        <ele>1239.05</ele>
        <time>2019-08-25T09:01:32.000Z</time>
      </trkpt>
      <trkpt lat="46.15769" lon="6.44533">
        <ele>1237.29</ele>
        <time>2019-08-25T09:01:47.000Z</time>
      </trkpt>
      <trkpt lat="46.15775" lon="6.44522">
        <ele>1236.32</ele>
        <time>2019-08-25T09:01:56.000Z</time>
      </trkpt>
      <trkpt lat="46.15782" lon="6.4451">
        <ele>1235.34</ele>
        <time>2019-08-25T09:02:01.000Z</time>
      </trkpt>
      <trkpt lat="46.15793" lon="6.44498">
        <ele>1234.64</ele>
        <time>2019-08-25T09:02:06.000Z</time>
      </trkpt>
      <trkpt lat="46.158" lon="6.44484">
        <ele>1234.66</ele>
        <time>2019-08-25T09:02:11.000Z</time>
      </trkpt>
      <trkpt lat="46.15808" lon="6.44471">
        <ele>1234.24</ele>
        <time>2019-08-25T09:02:17.000Z</time>
      </trkpt>
      <trkpt lat="46.15817" lon="6.44455">
        <ele>1233.08</ele>
        <time>2019-08-25T09:02:21.000Z</time>
      </trkpt>
      <trkpt lat="46.15826" lon="6.44437">
        <ele>1232.62</ele>
        <time>2019-08-25T09:02:23.000Z</time>
      </trkpt>
      <trkpt lat="46.15838" lon="6.4442">
        <ele>1232.42</ele>
        <time>2019-08-25T09:02:26.000Z</time>
      </trkpt>
      <trkpt lat="46.15849" lon="6.44413">
        <ele>1232.17</ele>
        <time>2019-08-25T09:02:31.000Z</time>
      </trkpt>
      <trkpt lat="46.15859" lon="6.44407">
        <ele>1232.03</ele>
        <time>2019-08-25T09:02:35.000Z</time>
      </trkpt>
      <trkpt lat="46.1587" lon="6.44396">
        <ele>1231.82</ele>
        <time>2019-08-25T09:02:39.000Z</time>
      </trkpt>
      <trkpt lat="46.15878" lon="6.44384">
        <ele>1229.76</ele>
        <time>2019-08-25T09:02:47.000Z</time>
      </trkpt>
      <trkpt lat="46.15882" lon="6.44373">
        <ele>1229.5</ele>
        <time>2019-08-25T09:02:51.000Z</time>
      </trkpt>
      <trkpt lat="46.15882" lon="6.44358">
        <ele>1228.18</ele>
        <time>2019-08-25T09:02:56.000Z</time>
      </trkpt>
      <trkpt lat="46.15884" lon="6.44345">
        <ele>1225.43</ele>
        <time>2019-08-25T09:03:01.000Z</time>
      </trkpt>
      <trkpt lat="46.15867" lon="6.44318">
        <ele>1221.09</ele>
        <time>2019-08-25T09:03:07.000Z</time>
      </trkpt>
      <trkpt lat="46.15858" lon="6.44312">
        <ele>1216.05</ele>
        <time>2019-08-25T09:03:12.000Z</time>
      </trkpt>
      <trkpt lat="46.15845" lon="6.44303">
        <ele>1212.86</ele>
        <time>2019-08-25T09:03:14.000Z</time>
      </trkpt>
      <trkpt lat="46.15825" lon="6.44304">
        <ele>1203.73</ele>
        <time>2019-08-25T09:03:20.000Z</time>
      </trkpt>
      <trkpt lat="46.15812" lon="6.44312">
        <ele>1200.47</ele>
        <time>2019-08-25T09:03:22.000Z</time>
      </trkpt>
      <trkpt lat="46.15802" lon="6.4432">
        <ele>1197.11</ele>
        <time>2019-08-25T09:03:24.000Z</time>
      </trkpt>
      <trkpt lat="46.15793" lon="6.44331">
        <ele>1189.43</ele>
        <time>2019-08-25T09:03:29.000Z</time>
      </trkpt>
      <trkpt lat="46.15785" lon="6.44341">
        <ele>1187.56</ele>
        <time>2019-08-25T09:03:31.000Z</time>
      </trkpt>
      <trkpt lat="46.15776" lon="6.44345">
        <ele>1183.32</ele>
        <time>2019-08-25T09:03:37.000Z</time>
      </trkpt>
      <trkpt lat="46.1577" lon="6.44335">
        <ele>1177.35</ele>
        <time>2019-08-25T09:04:02.000Z</time>
      </trkpt>
      <trkpt lat="46.15774" lon="6.44322">
        <ele>1176</ele>
        <time>2019-08-25T09:04:06.000Z</time>
      </trkpt>
      <trkpt lat="46.15757" lon="6.4433">
        <ele>1174.6</ele>
        <time>2019-08-25T09:04:10.000Z</time>
      </trkpt>
      <trkpt lat="46.15746" lon="6.44342">
        <ele>1173.74</ele>
        <time>2019-08-25T09:04:12.000Z</time>
      </trkpt>
      <trkpt lat="46.15731" lon="6.44347">
        <ele>1172.9</ele>
        <time>2019-08-25T09:04:14.000Z</time>
      </trkpt>
      <trkpt lat="46.1571" lon="6.44351">
        <ele>1171.59</ele>
        <time>2019-08-25T09:04:17.000Z</time>
      </trkpt>
      <trkpt lat="46.15706" lon="6.44325">
        <ele>1168.57</ele>
        <time>2019-08-25T09:04:22.000Z</time>
      </trkpt>
      <trkpt lat="46.15707" lon="6.44305">
        <ele>1166.39</ele>
        <time>2019-08-25T09:04:24.000Z</time>
      </trkpt>
      <trkpt lat="46.15709" lon="6.44283">
        <ele>1163.66</ele>
        <time>2019-08-25T09:04:26.000Z</time>
      </trkpt>
      <trkpt lat="46.15713" lon="6.44263">
        <ele>1158.84</ele>
        <time>2019-08-25T09:04:29.000Z</time>
      </trkpt>
      <trkpt lat="46.15722" lon="6.44252">
        <ele>1155.77</ele>
        <time>2019-08-25T09:04:31.000Z</time>
      </trkpt>
      <trkpt lat="46.15709" lon="6.44237">
        <ele>1147.54</ele>
        <time>2019-08-25T09:04:37.000Z</time>
      </trkpt>
      <trkpt lat="46.15697" lon="6.44228">
        <ele>1144.83</ele>
        <time>2019-08-25T09:04:41.000Z</time>
      </trkpt>
      <trkpt lat="46.15688" lon="6.44231">
        <ele>1144.22</ele>
        <time>2019-08-25T09:04:43.000Z</time>
      </trkpt>
      <trkpt lat="46.15675" lon="6.44225">
        <ele>1143.63</ele>
        <time>2019-08-25T09:04:45.000Z</time>
      </trkpt>
      <trkpt lat="46.15663" lon="6.44223">
        <ele>1141.74</ele>
        <time>2019-08-25T09:04:47.000Z</time>
      </trkpt>
      <trkpt lat="46.15652" lon="6.44229">
        <ele>1139.67</ele>
        <time>2019-08-25T09:04:49.000Z</time>
      </trkpt>
      <trkpt lat="46.15641" lon="6.44232">
        <ele>1118.81</ele>
        <time>2019-08-25T09:05:20.000Z</time>
      </trkpt>
      <trkpt lat="46.15631" lon="6.44219">
        <ele>1119.03</ele>
        <time>2019-08-25T09:05:24.000Z</time>
      </trkpt>
      <trkpt lat="46.15627" lon="6.44199">
        <ele>1118.39</ele>
        <time>2019-08-25T09:05:27.000Z</time>
      </trkpt>
      <trkpt lat="46.15627" lon="6.44182">
        <ele>1117.52</ele>
        <time>2019-08-25T09:05:29.000Z</time>
      </trkpt>
      <trkpt lat="46.15622" lon="6.44159">
        <ele>1115.69</ele>
        <time>2019-08-25T09:05:31.000Z</time>
      </trkpt>
      <trkpt lat="46.15615" lon="6.44137">
        <ele>1113.54</ele>
        <time>2019-08-25T09:05:33.000Z</time>
      </trkpt>
      <trkpt lat="46.15612" lon="6.44124">
        <ele>1111.47</ele>
        <time>2019-08-25T09:05:35.000Z</time>
      </trkpt>
      <trkpt lat="46.15606" lon="6.44108">
        <ele>1107.01</ele>
        <time>2019-08-25T09:05:40.000Z</time>
      </trkpt>
      <trkpt lat="46.15603" lon="6.44088">
        <ele>1105.92</ele>
        <time>2019-08-25T09:05:42.000Z</time>
      </trkpt>
      <trkpt lat="46.15599" lon="6.44075">
        <ele>1105.32</ele>
        <time>2019-08-25T09:05:44.000Z</time>
      </trkpt>
      <trkpt lat="46.15592" lon="6.44055">
        <ele>1105.64</ele>
        <time>2019-08-25T09:05:47.000Z</time>
      </trkpt>
      <trkpt lat="46.15586" lon="6.44044">
        <ele>1106.32</ele>
        <time>2019-08-25T09:05:49.000Z</time>
      </trkpt>
      <trkpt lat="46.1558" lon="6.44024">
        <ele>1107.22</ele>
        <time>2019-08-25T09:05:52.000Z</time>
      </trkpt>
      <trkpt lat="46.15575" lon="6.44011">
        <ele>1107.89</ele>
        <time>2019-08-25T09:05:54.000Z</time>
      </trkpt>
      <trkpt lat="46.15568" lon="6.43991">
        <ele>1108.64</ele>
        <time>2019-08-25T09:05:57.000Z</time>
      </trkpt>
      <trkpt lat="46.15563" lon="6.43978">
        <ele>1109.74</ele>
        <time>2019-08-25T09:06:00.000Z</time>
      </trkpt>
      <trkpt lat="46.15561" lon="6.43964">
        <ele>1111.17</ele>
        <time>2019-08-25T09:06:04.000Z</time>
      </trkpt>
      <trkpt lat="46.15557" lon="6.43948">
        <ele>1113.4</ele>
        <time>2019-08-25T09:06:09.000Z</time>
      </trkpt>
      <trkpt lat="46.15554" lon="6.43933">
        <ele>1115.14</ele>
        <time>2019-08-25T09:06:15.000Z</time>
      </trkpt>
      <trkpt lat="46.15556" lon="6.43919">
        <ele>1118.31</ele>
        <time>2019-08-25T09:06:21.000Z</time>
      </trkpt>
      <trkpt lat="46.15554" lon="6.43905">
        <ele>1121.31</ele>
        <time>2019-08-25T09:06:26.000Z</time>
      </trkpt>
      <trkpt lat="46.15554" lon="6.43891">
        <ele>1123.8</ele>
        <time>2019-08-25T09:06:31.000Z</time>
      </trkpt>
      <trkpt lat="46.15551" lon="6.43877">
        <ele>1126.3</ele>
        <time>2019-08-25T09:06:37.000Z</time>
      </trkpt>
      <trkpt lat="46.15545" lon="6.43865">
        <ele>1129.59</ele>
        <time>2019-08-25T09:06:44.000Z</time>
      </trkpt>
      <trkpt lat="46.1554" lon="6.43851">
        <ele>1133.12</ele>
        <time>2019-08-25T09:06:52.000Z</time>
      </trkpt>
      <trkpt lat="46.15537" lon="6.43837">
        <ele>1136.04</ele>
        <time>2019-08-25T09:06:59.000Z</time>
      </trkpt>
      <trkpt lat="46.1553" lon="6.43826">
        <ele>1138.24</ele>
        <time>2019-08-25T09:07:04.000Z</time>
      </trkpt>
      <trkpt lat="46.15523" lon="6.43816">
        <ele>1140.55</ele>
        <time>2019-08-25T09:07:10.000Z</time>
      </trkpt>
      <trkpt lat="46.15516" lon="6.43805">
        <ele>1142.89</ele>
        <time>2019-08-25T09:07:16.000Z</time>
      </trkpt>
      <trkpt lat="46.15509" lon="6.43793">
        <ele>1145.07</ele>
        <time>2019-08-25T09:07:22.000Z</time>
      </trkpt>
      <trkpt lat="46.15504" lon="6.43778">
        <ele>1147.43</ele>
        <time>2019-08-25T09:07:29.000Z</time>
      </trkpt>
      <trkpt lat="46.15498" lon="6.43768">
        <ele>1149.09</ele>
        <time>2019-08-25T09:07:34.000Z</time>
      </trkpt>
      <trkpt lat="46.15492" lon="6.43758">
        <ele>1150.34</ele>
        <time>2019-08-25T09:07:38.000Z</time>
      </trkpt>
      <trkpt lat="46.15482" lon="6.43747">
        <ele>1152.43</ele>
        <time>2019-08-25T09:07:44.000Z</time>
      </trkpt>
      <trkpt lat="46.15474" lon="6.43737">
        <ele>1154.63</ele>
        <time>2019-08-25T09:07:50.000Z</time>
      </trkpt>
      <trkpt lat="46.15464" lon="6.43725">
        <ele>1156.91</ele>
        <time>2019-08-25T09:07:56.000Z</time>
      </trkpt>
      <trkpt lat="46.15459" lon="6.43711">
        <ele>1159.12</ele>
        <time>2019-08-25T09:08:02.000Z</time>
      </trkpt>
      <trkpt lat="46.15452" lon="6.437">
        <ele>1161.11</ele>
        <time>2019-08-25T09:08:08.000Z</time>
      </trkpt>
      <trkpt lat="46.15443" lon="6.43692">
        <ele>1163.33</ele>
        <time>2019-08-25T09:08:14.000Z</time>
      </trkpt>
      <trkpt lat="46.15432" lon="6.43686">
        <ele>1165.58</ele>
        <time>2019-08-25T09:08:20.000Z</time>
      </trkpt>
      <trkpt lat="46.15422" lon="6.43685">
        <ele>1167.3</ele>
        <time>2019-08-25T09:08:24.000Z</time>
      </trkpt>
      <trkpt lat="46.15411" lon="6.43685">
        <ele>1168.78</ele>
        <time>2019-08-25T09:08:28.000Z</time>
      </trkpt>
      <trkpt lat="46.15402" lon="6.43678">
        <ele>1170.21</ele>
        <time>2019-08-25T09:08:32.000Z</time>
      </trkpt>
      <trkpt lat="46.15395" lon="6.43667">
        <ele>1171.41</ele>
        <time>2019-08-25T09:08:36.000Z</time>
      </trkpt>
      <trkpt lat="46.15385" lon="6.43655">
        <ele>1172.23</ele>
        <time>2019-08-25T09:08:42.000Z</time>
      </trkpt>
      <trkpt lat="46.15376" lon="6.43648">
        <ele>1173.44</ele>
        <time>2019-08-25T09:08:46.000Z</time>
      </trkpt>
      <trkpt lat="46.15366" lon="6.4364">
        <ele>1175.1</ele>
        <time>2019-08-25T09:08:52.000Z</time>
      </trkpt>
      <trkpt lat="46.15358" lon="6.43635">
        <ele>1177.43</ele>
        <time>2019-08-25T09:08:58.000Z</time>
      </trkpt>
      <trkpt lat="46.15349" lon="6.43624">
        <ele>1179.13</ele>
        <time>2019-08-25T09:09:04.000Z</time>
      </trkpt>
      <trkpt lat="46.15342" lon="6.43615">
        <ele>1180.66</ele>
        <time>2019-08-25T09:09:10.000Z</time>
      </trkpt>
      <trkpt lat="46.15334" lon="6.43603">
        <ele>1181.98</ele>
        <time>2019-08-25T09:09:14.000Z</time>
      </trkpt>
      <trkpt lat="46.15327" lon="6.43589">
        <ele>1183.02</ele>
        <time>2019-08-25T09:09:18.000Z</time>
      </trkpt>
      <trkpt lat="46.15318" lon="6.43574">
        <ele>1184.48</ele>
        <time>2019-08-25T09:09:22.000Z</time>
      </trkpt>
      <trkpt lat="46.15309" lon="6.43565">
        <ele>1185.92</ele>
        <time>2019-08-25T09:09:26.000Z</time>
      </trkpt>
      <trkpt lat="46.15295" lon="6.43552">
        <ele>1186.84</ele>
        <time>2019-08-25T09:09:29.000Z</time>
      </trkpt>
      <trkpt lat="46.15296" lon="6.43534">
        <ele>1186.45</ele>
        <time>2019-08-25T09:09:34.000Z</time>
      </trkpt>
      <trkpt lat="46.15307" lon="6.43526">
        <ele>1183.91</ele>
        <time>2019-08-25T09:09:39.000Z</time>
      </trkpt>
      <trkpt lat="46.15319" lon="6.43534">
        <ele>1181.87</ele>
        <time>2019-08-25T09:09:42.000Z</time>
      </trkpt>
      <trkpt lat="46.15331" lon="6.43536">
        <ele>1180.55</ele>
        <time>2019-08-25T09:09:44.000Z</time>
      </trkpt>
      <trkpt lat="46.1534" lon="6.43535">
        <ele>1179.4</ele>
        <time>2019-08-25T09:09:46.000Z</time>
      </trkpt>
      <trkpt lat="46.15352" lon="6.43537">
        <ele>1178.93</ele>
        <time>2019-08-25T09:09:48.000Z</time>
      </trkpt>
      <trkpt lat="46.15364" lon="6.43541">
        <ele>1178.52</ele>
        <time>2019-08-25T09:09:52.000Z</time>
      </trkpt>
      <trkpt lat="46.15374" lon="6.43546">
        <ele>1178.65</ele>
        <time>2019-08-25T09:09:56.000Z</time>
      </trkpt>
      <trkpt lat="46.15388" lon="6.43548">
        <ele>1181.12</ele>
        <time>2019-08-25T09:10:01.000Z</time>
      </trkpt>
      <trkpt lat="46.15398" lon="6.43548">
        <ele>1183.78</ele>
        <time>2019-08-25T09:10:06.000Z</time>
      </trkpt>
      <trkpt lat="46.15408" lon="6.43549">
        <ele>1184.25</ele>
        <time>2019-08-25T09:10:10.000Z</time>
      </trkpt>
      <trkpt lat="46.15417" lon="6.4355">
        <ele>1186.14</ele>
        <time>2019-08-25T09:10:13.000Z</time>
      </trkpt>
      <trkpt lat="46.1543" lon="6.4355">
        <ele>1189.29</ele>
        <time>2019-08-25T09:10:17.000Z</time>
      </trkpt>
      <trkpt lat="46.15442" lon="6.43552">
        <ele>1190.42</ele>
        <time>2019-08-25T09:10:21.000Z</time>
      </trkpt>
      <trkpt lat="46.15451" lon="6.43552">
        <ele>1191.29</ele>
        <time>2019-08-25T09:10:25.000Z</time>
      </trkpt>
      <trkpt lat="46.15462" lon="6.43551">
        <ele>1192.6</ele>
        <time>2019-08-25T09:10:29.000Z</time>
      </trkpt>
      <trkpt lat="46.15474" lon="6.43547">
        <ele>1194.27</ele>
        <time>2019-08-25T09:10:34.000Z</time>
      </trkpt>
      <trkpt lat="46.15482" lon="6.4354">
        <ele>1195.63</ele>
        <time>2019-08-25T09:10:36.000Z</time>
      </trkpt>
      <trkpt lat="46.15488" lon="6.4353">
        <ele>1196.87</ele>
        <time>2019-08-25T09:10:39.000Z</time>
      </trkpt>
      <trkpt lat="46.15494" lon="6.43518">
        <ele>1198.76</ele>
        <time>2019-08-25T09:10:43.000Z</time>
      </trkpt>
      <trkpt lat="46.15502" lon="6.43506">
        <ele>1201.81</ele>
        <time>2019-08-25T09:10:49.000Z</time>
      </trkpt>
      <trkpt lat="46.15514" lon="6.43501">
        <ele>1204.67</ele>
        <time>2019-08-25T09:10:56.000Z</time>
      </trkpt>
      <trkpt lat="46.15525" lon="6.435">
        <ele>1206.55</ele>
        <time>2019-08-25T09:11:02.000Z</time>
      </trkpt>
      <trkpt lat="46.15536" lon="6.43502">
        <ele>1208.79</ele>
        <time>2019-08-25T09:11:08.000Z</time>
      </trkpt>
      <trkpt lat="46.15546" lon="6.43504">
        <ele>1211.87</ele>
        <time>2019-08-25T09:11:14.000Z</time>
      </trkpt>
      <trkpt lat="46.15559" lon="6.43508">
        <ele>1214.85</ele>
        <time>2019-08-25T09:11:20.000Z</time>
      </trkpt>
      <trkpt lat="46.15569" lon="6.4351">
        <ele>1216.4</ele>
        <time>2019-08-25T09:11:24.000Z</time>
      </trkpt>
      <trkpt lat="46.1558" lon="6.43511">
        <ele>1217.71</ele>
        <time>2019-08-25T09:11:28.000Z</time>
      </trkpt>
      <trkpt lat="46.15598" lon="6.43489">
        <ele>1219.71</ele>
        <time>2019-08-25T09:11:33.000Z</time>
      </trkpt>
      <trkpt lat="46.15608" lon="6.4348">
        <ele>1220.04</ele>
        <time>2019-08-25T09:11:35.000Z</time>
      </trkpt>
      <trkpt lat="46.1562" lon="6.43476">
        <ele>1220.22</ele>
        <time>2019-08-25T09:11:38.000Z</time>
      </trkpt>
      <trkpt lat="46.15631" lon="6.43476">
        <ele>1220.24</ele>
        <time>2019-08-25T09:11:39.000Z</time>
      </trkpt>
      <trkpt lat="46.15641" lon="6.43475">
        <ele>1220.28</ele>
        <time>2019-08-25T09:11:41.000Z</time>
      </trkpt>
      <trkpt lat="46.15654" lon="6.43476">
        <ele>1220.2</ele>
        <time>2019-08-25T09:11:43.000Z</time>
      </trkpt>
      <trkpt lat="46.15671" lon="6.43482">
        <ele>1220.13</ele>
        <time>2019-08-25T09:11:46.000Z</time>
      </trkpt>
      <trkpt lat="46.15686" lon="6.43475">
        <ele>1220.26</ele>
        <time>2019-08-25T09:11:49.000Z</time>
      </trkpt>
      <trkpt lat="46.15696" lon="6.43472">
        <ele>1220.74</ele>
        <time>2019-08-25T09:11:51.000Z</time>
      </trkpt>
      <trkpt lat="46.15712" lon="6.4347">
        <ele>1221.45</ele>
        <time>2019-08-25T09:11:54.000Z</time>
      </trkpt>
      <trkpt lat="46.15729" lon="6.43465">
        <ele>1222.22</ele>
        <time>2019-08-25T09:11:58.000Z</time>
      </trkpt>
      <trkpt lat="46.15738" lon="6.43459">
        <ele>1222.32</ele>
        <time>2019-08-25T09:12:00.000Z</time>
      </trkpt>
      <trkpt lat="46.15748" lon="6.43458">
        <ele>1222.23</ele>
        <time>2019-08-25T09:12:02.000Z</time>
      </trkpt>
      <trkpt lat="46.15759" lon="6.43454">
        <ele>1222.06</ele>
        <time>2019-08-25T09:12:06.000Z</time>
      </trkpt>
      <trkpt lat="46.15773" lon="6.43453">
        <ele>1221.76</ele>
        <time>2019-08-25T09:12:09.000Z</time>
      </trkpt>
      <trkpt lat="46.15786" lon="6.43453">
        <ele>1221.51</ele>
        <time>2019-08-25T09:12:12.000Z</time>
      </trkpt>
      <trkpt lat="46.15804" lon="6.4346">
        <ele>1222.3</ele>
        <time>2019-08-25T09:12:15.000Z</time>
      </trkpt>
      <trkpt lat="46.15817" lon="6.43471">
        <ele>1222.66</ele>
        <time>2019-08-25T09:12:17.000Z</time>
      </trkpt>
      <trkpt lat="46.15833" lon="6.43468">
        <ele>1223.19</ele>
        <time>2019-08-25T09:12:20.000Z</time>
      </trkpt>
      <trkpt lat="46.15844" lon="6.43466">
        <ele>1223.03</ele>
        <time>2019-08-25T09:12:22.000Z</time>
      </trkpt>
      <trkpt lat="46.15857" lon="6.43471">
        <ele>1222.69</ele>
        <time>2019-08-25T09:12:25.000Z</time>
      </trkpt>
      <trkpt lat="46.15874" lon="6.43476">
        <ele>1222.53</ele>
        <time>2019-08-25T09:12:28.000Z</time>
      </trkpt>
      <trkpt lat="46.15887" lon="6.43478">
        <ele>1222.27</ele>
        <time>2019-08-25T09:12:31.000Z</time>
      </trkpt>
      <trkpt lat="46.15901" lon="6.4348">
        <ele>1222.52</ele>
        <time>2019-08-25T09:12:34.000Z</time>
      </trkpt>
      <trkpt lat="46.1591" lon="6.43483">
        <ele>1222.36</ele>
        <time>2019-08-25T09:12:36.000Z</time>
      </trkpt>
      <trkpt lat="46.15921" lon="6.43493">
        <ele>1222.37</ele>
        <time>2019-08-25T09:12:40.000Z</time>
      </trkpt>
      <trkpt lat="46.15928" lon="6.43505">
        <ele>1223.28</ele>
        <time>2019-08-25T09:12:43.000Z</time>
      </trkpt>
      <trkpt lat="46.15937" lon="6.4351">
        <ele>1226.13</ele>
        <time>2019-08-25T09:12:49.000Z</time>
      </trkpt>
      <trkpt lat="46.15947" lon="6.43508">
        <ele>1230.17</ele>
        <time>2019-08-25T09:12:55.000Z</time>
      </trkpt>
      <trkpt lat="46.15958" lon="6.43512">
        <ele>1232.75</ele>
        <time>2019-08-25T09:13:01.000Z</time>
      </trkpt>
      <trkpt lat="46.15968" lon="6.43518">
        <ele>1234.6</ele>
        <time>2019-08-25T09:13:05.000Z</time>
      </trkpt>
      <trkpt lat="46.15977" lon="6.43525">
        <ele>1237.11</ele>
        <time>2019-08-25T09:13:12.000Z</time>
      </trkpt>
      <trkpt lat="46.15988" lon="6.43533">
        <ele>1239.23</ele>
        <time>2019-08-25T09:13:19.000Z</time>
      </trkpt>
      <trkpt lat="46.15998" lon="6.4354">
        <ele>1241.88</ele>
        <time>2019-08-25T09:13:25.000Z</time>
      </trkpt>
      <trkpt lat="46.16009" lon="6.43543">
        <ele>1244.37</ele>
        <time>2019-08-25T09:13:30.000Z</time>
      </trkpt>
      <trkpt lat="46.16019" lon="6.43551">
        <ele>1247.22</ele>
        <time>2019-08-25T09:13:36.000Z</time>
      </trkpt>
      <trkpt lat="46.16028" lon="6.4356">
        <ele>1249.15</ele>
        <time>2019-08-25T09:13:41.000Z</time>
      </trkpt>
      <trkpt lat="46.16036" lon="6.43566">
        <ele>1250.53</ele>
        <time>2019-08-25T09:13:45.000Z</time>
      </trkpt>
      <trkpt lat="46.16044" lon="6.43573">
        <ele>1250.96</ele>
        <time>2019-08-25T09:13:48.000Z</time>
      </trkpt>
      <trkpt lat="46.16055" lon="6.4358">
        <ele>1251.11</ele>
        <time>2019-08-25T09:13:50.000Z</time>
      </trkpt>
      <trkpt lat="46.16068" lon="6.43582">
        <ele>1251.34</ele>
        <time>2019-08-25T09:13:53.000Z</time>
      </trkpt>
      <trkpt lat="46.16079" lon="6.43582">
        <ele>1251.97</ele>
        <time>2019-08-25T09:13:57.000Z</time>
      </trkpt>
      <trkpt lat="46.16094" lon="6.43584">
        <ele>1253.33</ele>
        <time>2019-08-25T09:14:02.000Z</time>
      </trkpt>
      <trkpt lat="46.16105" lon="6.43585">
        <ele>1254.6</ele>
        <time>2019-08-25T09:14:05.000Z</time>
      </trkpt>
      <trkpt lat="46.16116" lon="6.43586">
        <ele>1255.7</ele>
        <time>2019-08-25T09:14:07.000Z</time>
      </trkpt>
      <trkpt lat="46.16124" lon="6.4359">
        <ele>1256.72</ele>
        <time>2019-08-25T09:14:09.000Z</time>
      </trkpt>
      <trkpt lat="46.16137" lon="6.43597">
        <ele>1257.76</ele>
        <time>2019-08-25T09:14:12.000Z</time>
      </trkpt>
      <trkpt lat="46.16146" lon="6.43601">
        <ele>1258.05</ele>
        <time>2019-08-25T09:14:14.000Z</time>
      </trkpt>
      <trkpt lat="46.16161" lon="6.43604">
        <ele>1257.87</ele>
        <time>2019-08-25T09:14:17.000Z</time>
      </trkpt>
      <trkpt lat="46.16176" lon="6.43612">
        <ele>1257.63</ele>
        <time>2019-08-25T09:14:20.000Z</time>
      </trkpt>
      <trkpt lat="46.1619" lon="6.43612">
        <ele>1257.2</ele>
        <time>2019-08-25T09:14:23.000Z</time>
      </trkpt>
      <trkpt lat="46.16211" lon="6.43601">
        <ele>1256.87</ele>
        <time>2019-08-25T09:14:26.000Z</time>
      </trkpt>
      <trkpt lat="46.16224" lon="6.43584">
        <ele>1255.95</ele>
        <time>2019-08-25T09:14:29.000Z</time>
      </trkpt>
      <trkpt lat="46.16223" lon="6.43569">
        <ele>1255</ele>
        <time>2019-08-25T09:14:31.000Z</time>
      </trkpt>
      <trkpt lat="46.16218" lon="6.43558">
        <ele>1254.32</ele>
        <time>2019-08-25T09:14:32.000Z</time>
      </trkpt>
      <trkpt lat="46.16213" lon="6.43528">
        <ele>1252.09</ele>
        <time>2019-08-25T09:14:35.000Z</time>
      </trkpt>
      <trkpt lat="46.16213" lon="6.43505">
        <ele>1250.12</ele>
        <time>2019-08-25T09:14:37.000Z</time>
      </trkpt>
      <trkpt lat="46.16215" lon="6.43487">
        <ele>1249.13</ele>
        <time>2019-08-25T09:14:38.000Z</time>
      </trkpt>
      <trkpt lat="46.16217" lon="6.43451">
        <ele>1245.51</ele>
        <time>2019-08-25T09:14:41.000Z</time>
      </trkpt>
      <trkpt lat="46.16219" lon="6.4342">
        <ele>1241.61</ele>
        <time>2019-08-25T09:14:44.000Z</time>
      </trkpt>
      <trkpt lat="46.16222" lon="6.4339">
        <ele>1238.63</ele>
        <time>2019-08-25T09:14:47.000Z</time>
      </trkpt>
      <trkpt lat="46.16225" lon="6.43364">
        <ele>1235.93</ele>
        <time>2019-08-25T09:14:50.000Z</time>
      </trkpt>
      <trkpt lat="46.1623" lon="6.4335">
        <ele>1233.49</ele>
        <time>2019-08-25T09:14:52.000Z</time>
      </trkpt>
      <trkpt lat="46.16246" lon="6.43339">
        <ele>1229.14</ele>
        <time>2019-08-25T09:14:55.000Z</time>
      </trkpt>
      <trkpt lat="46.16261" lon="6.43348">
        <ele>1226.46</ele>
        <time>2019-08-25T09:14:57.000Z</time>
      </trkpt>
      <trkpt lat="46.16268" lon="6.43359">
        <ele>1224.27</ele>
        <time>2019-08-25T09:14:59.000Z</time>
      </trkpt>
      <trkpt lat="46.16273" lon="6.43373">
        <ele>1222.05</ele>
        <time>2019-08-25T09:15:01.000Z</time>
      </trkpt>
      <trkpt lat="46.16278" lon="6.43397">
        <ele>1218.78</ele>
        <time>2019-08-25T09:15:04.000Z</time>
      </trkpt>
      <trkpt lat="46.16278" lon="6.43412">
        <ele>1217.01</ele>
        <time>2019-08-25T09:15:07.000Z</time>
      </trkpt>
      <trkpt lat="46.16273" lon="6.43426">
        <ele>1215.58</ele>
        <time>2019-08-25T09:15:08.000Z</time>
      </trkpt>
      <trkpt lat="46.16274" lon="6.43448">
        <ele>1214.35</ele>
        <time>2019-08-25T09:15:10.000Z</time>
      </trkpt>
      <trkpt lat="46.16277" lon="6.43467">
        <ele>1212.89</ele>
        <time>2019-08-25T09:15:12.000Z</time>
      </trkpt>
      <trkpt lat="46.16289" lon="6.43486">
        <ele>1211.48</ele>
        <time>2019-08-25T09:15:14.000Z</time>
      </trkpt>
      <trkpt lat="46.16294" lon="6.43506">
        <ele>1210.17</ele>
        <time>2019-08-25T09:15:16.000Z</time>
      </trkpt>
      <trkpt lat="46.16306" lon="6.43525">
        <ele>1209.18</ele>
        <time>2019-08-25T09:15:18.000Z</time>
      </trkpt>
      <trkpt lat="46.16323" lon="6.43553">
        <ele>1207.28</ele>
        <time>2019-08-25T09:15:21.000Z</time>
      </trkpt>
      <trkpt lat="46.1633" lon="6.43565">
        <ele>1206.44</ele>
        <time>2019-08-25T09:15:22.000Z</time>
      </trkpt>
      <trkpt lat="46.16336" lon="6.43576">
        <ele>1205.79</ele>
        <time>2019-08-25T09:15:23.000Z</time>
      </trkpt>
      <trkpt lat="46.16351" lon="6.43598">
        <ele>1204.41</ele>
        <time>2019-08-25T09:15:25.000Z</time>
      </trkpt>
      <trkpt lat="46.16359" lon="6.43609">
        <ele>1203.95</ele>
        <time>2019-08-25T09:15:26.000Z</time>
      </trkpt>
      <trkpt lat="46.16375" lon="6.43633">
        <ele>1203.52</ele>
        <time>2019-08-25T09:15:28.000Z</time>
      </trkpt>
      <trkpt lat="46.16393" lon="6.4365">
        <ele>1202.97</ele>
        <time>2019-08-25T09:15:30.000Z</time>
      </trkpt>
      <trkpt lat="46.16402" lon="6.43659">
        <ele>1202.68</ele>
        <time>2019-08-25T09:15:31.000Z</time>
      </trkpt>
      <trkpt lat="46.16422" lon="6.43677">
        <ele>1200.68</ele>
        <time>2019-08-25T09:15:33.000Z</time>
      </trkpt>
      <trkpt lat="46.16431" lon="6.4368">
        <ele>1199.5</ele>
        <time>2019-08-25T09:15:34.000Z</time>
      </trkpt>
      <trkpt lat="46.16455" lon="6.43689">
        <ele>1196.85</ele>
        <time>2019-08-25T09:15:36.000Z</time>
      </trkpt>
      <trkpt lat="46.16478" lon="6.43693">
        <ele>1193.8</ele>
        <time>2019-08-25T09:15:38.000Z</time>
      </trkpt>
      <trkpt lat="46.16501" lon="6.43699">
        <ele>1191.05</ele>
        <time>2019-08-25T09:15:40.000Z</time>
      </trkpt>
      <trkpt lat="46.1651" lon="6.43698">
        <ele>1189.11</ele>
        <time>2019-08-25T09:15:41.000Z</time>
      </trkpt>
      <trkpt lat="46.16529" lon="6.43681">
        <ele>1183.02</ele>
        <time>2019-08-25T09:15:44.000Z</time>
      </trkpt>
      <trkpt lat="46.16532" lon="6.43646">
        <ele>1177.83</ele>
        <time>2019-08-25T09:15:47.000Z</time>
      </trkpt>
      <trkpt lat="46.16536" lon="6.4362">
        <ele>1176.44</ele>
        <time>2019-08-25T09:15:49.000Z</time>
      </trkpt>
      <trkpt lat="46.16535" lon="6.43592">
        <ele>1174.77</ele>
        <time>2019-08-25T09:15:51.000Z</time>
      </trkpt>
      <trkpt lat="46.16544" lon="6.43556">
        <ele>1172.16</ele>
        <time>2019-08-25T09:15:54.000Z</time>
      </trkpt>
      <trkpt lat="46.16557" lon="6.43542">
        <ele>1171.02</ele>
        <time>2019-08-25T09:15:56.000Z</time>
      </trkpt>
      <trkpt lat="46.16567" lon="6.43533">
        <ele>1170.12</ele>
        <time>2019-08-25T09:15:57.000Z</time>
      </trkpt>
      <trkpt lat="46.16576" lon="6.43524">
        <ele>1169.39</ele>
        <time>2019-08-25T09:15:58.000Z</time>
      </trkpt>
      <trkpt lat="46.16589" lon="6.43498">
        <ele>1167.36</ele>
        <time>2019-08-25T09:16:00.000Z</time>
      </trkpt>
      <trkpt lat="46.16602" lon="6.4347">
        <ele>1164.6</ele>
        <time>2019-08-25T09:16:02.000Z</time>
      </trkpt>
      <trkpt lat="46.16614" lon="6.43447">
        <ele>1161.04</ele>
        <time>2019-08-25T09:16:04.000Z</time>
      </trkpt>
      <trkpt lat="46.16623" lon="6.43434">
        <ele>1156.37</ele>
        <time>2019-08-25T09:16:06.000Z</time>
      </trkpt>
      <trkpt lat="46.16648" lon="6.43443">
        <ele>1149.94</ele>
        <time>2019-08-25T09:16:10.000Z</time>
      </trkpt>
      <trkpt lat="46.16666" lon="6.43452">
        <ele>1146.36</ele>
        <time>2019-08-25T09:16:11.000Z</time>
      </trkpt>
      <trkpt lat="46.16679" lon="6.43443">
        <ele>1143.89</ele>
        <time>2019-08-25T09:16:13.000Z</time>
      </trkpt>
      <trkpt lat="46.16688" lon="6.43426">
        <ele>1142.15</ele>
        <time>2019-08-25T09:16:15.000Z</time>
      </trkpt>
      <trkpt lat="46.16691" lon="6.43402">
        <ele>1140.79</ele>
        <time>2019-08-25T09:16:18.000Z</time>
      </trkpt>
      <trkpt lat="46.16694" lon="6.43373">
        <ele>1139.62</ele>
        <time>2019-08-25T09:16:19.000Z</time>
      </trkpt>
      <trkpt lat="46.16697" lon="6.43347">
        <ele>1137.96</ele>
        <time>2019-08-25T09:16:22.000Z</time>
      </trkpt>
      <trkpt lat="46.16698" lon="6.43333">
        <ele>1137.44</ele>
        <time>2019-08-25T09:16:23.000Z</time>
      </trkpt>
      <trkpt lat="46.16699" lon="6.43318">
        <ele>1136.68</ele>
        <time>2019-08-25T09:16:24.000Z</time>
      </trkpt>
      <trkpt lat="46.16702" lon="6.43298">
        <ele>1135.95</ele>
        <time>2019-08-25T09:16:25.000Z</time>
      </trkpt>
      <trkpt lat="46.16704" lon="6.43279">
        <ele>1135.22</ele>
        <time>2019-08-25T09:16:26.000Z</time>
      </trkpt>
      <trkpt lat="46.1671" lon="6.43248">
        <ele>1133.4</ele>
        <time>2019-08-25T09:16:28.000Z</time>
      </trkpt>
      <trkpt lat="46.16716" lon="6.43233">
        <ele>1132.1</ele>
        <time>2019-08-25T09:16:29.000Z</time>
      </trkpt>
      <trkpt lat="46.16721" lon="6.43217">
        <ele>1130.42</ele>
        <time>2019-08-25T09:16:29.000Z</time>
      </trkpt>
      <trkpt lat="46.16735" lon="6.43193">
        <ele>1126.43</ele>
        <time>2019-08-25T09:16:32.000Z</time>
      </trkpt>
      <trkpt lat="46.1675" lon="6.43163">
        <ele>1122.06</ele>
        <time>2019-08-25T09:16:34.000Z</time>
      </trkpt>
      <trkpt lat="46.16758" lon="6.43149">
        <ele>1120.01</ele>
        <time>2019-08-25T09:16:35.000Z</time>
      </trkpt>
      <trkpt lat="46.16765" lon="6.43134">
        <ele>1118.35</ele>
        <time>2019-08-25T09:16:36.000Z</time>
      </trkpt>
      <trkpt lat="46.16781" lon="6.43109">
        <ele>1114.83</ele>
        <time>2019-08-25T09:16:38.000Z</time>
      </trkpt>
      <trkpt lat="46.168" lon="6.43089">
        <ele>1111.49</ele>
        <time>2019-08-25T09:16:40.000Z</time>
      </trkpt>
      <trkpt lat="46.16809" lon="6.43078">
        <ele>1109.92</ele>
        <time>2019-08-25T09:16:41.000Z</time>
      </trkpt>
      <trkpt lat="46.16826" lon="6.43053">
        <ele>1106.87</ele>
        <time>2019-08-25T09:16:43.000Z</time>
      </trkpt>
      <trkpt lat="46.16842" lon="6.43028">
        <ele>1104.43</ele>
        <time>2019-08-25T09:16:44.000Z</time>
      </trkpt>
      <trkpt lat="46.16848" lon="6.43014">
        <ele>1103.33</ele>
        <time>2019-08-25T09:16:46.000Z</time>
      </trkpt>
      <trkpt lat="46.16853" lon="6.43002">
        <ele>1102.37</ele>
        <time>2019-08-25T09:16:47.000Z</time>
      </trkpt>
      <trkpt lat="46.16862" lon="6.42981">
        <ele>1100.26</ele>
        <time>2019-08-25T09:16:49.000Z</time>
      </trkpt>
      <trkpt lat="46.16869" lon="6.42965">
        <ele>1098.32</ele>
        <time>2019-08-25T09:16:51.000Z</time>
      </trkpt>
      <trkpt lat="46.1687" lon="6.42951">
        <ele>1095.67</ele>
        <time>2019-08-25T09:16:53.000Z</time>
      </trkpt>
      <trkpt lat="46.16878" lon="6.4293">
        <ele>1091.29</ele>
        <time>2019-08-25T09:16:57.000Z</time>
      </trkpt>
      <trkpt lat="46.16888" lon="6.42918">
        <ele>1088.92</ele>
        <time>2019-08-25T09:16:59.000Z</time>
      </trkpt>
      <trkpt lat="46.16899" lon="6.4291">
        <ele>1086.8</ele>
        <time>2019-08-25T09:17:01.000Z</time>
      </trkpt>
      <trkpt lat="46.1691" lon="6.42904">
        <ele>1084.66</ele>
        <time>2019-08-25T09:17:03.000Z</time>
      </trkpt>
      <trkpt lat="46.16922" lon="6.429">
        <ele>1083.3</ele>
        <time>2019-08-25T09:17:05.000Z</time>
      </trkpt>
      <trkpt lat="46.16936" lon="6.429">
        <ele>1082.65</ele>
        <time>2019-08-25T09:17:06.000Z</time>
      </trkpt>
      <trkpt lat="46.1695" lon="6.429">
        <ele>1082.43</ele>
        <time>2019-08-25T09:17:09.000Z</time>
      </trkpt>
      <trkpt lat="46.16971" lon="6.42906">
        <ele>1081.74</ele>
        <time>2019-08-25T09:17:12.000Z</time>
      </trkpt>
      <trkpt lat="46.16992" lon="6.42904">
        <ele>1081.33</ele>
        <time>2019-08-25T09:17:15.000Z</time>
      </trkpt>
      <trkpt lat="46.17002" lon="6.42903">
        <ele>1081.25</ele>
        <time>2019-08-25T09:17:17.000Z</time>
      </trkpt>
      <trkpt lat="46.17015" lon="6.42898">
        <ele>1081.77</ele>
        <time>2019-08-25T09:17:20.000Z</time>
      </trkpt>
      <trkpt lat="46.17024" lon="6.42897">
        <ele>1082.36</ele>
        <time>2019-08-25T09:17:23.000Z</time>
      </trkpt>
      <trkpt lat="46.17033" lon="6.42902">
        <ele>1082.95</ele>
        <time>2019-08-25T09:17:26.000Z</time>
      </trkpt>
      <trkpt lat="46.17045" lon="6.42906">
        <ele>1083.55</ele>
        <time>2019-08-25T09:17:28.000Z</time>
      </trkpt>
      <trkpt lat="46.17057" lon="6.42912">
        <ele>1084.4</ele>
        <time>2019-08-25T09:17:31.000Z</time>
      </trkpt>
      <trkpt lat="46.17068" lon="6.42915">
        <ele>1084.81</ele>
        <time>2019-08-25T09:17:33.000Z</time>
      </trkpt>
      <trkpt lat="46.17077" lon="6.42921">
        <ele>1084.73</ele>
        <time>2019-08-25T09:17:35.000Z</time>
      </trkpt>
      <trkpt lat="46.17086" lon="6.42928">
        <ele>1084.59</ele>
        <time>2019-08-25T09:17:37.000Z</time>
      </trkpt>
      <trkpt lat="46.17101" lon="6.42935">
        <ele>1084.07</ele>
        <time>2019-08-25T09:17:40.000Z</time>
      </trkpt>
      <trkpt lat="46.17109" lon="6.42942">
        <ele>1084.02</ele>
        <time>2019-08-25T09:17:42.000Z</time>
      </trkpt>
      <trkpt lat="46.17123" lon="6.42948">
        <ele>1083.93</ele>
        <time>2019-08-25T09:17:45.000Z</time>
      </trkpt>
      <trkpt lat="46.17135" lon="6.42958">
        <ele>1083.87</ele>
        <time>2019-08-25T09:17:48.000Z</time>
      </trkpt>
      <trkpt lat="46.1715" lon="6.42972">
        <ele>1083.78</ele>
        <time>2019-08-25T09:17:51.000Z</time>
      </trkpt>
      <trkpt lat="46.17162" lon="6.42979">
        <ele>1083.77</ele>
        <time>2019-08-25T09:17:54.000Z</time>
      </trkpt>
      <trkpt lat="46.1717" lon="6.42972">
        <ele>1083.82</ele>
        <time>2019-08-25T09:17:57.000Z</time>
      </trkpt>
      <trkpt lat="46.17181" lon="6.42957">
        <ele>1083.21</ele>
        <time>2019-08-25T09:18:00.000Z</time>
      </trkpt>
      <trkpt lat="46.17194" lon="6.42948">
        <ele>1082.33</ele>
        <time>2019-08-25T09:18:02.000Z</time>
      </trkpt>
      <trkpt lat="46.17214" lon="6.42944">
        <ele>1079.42</ele>
        <time>2019-08-25T09:18:06.000Z</time>
      </trkpt>
      <trkpt lat="46.17228" lon="6.42945">
        <ele>1077.71</ele>
        <time>2019-08-25T09:18:08.000Z</time>
      </trkpt>
      <trkpt lat="46.17237" lon="6.42941">
        <ele>1075.7</ele>
        <time>2019-08-25T09:18:10.000Z</time>
      </trkpt>
      <trkpt lat="46.17245" lon="6.4293">
        <ele>1073.8</ele>
        <time>2019-08-25T09:18:12.000Z</time>
      </trkpt>
      <trkpt lat="46.17255" lon="6.42929">
        <ele>1071.76</ele>
        <time>2019-08-25T09:18:14.000Z</time>
      </trkpt>
      <trkpt lat="46.17266" lon="6.42923">
        <ele>1070.01</ele>
        <time>2019-08-25T09:18:16.000Z</time>
      </trkpt>
      <trkpt lat="46.17279" lon="6.42923">
        <ele>1068.03</ele>
        <time>2019-08-25T09:18:18.000Z</time>
      </trkpt>
      <trkpt lat="46.17289" lon="6.4293">
        <ele>1066.22</ele>
        <time>2019-08-25T09:18:20.000Z</time>
      </trkpt>
      <trkpt lat="46.17301" lon="6.42938">
        <ele>1063.39</ele>
        <time>2019-08-25T09:18:23.000Z</time>
      </trkpt>
      <trkpt lat="46.17309" lon="6.42946">
        <ele>1061.56</ele>
        <time>2019-08-25T09:18:26.000Z</time>
      </trkpt>
      <trkpt lat="46.17326" lon="6.42956">
        <ele>1059.84</ele>
        <time>2019-08-25T09:18:29.000Z</time>
      </trkpt>
      <trkpt lat="46.17339" lon="6.4296">
        <ele>1057.73</ele>
        <time>2019-08-25T09:18:32.000Z</time>
      </trkpt>
      <trkpt lat="46.17348" lon="6.42968">
        <ele>1055.68</ele>
        <time>2019-08-25T09:18:35.000Z</time>
      </trkpt>
      <trkpt lat="46.17363" lon="6.42979">
        <ele>1053.53</ele>
        <time>2019-08-25T09:18:39.000Z</time>
      </trkpt>
      <trkpt lat="46.17372" lon="6.42985">
        <ele>1052.61</ele>
        <time>2019-08-25T09:18:41.000Z</time>
      </trkpt>
      <trkpt lat="46.17381" lon="6.4299">
        <ele>1051.7</ele>
        <time>2019-08-25T09:18:43.000Z</time>
      </trkpt>
      <trkpt lat="46.17389" lon="6.42996">
        <ele>1050.54</ele>
        <time>2019-08-25T09:18:46.000Z</time>
      </trkpt>
      <trkpt lat="46.174" lon="6.42999">
        <ele>1050.76</ele>
        <time>2019-08-25T09:18:50.000Z</time>
      </trkpt>
      <trkpt lat="46.1741" lon="6.43001">
        <ele>1051.13</ele>
        <time>2019-08-25T09:18:52.000Z</time>
      </trkpt>
      <trkpt lat="46.17419" lon="6.43004">
        <ele>1051.74</ele>
        <time>2019-08-25T09:18:55.000Z</time>
      </trkpt>
      <trkpt lat="46.17431" lon="6.43005">
        <ele>1050.31</ele>
        <time>2019-08-25T09:19:12.000Z</time>
      </trkpt>
      <trkpt lat="46.17442" lon="6.43009">
        <ele>1050.96</ele>
        <time>2019-08-25T09:19:17.000Z</time>
      </trkpt>
      <trkpt lat="46.17452" lon="6.43012">
        <ele>1053.13</ele>
        <time>2019-08-25T09:19:21.000Z</time>
      </trkpt>
      <trkpt lat="46.1746" lon="6.43018">
        <ele>1054.17</ele>
        <time>2019-08-25T09:19:24.000Z</time>
      </trkpt>
      <trkpt lat="46.17469" lon="6.43025">
        <ele>1053.61</ele>
        <time>2019-08-25T09:19:28.000Z</time>
      </trkpt>
      <trkpt lat="46.17476" lon="6.43034">
        <ele>1053.08</ele>
        <time>2019-08-25T09:19:32.000Z</time>
      </trkpt>
      <trkpt lat="46.17482" lon="6.43045">
        <ele>1052.67</ele>
        <time>2019-08-25T09:19:40.000Z</time>
      </trkpt>
      <trkpt lat="46.17491" lon="6.43054">
        <ele>1052.84</ele>
        <time>2019-08-25T09:19:42.000Z</time>
      </trkpt>
      <trkpt lat="46.17505" lon="6.4307">
        <ele>1053.36</ele>
        <time>2019-08-25T09:19:46.000Z</time>
      </trkpt>
      <trkpt lat="46.17516" lon="6.43088">
        <ele>1053.06</ele>
        <time>2019-08-25T09:19:50.000Z</time>
      </trkpt>
      <trkpt lat="46.17525" lon="6.43099">
        <ele>1053.01</ele>
        <time>2019-08-25T09:19:53.000Z</time>
      </trkpt>
      <trkpt lat="46.17536" lon="6.43109">
        <ele>1053.43</ele>
        <time>2019-08-25T09:19:56.000Z</time>
      </trkpt>
      <trkpt lat="46.17548" lon="6.43119">
        <ele>1053.95</ele>
        <time>2019-08-25T09:19:59.000Z</time>
      </trkpt>
      <trkpt lat="46.17556" lon="6.43128">
        <ele>1054.33</ele>
        <time>2019-08-25T09:20:01.000Z</time>
      </trkpt>
      <trkpt lat="46.17569" lon="6.43138">
        <ele>1055</ele>
        <time>2019-08-25T09:20:04.000Z</time>
      </trkpt>
      <trkpt lat="46.17577" lon="6.43146">
        <ele>1055.83</ele>
        <time>2019-08-25T09:20:06.000Z</time>
      </trkpt>
      <trkpt lat="46.17585" lon="6.43156">
        <ele>1056.49</ele>
        <time>2019-08-25T09:20:08.000Z</time>
      </trkpt>
      <trkpt lat="46.17595" lon="6.4317">
        <ele>1057.45</ele>
        <time>2019-08-25T09:20:11.000Z</time>
      </trkpt>
      <trkpt lat="46.17602" lon="6.43183">
        <ele>1057.79</ele>
        <time>2019-08-25T09:20:13.000Z</time>
      </trkpt>
      <trkpt lat="46.1761" lon="6.43203">
        <ele>1058.3</ele>
        <time>2019-08-25T09:20:16.000Z</time>
      </trkpt>
      <trkpt lat="46.17616" lon="6.43222">
        <ele>1058.31</ele>
        <time>2019-08-25T09:20:19.000Z</time>
      </trkpt>
      <trkpt lat="46.17617" lon="6.43235">
        <ele>1058.16</ele>
        <time>2019-08-25T09:20:21.000Z</time>
      </trkpt>
      <trkpt lat="46.17616" lon="6.43251">
        <ele>1057.88</ele>
        <time>2019-08-25T09:20:23.000Z</time>
      </trkpt>
      <trkpt lat="46.1762" lon="6.43269">
        <ele>1057.73</ele>
        <time>2019-08-25T09:20:25.000Z</time>
      </trkpt>
      <trkpt lat="46.17632" lon="6.43283">
        <ele>1057.25</ele>
        <time>2019-08-25T09:20:27.000Z</time>
      </trkpt>
      <trkpt lat="46.17648" lon="6.43295">
        <ele>1056.73</ele>
        <time>2019-08-25T09:20:29.000Z</time>
      </trkpt>
      <trkpt lat="46.17657" lon="6.43298">
        <ele>1056.25</ele>
        <time>2019-08-25T09:20:30.000Z</time>
      </trkpt>
      <trkpt lat="46.17675" lon="6.43308">
        <ele>1055.01</ele>
        <time>2019-08-25T09:20:32.000Z</time>
      </trkpt>
      <trkpt lat="46.17683" lon="6.43314">
        <ele>1054.67</ele>
        <time>2019-08-25T09:20:33.000Z</time>
      </trkpt>
      <trkpt lat="46.17698" lon="6.43321">
        <ele>1053.81</ele>
        <time>2019-08-25T09:20:35.000Z</time>
      </trkpt>
      <trkpt lat="46.17711" lon="6.43331">
        <ele>1051.59</ele>
        <time>2019-08-25T09:20:38.000Z</time>
      </trkpt>
      <trkpt lat="46.17721" lon="6.4333">
        <ele>1047.45</ele>
        <time>2019-08-25T09:20:41.000Z</time>
      </trkpt>
      <trkpt lat="46.17731" lon="6.4333">
        <ele>1042.94</ele>
        <time>2019-08-25T09:20:44.000Z</time>
      </trkpt>
      <trkpt lat="46.17739" lon="6.43335">
        <ele>1039.62</ele>
        <time>2019-08-25T09:20:47.000Z</time>
      </trkpt>
      <trkpt lat="46.17745" lon="6.43347">
        <ele>1031.93</ele>
        <time>2019-08-25T09:21:23.000Z</time>
      </trkpt>
      <trkpt lat="46.1775" lon="6.4336">
        <ele>1036.99</ele>
        <time>2019-08-25T09:21:56.000Z</time>
      </trkpt>
      <trkpt lat="46.17748" lon="6.43373">
        <ele>1038.68</ele>
        <time>2019-08-25T09:22:09.000Z</time>
      </trkpt>
      <trkpt lat="46.17745" lon="6.43385">
        <ele>1041.78</ele>
        <time>2019-08-25T09:22:26.000Z</time>
      </trkpt>
      <trkpt lat="46.17741" lon="6.43397">
        <ele>1044.04</ele>
        <time>2019-08-25T09:22:39.000Z</time>
      </trkpt>
      <trkpt lat="46.17736" lon="6.43408">
        <ele>1046.41</ele>
        <time>2019-08-25T09:22:51.000Z</time>
      </trkpt>
      <trkpt lat="46.17731" lon="6.4342">
        <ele>1048.85</ele>
        <time>2019-08-25T09:23:05.000Z</time>
      </trkpt>
      <trkpt lat="46.17731" lon="6.43435">
        <ele>1051.97</ele>
        <time>2019-08-25T09:23:19.000Z</time>
      </trkpt>
      <trkpt lat="46.1773" lon="6.43447">
        <ele>1055.37</ele>
        <time>2019-08-25T09:23:33.000Z</time>
      </trkpt>
      <trkpt lat="46.17723" lon="6.43457">
        <ele>1058.61</ele>
        <time>2019-08-25T09:23:46.000Z</time>
      </trkpt>
      <trkpt lat="46.17717" lon="6.43468">
        <ele>1060.43</ele>
        <time>2019-08-25T09:24:00.000Z</time>
      </trkpt>
      <trkpt lat="46.17715" lon="6.43482">
        <ele>1063.24</ele>
        <time>2019-08-25T09:24:14.000Z</time>
      </trkpt>
      <trkpt lat="46.17722" lon="6.43492">
        <ele>1066.05</ele>
        <time>2019-08-25T09:24:24.000Z</time>
      </trkpt>
      <trkpt lat="46.17729" lon="6.43501">
        <ele>1067.03</ele>
        <time>2019-08-25T09:24:31.000Z</time>
      </trkpt>
      <trkpt lat="46.17738" lon="6.435">
        <ele>1067.63</ele>
        <time>2019-08-25T09:24:35.000Z</time>
      </trkpt>
      <trkpt lat="46.17753" lon="6.43497">
        <ele>1067.85</ele>
        <time>2019-08-25T09:24:38.000Z</time>
      </trkpt>
      <trkpt lat="46.17768" lon="6.43496">
        <ele>1067.8</ele>
        <time>2019-08-25T09:24:43.000Z</time>
      </trkpt>
      <trkpt lat="46.17784" lon="6.43506">
        <ele>1066.99</ele>
        <time>2019-08-25T09:24:48.000Z</time>
      </trkpt>
      <trkpt lat="46.17793" lon="6.43514">
        <ele>1066.6</ele>
        <time>2019-08-25T09:24:52.000Z</time>
      </trkpt>
      <trkpt lat="46.17803" lon="6.43522">
        <ele>1066.96</ele>
        <time>2019-08-25T09:24:57.000Z</time>
      </trkpt>
      <trkpt lat="46.17812" lon="6.43523">
        <ele>1067.62</ele>
        <time>2019-08-25T09:25:00.000Z</time>
      </trkpt>
      <trkpt lat="46.17823" lon="6.43523">
        <ele>1069.63</ele>
        <time>2019-08-25T09:25:04.000Z</time>
      </trkpt>
      <trkpt lat="46.17832" lon="6.43521">
        <ele>1071.34</ele>
        <time>2019-08-25T09:25:08.000Z</time>
      </trkpt>
      <trkpt lat="46.17842" lon="6.43518">
        <ele>1072.81</ele>
        <time>2019-08-25T09:25:12.000Z</time>
      </trkpt>
      <trkpt lat="46.17852" lon="6.43513">
        <ele>1073.95</ele>
        <time>2019-08-25T09:25:16.000Z</time>
      </trkpt>
      <trkpt lat="46.17863" lon="6.43504">
        <ele>1074.75</ele>
        <time>2019-08-25T09:25:20.000Z</time>
      </trkpt>
      <trkpt lat="46.17873" lon="6.43493">
        <ele>1076.31</ele>
        <time>2019-08-25T09:25:24.000Z</time>
      </trkpt>
      <trkpt lat="46.17882" lon="6.43486">
        <ele>1079.39</ele>
        <time>2019-08-25T09:25:31.000Z</time>
      </trkpt>
      <trkpt lat="46.17891" lon="6.43483">
        <ele>1081.55</ele>
        <time>2019-08-25T09:25:36.000Z</time>
      </trkpt>
      <trkpt lat="46.17903" lon="6.43485">
        <ele>1082.57</ele>
        <time>2019-08-25T09:25:41.000Z</time>
      </trkpt>
      <trkpt lat="46.17913" lon="6.43488">
        <ele>1083.89</ele>
        <time>2019-08-25T09:25:46.000Z</time>
      </trkpt>
      <trkpt lat="46.17923" lon="6.43486">
        <ele>1085.43</ele>
        <time>2019-08-25T09:25:52.000Z</time>
      </trkpt>
      <trkpt lat="46.17934" lon="6.43483">
        <ele>1087.56</ele>
        <time>2019-08-25T09:25:59.000Z</time>
      </trkpt>
      <trkpt lat="46.17944" lon="6.43482">
        <ele>1089.81</ele>
        <time>2019-08-25T09:26:05.000Z</time>
      </trkpt>
      <trkpt lat="46.17957" lon="6.43481">
        <ele>1092.01</ele>
        <time>2019-08-25T09:26:10.000Z</time>
      </trkpt>
      <trkpt lat="46.17966" lon="6.43484">
        <ele>1093.29</ele>
        <time>2019-08-25T09:26:14.000Z</time>
      </trkpt>
      <trkpt lat="46.17975" lon="6.43487">
        <ele>1093.89</ele>
        <time>2019-08-25T09:26:17.000Z</time>
      </trkpt>
      <trkpt lat="46.17987" lon="6.43496">
        <ele>1094.5</ele>
        <time>2019-08-25T09:26:22.000Z</time>
      </trkpt>
      <trkpt lat="46.17998" lon="6.43503">
        <ele>1095.34</ele>
        <time>2019-08-25T09:26:27.000Z</time>
      </trkpt>
      <trkpt lat="46.18007" lon="6.43513">
        <ele>1096.36</ele>
        <time>2019-08-25T09:26:31.000Z</time>
      </trkpt>
      <trkpt lat="46.18019" lon="6.43524">
        <ele>1097.44</ele>
        <time>2019-08-25T09:26:36.000Z</time>
      </trkpt>
      <trkpt lat="46.18027" lon="6.43531">
        <ele>1098.03</ele>
        <time>2019-08-25T09:26:38.000Z</time>
      </trkpt>
      <trkpt lat="46.18035" lon="6.43541">
        <ele>1098.9</ele>
        <time>2019-08-25T09:26:42.000Z</time>
      </trkpt>
      <trkpt lat="46.18046" lon="6.4356">
        <ele>1099.24</ele>
        <time>2019-08-25T09:26:46.000Z</time>
      </trkpt>
      <trkpt lat="46.18052" lon="6.43575">
        <ele>1099.65</ele>
        <time>2019-08-25T09:26:49.000Z</time>
      </trkpt>
      <trkpt lat="46.18057" lon="6.43591">
        <ele>1099.93</ele>
        <time>2019-08-25T09:26:52.000Z</time>
      </trkpt>
      <trkpt lat="46.1806" lon="6.43612">
        <ele>1100.06</ele>
        <time>2019-08-25T09:26:57.000Z</time>
      </trkpt>
      <trkpt lat="46.1806" lon="6.43637">
        <ele>1100.26</ele>
        <time>2019-08-25T09:27:01.000Z</time>
      </trkpt>
      <trkpt lat="46.18063" lon="6.43657">
        <ele>1100.5</ele>
        <time>2019-08-25T09:27:04.000Z</time>
      </trkpt>
      <trkpt lat="46.18068" lon="6.43669">
        <ele>1100.83</ele>
        <time>2019-08-25T09:27:06.000Z</time>
      </trkpt>
      <trkpt lat="46.18073" lon="6.43681">
        <ele>1101.35</ele>
        <time>2019-08-25T09:27:08.000Z</time>
      </trkpt>
      <trkpt lat="46.18077" lon="6.43693">
        <ele>1101.87</ele>
        <time>2019-08-25T09:27:10.000Z</time>
      </trkpt>
      <trkpt lat="46.18084" lon="6.43703">
        <ele>1102.57</ele>
        <time>2019-08-25T09:27:12.000Z</time>
      </trkpt>
      <trkpt lat="46.18091" lon="6.43714">
        <ele>1103.15</ele>
        <time>2019-08-25T09:27:14.000Z</time>
      </trkpt>
      <trkpt lat="46.18097" lon="6.43728">
        <ele>1105.13</ele>
        <time>2019-08-25T09:27:18.000Z</time>
      </trkpt>
      <trkpt lat="46.18105" lon="6.43744">
        <ele>1106.73</ele>
        <time>2019-08-25T09:27:23.000Z</time>
      </trkpt>
      <trkpt lat="46.18109" lon="6.4376">
        <ele>1107.38</ele>
        <time>2019-08-25T09:27:27.000Z</time>
      </trkpt>
      <trkpt lat="46.18111" lon="6.43779">
        <ele>1108.27</ele>
        <time>2019-08-25T09:27:31.000Z</time>
      </trkpt>
      <trkpt lat="46.18109" lon="6.43798">
        <ele>1108.07</ele>
        <time>2019-08-25T09:27:39.000Z</time>
      </trkpt>
      <trkpt lat="46.18102" lon="6.4384">
        <ele>1107.93</ele>
        <time>2019-08-25T09:27:40.000Z</time>
      </trkpt>
      <trkpt lat="46.18103" lon="6.43869">
        <ele>1107.2</ele>
        <time>2019-08-25T09:27:44.000Z</time>
      </trkpt>
      <trkpt lat="46.18099" lon="6.43888">
        <ele>1106.8</ele>
        <time>2019-08-25T09:27:46.000Z</time>
      </trkpt>
      <trkpt lat="46.18093" lon="6.43905">
        <ele>1106.75</ele>
        <time>2019-08-25T09:27:47.000Z</time>
      </trkpt>
      <trkpt lat="46.18087" lon="6.43932">
        <ele>1106.46</ele>
        <time>2019-08-25T09:27:50.000Z</time>
      </trkpt>
      <trkpt lat="46.1808" lon="6.43964">
        <ele>1105.8</ele>
        <time>2019-08-25T09:27:53.000Z</time>
      </trkpt>
      <trkpt lat="46.18073" lon="6.43997">
        <ele>1105.18</ele>
        <time>2019-08-25T09:27:56.000Z</time>
      </trkpt>
      <trkpt lat="46.1807" lon="6.44018">
        <ele>1105.2</ele>
        <time>2019-08-25T09:27:59.000Z</time>
      </trkpt>
      <trkpt lat="46.18067" lon="6.4404">
        <ele>1104.91</ele>
        <time>2019-08-25T09:28:01.000Z</time>
      </trkpt>
      <trkpt lat="46.18065" lon="6.44062">
        <ele>1104.8</ele>
        <time>2019-08-25T09:28:02.000Z</time>
      </trkpt>
      <trkpt lat="46.18066" lon="6.44078">
        <ele>1103.7</ele>
        <time>2019-08-25T09:28:04.000Z</time>
      </trkpt>
      <trkpt lat="46.18081" lon="6.44082">
        <ele>1101.75</ele>
        <time>2019-08-25T09:28:08.000Z</time>
      </trkpt>
      <trkpt lat="46.18097" lon="6.44064">
        <ele>1101.07</ele>
        <time>2019-08-25T09:28:11.000Z</time>
      </trkpt>
      <trkpt lat="46.18108" lon="6.44047">
        <ele>1100.65</ele>
        <time>2019-08-25T09:28:13.000Z</time>
      </trkpt>
      <trkpt lat="46.18133" lon="6.44027">
        <ele>1099.27</ele>
        <time>2019-08-25T09:28:16.000Z</time>
      </trkpt>
      <trkpt lat="46.18142" lon="6.44019">
        <ele>1098.69</ele>
        <time>2019-08-25T09:28:17.000Z</time>
      </trkpt>
      <trkpt lat="46.1815" lon="6.44008">
        <ele>1098.1</ele>
        <time>2019-08-25T09:28:18.000Z</time>
      </trkpt>
      <trkpt lat="46.18168" lon="6.4399">
        <ele>1096.84</ele>
        <time>2019-08-25T09:28:21.000Z</time>
      </trkpt>
      <trkpt lat="46.18185" lon="6.43971">
        <ele>1096</ele>
        <time>2019-08-25T09:28:23.000Z</time>
      </trkpt>
      <trkpt lat="46.18201" lon="6.43951">
        <ele>1095.51</ele>
        <time>2019-08-25T09:28:24.000Z</time>
      </trkpt>
      <trkpt lat="46.18217" lon="6.43929">
        <ele>1094.08</ele>
        <time>2019-08-25T09:28:26.000Z</time>
      </trkpt>
      <trkpt lat="46.18229" lon="6.43906">
        <ele>1092.58</ele>
        <time>2019-08-25T09:28:28.000Z</time>
      </trkpt>
      <trkpt lat="46.18243" lon="6.43884">
        <ele>1090.89</ele>
        <time>2019-08-25T09:28:30.000Z</time>
      </trkpt>
      <trkpt lat="46.18259" lon="6.43865">
        <ele>1088.82</ele>
        <time>2019-08-25T09:28:33.000Z</time>
      </trkpt>
      <trkpt lat="46.18275" lon="6.43847">
        <ele>1088.16</ele>
        <time>2019-08-25T09:28:34.000Z</time>
      </trkpt>
      <trkpt lat="46.18284" lon="6.43838">
        <ele>1087.41</ele>
        <time>2019-08-25T09:28:35.000Z</time>
      </trkpt>
      <trkpt lat="46.18292" lon="6.43828">
        <ele>1086.69</ele>
        <time>2019-08-25T09:28:36.000Z</time>
      </trkpt>
      <trkpt lat="46.18309" lon="6.43808">
        <ele>1084.59</ele>
        <time>2019-08-25T09:28:39.000Z</time>
      </trkpt>
      <trkpt lat="46.18327" lon="6.43787">
        <ele>1083.85</ele>
        <time>2019-08-25T09:28:40.000Z</time>
      </trkpt>
      <trkpt lat="46.1835" lon="6.43775">
        <ele>1082.46</ele>
        <time>2019-08-25T09:28:42.000Z</time>
      </trkpt>
      <trkpt lat="46.18362" lon="6.43771">
        <ele>1081.77</ele>
        <time>2019-08-25T09:28:43.000Z</time>
      </trkpt>
      <trkpt lat="46.18375" lon="6.4377">
        <ele>1080.16</ele>
        <time>2019-08-25T09:28:45.000Z</time>
      </trkpt>
      <trkpt lat="46.18396" lon="6.43779">
        <ele>1079.23</ele>
        <time>2019-08-25T09:28:46.000Z</time>
      </trkpt>
      <trkpt lat="46.18413" lon="6.43799">
        <ele>1077.44</ele>
        <time>2019-08-25T09:28:48.000Z</time>
      </trkpt>
      <trkpt lat="46.18432" lon="6.4381">
        <ele>1075.52</ele>
        <time>2019-08-25T09:28:50.000Z</time>
      </trkpt>
      <trkpt lat="46.1845" lon="6.43792">
        <ele>1073.76</ele>
        <time>2019-08-25T09:28:52.000Z</time>
      </trkpt>
      <trkpt lat="46.18472" lon="6.43784">
        <ele>1071.99</ele>
        <time>2019-08-25T09:28:54.000Z</time>
      </trkpt>
      <trkpt lat="46.18493" lon="6.43789">
        <ele>1070.23</ele>
        <time>2019-08-25T09:28:56.000Z</time>
      </trkpt>
      <trkpt lat="46.1851" lon="6.43794">
        <ele>1068.47</ele>
        <time>2019-08-25T09:28:58.000Z</time>
      </trkpt>
      <trkpt lat="46.18524" lon="6.43798">
        <ele>1066.73</ele>
        <time>2019-08-25T09:29:00.000Z</time>
      </trkpt>
      <trkpt lat="46.18538" lon="6.43804">
        <ele>1064.64</ele>
        <time>2019-08-25T09:29:03.000Z</time>
      </trkpt>
      <trkpt lat="46.18552" lon="6.43806">
        <ele>1062.87</ele>
        <time>2019-08-25T09:29:07.000Z</time>
      </trkpt>
      <trkpt lat="46.18564" lon="6.43811">
        <ele>1062.57</ele>
        <time>2019-08-25T09:29:10.000Z</time>
      </trkpt>
      <trkpt lat="46.18578" lon="6.43817">
        <ele>1063.07</ele>
        <time>2019-08-25T09:29:14.000Z</time>
      </trkpt>
      <trkpt lat="46.18591" lon="6.43819">
        <ele>1064.99</ele>
        <time>2019-08-25T09:29:19.000Z</time>
      </trkpt>
      <trkpt lat="46.18604" lon="6.43822">
        <ele>1067.85</ele>
        <time>2019-08-25T09:29:22.000Z</time>
      </trkpt>
      <trkpt lat="46.1862" lon="6.43826">
        <ele>1070.8</ele>
        <time>2019-08-25T09:29:26.000Z</time>
      </trkpt>
      <trkpt lat="46.18631" lon="6.43828">
        <ele>1071.57</ele>
        <time>2019-08-25T09:29:31.000Z</time>
      </trkpt>
      <trkpt lat="46.18643" lon="6.4383">
        <ele>1072.09</ele>
        <time>2019-08-25T09:29:34.000Z</time>
      </trkpt>
      <trkpt lat="46.18656" lon="6.4383">
        <ele>1073.36</ele>
        <time>2019-08-25T09:29:38.000Z</time>
      </trkpt>
      <trkpt lat="46.18668" lon="6.43831">
        <ele>1074.34</ele>
        <time>2019-08-25T09:29:42.000Z</time>
      </trkpt>
      <trkpt lat="46.1868" lon="6.4383">
        <ele>1074.34</ele>
        <time>2019-08-25T09:29:46.000Z</time>
      </trkpt>
      <trkpt lat="46.18689" lon="6.43828">
        <ele>1075.19</ele>
        <time>2019-08-25T09:29:49.000Z</time>
      </trkpt>
      <trkpt lat="46.18699" lon="6.43828">
        <ele>1076.68</ele>
        <time>2019-08-25T09:29:52.000Z</time>
      </trkpt>
      <trkpt lat="46.18712" lon="6.43826">
        <ele>1078.5</ele>
        <time>2019-08-25T09:29:56.000Z</time>
      </trkpt>
      <trkpt lat="46.18724" lon="6.43823">
        <ele>1079.84</ele>
        <time>2019-08-25T09:30:00.000Z</time>
      </trkpt>
      <trkpt lat="46.18734" lon="6.4382">
        <ele>1080.96</ele>
        <time>2019-08-25T09:30:03.000Z</time>
      </trkpt>
      <trkpt lat="46.18743" lon="6.43818">
        <ele>1082.17</ele>
        <time>2019-08-25T09:30:06.000Z</time>
      </trkpt>
      <trkpt lat="46.18752" lon="6.4382">
        <ele>1082.96</ele>
        <time>2019-08-25T09:30:09.000Z</time>
      </trkpt>
      <trkpt lat="46.18764" lon="6.43825">
        <ele>1083.96</ele>
        <time>2019-08-25T09:30:13.000Z</time>
      </trkpt>
      <trkpt lat="46.1877" lon="6.43834">
        <ele>1085.21</ele>
        <time>2019-08-25T09:30:16.000Z</time>
      </trkpt>
      <trkpt lat="46.18775" lon="6.43847">
        <ele>1086.15</ele>
        <time>2019-08-25T09:30:19.000Z</time>
      </trkpt>
      <trkpt lat="46.18778" lon="6.43861">
        <ele>1086.78</ele>
        <time>2019-08-25T09:30:22.000Z</time>
      </trkpt>
      <trkpt lat="46.18782" lon="6.43878">
        <ele>1088.25</ele>
        <time>2019-08-25T09:30:26.000Z</time>
      </trkpt>
      <trkpt lat="46.18785" lon="6.43897">
        <ele>1088.45</ele>
        <time>2019-08-25T09:30:30.000Z</time>
      </trkpt>
      <trkpt lat="46.18787" lon="6.43911">
        <ele>1087.29</ele>
        <time>2019-08-25T09:30:33.000Z</time>
      </trkpt>
      <trkpt lat="46.18789" lon="6.43924">
        <ele>1086.8</ele>
        <time>2019-08-25T09:30:36.000Z</time>
      </trkpt>
      <trkpt lat="46.18793" lon="6.4394">
        <ele>1086.71</ele>
        <time>2019-08-25T09:30:40.000Z</time>
      </trkpt>
      <trkpt lat="46.18799" lon="6.4396">
        <ele>1086.9</ele>
        <time>2019-08-25T09:30:45.000Z</time>
      </trkpt>
      <trkpt lat="46.18803" lon="6.43973">
        <ele>1090.52</ele>
        <time>2019-08-25T09:30:49.000Z</time>
      </trkpt>
      <trkpt lat="46.18806" lon="6.43953">
        <ele>1092.74</ele>
        <time>2019-08-25T09:30:54.000Z</time>
      </trkpt>
      <trkpt lat="46.18809" lon="6.4394">
        <ele>1095.1</ele>
        <time>2019-08-25T09:30:56.000Z</time>
      </trkpt>
      <trkpt lat="46.18816" lon="6.43921">
        <ele>1095.95</ele>
        <time>2019-08-25T09:30:58.000Z</time>
      </trkpt>
      <trkpt lat="46.18823" lon="6.43898">
        <ele>1095.73</ele>
        <time>2019-08-25T09:31:00.000Z</time>
      </trkpt>
      <trkpt lat="46.18832" lon="6.43875">
        <ele>1095.63</ele>
        <time>2019-08-25T09:31:02.000Z</time>
      </trkpt>
      <trkpt lat="46.18836" lon="6.43862">
        <ele>1095.22</ele>
        <time>2019-08-25T09:31:03.000Z</time>
      </trkpt>
      <trkpt lat="46.18846" lon="6.4384">
        <ele>1094.33</ele>
        <time>2019-08-25T09:31:05.000Z</time>
      </trkpt>
      <trkpt lat="46.18853" lon="6.43822">
        <ele>1093.48</ele>
        <time>2019-08-25T09:31:07.000Z</time>
      </trkpt>
      <trkpt lat="46.18867" lon="6.43803">
        <ele>1091.4</ele>
        <time>2019-08-25T09:31:10.000Z</time>
      </trkpt>
      <trkpt lat="46.18875" lon="6.43795">
        <ele>1090.73</ele>
        <time>2019-08-25T09:31:11.000Z</time>
      </trkpt>
      <trkpt lat="46.18887" lon="6.43782">
        <ele>1088.89</ele>
        <time>2019-08-25T09:31:13.000Z</time>
      </trkpt>
      <trkpt lat="46.18897" lon="6.43771">
        <ele>1087.11</ele>
        <time>2019-08-25T09:31:15.000Z</time>
      </trkpt>
      <trkpt lat="46.18911" lon="6.4376">
        <ele>1085.52</ele>
        <time>2019-08-25T09:31:18.000Z</time>
      </trkpt>
      <trkpt lat="46.18929" lon="6.4375">
        <ele>1083.14</ele>
        <time>2019-08-25T09:31:21.000Z</time>
      </trkpt>
      <trkpt lat="46.18937" lon="6.43743">
        <ele>1081.48</ele>
        <time>2019-08-25T09:31:23.000Z</time>
      </trkpt>
      <trkpt lat="46.1895" lon="6.43736">
        <ele>1080.22</ele>
        <time>2019-08-25T09:31:25.000Z</time>
      </trkpt>
      <trkpt lat="46.18962" lon="6.43732">
        <ele>1078.93</ele>
        <time>2019-08-25T09:31:27.000Z</time>
      </trkpt>
      <trkpt lat="46.18976" lon="6.43722">
        <ele>1076.7</ele>
        <time>2019-08-25T09:31:30.000Z</time>
      </trkpt>
      <trkpt lat="46.18995" lon="6.43708">
        <ele>1073.78</ele>
        <time>2019-08-25T09:31:33.000Z</time>
      </trkpt>
      <trkpt lat="46.19007" lon="6.43702">
        <ele>1071.42</ele>
        <time>2019-08-25T09:31:35.000Z</time>
      </trkpt>
      <trkpt lat="46.19018" lon="6.43697">
        <ele>1068.85</ele>
        <time>2019-08-25T09:31:37.000Z</time>
      </trkpt>
      <trkpt lat="46.19035" lon="6.43691">
        <ele>1065.05</ele>
        <time>2019-08-25T09:31:40.000Z</time>
      </trkpt>
      <trkpt lat="46.19044" lon="6.43694">
        <ele>1062.17</ele>
        <time>2019-08-25T09:31:43.000Z</time>
      </trkpt>
      <trkpt lat="46.19047" lon="6.43707">
        <ele>1059.68</ele>
        <time>2019-08-25T09:31:46.000Z</time>
      </trkpt>
      <trkpt lat="46.19044" lon="6.43731">
        <ele>1056.06</ele>
        <time>2019-08-25T09:31:50.000Z</time>
      </trkpt>
      <trkpt lat="46.19039" lon="6.43753">
        <ele>1053.01</ele>
        <time>2019-08-25T09:31:54.000Z</time>
      </trkpt>
      <trkpt lat="46.19035" lon="6.43769">
        <ele>1051.36</ele>
        <time>2019-08-25T09:31:57.000Z</time>
      </trkpt>
      <trkpt lat="46.19031" lon="6.43787">
        <ele>1049.44</ele>
        <time>2019-08-25T09:32:02.000Z</time>
      </trkpt>
      <trkpt lat="46.19028" lon="6.43806">
        <ele>1049.34</ele>
        <time>2019-08-25T09:32:05.000Z</time>
      </trkpt>
      <trkpt lat="46.19025" lon="6.43824">
        <ele>1049.72</ele>
        <time>2019-08-25T09:32:08.000Z</time>
      </trkpt>
      <trkpt lat="46.19024" lon="6.43844">
        <ele>1050.45</ele>
        <time>2019-08-25T09:32:11.000Z</time>
      </trkpt>
      <trkpt lat="46.1902" lon="6.43867">
        <ele>1051.18</ele>
        <time>2019-08-25T09:32:14.000Z</time>
      </trkpt>
      <trkpt lat="46.19018" lon="6.43885">
        <ele>1051.52</ele>
        <time>2019-08-25T09:32:16.000Z</time>
      </trkpt>
      <trkpt lat="46.19015" lon="6.43906">
        <ele>1051.75</ele>
        <time>2019-08-25T09:32:18.000Z</time>
      </trkpt>
      <trkpt lat="46.19012" lon="6.43933">
        <ele>1051.97</ele>
        <time>2019-08-25T09:32:21.000Z</time>
      </trkpt>
      <trkpt lat="46.19012" lon="6.43951">
        <ele>1052.05</ele>
        <time>2019-08-25T09:32:23.000Z</time>
      </trkpt>
      <trkpt lat="46.19013" lon="6.43975">
        <ele>1052.15</ele>
        <time>2019-08-25T09:32:26.000Z</time>
      </trkpt>
      <trkpt lat="46.19013" lon="6.43991">
        <ele>1052.33</ele>
        <time>2019-08-25T09:32:28.000Z</time>
      </trkpt>
      <trkpt lat="46.19013" lon="6.44007">
        <ele>1052.57</ele>
        <time>2019-08-25T09:32:30.000Z</time>
      </trkpt>
      <trkpt lat="46.19014" lon="6.44023">
        <ele>1052.91</ele>
        <time>2019-08-25T09:32:32.000Z</time>
      </trkpt>
      <trkpt lat="46.19017" lon="6.44039">
        <ele>1053.31</ele>
        <time>2019-08-25T09:32:34.000Z</time>
      </trkpt>
      <trkpt lat="46.1902" lon="6.44056">
        <ele>1053.81</ele>
        <time>2019-08-25T09:32:36.000Z</time>
      </trkpt>
      <trkpt lat="46.19023" lon="6.44072">
        <ele>1054.36</ele>
        <time>2019-08-25T09:32:38.000Z</time>
      </trkpt>
      <trkpt lat="46.19026" lon="6.44086">
        <ele>1054.96</ele>
        <time>2019-08-25T09:32:40.000Z</time>
      </trkpt>
      <trkpt lat="46.19029" lon="6.441">
        <ele>1055.57</ele>
        <time>2019-08-25T09:32:42.000Z</time>
      </trkpt>
      <trkpt lat="46.19027" lon="6.44114">
        <ele>1056.13</ele>
        <time>2019-08-25T09:32:44.000Z</time>
      </trkpt>
      <trkpt lat="46.19018" lon="6.44126">
        <ele>1056.77</ele>
        <time>2019-08-25T09:32:46.000Z</time>
      </trkpt>
      <trkpt lat="46.19007" lon="6.44139">
        <ele>1057.33</ele>
        <time>2019-08-25T09:32:48.000Z</time>
      </trkpt>
      <trkpt lat="46.18997" lon="6.44158">
        <ele>1057.59</ele>
        <time>2019-08-25T09:32:50.000Z</time>
      </trkpt>
      <trkpt lat="46.18998" lon="6.44171">
        <ele>1057.72</ele>
        <time>2019-08-25T09:32:51.000Z</time>
      </trkpt>
      <trkpt lat="46.19009" lon="6.44197">
        <ele>1057.81</ele>
        <time>2019-08-25T09:32:53.000Z</time>
      </trkpt>
      <trkpt lat="46.19029" lon="6.44209">
        <ele>1057.52</ele>
        <time>2019-08-25T09:32:56.000Z</time>
      </trkpt>
      <trkpt lat="46.19047" lon="6.44199">
        <ele>1056.7</ele>
        <time>2019-08-25T09:32:59.000Z</time>
      </trkpt>
      <trkpt lat="46.19058" lon="6.44192">
        <ele>1056.03</ele>
        <time>2019-08-25T09:33:01.000Z</time>
      </trkpt>
      <trkpt lat="46.1907" lon="6.44189">
        <ele>1055.34</ele>
        <time>2019-08-25T09:33:03.000Z</time>
      </trkpt>
      <trkpt lat="46.19082" lon="6.4419">
        <ele>1054.85</ele>
        <time>2019-08-25T09:33:05.000Z</time>
      </trkpt>
      <trkpt lat="46.19097" lon="6.44191">
        <ele>1054.38</ele>
        <time>2019-08-25T09:33:07.000Z</time>
      </trkpt>
      <trkpt lat="46.19107" lon="6.44197">
        <ele>1053.8</ele>
        <time>2019-08-25T09:33:09.000Z</time>
      </trkpt>
      <trkpt lat="46.19127" lon="6.44208">
        <ele>1053.51</ele>
        <time>2019-08-25T09:33:12.000Z</time>
      </trkpt>
      <trkpt lat="46.19147" lon="6.44212">
        <ele>1053.81</ele>
        <time>2019-08-25T09:33:15.000Z</time>
      </trkpt>
      <trkpt lat="46.19165" lon="6.44202">
        <ele>1054.19</ele>
        <time>2019-08-25T09:33:18.000Z</time>
      </trkpt>
      <trkpt lat="46.19178" lon="6.44177">
        <ele>1054.21</ele>
        <time>2019-08-25T09:33:21.000Z</time>
      </trkpt>
      <trkpt lat="46.19186" lon="6.44158">
        <ele>1053.87</ele>
        <time>2019-08-25T09:33:23.000Z</time>
      </trkpt>
      <trkpt lat="46.19201" lon="6.44131">
        <ele>1053.02</ele>
        <time>2019-08-25T09:33:26.000Z</time>
      </trkpt>
      <trkpt lat="46.19213" lon="6.44117">
        <ele>1052.14</ele>
        <time>2019-08-25T09:33:28.000Z</time>
      </trkpt>
      <trkpt lat="46.19224" lon="6.44107">
        <ele>1050.58</ele>
        <time>2019-08-25T09:33:30.000Z</time>
      </trkpt>
      <trkpt lat="46.19236" lon="6.44095">
        <ele>1049.04</ele>
        <time>2019-08-25T09:33:32.000Z</time>
      </trkpt>
      <trkpt lat="46.1925" lon="6.4408">
        <ele>1047.05</ele>
        <time>2019-08-25T09:33:35.000Z</time>
      </trkpt>
      <trkpt lat="46.19259" lon="6.4407">
        <ele>1046.65</ele>
        <time>2019-08-25T09:33:37.000Z</time>
      </trkpt>
      <trkpt lat="46.19268" lon="6.44061">
        <ele>1046.56</ele>
        <time>2019-08-25T09:33:39.000Z</time>
      </trkpt>
      <trkpt lat="46.19277" lon="6.44041">
        <ele>1046.98</ele>
        <time>2019-08-25T09:33:42.000Z</time>
      </trkpt>
      <trkpt lat="46.19281" lon="6.44024">
        <ele>1047.3</ele>
        <time>2019-08-25T09:33:44.000Z</time>
      </trkpt>
      <trkpt lat="46.19286" lon="6.44004">
        <ele>1047.61</ele>
        <time>2019-08-25T09:33:46.000Z</time>
      </trkpt>
      <trkpt lat="46.19292" lon="6.43984">
        <ele>1047.98</ele>
        <time>2019-08-25T09:33:48.000Z</time>
      </trkpt>
      <trkpt lat="46.19299" lon="6.43961">
        <ele>1048.74</ele>
        <time>2019-08-25T09:33:50.000Z</time>
      </trkpt>
      <trkpt lat="46.19305" lon="6.43951">
        <ele>1048.93</ele>
        <time>2019-08-25T09:33:51.000Z</time>
      </trkpt>
      <trkpt lat="46.1932" lon="6.43932">
        <ele>1049.17</ele>
        <time>2019-08-25T09:33:53.000Z</time>
      </trkpt>
      <trkpt lat="46.19328" lon="6.43923">
        <ele>1049.04</ele>
        <time>2019-08-25T09:33:54.000Z</time>
      </trkpt>
      <trkpt lat="46.19346" lon="6.43909">
        <ele>1047.95</ele>
        <time>2019-08-25T09:33:56.000Z</time>
      </trkpt>
      <trkpt lat="46.19363" lon="6.43897">
        <ele>1046.77</ele>
        <time>2019-08-25T09:33:58.000Z</time>
      </trkpt>
      <trkpt lat="46.19379" lon="6.43883">
        <ele>1045.04</ele>
        <time>2019-08-25T09:34:01.000Z</time>
      </trkpt>
      <trkpt lat="46.19377" lon="6.43866">
        <ele>1043.28</ele>
        <time>2019-08-25T09:34:04.000Z</time>
      </trkpt>
      <trkpt lat="46.19378" lon="6.43846">
        <ele>1041.1</ele>
        <time>2019-08-25T09:34:07.000Z</time>
      </trkpt>
      <trkpt lat="46.19382" lon="6.43832">
        <ele>1039.5</ele>
        <time>2019-08-25T09:34:09.000Z</time>
      </trkpt>
      <trkpt lat="46.19398" lon="6.43809">
        <ele>1036.89</ele>
        <time>2019-08-25T09:34:12.000Z</time>
      </trkpt>
      <trkpt lat="46.19413" lon="6.43794">
        <ele>1034.86</ele>
        <time>2019-08-25T09:34:14.000Z</time>
      </trkpt>
      <trkpt lat="46.19427" lon="6.43779">
        <ele>1032.35</ele>
        <time>2019-08-25T09:34:16.000Z</time>
      </trkpt>
      <trkpt lat="46.19451" lon="6.43759">
        <ele>1028.23</ele>
        <time>2019-08-25T09:34:19.000Z</time>
      </trkpt>
      <trkpt lat="46.19473" lon="6.43744">
        <ele>1023.29</ele>
        <time>2019-08-25T09:34:22.000Z</time>
      </trkpt>
      <trkpt lat="46.19488" lon="6.43733">
        <ele>1018.94</ele>
        <time>2019-08-25T09:34:24.000Z</time>
      </trkpt>
      <trkpt lat="46.19497" lon="6.4373">
        <ele>1016.73</ele>
        <time>2019-08-25T09:34:25.000Z</time>
      </trkpt>
      <trkpt lat="46.19515" lon="6.43725">
        <ele>1012.73</ele>
        <time>2019-08-25T09:34:27.000Z</time>
      </trkpt>
      <trkpt lat="46.19524" lon="6.43721">
        <ele>1010.04</ele>
        <time>2019-08-25T09:34:28.000Z</time>
      </trkpt>
      <trkpt lat="46.19543" lon="6.43709">
        <ele>1005.62</ele>
        <time>2019-08-25T09:34:30.000Z</time>
      </trkpt>
      <trkpt lat="46.19564" lon="6.4369">
        <ele>1001.17</ele>
        <time>2019-08-25T09:34:32.000Z</time>
      </trkpt>
      <trkpt lat="46.19574" lon="6.43683">
        <ele>998.85</ele>
        <time>2019-08-25T09:34:33.000Z</time>
      </trkpt>
      <trkpt lat="46.19591" lon="6.43667">
        <ele>994.09</ele>
        <time>2019-08-25T09:34:35.000Z</time>
      </trkpt>
      <trkpt lat="46.19601" lon="6.43644">
        <ele>990.4</ele>
        <time>2019-08-25T09:34:37.000Z</time>
      </trkpt>
      <trkpt lat="46.19608" lon="6.43625">
        <ele>987.83</ele>
        <time>2019-08-25T09:34:39.000Z</time>
      </trkpt>
      <trkpt lat="46.19625" lon="6.43616">
        <ele>984.27</ele>
        <time>2019-08-25T09:34:42.000Z</time>
      </trkpt>
      <trkpt lat="46.19644" lon="6.43615">
        <ele>981.81</ele>
        <time>2019-08-25T09:34:45.000Z</time>
      </trkpt>
      <trkpt lat="46.19658" lon="6.4361">
        <ele>980.25</ele>
        <time>2019-08-25T09:34:47.000Z</time>
      </trkpt>
      <trkpt lat="46.19672" lon="6.43603">
        <ele>979.38</ele>
        <time>2019-08-25T09:34:49.000Z</time>
      </trkpt>
      <trkpt lat="46.19687" lon="6.43597">
        <ele>978.8</ele>
        <time>2019-08-25T09:34:51.000Z</time>
      </trkpt>
      <trkpt lat="46.19698" lon="6.43587">
        <ele>977.71</ele>
        <time>2019-08-25T09:34:53.000Z</time>
      </trkpt>
      <trkpt lat="46.19706" lon="6.4357">
        <ele>977.08</ele>
        <time>2019-08-25T09:34:55.000Z</time>
      </trkpt>
      <trkpt lat="46.19714" lon="6.43553">
        <ele>976.74</ele>
        <time>2019-08-25T09:34:57.000Z</time>
      </trkpt>
      <trkpt lat="46.19726" lon="6.43528">
        <ele>976.59</ele>
        <time>2019-08-25T09:35:00.000Z</time>
      </trkpt>
      <trkpt lat="46.19738" lon="6.4352">
        <ele>976.75</ele>
        <time>2019-08-25T09:35:02.000Z</time>
      </trkpt>
      <trkpt lat="46.19746" lon="6.43509">
        <ele>977.08</ele>
        <time>2019-08-25T09:35:04.000Z</time>
      </trkpt>
      <trkpt lat="46.19751" lon="6.43495">
        <ele>977.48</ele>
        <time>2019-08-25T09:35:06.000Z</time>
      </trkpt>
      <trkpt lat="46.19762" lon="6.43468">
        <ele>977.99</ele>
        <time>2019-08-25T09:35:09.000Z</time>
      </trkpt>
      <trkpt lat="46.19769" lon="6.43452">
        <ele>978.25</ele>
        <time>2019-08-25T09:35:11.000Z</time>
      </trkpt>
      <trkpt lat="46.19771" lon="6.43426">
        <ele>978.6</ele>
        <time>2019-08-25T09:35:14.000Z</time>
      </trkpt>
      <trkpt lat="46.19765" lon="6.43402">
        <ele>979.07</ele>
        <time>2019-08-25T09:35:17.000Z</time>
      </trkpt>
      <trkpt lat="46.19767" lon="6.43383">
        <ele>979.53</ele>
        <time>2019-08-25T09:35:20.000Z</time>
      </trkpt>
      <trkpt lat="46.19775" lon="6.43374">
        <ele>980.1</ele>
        <time>2019-08-25T09:35:22.000Z</time>
      </trkpt>
      <trkpt lat="46.19787" lon="6.43364">
        <ele>981.39</ele>
        <time>2019-08-25T09:35:25.000Z</time>
      </trkpt>
      <trkpt lat="46.19804" lon="6.43354">
        <ele>982.84</ele>
        <time>2019-08-25T09:35:28.000Z</time>
      </trkpt>
      <trkpt lat="46.19815" lon="6.43344">
        <ele>983.61</ele>
        <time>2019-08-25T09:35:30.000Z</time>
      </trkpt>
      <trkpt lat="46.19831" lon="6.43329">
        <ele>984.28</ele>
        <time>2019-08-25T09:35:33.000Z</time>
      </trkpt>
      <trkpt lat="46.1984" lon="6.4331">
        <ele>985.01</ele>
        <time>2019-08-25T09:35:36.000Z</time>
      </trkpt>
      <trkpt lat="46.19843" lon="6.43292">
        <ele>985.28</ele>
        <time>2019-08-25T09:35:38.000Z</time>
      </trkpt>
      <trkpt lat="46.19853" lon="6.43279">
        <ele>985.5</ele>
        <time>2019-08-25T09:35:40.000Z</time>
      </trkpt>
      <trkpt lat="46.19872" lon="6.43262">
        <ele>985.69</ele>
        <time>2019-08-25T09:35:43.000Z</time>
      </trkpt>
      <trkpt lat="46.19884" lon="6.4325">
        <ele>986.14</ele>
        <time>2019-08-25T09:35:45.000Z</time>
      </trkpt>
      <trkpt lat="46.19894" lon="6.43238">
        <ele>986.58</ele>
        <time>2019-08-25T09:35:47.000Z</time>
      </trkpt>
      <trkpt lat="46.1991" lon="6.43223">
        <ele>986.83</ele>
        <time>2019-08-25T09:35:50.000Z</time>
      </trkpt>
      <trkpt lat="46.1992" lon="6.43218">
        <ele>986.4</ele>
        <time>2019-08-25T09:35:52.000Z</time>
      </trkpt>
      <trkpt lat="46.1993" lon="6.43212">
        <ele>986.39</ele>
        <time>2019-08-25T09:35:54.000Z</time>
      </trkpt>
      <trkpt lat="46.19939" lon="6.43208">
        <ele>985.94</ele>
        <time>2019-08-25T09:35:56.000Z</time>
      </trkpt>
      <trkpt lat="46.19948" lon="6.43203">
        <ele>985.89</ele>
        <time>2019-08-25T09:35:58.000Z</time>
      </trkpt>
      <trkpt lat="46.19961" lon="6.43195">
        <ele>985.35</ele>
        <time>2019-08-25T09:36:01.000Z</time>
      </trkpt>
      <trkpt lat="46.19976" lon="6.43188">
        <ele>985.39</ele>
        <time>2019-08-25T09:36:04.000Z</time>
      </trkpt>
      <trkpt lat="46.19991" lon="6.43182">
        <ele>986.12</ele>
        <time>2019-08-25T09:36:07.000Z</time>
      </trkpt>
      <trkpt lat="46.2" lon="6.43177">
        <ele>986.58</ele>
        <time>2019-08-25T09:36:09.000Z</time>
      </trkpt>
      <trkpt lat="46.2001" lon="6.43173">
        <ele>986.87</ele>
        <time>2019-08-25T09:36:11.000Z</time>
      </trkpt>
      <trkpt lat="46.20025" lon="6.43159">
        <ele>987.71</ele>
        <time>2019-08-25T09:36:15.000Z</time>
      </trkpt>
      <trkpt lat="46.20033" lon="6.4315">
        <ele>988.7</ele>
        <time>2019-08-25T09:36:17.000Z</time>
      </trkpt>
      <trkpt lat="46.2004" lon="6.4314">
        <ele>989.26</ele>
        <time>2019-08-25T09:36:19.000Z</time>
      </trkpt>
      <trkpt lat="46.20048" lon="6.43131">
        <ele>989.95</ele>
        <time>2019-08-25T09:36:21.000Z</time>
      </trkpt>
      <trkpt lat="46.20056" lon="6.43121">
        <ele>990.31</ele>
        <time>2019-08-25T09:36:23.000Z</time>
      </trkpt>
      <trkpt lat="46.20065" lon="6.43111">
        <ele>990.97</ele>
        <time>2019-08-25T09:36:25.000Z</time>
      </trkpt>
      <trkpt lat="46.20072" lon="6.43097">
        <ele>991.12</ele>
        <time>2019-08-25T09:36:27.000Z</time>
      </trkpt>
      <trkpt lat="46.20069" lon="6.43081">
        <ele>990.98</ele>
        <time>2019-08-25T09:36:29.000Z</time>
      </trkpt>
      <trkpt lat="46.20061" lon="6.43066">
        <ele>990.72</ele>
        <time>2019-08-25T09:36:31.000Z</time>
      </trkpt>
      <trkpt lat="46.20055" lon="6.43049">
        <ele>989.75</ele>
        <time>2019-08-25T09:36:33.000Z</time>
      </trkpt>
      <trkpt lat="46.20051" lon="6.43036">
        <ele>989.29</ele>
        <time>2019-08-25T09:36:35.000Z</time>
      </trkpt>
      <trkpt lat="46.20045" lon="6.4302">
        <ele>988.48</ele>
        <time>2019-08-25T09:36:37.000Z</time>
      </trkpt>
      <trkpt lat="46.20037" lon="6.43005">
        <ele>988.06</ele>
        <time>2019-08-25T09:36:39.000Z</time>
      </trkpt>
      <trkpt lat="46.20015" lon="6.42987">
        <ele>987.87</ele>
        <time>2019-08-25T09:36:42.000Z</time>
      </trkpt>
      <trkpt lat="46.19996" lon="6.42972">
        <ele>987.75</ele>
        <time>2019-08-25T09:36:44.000Z</time>
      </trkpt>
      <trkpt lat="46.19979" lon="6.42959">
        <ele>986.67</ele>
        <time>2019-08-25T09:36:46.000Z</time>
      </trkpt>
      <trkpt lat="46.19963" lon="6.42944">
        <ele>984.93</ele>
        <time>2019-08-25T09:36:48.000Z</time>
      </trkpt>
      <trkpt lat="46.19947" lon="6.42929">
        <ele>982.4</ele>
        <time>2019-08-25T09:36:50.000Z</time>
      </trkpt>
      <trkpt lat="46.19932" lon="6.42915">
        <ele>979.95</ele>
        <time>2019-08-25T09:36:52.000Z</time>
      </trkpt>
      <trkpt lat="46.19909" lon="6.42897">
        <ele>977.64</ele>
        <time>2019-08-25T09:36:55.000Z</time>
      </trkpt>
      <trkpt lat="46.19892" lon="6.42886">
        <ele>975.73</ele>
        <time>2019-08-25T09:36:57.000Z</time>
      </trkpt>
      <trkpt lat="46.19883" lon="6.42881">
        <ele>974.73</ele>
        <time>2019-08-25T09:36:58.000Z</time>
      </trkpt>
      <trkpt lat="46.19868" lon="6.42872">
        <ele>973.62</ele>
        <time>2019-08-25T09:37:00.000Z</time>
      </trkpt>
      <trkpt lat="46.19854" lon="6.42865">
        <ele>972</ele>
        <time>2019-08-25T09:37:02.000Z</time>
      </trkpt>
      <trkpt lat="46.19838" lon="6.42852">
        <ele>971.25</ele>
        <time>2019-08-25T09:37:05.000Z</time>
      </trkpt>
      <trkpt lat="46.19836" lon="6.42839">
        <ele>972.27</ele>
        <time>2019-08-25T09:37:08.000Z</time>
      </trkpt>
      <trkpt lat="46.1983" lon="6.42826">
        <ele>970.95</ele>
        <time>2019-08-25T09:37:13.000Z</time>
      </trkpt>
      <trkpt lat="46.19825" lon="6.42815">
        <ele>969.5</ele>
        <time>2019-08-25T09:37:19.000Z</time>
      </trkpt>
      <trkpt lat="46.19815" lon="6.42809">
        <ele>968.14</ele>
        <time>2019-08-25T09:37:23.000Z</time>
      </trkpt>
      <trkpt lat="46.19801" lon="6.42809">
        <ele>966.14</ele>
        <time>2019-08-25T09:37:27.000Z</time>
      </trkpt>
      <trkpt lat="46.19791" lon="6.42807">
        <ele>964.49</ele>
        <time>2019-08-25T09:37:32.000Z</time>
      </trkpt>
      <trkpt lat="46.1978" lon="6.42796">
        <ele>964.22</ele>
        <time>2019-08-25T09:37:35.000Z</time>
      </trkpt>
      <trkpt lat="46.19773" lon="6.42781">
        <ele>964.34</ele>
        <time>2019-08-25T09:37:38.000Z</time>
      </trkpt>
      <trkpt lat="46.19765" lon="6.42769">
        <ele>964.45</ele>
        <time>2019-08-25T09:37:41.000Z</time>
      </trkpt>
      <trkpt lat="46.19758" lon="6.42751">
        <ele>964.81</ele>
        <time>2019-08-25T09:37:46.000Z</time>
      </trkpt>
      <trkpt lat="46.19756" lon="6.42735">
        <ele>965.65</ele>
        <time>2019-08-25T09:37:50.000Z</time>
      </trkpt>
      <trkpt lat="46.19752" lon="6.42719">
        <ele>967.07</ele>
        <time>2019-08-25T09:37:54.000Z</time>
      </trkpt>
      <trkpt lat="46.19744" lon="6.42705">
        <ele>968.22</ele>
        <time>2019-08-25T09:37:57.000Z</time>
      </trkpt>
      <trkpt lat="46.19738" lon="6.42693">
        <ele>968.95</ele>
        <time>2019-08-25T09:37:59.000Z</time>
      </trkpt>
      <trkpt lat="46.19732" lon="6.42681">
        <ele>969.63</ele>
        <time>2019-08-25T09:38:01.000Z</time>
      </trkpt>
      <trkpt lat="46.19721" lon="6.42666">
        <ele>970.47</ele>
        <time>2019-08-25T09:38:04.000Z</time>
      </trkpt>
      <trkpt lat="46.19715" lon="6.42653">
        <ele>970.71</ele>
        <time>2019-08-25T09:38:06.000Z</time>
      </trkpt>
      <trkpt lat="46.19709" lon="6.42642">
        <ele>970.68</ele>
        <time>2019-08-25T09:38:08.000Z</time>
      </trkpt>
      <trkpt lat="46.19695" lon="6.42631">
        <ele>971.02</ele>
        <time>2019-08-25T09:38:12.000Z</time>
      </trkpt>
      <trkpt lat="46.19687" lon="6.42623">
        <ele>971.6</ele>
        <time>2019-08-25T09:38:14.000Z</time>
      </trkpt>
      <trkpt lat="46.19677" lon="6.42618">
        <ele>972.22</ele>
        <time>2019-08-25T09:38:16.000Z</time>
      </trkpt>
      <trkpt lat="46.19666" lon="6.42612">
        <ele>972.64</ele>
        <time>2019-08-25T09:38:18.000Z</time>
      </trkpt>
      <trkpt lat="46.19651" lon="6.42602">
        <ele>973.08</ele>
        <time>2019-08-25T09:38:21.000Z</time>
      </trkpt>
      <trkpt lat="46.19641" lon="6.42598">
        <ele>973.5</ele>
        <time>2019-08-25T09:38:23.000Z</time>
      </trkpt>
      <trkpt lat="46.1963" lon="6.42591">
        <ele>973.99</ele>
        <time>2019-08-25T09:38:25.000Z</time>
      </trkpt>
      <trkpt lat="46.19621" lon="6.42586">
        <ele>974.31</ele>
        <time>2019-08-25T09:38:27.000Z</time>
      </trkpt>
      <trkpt lat="46.19607" lon="6.42574">
        <ele>973.81</ele>
        <time>2019-08-25T09:38:31.000Z</time>
      </trkpt>
      <trkpt lat="46.19598" lon="6.42568">
        <ele>973.35</ele>
        <time>2019-08-25T09:38:34.000Z</time>
      </trkpt>
      <trkpt lat="46.19589" lon="6.42559">
        <ele>973.92</ele>
        <time>2019-08-25T09:38:38.000Z</time>
      </trkpt>
      <trkpt lat="46.1958" lon="6.42549">
        <ele>975.63</ele>
        <time>2019-08-25T09:38:43.000Z</time>
      </trkpt>
      <trkpt lat="46.19571" lon="6.42536">
        <ele>979.1</ele>
        <time>2019-08-25T09:38:49.000Z</time>
      </trkpt>
      <trkpt lat="46.19563" lon="6.42523">
        <ele>982.5</ele>
        <time>2019-08-25T09:38:56.000Z</time>
      </trkpt>
      <trkpt lat="46.19558" lon="6.42509">
        <ele>984.61</ele>
        <time>2019-08-25T09:39:02.000Z</time>
      </trkpt>
      <trkpt lat="46.19557" lon="6.42496">
        <ele>985.46</ele>
        <time>2019-08-25T09:39:06.000Z</time>
      </trkpt>
      <trkpt lat="46.19557" lon="6.42481">
        <ele>987.13</ele>
        <time>2019-08-25T09:39:11.000Z</time>
      </trkpt>
      <trkpt lat="46.19556" lon="6.42466">
        <ele>988.86</ele>
        <time>2019-08-25T09:39:16.000Z</time>
      </trkpt>
      <trkpt lat="46.19557" lon="6.4245">
        <ele>990.32</ele>
        <time>2019-08-25T09:39:21.000Z</time>
      </trkpt>
      <trkpt lat="46.19556" lon="6.42434">
        <ele>992.16</ele>
        <time>2019-08-25T09:39:26.000Z</time>
      </trkpt>
      <trkpt lat="46.19553" lon="6.42418">
        <ele>992.8</ele>
        <time>2019-08-25T09:39:31.000Z</time>
      </trkpt>
      <trkpt lat="46.19552" lon="6.42403">
        <ele>993.6</ele>
        <time>2019-08-25T09:39:36.000Z</time>
      </trkpt>
      <trkpt lat="46.19551" lon="6.4239">
        <ele>994.27</ele>
        <time>2019-08-25T09:39:40.000Z</time>
      </trkpt>
      <trkpt lat="46.19549" lon="6.42375">
        <ele>994.74</ele>
        <time>2019-08-25T09:39:44.000Z</time>
      </trkpt>
      <trkpt lat="46.19545" lon="6.42357">
        <ele>996.71</ele>
        <time>2019-08-25T09:39:49.000Z</time>
      </trkpt>
      <trkpt lat="46.19543" lon="6.42343">
        <ele>998.05</ele>
        <time>2019-08-25T09:39:52.000Z</time>
      </trkpt>
      <trkpt lat="46.1954" lon="6.4233">
        <ele>999.09</ele>
        <time>2019-08-25T09:39:55.000Z</time>
      </trkpt>
      <trkpt lat="46.19536" lon="6.42309">
        <ele>999.99</ele>
        <time>2019-08-25T09:39:58.000Z</time>
      </trkpt>
      <trkpt lat="46.19529" lon="6.4229">
        <ele>1000.62</ele>
        <time>2019-08-25T09:40:02.000Z</time>
      </trkpt>
      <trkpt lat="46.19525" lon="6.42273">
        <ele>1000.95</ele>
        <time>2019-08-25T09:40:05.000Z</time>
      </trkpt>
      <trkpt lat="46.19521" lon="6.42248">
        <ele>1001.48</ele>
        <time>2019-08-25T09:40:09.000Z</time>
      </trkpt>
      <trkpt lat="46.19517" lon="6.42224">
        <ele>1001.78</ele>
        <time>2019-08-25T09:40:13.000Z</time>
      </trkpt>
      <trkpt lat="46.19519" lon="6.42202">
        <ele>1002.48</ele>
        <time>2019-08-25T09:40:17.000Z</time>
      </trkpt>
      <trkpt lat="46.19523" lon="6.42188">
        <ele>1003.03</ele>
        <time>2019-08-25T09:40:19.000Z</time>
      </trkpt>
      <trkpt lat="46.19528" lon="6.42162">
        <ele>1003.46</ele>
        <time>2019-08-25T09:40:22.000Z</time>
      </trkpt>
      <trkpt lat="46.19534" lon="6.42137">
        <ele>1003.37</ele>
        <time>2019-08-25T09:40:25.000Z</time>
      </trkpt>
      <trkpt lat="46.1954" lon="6.42119">
        <ele>1003.18</ele>
        <time>2019-08-25T09:40:27.000Z</time>
      </trkpt>
      <trkpt lat="46.19546" lon="6.42101">
        <ele>1003.1</ele>
        <time>2019-08-25T09:40:29.000Z</time>
      </trkpt>
      <trkpt lat="46.19552" lon="6.42085">
        <ele>1002.94</ele>
        <time>2019-08-25T09:40:31.000Z</time>
      </trkpt>
      <trkpt lat="46.1956" lon="6.42058">
        <ele>1002.23</ele>
        <time>2019-08-25T09:40:34.000Z</time>
      </trkpt>
      <trkpt lat="46.19565" lon="6.42029">
        <ele>1001.18</ele>
        <time>2019-08-25T09:40:37.000Z</time>
      </trkpt>
      <trkpt lat="46.1956" lon="6.42001">
        <ele>1000.48</ele>
        <time>2019-08-25T09:40:40.000Z</time>
      </trkpt>
      <trkpt lat="46.19546" lon="6.41981">
        <ele>1000.25</ele>
        <time>2019-08-25T09:40:43.000Z</time>
      </trkpt>
      <trkpt lat="46.19535" lon="6.41972">
        <ele>1000.08</ele>
        <time>2019-08-25T09:40:45.000Z</time>
      </trkpt>
      <trkpt lat="46.19526" lon="6.41965">
        <ele>999.92</ele>
        <time>2019-08-25T09:40:47.000Z</time>
      </trkpt>
      <trkpt lat="46.19516" lon="6.4196">
        <ele>999.68</ele>
        <time>2019-08-25T09:40:49.000Z</time>
      </trkpt>
      <trkpt lat="46.19513" lon="6.41946">
        <ele>999.43</ele>
        <time>2019-08-25T09:40:51.000Z</time>
      </trkpt>
      <trkpt lat="46.19514" lon="6.41921">
        <ele>999.22</ele>
        <time>2019-08-25T09:40:55.000Z</time>
      </trkpt>
      <trkpt lat="46.19506" lon="6.41907">
        <ele>999.08</ele>
        <time>2019-08-25T09:40:58.000Z</time>
      </trkpt>
      <trkpt lat="46.19497" lon="6.41894">
        <ele>998.81</ele>
        <time>2019-08-25T09:41:01.000Z</time>
      </trkpt>
      <trkpt lat="46.1949" lon="6.41885">
        <ele>998.72</ele>
        <time>2019-08-25T09:41:03.000Z</time>
      </trkpt>
      <trkpt lat="46.19481" lon="6.41866">
        <ele>999.14</ele>
        <time>2019-08-25T09:41:07.000Z</time>
      </trkpt>
      <trkpt lat="46.19476" lon="6.41855">
        <ele>999.54</ele>
        <time>2019-08-25T09:41:10.000Z</time>
      </trkpt>
      <trkpt lat="46.19468" lon="6.41846">
        <ele>1000.92</ele>
        <time>2019-08-25T09:47:02.000Z</time>
      </trkpt>
      <trkpt lat="46.1946" lon="6.41842">
        <ele>1001.11</ele>
        <time>2019-08-25T09:47:04.000Z</time>
      </trkpt>
      <trkpt lat="46.19454" lon="6.41832">
        <ele>1001.6</ele>
        <time>2019-08-25T09:47:07.000Z</time>
      </trkpt>
      <trkpt lat="46.19448" lon="6.41821">
        <ele>1002.19</ele>
        <time>2019-08-25T09:47:10.000Z</time>
      </trkpt>
      <trkpt lat="46.19441" lon="6.41812">
        <ele>1002.91</ele>
        <time>2019-08-25T09:47:13.000Z</time>
      </trkpt>
      <trkpt lat="46.19433" lon="6.41804">
        <ele>1003.67</ele>
        <time>2019-08-25T09:47:16.000Z</time>
      </trkpt>
      <trkpt lat="46.19421" lon="6.41794">
        <ele>1004.26</ele>
        <time>2019-08-25T09:47:19.000Z</time>
      </trkpt>
      <trkpt lat="46.1941" lon="6.41784">
        <ele>1004.55</ele>
        <time>2019-08-25T09:47:22.000Z</time>
      </trkpt>
      <trkpt lat="46.19403" lon="6.41774">
        <ele>1004.74</ele>
        <time>2019-08-25T09:47:24.000Z</time>
      </trkpt>
      <trkpt lat="46.19395" lon="6.41769">
        <ele>1004.91</ele>
        <time>2019-08-25T09:47:26.000Z</time>
      </trkpt>
      <trkpt lat="46.19387" lon="6.41762">
        <ele>1005.27</ele>
        <time>2019-08-25T09:47:28.000Z</time>
      </trkpt>
      <trkpt lat="46.19379" lon="6.41755">
        <ele>1005.28</ele>
        <time>2019-08-25T09:47:30.000Z</time>
      </trkpt>
      <trkpt lat="46.19371" lon="6.41749">
        <ele>1005.05</ele>
        <time>2019-08-25T09:47:32.000Z</time>
      </trkpt>
      <trkpt lat="46.19362" lon="6.4174">
        <ele>1004.64</ele>
        <time>2019-08-25T09:47:34.000Z</time>
      </trkpt>
      <trkpt lat="46.19353" lon="6.41735">
        <ele>1003.98</ele>
        <time>2019-08-25T09:47:36.000Z</time>
      </trkpt>
      <trkpt lat="46.19342" lon="6.41726">
        <ele>1002.71</ele>
        <time>2019-08-25T09:47:39.000Z</time>
      </trkpt>
      <trkpt lat="46.19332" lon="6.41723">
        <ele>1001.63</ele>
        <time>2019-08-25T09:47:41.000Z</time>
      </trkpt>
      <trkpt lat="46.19321" lon="6.4172">
        <ele>1000.68</ele>
        <time>2019-08-25T09:47:43.000Z</time>
      </trkpt>
      <trkpt lat="46.1931" lon="6.41715">
        <ele>999.91</ele>
        <time>2019-08-25T09:47:45.000Z</time>
      </trkpt>
      <trkpt lat="46.193" lon="6.417">
        <ele>999.55</ele>
        <time>2019-08-25T09:47:48.000Z</time>
      </trkpt>
      <trkpt lat="46.19289" lon="6.41682">
        <ele>999.54</ele>
        <time>2019-08-25T09:47:51.000Z</time>
      </trkpt>
      <trkpt lat="46.19275" lon="6.41671">
        <ele>999.8</ele>
        <time>2019-08-25T09:47:56.000Z</time>
      </trkpt>
      <trkpt lat="46.19261" lon="6.41677">
        <ele>999.58</ele>
        <time>2019-08-25T09:47:59.000Z</time>
      </trkpt>
      <trkpt lat="46.19251" lon="6.41691">
        <ele>998.43</ele>
        <time>2019-08-25T09:48:02.000Z</time>
      </trkpt>
      <trkpt lat="46.1924" lon="6.4169">
        <ele>995.82</ele>
        <time>2019-08-25T09:48:06.000Z</time>
      </trkpt>
      <trkpt lat="46.19231" lon="6.41688">
        <ele>994.78</ele>
        <time>2019-08-25T09:48:08.000Z</time>
      </trkpt>
      <trkpt lat="46.19219" lon="6.4168">
        <ele>993.01</ele>
        <time>2019-08-25T09:48:11.000Z</time>
      </trkpt>
      <trkpt lat="46.19211" lon="6.41671">
        <ele>992.16</ele>
        <time>2019-08-25T09:48:13.000Z</time>
      </trkpt>
      <trkpt lat="46.19183" lon="6.41654">
        <ele>991.48</ele>
        <time>2019-08-25T09:48:22.000Z</time>
      </trkpt>
      <trkpt lat="46.19172" lon="6.41646">
        <ele>991.59</ele>
        <time>2019-08-25T09:48:24.000Z</time>
      </trkpt>
      <trkpt lat="46.19163" lon="6.41638">
        <ele>991.83</ele>
        <time>2019-08-25T09:48:26.000Z</time>
      </trkpt>
      <trkpt lat="46.1916" lon="6.41616">
        <ele>991.95</ele>
        <time>2019-08-25T09:48:30.000Z</time>
      </trkpt>
      <trkpt lat="46.1916" lon="6.41602">
        <ele>992.05</ele>
        <time>2019-08-25T09:48:32.000Z</time>
      </trkpt>
      <trkpt lat="46.19158" lon="6.41583">
        <ele>991.68</ele>
        <time>2019-08-25T09:48:35.000Z</time>
      </trkpt>
      <trkpt lat="46.19157" lon="6.41565">
        <ele>991.26</ele>
        <time>2019-08-25T09:48:38.000Z</time>
      </trkpt>
      <trkpt lat="46.19153" lon="6.41553">
        <ele>990.71</ele>
        <time>2019-08-25T09:48:42.000Z</time>
      </trkpt>
      <trkpt lat="46.19147" lon="6.41539">
        <ele>991.29</ele>
        <time>2019-08-25T09:48:47.000Z</time>
      </trkpt>
      <trkpt lat="46.19142" lon="6.41527">
        <ele>991.6</ele>
        <time>2019-08-25T09:48:50.000Z</time>
      </trkpt>
      <trkpt lat="46.19139" lon="6.41513">
        <ele>991.53</ele>
        <time>2019-08-25T09:48:53.000Z</time>
      </trkpt>
      <trkpt lat="46.19139" lon="6.41496">
        <ele>992.47</ele>
        <time>2019-08-25T09:48:57.000Z</time>
      </trkpt>
      <trkpt lat="46.19139" lon="6.41482">
        <ele>993.25</ele>
        <time>2019-08-25T09:49:01.000Z</time>
      </trkpt>
      <trkpt lat="46.19143" lon="6.41465">
        <ele>994.97</ele>
        <time>2019-08-25T09:49:07.000Z</time>
      </trkpt>
      <trkpt lat="46.19144" lon="6.41452">
        <ele>995.69</ele>
        <time>2019-08-25T09:49:10.000Z</time>
      </trkpt>
      <trkpt lat="46.19146" lon="6.41436">
        <ele>996.04</ele>
        <time>2019-08-25T09:49:14.000Z</time>
      </trkpt>
      <trkpt lat="46.19146" lon="6.4142">
        <ele>996.54</ele>
        <time>2019-08-25T09:49:18.000Z</time>
      </trkpt>
      <trkpt lat="46.19144" lon="6.41404">
        <ele>996.92</ele>
        <time>2019-08-25T09:49:22.000Z</time>
      </trkpt>
      <trkpt lat="46.1914" lon="6.41388">
        <ele>997.81</ele>
        <time>2019-08-25T09:49:27.000Z</time>
      </trkpt>
      <trkpt lat="46.19132" lon="6.41373">
        <ele>998.58</ele>
        <time>2019-08-25T09:49:33.000Z</time>
      </trkpt>
      <trkpt lat="46.19126" lon="6.41363">
        <ele>999.23</ele>
        <time>2019-08-25T09:49:38.000Z</time>
      </trkpt>
      <trkpt lat="46.19119" lon="6.41352">
        <ele>1000.49</ele>
        <time>2019-08-25T09:49:43.000Z</time>
      </trkpt>
      <trkpt lat="46.19111" lon="6.41341">
        <ele>1003.72</ele>
        <time>2019-08-25T09:49:50.000Z</time>
      </trkpt>
      <trkpt lat="46.19103" lon="6.41331">
        <ele>1007.46</ele>
        <time>2019-08-25T09:49:59.000Z</time>
      </trkpt>
      <trkpt lat="46.19091" lon="6.41319">
        <ele>1008.98</ele>
        <time>2019-08-25T09:50:05.000Z</time>
      </trkpt>
      <trkpt lat="46.19083" lon="6.41311">
        <ele>1010.37</ele>
        <time>2019-08-25T09:50:09.000Z</time>
      </trkpt>
      <trkpt lat="46.19073" lon="6.41304">
        <ele>1011.73</ele>
        <time>2019-08-25T09:50:13.000Z</time>
      </trkpt>
      <trkpt lat="46.19064" lon="6.41299">
        <ele>1013.36</ele>
        <time>2019-08-25T09:50:17.000Z</time>
      </trkpt>
      <trkpt lat="46.19056" lon="6.41291">
        <ele>1014.98</ele>
        <time>2019-08-25T09:50:22.000Z</time>
      </trkpt>
      <trkpt lat="46.19048" lon="6.41284">
        <ele>1016.68</ele>
        <time>2019-08-25T09:50:28.000Z</time>
      </trkpt>
      <trkpt lat="46.19039" lon="6.41275">
        <ele>1017.76</ele>
        <time>2019-08-25T09:50:33.000Z</time>
      </trkpt>
      <trkpt lat="46.19028" lon="6.41266">
        <ele>1018.41</ele>
        <time>2019-08-25T09:50:38.000Z</time>
      </trkpt>
      <trkpt lat="46.19017" lon="6.41266">
        <ele>1019.1</ele>
        <time>2019-08-25T09:50:43.000Z</time>
      </trkpt>
      <trkpt lat="46.19007" lon="6.41267">
        <ele>1019.57</ele>
        <time>2019-08-25T09:50:47.000Z</time>
      </trkpt>
      <trkpt lat="46.18998" lon="6.41271">
        <ele>1020.65</ele>
        <time>2019-08-25T09:50:51.000Z</time>
      </trkpt>
      <trkpt lat="46.18986" lon="6.41273">
        <ele>1022.05</ele>
        <time>2019-08-25T09:50:55.000Z</time>
      </trkpt>
      <trkpt lat="46.18975" lon="6.4127">
        <ele>1023.05</ele>
        <time>2019-08-25T09:50:59.000Z</time>
      </trkpt>
      <trkpt lat="46.18967" lon="6.41268">
        <ele>1024.06</ele>
        <time>2019-08-25T09:51:03.000Z</time>
      </trkpt>
      <trkpt lat="46.18956" lon="6.41267">
        <ele>1025.16</ele>
        <time>2019-08-25T09:51:08.000Z</time>
      </trkpt>
      <trkpt lat="46.18946" lon="6.41269">
        <ele>1026.18</ele>
        <time>2019-08-25T09:51:14.000Z</time>
      </trkpt>
      <trkpt lat="46.18936" lon="6.41268">
        <ele>1026.48</ele>
        <time>2019-08-25T09:51:18.000Z</time>
      </trkpt>
      <trkpt lat="46.18924" lon="6.41269">
        <ele>1026.23</ele>
        <time>2019-08-25T09:51:22.000Z</time>
      </trkpt>
      <trkpt lat="46.18913" lon="6.41262">
        <ele>1025.47</ele>
        <time>2019-08-25T09:51:26.000Z</time>
      </trkpt>
      <trkpt lat="46.18903" lon="6.41253">
        <ele>1025.01</ele>
        <time>2019-08-25T09:51:30.000Z</time>
      </trkpt>
      <trkpt lat="46.18892" lon="6.41248">
        <ele>1024.75</ele>
        <time>2019-08-25T09:51:34.000Z</time>
      </trkpt>
      <trkpt lat="46.18883" lon="6.41245">
        <ele>1025.05</ele>
        <time>2019-08-25T09:51:37.000Z</time>
      </trkpt>
      <trkpt lat="46.18873" lon="6.41243">
        <ele>1026.35</ele>
        <time>2019-08-25T09:51:41.000Z</time>
      </trkpt>
      <trkpt lat="46.18862" lon="6.41237">
        <ele>1028.58</ele>
        <time>2019-08-25T09:51:47.000Z</time>
      </trkpt>
      <trkpt lat="46.18851" lon="6.41233">
        <ele>1030.66</ele>
        <time>2019-08-25T09:51:52.000Z</time>
      </trkpt>
      <trkpt lat="46.1884" lon="6.4123">
        <ele>1031.56</ele>
        <time>2019-08-25T09:51:55.000Z</time>
      </trkpt>
      <trkpt lat="46.18831" lon="6.41227">
        <ele>1032.24</ele>
        <time>2019-08-25T09:51:58.000Z</time>
      </trkpt>
      <trkpt lat="46.18822" lon="6.41223">
        <ele>1032.48</ele>
        <time>2019-08-25T09:52:01.000Z</time>
      </trkpt>
      <trkpt lat="46.18796" lon="6.41216">
        <ele>1032.28</ele>
        <time>2019-08-25T09:52:06.000Z</time>
      </trkpt>
      <trkpt lat="46.18787" lon="6.41211">
        <ele>1032.54</ele>
        <time>2019-08-25T09:52:08.000Z</time>
      </trkpt>
      <trkpt lat="46.18778" lon="6.41207">
        <ele>1032.55</ele>
        <time>2019-08-25T09:52:10.000Z</time>
      </trkpt>
      <trkpt lat="46.18769" lon="6.41201">
        <ele>1032.43</ele>
        <time>2019-08-25T09:52:12.000Z</time>
      </trkpt>
      <trkpt lat="46.18749" lon="6.41191">
        <ele>1031.75</ele>
        <time>2019-08-25T09:52:15.000Z</time>
      </trkpt>
      <trkpt lat="46.18728" lon="6.41187">
        <ele>1030.62</ele>
        <time>2019-08-25T09:52:19.000Z</time>
      </trkpt>
      <trkpt lat="46.18713" lon="6.41177">
        <ele>1028.96</ele>
        <time>2019-08-25T09:52:21.000Z</time>
      </trkpt>
      <trkpt lat="46.18699" lon="6.4117">
        <ele>1026.67</ele>
        <time>2019-08-25T09:52:23.000Z</time>
      </trkpt>
      <trkpt lat="46.18681" lon="6.41161">
        <ele>1024.09</ele>
        <time>2019-08-25T09:52:25.000Z</time>
      </trkpt>
      <trkpt lat="46.18672" lon="6.41161">
        <ele>1022.17</ele>
        <time>2019-08-25T09:52:27.000Z</time>
      </trkpt>
      <trkpt lat="46.1866" lon="6.41165">
        <ele>1018.41</ele>
        <time>2019-08-25T09:52:32.000Z</time>
      </trkpt>
      <trkpt lat="46.18649" lon="6.41162">
        <ele>1016.68</ele>
        <time>2019-08-25T09:52:34.000Z</time>
      </trkpt>
      <trkpt lat="46.18635" lon="6.41152">
        <ele>1014.13</ele>
        <time>2019-08-25T09:52:38.000Z</time>
      </trkpt>
      <trkpt lat="46.18625" lon="6.41148">
        <ele>1011.78</ele>
        <time>2019-08-25T09:52:43.000Z</time>
      </trkpt>
      <trkpt lat="46.18609" lon="6.41145">
        <ele>1009.47</ele>
        <time>2019-08-25T09:52:45.000Z</time>
      </trkpt>
      <trkpt lat="46.18597" lon="6.41142">
        <ele>1007.29</ele>
        <time>2019-08-25T09:52:47.000Z</time>
      </trkpt>
      <trkpt lat="46.18584" lon="6.41143">
        <ele>1005.06</ele>
        <time>2019-08-25T09:52:49.000Z</time>
      </trkpt>
      <trkpt lat="46.18572" lon="6.41142">
        <ele>1003.44</ele>
        <time>2019-08-25T09:52:52.000Z</time>
      </trkpt>
      <trkpt lat="46.18555" lon="6.41135">
        <ele>1002.11</ele>
        <time>2019-08-25T09:52:53.000Z</time>
      </trkpt>
      <trkpt lat="46.1854" lon="6.41133">
        <ele>1000.06</ele>
        <time>2019-08-25T09:52:56.000Z</time>
      </trkpt>
      <trkpt lat="46.18521" lon="6.41128">
        <ele>998.07</ele>
        <time>2019-08-25T09:52:59.000Z</time>
      </trkpt>
      <trkpt lat="46.18507" lon="6.41123">
        <ele>996.84</ele>
        <time>2019-08-25T09:53:01.000Z</time>
      </trkpt>
      <trkpt lat="46.18497" lon="6.41114">
        <ele>994.14</ele>
        <time>2019-08-25T09:53:03.000Z</time>
      </trkpt>
      <trkpt lat="46.18488" lon="6.41094">
        <ele>987.54</ele>
        <time>2019-08-25T09:53:07.000Z</time>
      </trkpt>
      <trkpt lat="46.18473" lon="6.41085">
        <ele>983.24</ele>
        <time>2019-08-25T09:53:10.000Z</time>
      </trkpt>
      <trkpt lat="46.18469" lon="6.411">
        <ele>980.06</ele>
        <time>2019-08-25T09:53:13.000Z</time>
      </trkpt>
      <trkpt lat="46.18459" lon="6.41104">
        <ele>975.94</ele>
        <time>2019-08-25T09:53:17.000Z</time>
      </trkpt>
      <trkpt lat="46.18441" lon="6.41101">
        <ele>975.82</ele>
        <time>2019-08-25T09:53:22.000Z</time>
      </trkpt>
      <trkpt lat="46.18426" lon="6.41108">
        <ele>975.69</ele>
        <time>2019-08-25T09:53:25.000Z</time>
      </trkpt>
      <trkpt lat="46.18418" lon="6.41102">
        <ele>974.23</ele>
        <time>2019-08-25T09:53:31.000Z</time>
      </trkpt>
      <trkpt lat="46.18412" lon="6.41091">
        <ele>973.64</ele>
        <time>2019-08-25T09:53:34.000Z</time>
      </trkpt>
      <trkpt lat="46.18405" lon="6.41078">
        <ele>972.49</ele>
        <time>2019-08-25T09:53:36.000Z</time>
      </trkpt>
      <trkpt lat="46.18397" lon="6.41064">
        <ele>971.09</ele>
        <time>2019-08-25T09:53:38.000Z</time>
      </trkpt>
      <trkpt lat="46.18391" lon="6.41048">
        <ele>969.61</ele>
        <time>2019-08-25T09:53:40.000Z</time>
      </trkpt>
      <trkpt lat="46.18384" lon="6.41031">
        <ele>968.45</ele>
        <time>2019-08-25T09:53:42.000Z</time>
      </trkpt>
      <trkpt lat="46.18376" lon="6.41018">
        <ele>967.38</ele>
        <time>2019-08-25T09:53:44.000Z</time>
      </trkpt>
      <trkpt lat="46.18373" lon="6.40995">
        <ele>966.86</ele>
        <time>2019-08-25T09:53:47.000Z</time>
      </trkpt>
      <trkpt lat="46.18368" lon="6.40984">
        <ele>966.06</ele>
        <time>2019-08-25T09:53:50.000Z</time>
      </trkpt>
      <trkpt lat="46.18363" lon="6.40972">
        <ele>966.09</ele>
        <time>2019-08-25T09:53:53.000Z</time>
      </trkpt>
      <trkpt lat="46.18356" lon="6.40959">
        <ele>966.04</ele>
        <time>2019-08-25T09:53:55.000Z</time>
      </trkpt>
      <trkpt lat="46.18349" lon="6.40951">
        <ele>966.24</ele>
        <time>2019-08-25T09:53:57.000Z</time>
      </trkpt>
      <trkpt lat="46.18336" lon="6.40937">
        <ele>965.87</ele>
        <time>2019-08-25T09:53:59.000Z</time>
      </trkpt>
      <trkpt lat="46.18327" lon="6.4093">
        <ele>965.86</ele>
        <time>2019-08-25T09:54:01.000Z</time>
      </trkpt>
      <trkpt lat="46.18318" lon="6.40917">
        <ele>965.96</ele>
        <time>2019-08-25T09:54:04.000Z</time>
      </trkpt>
      <trkpt lat="46.18311" lon="6.40906">
        <ele>966.31</ele>
        <time>2019-08-25T09:54:06.000Z</time>
      </trkpt>
      <trkpt lat="46.183" lon="6.40891">
        <ele>965.65</ele>
        <time>2019-08-25T09:54:10.000Z</time>
      </trkpt>
      <trkpt lat="46.18285" lon="6.40878">
        <ele>965.57</ele>
        <time>2019-08-25T09:54:14.000Z</time>
      </trkpt>
      <trkpt lat="46.18271" lon="6.40873">
        <ele>966.44</ele>
        <time>2019-08-25T09:54:17.000Z</time>
      </trkpt>
      <trkpt lat="46.18262" lon="6.40868">
        <ele>966.4</ele>
        <time>2019-08-25T09:54:19.000Z</time>
      </trkpt>
      <trkpt lat="46.18245" lon="6.40855">
        <ele>965.82</ele>
        <time>2019-08-25T09:54:21.000Z</time>
      </trkpt>
      <trkpt lat="46.18235" lon="6.40844">
        <ele>965.01</ele>
        <time>2019-08-25T09:54:24.000Z</time>
      </trkpt>
      <trkpt lat="46.18224" lon="6.40837">
        <ele>964.61</ele>
        <time>2019-08-25T09:54:26.000Z</time>
      </trkpt>
      <trkpt lat="46.18213" lon="6.40826">
        <ele>964.41</ele>
        <time>2019-08-25T09:54:28.000Z</time>
      </trkpt>
      <trkpt lat="46.18204" lon="6.40827">
        <ele>963.85</ele>
        <time>2019-08-25T09:54:30.000Z</time>
      </trkpt>
      <trkpt lat="46.18191" lon="6.40813">
        <ele>963.01</ele>
        <time>2019-08-25T09:54:32.000Z</time>
      </trkpt>
      <trkpt lat="46.18179" lon="6.40813">
        <ele>961.23</ele>
        <time>2019-08-25T09:54:35.000Z</time>
      </trkpt>
      <trkpt lat="46.18182" lon="6.408">
        <ele>956.91</ele>
        <time>2019-08-25T09:54:42.000Z</time>
      </trkpt>
      <trkpt lat="46.18184" lon="6.40784">
        <ele>955.15</ele>
        <time>2019-08-25T09:54:45.000Z</time>
      </trkpt>
      <trkpt lat="46.18177" lon="6.40769">
        <ele>954.09</ele>
        <time>2019-08-25T09:54:48.000Z</time>
      </trkpt>
      <trkpt lat="46.18172" lon="6.40755">
        <ele>953.72</ele>
        <time>2019-08-25T09:54:50.000Z</time>
      </trkpt>
      <trkpt lat="46.18164" lon="6.40731">
        <ele>953.45</ele>
        <time>2019-08-25T09:54:53.000Z</time>
      </trkpt>
      <trkpt lat="46.1816" lon="6.40707">
        <ele>953.25</ele>
        <time>2019-08-25T09:54:56.000Z</time>
      </trkpt>
      <trkpt lat="46.18157" lon="6.40687">
        <ele>953.16</ele>
        <time>2019-08-25T09:54:59.000Z</time>
      </trkpt>
      <trkpt lat="46.18154" lon="6.4067">
        <ele>953.01</ele>
        <time>2019-08-25T09:55:02.000Z</time>
      </trkpt>
      <trkpt lat="46.18152" lon="6.40657">
        <ele>952.72</ele>
        <time>2019-08-25T09:55:04.000Z</time>
      </trkpt>
      <trkpt lat="46.18148" lon="6.40637">
        <ele>952</ele>
        <time>2019-08-25T09:55:07.000Z</time>
      </trkpt>
      <trkpt lat="46.18137" lon="6.40623">
        <ele>952.07</ele>
        <time>2019-08-25T09:55:10.000Z</time>
      </trkpt>
      <trkpt lat="46.18133" lon="6.4061">
        <ele>952.18</ele>
        <time>2019-08-25T09:55:12.000Z</time>
      </trkpt>
      <trkpt lat="46.1812" lon="6.40596">
        <ele>952.14</ele>
        <time>2019-08-25T09:55:19.000Z</time>
      </trkpt>
      <trkpt lat="46.18112" lon="6.40583">
        <ele>952.66</ele>
        <time>2019-08-25T09:55:22.000Z</time>
      </trkpt>
      <trkpt lat="46.18107" lon="6.40572">
        <ele>952.5</ele>
        <time>2019-08-25T09:55:25.000Z</time>
      </trkpt>
      <trkpt lat="46.18101" lon="6.40562">
        <ele>952.18</ele>
        <time>2019-08-25T09:55:27.000Z</time>
      </trkpt>
      <trkpt lat="46.18092" lon="6.40555">
        <ele>951.32</ele>
        <time>2019-08-25T09:55:30.000Z</time>
      </trkpt>
      <trkpt lat="46.18082" lon="6.4055">
        <ele>950.98</ele>
        <time>2019-08-25T09:55:33.000Z</time>
      </trkpt>
      <trkpt lat="46.18068" lon="6.4054">
        <ele>950.93</ele>
        <time>2019-08-25T09:55:36.000Z</time>
      </trkpt>
      <trkpt lat="46.18057" lon="6.40531">
        <ele>950.95</ele>
        <time>2019-08-25T09:55:40.000Z</time>
      </trkpt>
      <trkpt lat="46.18046" lon="6.40526">
        <ele>951.51</ele>
        <time>2019-08-25T09:55:42.000Z</time>
      </trkpt>
      <trkpt lat="46.18033" lon="6.4052">
        <ele>952.29</ele>
        <time>2019-08-25T09:55:45.000Z</time>
      </trkpt>
      <trkpt lat="46.18018" lon="6.40507">
        <ele>952.45</ele>
        <time>2019-08-25T09:55:49.000Z</time>
      </trkpt>
      <trkpt lat="46.18006" lon="6.40495">
        <ele>951.86</ele>
        <time>2019-08-25T09:55:55.000Z</time>
      </trkpt>
      <trkpt lat="46.17999" lon="6.40483">
        <ele>951.55</ele>
        <time>2019-08-25T09:55:59.000Z</time>
      </trkpt>
      <trkpt lat="46.17991" lon="6.40468">
        <ele>952.16</ele>
        <time>2019-08-25T09:56:04.000Z</time>
      </trkpt>
      <trkpt lat="46.17978" lon="6.40448">
        <ele>953.08</ele>
        <time>2019-08-25T09:56:07.000Z</time>
      </trkpt>
      <trkpt lat="46.17972" lon="6.40434">
        <ele>952.85</ele>
        <time>2019-08-25T09:56:11.000Z</time>
      </trkpt>
      <trkpt lat="46.17966" lon="6.40421">
        <ele>951.72</ele>
        <time>2019-08-25T09:56:15.000Z</time>
      </trkpt>
      <trkpt lat="46.17961" lon="6.40408">
        <ele>950.69</ele>
        <time>2019-08-25T09:56:20.000Z</time>
      </trkpt>
      <trkpt lat="46.17952" lon="6.404">
        <ele>950.03</ele>
        <time>2019-08-25T09:56:24.000Z</time>
      </trkpt>
      <trkpt lat="46.17942" lon="6.40393">
        <ele>950.32</ele>
        <time>2019-08-25T09:56:29.000Z</time>
      </trkpt>
      <trkpt lat="46.17933" lon="6.40384">
        <ele>951.28</ele>
        <time>2019-08-25T09:56:37.000Z</time>
      </trkpt>
      <trkpt lat="46.17923" lon="6.40375">
        <ele>951.87</ele>
        <time>2019-08-25T09:56:43.000Z</time>
      </trkpt>
      <trkpt lat="46.17913" lon="6.40372">
        <ele>952.31</ele>
        <time>2019-08-25T09:56:47.000Z</time>
      </trkpt>
      <trkpt lat="46.17903" lon="6.40373">
        <ele>952.65</ele>
        <time>2019-08-25T09:56:55.000Z</time>
      </trkpt>
      <trkpt lat="46.17913" lon="6.40382">
        <ele>952.5</ele>
        <time>2019-08-25T09:57:18.000Z</time>
      </trkpt>
      <trkpt lat="46.17924" lon="6.40382">
        <ele>952.07</ele>
        <time>2019-08-25T09:57:24.000Z</time>
      </trkpt>
      <trkpt lat="46.17935" lon="6.40383">
        <ele>951.67</ele>
        <time>2019-08-25T09:57:29.000Z</time>
      </trkpt>
      <trkpt lat="46.17945" lon="6.40385">
        <ele>950.97</ele>
        <time>2019-08-25T09:57:36.000Z</time>
      </trkpt>
      <trkpt lat="46.17942" lon="6.40397">
        <ele>951.02</ele>
        <time>2019-08-25T09:57:53.000Z</time>
      </trkpt>
      <trkpt lat="46.17949" lon="6.40406">
        <ele>951.21</ele>
        <time>2019-08-25T09:57:56.000Z</time>
      </trkpt>
      <trkpt lat="46.17957" lon="6.40416">
        <ele>951.38</ele>
        <time>2019-08-25T09:58:01.000Z</time>
      </trkpt>
      <trkpt lat="46.17964" lon="6.40429">
        <ele>951.3</ele>
        <time>2019-08-25T09:58:08.000Z</time>
      </trkpt>
      <trkpt lat="46.17971" lon="6.40441">
        <ele>951.67</ele>
        <time>2019-08-25T09:58:12.000Z</time>
      </trkpt>
      <trkpt lat="46.17978" lon="6.40452">
        <ele>951.75</ele>
        <time>2019-08-25T09:58:15.000Z</time>
      </trkpt>
      <trkpt lat="46.17983" lon="6.40465">
        <ele>951.64</ele>
        <time>2019-08-25T09:58:20.000Z</time>
      </trkpt>
      <trkpt lat="46.1799" lon="6.4048">
        <ele>951.14</ele>
        <time>2019-08-25T09:58:25.000Z</time>
      </trkpt>
      <trkpt lat="46.17998" lon="6.40494">
        <ele>950.51</ele>
        <time>2019-08-25T09:58:31.000Z</time>
      </trkpt>
      <trkpt lat="46.18007" lon="6.40504">
        <ele>950.55</ele>
        <time>2019-08-25T09:58:34.000Z</time>
      </trkpt>
      <trkpt lat="46.18" lon="6.40488">
        <ele>951.44</ele>
        <time>2019-08-25T09:58:50.000Z</time>
      </trkpt>
      <trkpt lat="46.17996" lon="6.40476">
        <ele>951.55</ele>
        <time>2019-08-25T09:58:55.000Z</time>
      </trkpt>
      <trkpt lat="46.17987" lon="6.40461">
        <ele>951.64</ele>
        <time>2019-08-25T09:59:00.000Z</time>
      </trkpt>
      <trkpt lat="46.17979" lon="6.40447">
        <ele>951.72</ele>
        <time>2019-08-25T09:59:04.000Z</time>
      </trkpt>
      <trkpt lat="46.17973" lon="6.40435">
        <ele>951.83</ele>
        <time>2019-08-25T09:59:08.000Z</time>
      </trkpt>
      <trkpt lat="46.17969" lon="6.40423">
        <ele>951.69</ele>
        <time>2019-08-25T09:59:14.000Z</time>
      </trkpt>
      <trkpt lat="46.17961" lon="6.40413">
        <ele>951.06</ele>
        <time>2019-08-25T09:59:18.000Z</time>
      </trkpt>
      <trkpt lat="46.17951" lon="6.40405">
        <ele>950.13</ele>
        <time>2019-08-25T09:59:21.000Z</time>
      </trkpt>
      <trkpt lat="46.17942" lon="6.40397">
        <ele>949.53</ele>
        <time>2019-08-25T09:59:24.000Z</time>
      </trkpt>
      <trkpt lat="46.17933" lon="6.40389">
        <ele>949.77</ele>
        <time>2019-08-25T09:59:27.000Z</time>
      </trkpt>
      <trkpt lat="46.17924" lon="6.40383">
        <ele>950.15</ele>
        <time>2019-08-25T09:59:34.000Z</time>
      </trkpt>
      <trkpt lat="46.17916" lon="6.40375">
        <ele>951.14</ele>
        <time>2019-08-25T09:59:37.000Z</time>
      </trkpt>
      <trkpt lat="46.17906" lon="6.40369">
        <ele>951.56</ele>
        <time>2019-08-25T09:59:42.000Z</time>
      </trkpt>
      <trkpt lat="46.17897" lon="6.40362">
        <ele>951.61</ele>
        <time>2019-08-25T09:59:47.000Z</time>
      </trkpt>
      <trkpt lat="46.17886" lon="6.40362">
        <ele>952.61</ele>
        <time>2019-08-25T09:59:56.000Z</time>
      </trkpt>
      <trkpt lat="46.17878" lon="6.40367">
        <ele>953.52</ele>
        <time>2019-08-25T10:00:14.000Z</time>
      </trkpt>
      <trkpt lat="46.17867" lon="6.40365">
        <ele>954.36</ele>
        <time>2019-08-25T10:00:29.000Z</time>
      </trkpt>
      <trkpt lat="46.17855" lon="6.40362">
        <ele>954.8</ele>
        <time>2019-08-25T10:00:35.000Z</time>
      </trkpt>
      <trkpt lat="46.17833" lon="6.40347">
        <ele>955.08</ele>
        <time>2019-08-25T10:00:39.000Z</time>
      </trkpt>
      <trkpt lat="46.17822" lon="6.40338">
        <ele>955.5</ele>
        <time>2019-08-25T10:00:42.000Z</time>
      </trkpt>
      <trkpt lat="46.17813" lon="6.40333">
        <ele>955.74</ele>
        <time>2019-08-25T10:00:44.000Z</time>
      </trkpt>
      <trkpt lat="46.17803" lon="6.40328">
        <ele>955.93</ele>
        <time>2019-08-25T10:00:46.000Z</time>
      </trkpt>
      <trkpt lat="46.17793" lon="6.40323">
        <ele>956.02</ele>
        <time>2019-08-25T10:00:48.000Z</time>
      </trkpt>
      <trkpt lat="46.17782" lon="6.40309">
        <ele>956.32</ele>
        <time>2019-08-25T10:00:52.000Z</time>
      </trkpt>
      <trkpt lat="46.17769" lon="6.40278">
        <ele>955.81</ele>
        <time>2019-08-25T10:00:55.000Z</time>
      </trkpt>
      <trkpt lat="46.17762" lon="6.40255">
        <ele>954.16</ele>
        <time>2019-08-25T10:00:59.000Z</time>
      </trkpt>
      <trkpt lat="46.17752" lon="6.40238">
        <ele>950.08</ele>
        <time>2019-08-25T10:01:04.000Z</time>
      </trkpt>
      <trkpt lat="46.17747" lon="6.40222">
        <ele>948.99</ele>
        <time>2019-08-25T10:01:06.000Z</time>
      </trkpt>
      <trkpt lat="46.17748" lon="6.40209">
        <ele>947.56</ele>
        <time>2019-08-25T10:01:08.000Z</time>
      </trkpt>
      <trkpt lat="46.17743" lon="6.40184">
        <ele>945.84</ele>
        <time>2019-08-25T10:01:12.000Z</time>
      </trkpt>
      <trkpt lat="46.17737" lon="6.40164">
        <ele>945.7</ele>
        <time>2019-08-25T10:01:16.000Z</time>
      </trkpt>
      <trkpt lat="46.17736" lon="6.4015">
        <ele>945.62</ele>
        <time>2019-08-25T10:01:17.000Z</time>
      </trkpt>
      <trkpt lat="46.17733" lon="6.40129">
        <ele>945.23</ele>
        <time>2019-08-25T10:01:20.000Z</time>
      </trkpt>
      <trkpt lat="46.17727" lon="6.40119">
        <ele>945.07</ele>
        <time>2019-08-25T10:01:22.000Z</time>
      </trkpt>
      <trkpt lat="46.17722" lon="6.40105">
        <ele>945.14</ele>
        <time>2019-08-25T10:01:26.000Z</time>
      </trkpt>
      <trkpt lat="46.17717" lon="6.40089">
        <ele>945.47</ele>
        <time>2019-08-25T10:01:28.000Z</time>
      </trkpt>
      <trkpt lat="46.17705" lon="6.40074">
        <ele>945.2</ele>
        <time>2019-08-25T10:01:34.000Z</time>
      </trkpt>
      <trkpt lat="46.17697" lon="6.40065">
        <ele>945.55</ele>
        <time>2019-08-25T10:01:36.000Z</time>
      </trkpt>
      <trkpt lat="46.17687" lon="6.40053">
        <ele>945.96</ele>
        <time>2019-08-25T10:01:39.000Z</time>
      </trkpt>
      <trkpt lat="46.17671" lon="6.40029">
        <ele>946.52</ele>
        <time>2019-08-25T10:01:42.000Z</time>
      </trkpt>
      <trkpt lat="46.17663" lon="6.40018">
        <ele>946.67</ele>
        <time>2019-08-25T10:01:45.000Z</time>
      </trkpt>
      <trkpt lat="46.17654" lon="6.40007">
        <ele>946.87</ele>
        <time>2019-08-25T10:01:47.000Z</time>
      </trkpt>
      <trkpt lat="46.17645" lon="6.39993">
        <ele>946.98</ele>
        <time>2019-08-25T10:01:49.000Z</time>
      </trkpt>
      <trkpt lat="46.17636" lon="6.39979">
        <ele>946.94</ele>
        <time>2019-08-25T10:01:51.000Z</time>
      </trkpt>
      <trkpt lat="46.17629" lon="6.39968">
        <ele>946.8</ele>
        <time>2019-08-25T10:01:52.000Z</time>
      </trkpt>
      <trkpt lat="46.1762" lon="6.39951">
        <ele>946.33</ele>
        <time>2019-08-25T10:01:54.000Z</time>
      </trkpt>
      <trkpt lat="46.17606" lon="6.39929">
        <ele>945.37</ele>
        <time>2019-08-25T10:01:57.000Z</time>
      </trkpt>
      <trkpt lat="46.17599" lon="6.39912">
        <ele>944.29</ele>
        <time>2019-08-25T10:02:00.000Z</time>
      </trkpt>
      <trkpt lat="46.17585" lon="6.399">
        <ele>943.2</ele>
        <time>2019-08-25T10:02:03.000Z</time>
      </trkpt>
      <trkpt lat="46.17568" lon="6.39894">
        <ele>942.01</ele>
        <time>2019-08-25T10:02:06.000Z</time>
      </trkpt>
      <trkpt lat="46.1755" lon="6.39893">
        <ele>940.64</ele>
        <time>2019-08-25T10:02:09.000Z</time>
      </trkpt>
      <trkpt lat="46.17537" lon="6.3989">
        <ele>939.82</ele>
        <time>2019-08-25T10:02:11.000Z</time>
      </trkpt>
      <trkpt lat="46.17522" lon="6.39887">
        <ele>939.11</ele>
        <time>2019-08-25T10:02:13.000Z</time>
      </trkpt>
      <trkpt lat="46.17508" lon="6.39884">
        <ele>938.49</ele>
        <time>2019-08-25T10:02:15.000Z</time>
      </trkpt>
      <trkpt lat="46.17493" lon="6.39878">
        <ele>937.88</ele>
        <time>2019-08-25T10:02:17.000Z</time>
      </trkpt>
      <trkpt lat="46.17469" lon="6.39872">
        <ele>936.86</ele>
        <time>2019-08-25T10:02:20.000Z</time>
      </trkpt>
      <trkpt lat="46.17445" lon="6.39863">
        <ele>935.89</ele>
        <time>2019-08-25T10:02:23.000Z</time>
      </trkpt>
      <trkpt lat="46.17426" lon="6.39854">
        <ele>934.78</ele>
        <time>2019-08-25T10:02:26.000Z</time>
      </trkpt>
      <trkpt lat="46.17416" lon="6.39875">
        <ele>933.3</ele>
        <time>2019-08-25T10:02:29.000Z</time>
      </trkpt>
      <trkpt lat="46.17405" lon="6.39882">
        <ele>929.6</ele>
        <time>2019-08-25T10:02:37.000Z</time>
      </trkpt>
      <trkpt lat="46.17385" lon="6.3988">
        <ele>927.81</ele>
        <time>2019-08-25T10:02:40.000Z</time>
      </trkpt>
      <trkpt lat="46.17364" lon="6.39883">
        <ele>926.23</ele>
        <time>2019-08-25T10:02:43.000Z</time>
      </trkpt>
      <trkpt lat="46.1735" lon="6.39884">
        <ele>925.56</ele>
        <time>2019-08-25T10:02:45.000Z</time>
      </trkpt>
      <trkpt lat="46.17337" lon="6.39885">
        <ele>925.11</ele>
        <time>2019-08-25T10:02:47.000Z</time>
      </trkpt>
      <trkpt lat="46.17322" lon="6.39883">
        <ele>924.32</ele>
        <time>2019-08-25T10:02:49.000Z</time>
      </trkpt>
      <trkpt lat="46.17307" lon="6.39883">
        <ele>923.09</ele>
        <time>2019-08-25T10:02:52.000Z</time>
      </trkpt>
      <trkpt lat="46.17288" lon="6.39885">
        <ele>920.82</ele>
        <time>2019-08-25T10:02:57.000Z</time>
      </trkpt>
      <trkpt lat="46.17274" lon="6.39892">
        <ele>918.88</ele>
        <time>2019-08-25T10:03:00.000Z</time>
      </trkpt>
      <trkpt lat="46.17263" lon="6.39893">
        <ele>916.92</ele>
        <time>2019-08-25T10:03:02.000Z</time>
      </trkpt>
      <trkpt lat="46.1725" lon="6.39893">
        <ele>914.77</ele>
        <time>2019-08-25T10:03:04.000Z</time>
      </trkpt>
      <trkpt lat="46.17237" lon="6.3989">
        <ele>912.82</ele>
        <time>2019-08-25T10:03:06.000Z</time>
      </trkpt>
      <trkpt lat="46.17224" lon="6.39888">
        <ele>910.37</ele>
        <time>2019-08-25T10:03:09.000Z</time>
      </trkpt>
      <trkpt lat="46.17214" lon="6.39875">
        <ele>908.71</ele>
        <time>2019-08-25T10:03:12.000Z</time>
      </trkpt>
      <trkpt lat="46.17203" lon="6.39854">
        <ele>907.14</ele>
        <time>2019-08-25T10:03:15.000Z</time>
      </trkpt>
      <trkpt lat="46.17186" lon="6.39833">
        <ele>905.75</ele>
        <time>2019-08-25T10:03:18.000Z</time>
      </trkpt>
      <trkpt lat="46.17173" lon="6.39816">
        <ele>905.03</ele>
        <time>2019-08-25T10:03:20.000Z</time>
      </trkpt>
      <trkpt lat="46.17167" lon="6.39807">
        <ele>904.67</ele>
        <time>2019-08-25T10:03:21.000Z</time>
      </trkpt>
      <trkpt lat="46.1716" lon="6.39798">
        <ele>904.19</ele>
        <time>2019-08-25T10:03:22.000Z</time>
      </trkpt>
      <trkpt lat="46.17149" lon="6.39776">
        <ele>903.15</ele>
        <time>2019-08-25T10:03:24.000Z</time>
      </trkpt>
      <trkpt lat="46.17139" lon="6.39758">
        <ele>901.65</ele>
        <time>2019-08-25T10:03:26.000Z</time>
      </trkpt>
      <trkpt lat="46.17127" lon="6.39742">
        <ele>900.3</ele>
        <time>2019-08-25T10:03:28.000Z</time>
      </trkpt>
      <trkpt lat="46.17116" lon="6.39725">
        <ele>899.26</ele>
        <time>2019-08-25T10:03:30.000Z</time>
      </trkpt>
      <trkpt lat="46.17106" lon="6.39707">
        <ele>898.54</ele>
        <time>2019-08-25T10:03:32.000Z</time>
      </trkpt>
      <trkpt lat="46.17096" lon="6.39693">
        <ele>897.94</ele>
        <time>2019-08-25T10:03:34.000Z</time>
      </trkpt>
      <trkpt lat="46.17083" lon="6.39685">
        <ele>897.59</ele>
        <time>2019-08-25T10:03:36.000Z</time>
      </trkpt>
      <trkpt lat="46.17072" lon="6.39676">
        <ele>897.33</ele>
        <time>2019-08-25T10:03:38.000Z</time>
      </trkpt>
      <trkpt lat="46.17062" lon="6.39663">
        <ele>896.97</ele>
        <time>2019-08-25T10:03:40.000Z</time>
      </trkpt>
      <trkpt lat="46.17052" lon="6.3965">
        <ele>896.66</ele>
        <time>2019-08-25T10:03:42.000Z</time>
      </trkpt>
      <trkpt lat="46.17044" lon="6.39637">
        <ele>896.19</ele>
        <time>2019-08-25T10:03:44.000Z</time>
      </trkpt>
      <trkpt lat="46.17036" lon="6.39621">
        <ele>895.82</ele>
        <time>2019-08-25T10:03:46.000Z</time>
      </trkpt>
      <trkpt lat="46.17029" lon="6.39602">
        <ele>895.41</ele>
        <time>2019-08-25T10:03:48.000Z</time>
      </trkpt>
      <trkpt lat="46.17023" lon="6.39587">
        <ele>894.97</ele>
        <time>2019-08-25T10:03:50.000Z</time>
      </trkpt>
      <trkpt lat="46.17016" lon="6.39561">
        <ele>893.91</ele>
        <time>2019-08-25T10:03:53.000Z</time>
      </trkpt>
      <trkpt lat="46.1701" lon="6.39548">
        <ele>893.09</ele>
        <time>2019-08-25T10:03:55.000Z</time>
      </trkpt>
      <trkpt lat="46.17001" lon="6.39534">
        <ele>892.3</ele>
        <time>2019-08-25T10:03:57.000Z</time>
      </trkpt>
      <trkpt lat="46.16988" lon="6.39526">
        <ele>891.69</ele>
        <time>2019-08-25T10:03:59.000Z</time>
      </trkpt>
      <trkpt lat="46.16976" lon="6.39518">
        <ele>891.02</ele>
        <time>2019-08-25T10:04:01.000Z</time>
      </trkpt>
      <trkpt lat="46.16966" lon="6.39495">
        <ele>889.49</ele>
        <time>2019-08-25T10:04:04.000Z</time>
      </trkpt>
      <trkpt lat="46.16959" lon="6.39481">
        <ele>888.01</ele>
        <time>2019-08-25T10:04:06.000Z</time>
      </trkpt>
      <trkpt lat="46.16949" lon="6.39467">
        <ele>886.45</ele>
        <time>2019-08-25T10:04:08.000Z</time>
      </trkpt>
      <trkpt lat="46.16936" lon="6.39456">
        <ele>884.8</ele>
        <time>2019-08-25T10:04:10.000Z</time>
      </trkpt>
      <trkpt lat="46.16924" lon="6.3944">
        <ele>883.33</ele>
        <time>2019-08-25T10:04:12.000Z</time>
      </trkpt>
      <trkpt lat="46.16919" lon="6.39429">
        <ele>882.43</ele>
        <time>2019-08-25T10:04:13.000Z</time>
      </trkpt>
      <trkpt lat="46.16906" lon="6.39397">
        <ele>879.73</ele>
        <time>2019-08-25T10:04:16.000Z</time>
      </trkpt>
      <trkpt lat="46.16892" lon="6.39362">
        <ele>877.04</ele>
        <time>2019-08-25T10:04:19.000Z</time>
      </trkpt>
      <trkpt lat="46.16888" lon="6.39349">
        <ele>876.39</ele>
        <time>2019-08-25T10:04:20.000Z</time>
      </trkpt>
      <trkpt lat="46.16881" lon="6.39323">
        <ele>875.24</ele>
        <time>2019-08-25T10:04:22.000Z</time>
      </trkpt>
      <trkpt lat="46.16877" lon="6.39294">
        <ele>874.18</ele>
        <time>2019-08-25T10:04:24.000Z</time>
      </trkpt>
      <trkpt lat="46.16878" lon="6.39279">
        <ele>873.7</ele>
        <time>2019-08-25T10:04:25.000Z</time>
      </trkpt>
      <trkpt lat="46.16879" lon="6.39265">
        <ele>873.14</ele>
        <time>2019-08-25T10:04:26.000Z</time>
      </trkpt>
      <trkpt lat="46.16883" lon="6.39234">
        <ele>871.96</ele>
        <time>2019-08-25T10:04:28.000Z</time>
      </trkpt>
      <trkpt lat="46.16887" lon="6.39204">
        <ele>870.79</ele>
        <time>2019-08-25T10:04:30.000Z</time>
      </trkpt>
      <trkpt lat="46.16888" lon="6.39188">
        <ele>870.15</ele>
        <time>2019-08-25T10:04:31.000Z</time>
      </trkpt>
      <trkpt lat="46.16893" lon="6.39151">
        <ele>868.79</ele>
        <time>2019-08-25T10:04:33.000Z</time>
      </trkpt>
      <trkpt lat="46.16896" lon="6.39117">
        <ele>867.44</ele>
        <time>2019-08-25T10:04:35.000Z</time>
      </trkpt>
      <trkpt lat="46.16899" lon="6.39086">
        <ele>865.9</ele>
        <time>2019-08-25T10:04:37.000Z</time>
      </trkpt>
      <trkpt lat="46.16899" lon="6.39058">
        <ele>864.57</ele>
        <time>2019-08-25T10:04:39.000Z</time>
      </trkpt>
      <trkpt lat="46.169" lon="6.39044">
        <ele>863.94</ele>
        <time>2019-08-25T10:04:40.000Z</time>
      </trkpt>
      <trkpt lat="46.16905" lon="6.39017">
        <ele>862.58</ele>
        <time>2019-08-25T10:04:42.000Z</time>
      </trkpt>
      <trkpt lat="46.16906" lon="6.39003">
        <ele>862.03</ele>
        <time>2019-08-25T10:04:43.000Z</time>
      </trkpt>
      <trkpt lat="46.16904" lon="6.38979">
        <ele>860.8</ele>
        <time>2019-08-25T10:04:45.000Z</time>
      </trkpt>
      <trkpt lat="46.16908" lon="6.38958">
        <ele>858.82</ele>
        <time>2019-08-25T10:04:48.000Z</time>
      </trkpt>
      <trkpt lat="46.16918" lon="6.38952">
        <ele>856.93</ele>
        <time>2019-08-25T10:04:51.000Z</time>
      </trkpt>
      <trkpt lat="46.16929" lon="6.3895">
        <ele>854.22</ele>
        <time>2019-08-25T10:04:56.000Z</time>
      </trkpt>
      <trkpt lat="46.16938" lon="6.38946">
        <ele>852.78</ele>
        <time>2019-08-25T10:05:02.000Z</time>
      </trkpt>
      <trkpt lat="46.16947" lon="6.38938">
        <ele>854.38</ele>
        <time>2019-08-25T10:05:08.000Z</time>
      </trkpt>
      <trkpt lat="46.16955" lon="6.38933">
        <ele>857.23</ele>
        <time>2019-08-25T10:05:14.000Z</time>
      </trkpt>
      <trkpt lat="46.16966" lon="6.38925">
        <ele>860.61</ele>
        <time>2019-08-25T10:05:22.000Z</time>
      </trkpt>
      <trkpt lat="46.16976" lon="6.38915">
        <ele>862.67</ele>
        <time>2019-08-25T10:05:28.000Z</time>
      </trkpt>
      <trkpt lat="46.16985" lon="6.38906">
        <ele>864.48</ele>
        <time>2019-08-25T10:05:34.000Z</time>
      </trkpt>
      <trkpt lat="46.16995" lon="6.389">
        <ele>866.87</ele>
        <time>2019-08-25T10:05:41.000Z</time>
      </trkpt>
      <trkpt lat="46.17004" lon="6.38898">
        <ele>871.53</ele>
        <time>2019-08-25T10:06:01.000Z</time>
      </trkpt>
      <trkpt lat="46.17014" lon="6.38889">
        <ele>873.29</ele>
        <time>2019-08-25T10:06:10.000Z</time>
      </trkpt>
      <trkpt lat="46.17023" lon="6.38882">
        <ele>875.03</ele>
        <time>2019-08-25T10:06:16.000Z</time>
      </trkpt>
      <trkpt lat="46.17037" lon="6.38878">
        <ele>876.73</ele>
        <time>2019-08-25T10:06:22.000Z</time>
      </trkpt>
      <trkpt lat="46.17048" lon="6.38873">
        <ele>877.93</ele>
        <time>2019-08-25T10:06:28.000Z</time>
      </trkpt>
      <trkpt lat="46.17059" lon="6.38869">
        <ele>878.76</ele>
        <time>2019-08-25T10:06:33.000Z</time>
      </trkpt>
      <trkpt lat="46.17071" lon="6.38866">
        <ele>879.61</ele>
        <time>2019-08-25T10:06:39.000Z</time>
      </trkpt>
      <trkpt lat="46.17081" lon="6.38864">
        <ele>880.5</ele>
        <time>2019-08-25T10:06:44.000Z</time>
      </trkpt>
      <trkpt lat="46.17092" lon="6.38864">
        <ele>884.88</ele>
        <time>2019-08-25T10:07:23.000Z</time>
      </trkpt>
      <trkpt lat="46.17101" lon="6.38856">
        <ele>885.76</ele>
        <time>2019-08-25T10:07:32.000Z</time>
      </trkpt>
      <trkpt lat="46.17111" lon="6.38854">
        <ele>886.88</ele>
        <time>2019-08-25T10:07:38.000Z</time>
      </trkpt>
      <trkpt lat="46.17123" lon="6.3885">
        <ele>888.28</ele>
        <time>2019-08-25T10:07:44.000Z</time>
      </trkpt>
      <trkpt lat="46.17132" lon="6.38843">
        <ele>890.05</ele>
        <time>2019-08-25T10:07:49.000Z</time>
      </trkpt>
      <trkpt lat="46.17143" lon="6.38837">
        <ele>891.77</ele>
        <time>2019-08-25T10:07:55.000Z</time>
      </trkpt>
      <trkpt lat="46.17154" lon="6.38829">
        <ele>893.33</ele>
        <time>2019-08-25T10:08:01.000Z</time>
      </trkpt>
      <trkpt lat="46.17163" lon="6.38823">
        <ele>894.1</ele>
        <time>2019-08-25T10:08:05.000Z</time>
      </trkpt>
      <trkpt lat="46.17172" lon="6.38818">
        <ele>894.94</ele>
        <time>2019-08-25T10:08:09.000Z</time>
      </trkpt>
      <trkpt lat="46.17183" lon="6.38814">
        <ele>896.14</ele>
        <time>2019-08-25T10:08:14.000Z</time>
      </trkpt>
      <trkpt lat="46.17196" lon="6.38811">
        <ele>897.37</ele>
        <time>2019-08-25T10:08:20.000Z</time>
      </trkpt>
      <trkpt lat="46.17209" lon="6.38807">
        <ele>898.25</ele>
        <time>2019-08-25T10:08:24.000Z</time>
      </trkpt>
      <trkpt lat="46.17221" lon="6.38804">
        <ele>898.86</ele>
        <time>2019-08-25T10:08:27.000Z</time>
      </trkpt>
      <trkpt lat="46.1723" lon="6.388">
        <ele>899.37</ele>
        <time>2019-08-25T10:08:30.000Z</time>
      </trkpt>
      <trkpt lat="46.17244" lon="6.38795">
        <ele>900.42</ele>
        <time>2019-08-25T10:08:35.000Z</time>
      </trkpt>
      <trkpt lat="46.17256" lon="6.38791">
        <ele>901.4</ele>
        <time>2019-08-25T10:08:39.000Z</time>
      </trkpt>
      <trkpt lat="46.17266" lon="6.38784">
        <ele>902.93</ele>
        <time>2019-08-25T10:08:45.000Z</time>
      </trkpt>
      <trkpt lat="46.17276" lon="6.38779">
        <ele>904.2</ele>
        <time>2019-08-25T10:08:49.000Z</time>
      </trkpt>
      <trkpt lat="46.17289" lon="6.38782">
        <ele>906.86</ele>
        <time>2019-08-25T10:08:56.000Z</time>
      </trkpt>
      <trkpt lat="46.173" lon="6.38782">
        <ele>908.37</ele>
        <time>2019-08-25T10:09:00.000Z</time>
      </trkpt>
      <trkpt lat="46.1731" lon="6.38779">
        <ele>909.4</ele>
        <time>2019-08-25T10:09:03.000Z</time>
      </trkpt>
      <trkpt lat="46.17321" lon="6.38775">
        <ele>910.4</ele>
        <time>2019-08-25T10:09:07.000Z</time>
      </trkpt>
      <trkpt lat="46.17334" lon="6.38774">
        <ele>910.79</ele>
        <time>2019-08-25T10:09:11.000Z</time>
      </trkpt>
      <trkpt lat="46.17346" lon="6.38773">
        <ele>911.6</ele>
        <time>2019-08-25T10:09:15.000Z</time>
      </trkpt>
      <trkpt lat="46.17359" lon="6.3877">
        <ele>913.33</ele>
        <time>2019-08-25T10:09:21.000Z</time>
      </trkpt>
      <trkpt lat="46.17367" lon="6.38763">
        <ele>914.88</ele>
        <time>2019-08-25T10:09:25.000Z</time>
      </trkpt>
      <trkpt lat="46.17375" lon="6.38754">
        <ele>916.39</ele>
        <time>2019-08-25T10:09:29.000Z</time>
      </trkpt>
      <trkpt lat="46.17383" lon="6.38748">
        <ele>917.43</ele>
        <time>2019-08-25T10:09:33.000Z</time>
      </trkpt>
      <trkpt lat="46.17389" lon="6.38737">
        <ele>919.59</ele>
        <time>2019-08-25T10:09:39.000Z</time>
      </trkpt>
      <trkpt lat="46.17381" lon="6.38727">
        <ele>922.02</ele>
        <time>2019-08-25T10:09:46.000Z</time>
      </trkpt>
      <trkpt lat="46.17369" lon="6.38721">
        <ele>923.76</ele>
        <time>2019-08-25T10:09:52.000Z</time>
      </trkpt>
      <trkpt lat="46.1736" lon="6.38725">
        <ele>926.87</ele>
        <time>2019-08-25T10:10:08.000Z</time>
      </trkpt>
      <trkpt lat="46.1735" lon="6.38721">
        <ele>927.31</ele>
        <time>2019-08-25T10:10:14.000Z</time>
      </trkpt>
      <trkpt lat="46.17336" lon="6.38718">
        <ele>927.93</ele>
        <time>2019-08-25T10:10:20.000Z</time>
      </trkpt>
      <trkpt lat="46.17326" lon="6.38715">
        <ele>928.44</ele>
        <time>2019-08-25T10:10:24.000Z</time>
      </trkpt>
      <trkpt lat="46.17313" lon="6.38709">
        <ele>929.07</ele>
        <time>2019-08-25T10:10:29.000Z</time>
      </trkpt>
      <trkpt lat="46.17302" lon="6.38704">
        <ele>929.24</ele>
        <time>2019-08-25T10:10:33.000Z</time>
      </trkpt>
      <trkpt lat="46.17293" lon="6.38705">
        <ele>929.21</ele>
        <time>2019-08-25T10:10:36.000Z</time>
      </trkpt>
      <trkpt lat="46.17283" lon="6.38705">
        <ele>929.7</ele>
        <time>2019-08-25T10:10:42.000Z</time>
      </trkpt>
      <trkpt lat="46.17272" lon="6.38703">
        <ele>931.37</ele>
        <time>2019-08-25T10:10:49.000Z</time>
      </trkpt>
      <trkpt lat="46.17263" lon="6.38703">
        <ele>933.49</ele>
        <time>2019-08-25T10:10:54.000Z</time>
      </trkpt>
      <trkpt lat="46.17253" lon="6.38703">
        <ele>935.02</ele>
        <time>2019-08-25T10:10:59.000Z</time>
      </trkpt>
      <trkpt lat="46.17244" lon="6.38703">
        <ele>936.08</ele>
        <time>2019-08-25T10:11:04.000Z</time>
      </trkpt>
      <trkpt lat="46.17233" lon="6.38703">
        <ele>936.74</ele>
        <time>2019-08-25T10:11:09.000Z</time>
      </trkpt>
      <trkpt lat="46.17223" lon="6.38703">
        <ele>937</ele>
        <time>2019-08-25T10:11:14.000Z</time>
      </trkpt>
      <trkpt lat="46.17207" lon="6.38703">
        <ele>935.02</ele>
        <time>2019-08-25T10:11:20.000Z</time>
      </trkpt>
      <trkpt lat="46.17196" lon="6.38704">
        <ele>933.64</ele>
        <time>2019-08-25T10:11:24.000Z</time>
      </trkpt>
      <trkpt lat="46.17186" lon="6.38708">
        <ele>932.31</ele>
        <time>2019-08-25T10:11:28.000Z</time>
      </trkpt>
      <trkpt lat="46.17171" lon="6.38714">
        <ele>931.24</ele>
        <time>2019-08-25T10:11:33.000Z</time>
      </trkpt>
      <trkpt lat="46.1716" lon="6.38718">
        <ele>931.22</ele>
        <time>2019-08-25T10:11:37.000Z</time>
      </trkpt>
      <trkpt lat="46.17149" lon="6.38725">
        <ele>930.74</ele>
        <time>2019-08-25T10:11:42.000Z</time>
      </trkpt>
      <trkpt lat="46.17138" lon="6.38732">
        <ele>930.41</ele>
        <time>2019-08-25T10:11:45.000Z</time>
      </trkpt>
      <trkpt lat="46.17129" lon="6.3873">
        <ele>930.25</ele>
        <time>2019-08-25T10:11:48.000Z</time>
      </trkpt>
      <trkpt lat="46.1712" lon="6.38725">
        <ele>930.38</ele>
        <time>2019-08-25T10:11:51.000Z</time>
      </trkpt>
      <trkpt lat="46.17107" lon="6.38722">
        <ele>931.14</ele>
        <time>2019-08-25T10:11:57.000Z</time>
      </trkpt>
      <trkpt lat="46.17096" lon="6.38727">
        <ele>931.59</ele>
        <time>2019-08-25T10:12:01.000Z</time>
      </trkpt>
      <trkpt lat="46.17084" lon="6.38732">
        <ele>931.68</ele>
        <time>2019-08-25T10:12:05.000Z</time>
      </trkpt>
      <trkpt lat="46.1707" lon="6.38741">
        <ele>929.78</ele>
        <time>2019-08-25T10:12:09.000Z</time>
      </trkpt>
      <trkpt lat="46.17053" lon="6.38749">
        <ele>926.95</ele>
        <time>2019-08-25T10:12:13.000Z</time>
      </trkpt>
      <trkpt lat="46.1704" lon="6.38753">
        <ele>924.18</ele>
        <time>2019-08-25T10:12:17.000Z</time>
      </trkpt>
      <trkpt lat="46.17029" lon="6.38753">
        <ele>921.53</ele>
        <time>2019-08-25T10:12:21.000Z</time>
      </trkpt>
      <trkpt lat="46.17017" lon="6.38755">
        <ele>920.28</ele>
        <time>2019-08-25T10:12:23.000Z</time>
      </trkpt>
      <trkpt lat="46.17" lon="6.38763">
        <ele>917.63</ele>
        <time>2019-08-25T10:12:27.000Z</time>
      </trkpt>
      <trkpt lat="46.16991" lon="6.38762">
        <ele>916.48</ele>
        <time>2019-08-25T10:12:30.000Z</time>
      </trkpt>
      <trkpt lat="46.1698" lon="6.38753">
        <ele>915.36</ele>
        <time>2019-08-25T10:12:36.000Z</time>
      </trkpt>
      <trkpt lat="46.16972" lon="6.38748">
        <ele>913.54</ele>
        <time>2019-08-25T10:13:42.000Z</time>
      </trkpt>
      <trkpt lat="46.16961" lon="6.38738">
        <ele>918.7</ele>
        <time>2019-08-25T10:14:18.000Z</time>
      </trkpt>
      <trkpt lat="46.16961" lon="6.38725">
        <ele>923.62</ele>
        <time>2019-08-25T10:14:57.000Z</time>
      </trkpt>
      <trkpt lat="46.16953" lon="6.38715">
        <ele>928.93</ele>
        <time>2019-08-25T10:15:24.000Z</time>
      </trkpt>
      <trkpt lat="46.16943" lon="6.38718">
        <ele>930.97</ele>
        <time>2019-08-25T10:15:38.000Z</time>
      </trkpt>
      <trkpt lat="46.16941" lon="6.38703">
        <ele>934.08</ele>
        <time>2019-08-25T10:16:00.000Z</time>
      </trkpt>
      <trkpt lat="46.16932" lon="6.387">
        <ele>937.42</ele>
        <time>2019-08-25T10:16:14.000Z</time>
      </trkpt>
      <trkpt lat="46.16923" lon="6.38699">
        <ele>940.69</ele>
        <time>2019-08-25T10:16:33.000Z</time>
      </trkpt>
      <trkpt lat="46.16914" lon="6.38698">
        <ele>942.16</ele>
        <time>2019-08-25T10:16:43.000Z</time>
      </trkpt>
      <trkpt lat="46.16905" lon="6.38692">
        <ele>944.02</ele>
        <time>2019-08-25T10:16:51.000Z</time>
      </trkpt>
      <trkpt lat="46.16897" lon="6.38688">
        <ele>945.66</ele>
        <time>2019-08-25T10:16:56.000Z</time>
      </trkpt>
      <trkpt lat="46.16885" lon="6.38688">
        <ele>947.46</ele>
        <time>2019-08-25T10:17:02.000Z</time>
      </trkpt>
      <trkpt lat="46.16873" lon="6.38693">
        <ele>947.66</ele>
        <time>2019-08-25T10:17:08.000Z</time>
      </trkpt>
      <trkpt lat="46.16862" lon="6.387">
        <ele>946.31</ele>
        <time>2019-08-25T10:17:15.000Z</time>
      </trkpt>
      <trkpt lat="46.16852" lon="6.38703">
        <ele>944.44</ele>
        <time>2019-08-25T10:17:19.000Z</time>
      </trkpt>
      <trkpt lat="46.16835" lon="6.38704">
        <ele>943</ele>
        <time>2019-08-25T10:17:23.000Z</time>
      </trkpt>
      <trkpt lat="46.16821" lon="6.38706">
        <ele>942.25</ele>
        <time>2019-08-25T10:17:27.000Z</time>
      </trkpt>
      <trkpt lat="46.16807" lon="6.38702">
        <ele>940.92</ele>
        <time>2019-08-25T10:17:31.000Z</time>
      </trkpt>
      <trkpt lat="46.16796" lon="6.38695">
        <ele>940.42</ele>
        <time>2019-08-25T10:17:33.000Z</time>
      </trkpt>
      <trkpt lat="46.16787" lon="6.38694">
        <ele>938.26</ele>
        <time>2019-08-25T10:17:44.000Z</time>
      </trkpt>
      <trkpt lat="46.16778" lon="6.38686">
        <ele>940.28</ele>
        <time>2019-08-25T10:18:05.000Z</time>
      </trkpt>
      <trkpt lat="46.16772" lon="6.38675">
        <ele>943.07</ele>
        <time>2019-08-25T10:18:18.000Z</time>
      </trkpt>
      <trkpt lat="46.16767" lon="6.38662">
        <ele>946.99</ele>
        <time>2019-08-25T10:18:33.000Z</time>
      </trkpt>
      <trkpt lat="46.16758" lon="6.38656">
        <ele>950.85</ele>
        <time>2019-08-25T10:18:47.000Z</time>
      </trkpt>
      <trkpt lat="46.1675" lon="6.3865">
        <ele>953.7</ele>
        <time>2019-08-25T10:19:04.000Z</time>
      </trkpt>
      <trkpt lat="46.16743" lon="6.38643">
        <ele>956.09</ele>
        <time>2019-08-25T10:19:15.000Z</time>
      </trkpt>
      <trkpt lat="46.16733" lon="6.38641">
        <ele>958.39</ele>
        <time>2019-08-25T10:19:27.000Z</time>
      </trkpt>
      <trkpt lat="46.16727" lon="6.38629">
        <ele>961.22</ele>
        <time>2019-08-25T10:19:40.000Z</time>
      </trkpt>
      <trkpt lat="46.16718" lon="6.38626">
        <ele>962.56</ele>
        <time>2019-08-25T10:19:47.000Z</time>
      </trkpt>
      <trkpt lat="46.16708" lon="6.38621">
        <ele>963.64</ele>
        <time>2019-08-25T10:19:51.000Z</time>
      </trkpt>
      <trkpt lat="46.16699" lon="6.38619">
        <ele>964.82</ele>
        <time>2019-08-25T10:19:56.000Z</time>
      </trkpt>
      <trkpt lat="46.1669" lon="6.38627">
        <ele>965.22</ele>
        <time>2019-08-25T10:20:02.000Z</time>
      </trkpt>
      <trkpt lat="46.16681" lon="6.38622">
        <ele>962.28</ele>
        <time>2019-08-25T10:20:11.000Z</time>
      </trkpt>
      <trkpt lat="46.16668" lon="6.38603">
        <ele>957.54</ele>
        <time>2019-08-25T10:20:25.000Z</time>
      </trkpt>
      <trkpt lat="46.16661" lon="6.38591">
        <ele>956.12</ele>
        <time>2019-08-25T10:20:34.000Z</time>
      </trkpt>
      <trkpt lat="46.16656" lon="6.3858">
        <ele>956.52</ele>
        <time>2019-08-25T10:20:40.000Z</time>
      </trkpt>
      <trkpt lat="46.16652" lon="6.38568">
        <ele>957.58</ele>
        <time>2019-08-25T10:20:46.000Z</time>
      </trkpt>
      <trkpt lat="46.16644" lon="6.38559">
        <ele>958.07</ele>
        <time>2019-08-25T10:20:50.000Z</time>
      </trkpt>
      <trkpt lat="46.16634" lon="6.38538">
        <ele>958.69</ele>
        <time>2019-08-25T10:20:53.000Z</time>
      </trkpt>
      <trkpt lat="46.16612" lon="6.38519">
        <ele>959.53</ele>
        <time>2019-08-25T10:20:56.000Z</time>
      </trkpt>
      <trkpt lat="46.16603" lon="6.3851">
        <ele>959.95</ele>
        <time>2019-08-25T10:20:58.000Z</time>
      </trkpt>
      <trkpt lat="46.16593" lon="6.38504">
        <ele>960.23</ele>
        <time>2019-08-25T10:21:00.000Z</time>
      </trkpt>
      <trkpt lat="46.16585" lon="6.38498">
        <ele>960.31</ele>
        <time>2019-08-25T10:21:02.000Z</time>
      </trkpt>
      <trkpt lat="46.16575" lon="6.385">
        <ele>960.45</ele>
        <time>2019-08-25T10:21:04.000Z</time>
      </trkpt>
      <trkpt lat="46.16561" lon="6.38504">
        <ele>960.29</ele>
        <time>2019-08-25T10:21:08.000Z</time>
      </trkpt>
      <trkpt lat="46.16549" lon="6.38503">
        <ele>960.03</ele>
        <time>2019-08-25T10:21:10.000Z</time>
      </trkpt>
      <trkpt lat="46.16531" lon="6.38499">
        <ele>959.45</ele>
        <time>2019-08-25T10:21:13.000Z</time>
      </trkpt>
      <trkpt lat="46.16521" lon="6.38495">
        <ele>959.22</ele>
        <time>2019-08-25T10:21:15.000Z</time>
      </trkpt>
      <trkpt lat="46.16512" lon="6.38499">
        <ele>959.08</ele>
        <time>2019-08-25T10:21:17.000Z</time>
      </trkpt>
      <trkpt lat="46.16507" lon="6.38521">
        <ele>959.09</ele>
        <time>2019-08-25T10:21:21.000Z</time>
      </trkpt>
      <trkpt lat="46.16495" lon="6.3854">
        <ele>959.17</ele>
        <time>2019-08-25T10:21:24.000Z</time>
      </trkpt>
      <trkpt lat="46.16477" lon="6.3855">
        <ele>959.37</ele>
        <time>2019-08-25T10:21:27.000Z</time>
      </trkpt>
      <trkpt lat="46.16462" lon="6.38553">
        <ele>959.26</ele>
        <time>2019-08-25T10:21:29.000Z</time>
      </trkpt>
      <trkpt lat="46.16445" lon="6.38563">
        <ele>959.04</ele>
        <time>2019-08-25T10:21:31.000Z</time>
      </trkpt>
      <trkpt lat="46.1643" lon="6.38569">
        <ele>958.58</ele>
        <time>2019-08-25T10:21:33.000Z</time>
      </trkpt>
      <trkpt lat="46.1641" lon="6.38576">
        <ele>957.5</ele>
        <time>2019-08-25T10:21:35.000Z</time>
      </trkpt>
      <trkpt lat="46.16396" lon="6.38586">
        <ele>956.36</ele>
        <time>2019-08-25T10:21:37.000Z</time>
      </trkpt>
      <trkpt lat="46.16381" lon="6.38586">
        <ele>955.34</ele>
        <time>2019-08-25T10:21:39.000Z</time>
      </trkpt>
      <trkpt lat="46.16362" lon="6.3858">
        <ele>954.28</ele>
        <time>2019-08-25T10:21:41.000Z</time>
      </trkpt>
      <trkpt lat="46.16338" lon="6.38564">
        <ele>952.43</ele>
        <time>2019-08-25T10:21:44.000Z</time>
      </trkpt>
      <trkpt lat="46.16321" lon="6.3855">
        <ele>950.5</ele>
        <time>2019-08-25T10:21:46.000Z</time>
      </trkpt>
      <trkpt lat="46.16315" lon="6.38541">
        <ele>949.33</ele>
        <time>2019-08-25T10:21:47.000Z</time>
      </trkpt>
      <trkpt lat="46.16293" lon="6.38531">
        <ele>945.66</ele>
        <time>2019-08-25T10:21:50.000Z</time>
      </trkpt>
      <trkpt lat="46.1628" lon="6.38532">
        <ele>943.38</ele>
        <time>2019-08-25T10:21:52.000Z</time>
      </trkpt>
      <trkpt lat="46.16268" lon="6.38534">
        <ele>940.33</ele>
        <time>2019-08-25T10:21:54.000Z</time>
      </trkpt>
      <trkpt lat="46.16251" lon="6.38534">
        <ele>937.01</ele>
        <time>2019-08-25T10:21:56.000Z</time>
      </trkpt>
      <trkpt lat="46.16236" lon="6.38532">
        <ele>933.28</ele>
        <time>2019-08-25T10:21:58.000Z</time>
      </trkpt>
      <trkpt lat="46.16221" lon="6.38526">
        <ele>929.58</ele>
        <time>2019-08-25T10:22:00.000Z</time>
      </trkpt>
      <trkpt lat="46.16193" lon="6.38517">
        <ele>925.3</ele>
        <time>2019-08-25T10:22:03.000Z</time>
      </trkpt>
      <trkpt lat="46.16172" lon="6.38512">
        <ele>923.04</ele>
        <time>2019-08-25T10:22:05.000Z</time>
      </trkpt>
      <trkpt lat="46.16161" lon="6.38509">
        <ele>922.1</ele>
        <time>2019-08-25T10:22:06.000Z</time>
      </trkpt>
      <trkpt lat="46.1615" lon="6.38506">
        <ele>921.15</ele>
        <time>2019-08-25T10:22:07.000Z</time>
      </trkpt>
      <trkpt lat="46.16132" lon="6.38506">
        <ele>919.75</ele>
        <time>2019-08-25T10:22:09.000Z</time>
      </trkpt>
      <trkpt lat="46.16109" lon="6.38488">
        <ele>917.26</ele>
        <time>2019-08-25T10:22:12.000Z</time>
      </trkpt>
      <trkpt lat="46.16092" lon="6.38468">
        <ele>914.57</ele>
        <time>2019-08-25T10:22:15.000Z</time>
      </trkpt>
      <trkpt lat="46.16084" lon="6.38458">
        <ele>913.41</ele>
        <time>2019-08-25T10:22:16.000Z</time>
      </trkpt>
      <trkpt lat="46.16074" lon="6.38445">
        <ele>912.15</ele>
        <time>2019-08-25T10:22:17.000Z</time>
      </trkpt>
      <trkpt lat="46.16064" lon="6.38429">
        <ele>908.37</ele>
        <time>2019-08-25T10:22:19.000Z</time>
      </trkpt>
      <trkpt lat="46.16056" lon="6.38413">
        <ele>904.1</ele>
        <time>2019-08-25T10:22:21.000Z</time>
      </trkpt>
      <trkpt lat="46.16041" lon="6.384">
        <ele>899.21</ele>
        <time>2019-08-25T10:22:23.000Z</time>
      </trkpt>
      <trkpt lat="46.16027" lon="6.38387">
        <ele>895.02</ele>
        <time>2019-08-25T10:22:25.000Z</time>
      </trkpt>
      <trkpt lat="46.16009" lon="6.38369">
        <ele>891.85</ele>
        <time>2019-08-25T10:22:27.000Z</time>
      </trkpt>
      <trkpt lat="46.16" lon="6.38363">
        <ele>890.29</ele>
        <time>2019-08-25T10:22:28.000Z</time>
      </trkpt>
      <trkpt lat="46.15985" lon="6.38352">
        <ele>887.96</ele>
        <time>2019-08-25T10:22:30.000Z</time>
      </trkpt>
      <trkpt lat="46.15969" lon="6.38346">
        <ele>885.96</ele>
        <time>2019-08-25T10:22:32.000Z</time>
      </trkpt>
      <trkpt lat="46.1596" lon="6.38345">
        <ele>885.09</ele>
        <time>2019-08-25T10:22:33.000Z</time>
      </trkpt>
      <trkpt lat="46.15942" lon="6.38336">
        <ele>884.01</ele>
        <time>2019-08-25T10:22:35.000Z</time>
      </trkpt>
      <trkpt lat="46.15924" lon="6.3832">
        <ele>883.15</ele>
        <time>2019-08-25T10:22:37.000Z</time>
      </trkpt>
      <trkpt lat="46.1591" lon="6.38312">
        <ele>882.92</ele>
        <time>2019-08-25T10:22:39.000Z</time>
      </trkpt>
      <trkpt lat="46.15897" lon="6.3831">
        <ele>881.98</ele>
        <time>2019-08-25T10:22:41.000Z</time>
      </trkpt>
      <trkpt lat="46.15882" lon="6.38303">
        <ele>880.81</ele>
        <time>2019-08-25T10:22:43.000Z</time>
      </trkpt>
      <trkpt lat="46.15865" lon="6.38293">
        <ele>879.53</ele>
        <time>2019-08-25T10:22:45.000Z</time>
      </trkpt>
      <trkpt lat="46.15851" lon="6.38292">
        <ele>877.48</ele>
        <time>2019-08-25T10:22:47.000Z</time>
      </trkpt>
      <trkpt lat="46.15842" lon="6.38287">
        <ele>876.23</ele>
        <time>2019-08-25T10:22:48.000Z</time>
      </trkpt>
      <trkpt lat="46.15827" lon="6.38284">
        <ele>873.57</ele>
        <time>2019-08-25T10:22:50.000Z</time>
      </trkpt>
      <trkpt lat="46.15812" lon="6.3829">
        <ele>871.01</ele>
        <time>2019-08-25T10:22:52.000Z</time>
      </trkpt>
      <trkpt lat="46.15795" lon="6.38308">
        <ele>867.44</ele>
        <time>2019-08-25T10:22:55.000Z</time>
      </trkpt>
      <trkpt lat="46.15789" lon="6.38317">
        <ele>866.39</ele>
        <time>2019-08-25T10:22:56.000Z</time>
      </trkpt>
      <trkpt lat="46.15786" lon="6.38353">
        <ele>860.84</ele>
        <time>2019-08-25T10:22:59.000Z</time>
      </trkpt>
      <trkpt lat="46.15796" lon="6.38375">
        <ele>856.08</ele>
        <time>2019-08-25T10:23:01.000Z</time>
      </trkpt>
      <trkpt lat="46.15805" lon="6.38396">
        <ele>851.57</ele>
        <time>2019-08-25T10:23:03.000Z</time>
      </trkpt>
      <trkpt lat="46.15818" lon="6.38416">
        <ele>847.87</ele>
        <time>2019-08-25T10:23:05.000Z</time>
      </trkpt>
      <trkpt lat="46.15826" lon="6.38443">
        <ele>844.85</ele>
        <time>2019-08-25T10:23:07.000Z</time>
      </trkpt>
      <trkpt lat="46.1583" lon="6.38456">
        <ele>843.21</ele>
        <time>2019-08-25T10:23:08.000Z</time>
      </trkpt>
      <trkpt lat="46.15835" lon="6.38469">
        <ele>841.67</ele>
        <time>2019-08-25T10:23:09.000Z</time>
      </trkpt>
      <trkpt lat="46.15847" lon="6.38496">
        <ele>838.7</ele>
        <time>2019-08-25T10:23:11.000Z</time>
      </trkpt>
      <trkpt lat="46.15851" lon="6.38515">
        <ele>835.8</ele>
        <time>2019-08-25T10:23:13.000Z</time>
      </trkpt>
      <trkpt lat="46.15857" lon="6.38536">
        <ele>833.3</ele>
        <time>2019-08-25T10:23:15.000Z</time>
      </trkpt>
      <trkpt lat="46.15863" lon="6.38559">
        <ele>830.91</ele>
        <time>2019-08-25T10:23:17.000Z</time>
      </trkpt>
      <trkpt lat="46.15868" lon="6.38571">
        <ele>829.56</ele>
        <time>2019-08-25T10:23:18.000Z</time>
      </trkpt>
      <trkpt lat="46.15872" lon="6.38584">
        <ele>828.25</ele>
        <time>2019-08-25T10:23:19.000Z</time>
      </trkpt>
      <trkpt lat="46.15878" lon="6.38607">
        <ele>825.37</ele>
        <time>2019-08-25T10:23:21.000Z</time>
      </trkpt>
      <trkpt lat="46.15883" lon="6.38618">
        <ele>823.92</ele>
        <time>2019-08-25T10:23:22.000Z</time>
      </trkpt>
      <trkpt lat="46.15892" lon="6.38637">
        <ele>820.92</ele>
        <time>2019-08-25T10:23:24.000Z</time>
      </trkpt>
      <trkpt lat="46.15907" lon="6.38667">
        <ele>816.18</ele>
        <time>2019-08-25T10:23:27.000Z</time>
      </trkpt>
      <trkpt lat="46.15906" lon="6.38687">
        <ele>812.31</ele>
        <time>2019-08-25T10:23:29.000Z</time>
      </trkpt>
      <trkpt lat="46.1591" lon="6.38709">
        <ele>808.36</ele>
        <time>2019-08-25T10:23:31.000Z</time>
      </trkpt>
      <trkpt lat="46.15903" lon="6.38734">
        <ele>805.24</ele>
        <time>2019-08-25T10:23:33.000Z</time>
      </trkpt>
      <trkpt lat="46.15907" lon="6.38765">
        <ele>800.49</ele>
        <time>2019-08-25T10:23:36.000Z</time>
      </trkpt>
      <trkpt lat="46.15912" lon="6.38795">
        <ele>796.62</ele>
        <time>2019-08-25T10:23:39.000Z</time>
      </trkpt>
      <trkpt lat="46.1591" lon="6.38808">
        <ele>793.83</ele>
        <time>2019-08-25T10:23:41.000Z</time>
      </trkpt>
      <trkpt lat="46.15895" lon="6.38808">
        <ele>791.36</ele>
        <time>2019-08-25T10:23:43.000Z</time>
      </trkpt>
      <trkpt lat="46.15881" lon="6.38811">
        <ele>788.52</ele>
        <time>2019-08-25T10:23:45.000Z</time>
      </trkpt>
      <trkpt lat="46.15865" lon="6.38818">
        <ele>786.39</ele>
        <time>2019-08-25T10:23:47.000Z</time>
      </trkpt>
      <trkpt lat="46.15851" lon="6.38832">
        <ele>784.08</ele>
        <time>2019-08-25T10:23:49.000Z</time>
      </trkpt>
      <trkpt lat="46.15849" lon="6.38849">
        <ele>782.19</ele>
        <time>2019-08-25T10:23:51.000Z</time>
      </trkpt>
      <trkpt lat="46.15852" lon="6.38864">
        <ele>780.17</ele>
        <time>2019-08-25T10:23:53.000Z</time>
      </trkpt>
      <trkpt lat="46.15854" lon="6.38879">
        <ele>777.32</ele>
        <time>2019-08-25T10:23:56.000Z</time>
      </trkpt>
      <trkpt lat="46.1585" lon="6.38896">
        <ele>774.45</ele>
        <time>2019-08-25T10:24:00.000Z</time>
      </trkpt>
      <trkpt lat="46.15843" lon="6.38912">
        <ele>773.33</ele>
        <time>2019-08-25T10:24:02.000Z</time>
      </trkpt>
      <trkpt lat="46.15835" lon="6.38928">
        <ele>771.29</ele>
        <time>2019-08-25T10:24:05.000Z</time>
      </trkpt>
      <trkpt lat="46.15832" lon="6.38945">
        <ele>769.58</ele>
        <time>2019-08-25T10:24:07.000Z</time>
      </trkpt>
      <trkpt lat="46.15833" lon="6.3896">
        <ele>768.75</ele>
        <time>2019-08-25T10:24:08.000Z</time>
      </trkpt>
      <trkpt lat="46.15836" lon="6.38974">
        <ele>768.04</ele>
        <time>2019-08-25T10:24:09.000Z</time>
      </trkpt>
      <trkpt lat="46.15837" lon="6.38991">
        <ele>766.68</ele>
        <time>2019-08-25T10:24:11.000Z</time>
      </trkpt>
      <trkpt lat="46.15833" lon="6.39006">
        <ele>764.48</ele>
        <time>2019-08-25T10:24:14.000Z</time>
      </trkpt>
      <trkpt lat="46.15823" lon="6.39034">
        <ele>760.61</ele>
        <time>2019-08-25T10:24:18.000Z</time>
      </trkpt>
      <trkpt lat="46.15811" lon="6.39059">
        <ele>756.99</ele>
        <time>2019-08-25T10:24:21.000Z</time>
      </trkpt>
      <trkpt lat="46.15803" lon="6.3907">
        <ele>753.18</ele>
        <time>2019-08-25T10:24:24.000Z</time>
      </trkpt>
      <trkpt lat="46.15793" lon="6.39059">
        <ele>749.36</ele>
        <time>2019-08-25T10:24:27.000Z</time>
      </trkpt>
      <trkpt lat="46.15779" lon="6.3904">
        <ele>746.18</ele>
        <time>2019-08-25T10:24:30.000Z</time>
      </trkpt>
      <trkpt lat="46.1577" lon="6.39026">
        <ele>744.32</ele>
        <time>2019-08-25T10:24:32.000Z</time>
      </trkpt>
      <trkpt lat="46.15761" lon="6.39015">
        <ele>743.04</ele>
        <time>2019-08-25T10:24:34.000Z</time>
      </trkpt>
      <trkpt lat="46.15751" lon="6.39004">
        <ele>742.32</ele>
        <time>2019-08-25T10:24:36.000Z</time>
      </trkpt>
      <trkpt lat="46.15742" lon="6.38991">
        <ele>742.27</ele>
        <time>2019-08-25T10:24:38.000Z</time>
      </trkpt>
      <trkpt lat="46.15732" lon="6.38982">
        <ele>742.6</ele>
        <time>2019-08-25T10:24:40.000Z</time>
      </trkpt>
      <trkpt lat="46.15721" lon="6.38975">
        <ele>742.77</ele>
        <time>2019-08-25T10:24:42.000Z</time>
      </trkpt>
      <trkpt lat="46.15698" lon="6.38975">
        <ele>742.45</ele>
        <time>2019-08-25T10:24:45.000Z</time>
      </trkpt>
      <trkpt lat="46.15675" lon="6.38967">
        <ele>741.93</ele>
        <time>2019-08-25T10:24:48.000Z</time>
      </trkpt>
      <trkpt lat="46.15659" lon="6.38956">
        <ele>741.49</ele>
        <time>2019-08-25T10:24:50.000Z</time>
      </trkpt>
      <trkpt lat="46.15635" lon="6.38937">
        <ele>740.6</ele>
        <time>2019-08-25T10:24:53.000Z</time>
      </trkpt>
      <trkpt lat="46.15627" lon="6.3893">
        <ele>740.21</ele>
        <time>2019-08-25T10:24:54.000Z</time>
      </trkpt>
      <trkpt lat="46.15614" lon="6.38913">
        <ele>739.32</ele>
        <time>2019-08-25T10:24:56.000Z</time>
      </trkpt>
      <trkpt lat="46.15601" lon="6.38896">
        <ele>738.42</ele>
        <time>2019-08-25T10:24:58.000Z</time>
      </trkpt>
      <trkpt lat="46.15589" lon="6.38878">
        <ele>737.56</ele>
        <time>2019-08-25T10:25:00.000Z</time>
      </trkpt>
      <trkpt lat="46.15581" lon="6.3886">
        <ele>736.83</ele>
        <time>2019-08-25T10:25:02.000Z</time>
      </trkpt>
      <trkpt lat="46.15575" lon="6.38838">
        <ele>736.12</ele>
        <time>2019-08-25T10:25:04.000Z</time>
      </trkpt>
      <trkpt lat="46.15569" lon="6.38816">
        <ele>735.56</ele>
        <time>2019-08-25T10:25:06.000Z</time>
      </trkpt>
      <trkpt lat="46.15563" lon="6.38794">
        <ele>735.08</ele>
        <time>2019-08-25T10:25:08.000Z</time>
      </trkpt>
      <trkpt lat="46.15557" lon="6.38773">
        <ele>734.83</ele>
        <time>2019-08-25T10:25:10.000Z</time>
      </trkpt>
      <trkpt lat="46.15543" lon="6.38748">
        <ele>734.66</ele>
        <time>2019-08-25T10:25:13.000Z</time>
      </trkpt>
      <trkpt lat="46.15523" lon="6.38724">
        <ele>734.32</ele>
        <time>2019-08-25T10:25:16.000Z</time>
      </trkpt>
      <trkpt lat="46.15515" lon="6.38715">
        <ele>734.1</ele>
        <time>2019-08-25T10:25:17.000Z</time>
      </trkpt>
      <trkpt lat="46.15497" lon="6.38686">
        <ele>733.08</ele>
        <time>2019-08-25T10:25:20.000Z</time>
      </trkpt>
      <trkpt lat="46.15487" lon="6.38665">
        <ele>731.96</ele>
        <time>2019-08-25T10:25:22.000Z</time>
      </trkpt>
      <trkpt lat="46.15482" lon="6.38653">
        <ele>731.38</ele>
        <time>2019-08-25T10:25:23.000Z</time>
      </trkpt>
      <trkpt lat="46.15472" lon="6.38632">
        <ele>730.15</ele>
        <time>2019-08-25T10:25:25.000Z</time>
      </trkpt>
      <trkpt lat="46.15462" lon="6.38613">
        <ele>729.15</ele>
        <time>2019-08-25T10:25:27.000Z</time>
      </trkpt>
      <trkpt lat="46.1545" lon="6.38583">
        <ele>727.71</ele>
        <time>2019-08-25T10:25:30.000Z</time>
      </trkpt>
      <trkpt lat="46.1544" lon="6.3855">
        <ele>725.89</ele>
        <time>2019-08-25T10:25:33.000Z</time>
      </trkpt>
      <trkpt lat="46.15435" lon="6.38527">
        <ele>724.68</ele>
        <time>2019-08-25T10:25:35.000Z</time>
      </trkpt>
      <trkpt lat="46.15432" lon="6.38515">
        <ele>724.26</ele>
        <time>2019-08-25T10:25:36.000Z</time>
      </trkpt>
      <trkpt lat="46.15429" lon="6.38502">
        <ele>723.79</ele>
        <time>2019-08-25T10:25:37.000Z</time>
      </trkpt>
      <trkpt lat="46.15421" lon="6.38483">
        <ele>722.79</ele>
        <time>2019-08-25T10:25:39.000Z</time>
      </trkpt>
      <trkpt lat="46.15409" lon="6.38467">
        <ele>721.85</ele>
        <time>2019-08-25T10:25:41.000Z</time>
      </trkpt>
      <trkpt lat="46.15395" lon="6.38452">
        <ele>720.29</ele>
        <time>2019-08-25T10:25:43.000Z</time>
      </trkpt>
      <trkpt lat="46.1538" lon="6.38436">
        <ele>719.24</ele>
        <time>2019-08-25T10:25:45.000Z</time>
      </trkpt>
      <trkpt lat="46.15365" lon="6.38419">
        <ele>717.64</ele>
        <time>2019-08-25T10:25:48.000Z</time>
      </trkpt>
      <trkpt lat="46.15358" lon="6.38406">
        <ele>715.37</ele>
        <time>2019-08-25T10:25:51.000Z</time>
      </trkpt>
      <trkpt lat="46.15346" lon="6.38381">
        <ele>711.59</ele>
        <time>2019-08-25T10:25:54.000Z</time>
      </trkpt>
      <trkpt lat="46.15335" lon="6.38362">
        <ele>709.09</ele>
        <time>2019-08-25T10:25:56.000Z</time>
      </trkpt>
      <trkpt lat="46.15325" lon="6.38338">
        <ele>706.4</ele>
        <time>2019-08-25T10:25:58.000Z</time>
      </trkpt>
      <trkpt lat="46.15322" lon="6.38324">
        <ele>705.13</ele>
        <time>2019-08-25T10:25:59.000Z</time>
      </trkpt>
      <trkpt lat="46.1532" lon="6.38309">
        <ele>703.9</ele>
        <time>2019-08-25T10:26:00.000Z</time>
      </trkpt>
      <trkpt lat="46.15319" lon="6.38278">
        <ele>700.78</ele>
        <time>2019-08-25T10:26:02.000Z</time>
      </trkpt>
      <trkpt lat="46.15318" lon="6.38263">
        <ele>699.18</ele>
        <time>2019-08-25T10:26:03.000Z</time>
      </trkpt>
      <trkpt lat="46.15315" lon="6.38232">
        <ele>696.56</ele>
        <time>2019-08-25T10:26:05.000Z</time>
      </trkpt>
      <trkpt lat="46.15314" lon="6.38215">
        <ele>695.3</ele>
        <time>2019-08-25T10:26:06.000Z</time>
      </trkpt>
      <trkpt lat="46.15311" lon="6.38185">
        <ele>693.24</ele>
        <time>2019-08-25T10:26:08.000Z</time>
      </trkpt>
      <trkpt lat="46.15319" lon="6.38155">
        <ele>691.76</ele>
        <time>2019-08-25T10:26:10.000Z</time>
      </trkpt>
      <trkpt lat="46.15325" lon="6.38139">
        <ele>690.95</ele>
        <time>2019-08-25T10:26:11.000Z</time>
      </trkpt>
      <trkpt lat="46.1533" lon="6.38125">
        <ele>690.1</ele>
        <time>2019-08-25T10:26:12.000Z</time>
      </trkpt>
      <trkpt lat="46.15343" lon="6.38098">
        <ele>688.42</ele>
        <time>2019-08-25T10:26:14.000Z</time>
      </trkpt>
      <trkpt lat="46.1535" lon="6.38085">
        <ele>687.54</ele>
        <time>2019-08-25T10:26:15.000Z</time>
      </trkpt>
      <trkpt lat="46.15357" lon="6.38071">
        <ele>686.62</ele>
        <time>2019-08-25T10:26:16.000Z</time>
      </trkpt>
      <trkpt lat="46.15373" lon="6.38045">
        <ele>684.8</ele>
        <time>2019-08-25T10:26:18.000Z</time>
      </trkpt>
      <trkpt lat="46.15386" lon="6.38015">
        <ele>682.9</ele>
        <time>2019-08-25T10:26:20.000Z</time>
      </trkpt>
      <trkpt lat="46.15393" lon="6.38">
        <ele>681.9</ele>
        <time>2019-08-25T10:26:21.000Z</time>
      </trkpt>
      <trkpt lat="46.15402" lon="6.37975">
        <ele>679.92</ele>
        <time>2019-08-25T10:26:23.000Z</time>
      </trkpt>
      <trkpt lat="46.15405" lon="6.37963">
        <ele>678.89</ele>
        <time>2019-08-25T10:26:24.000Z</time>
      </trkpt>
      <trkpt lat="46.15411" lon="6.37943">
        <ele>676.82</ele>
        <time>2019-08-25T10:26:26.000Z</time>
      </trkpt>
      <trkpt lat="46.15419" lon="6.37927">
        <ele>674.71</ele>
        <time>2019-08-25T10:26:28.000Z</time>
      </trkpt>
      <trkpt lat="46.15427" lon="6.37919">
        <ele>666.24</ele>
        <time>2019-08-25T10:26:47.000Z</time>
      </trkpt>
      <trkpt lat="46.15441" lon="6.37914">
        <ele>666.76</ele>
        <time>2019-08-25T10:26:50.000Z</time>
      </trkpt>
      <trkpt lat="46.1545" lon="6.3791">
        <ele>667.49</ele>
        <time>2019-08-25T10:26:53.000Z</time>
      </trkpt>
      <trkpt lat="46.15467" lon="6.379">
        <ele>668.58</ele>
        <time>2019-08-25T10:26:57.000Z</time>
      </trkpt>
      <trkpt lat="46.15486" lon="6.379">
        <ele>669.69</ele>
        <time>2019-08-25T10:27:01.000Z</time>
      </trkpt>
      <trkpt lat="46.15497" lon="6.37898">
        <ele>671.23</ele>
        <time>2019-08-25T10:27:05.000Z</time>
      </trkpt>
      <trkpt lat="46.15508" lon="6.37897">
        <ele>672.7</ele>
        <time>2019-08-25T10:27:09.000Z</time>
      </trkpt>
      <trkpt lat="46.15522" lon="6.37897">
        <ele>673.87</ele>
        <time>2019-08-25T10:27:13.000Z</time>
      </trkpt>
      <trkpt lat="46.15533" lon="6.37895">
        <ele>675.37</ele>
        <time>2019-08-25T10:27:17.000Z</time>
      </trkpt>
      <trkpt lat="46.15542" lon="6.37892">
        <ele>676.55</ele>
        <time>2019-08-25T10:27:20.000Z</time>
      </trkpt>
      <trkpt lat="46.15554" lon="6.37888">
        <ele>678.27</ele>
        <time>2019-08-25T10:27:25.000Z</time>
      </trkpt>
      <trkpt lat="46.15568" lon="6.37884">
        <ele>679.86</ele>
        <time>2019-08-25T10:27:29.000Z</time>
      </trkpt>
      <trkpt lat="46.15583" lon="6.3788">
        <ele>681.49</ele>
        <time>2019-08-25T10:27:33.000Z</time>
      </trkpt>
      <trkpt lat="46.15596" lon="6.37875">
        <ele>682.24</ele>
        <time>2019-08-25T10:27:37.000Z</time>
      </trkpt>
      <trkpt lat="46.15605" lon="6.37869">
        <ele>682.9</ele>
        <time>2019-08-25T10:27:41.000Z</time>
      </trkpt>
      <trkpt lat="46.15617" lon="6.3786">
        <ele>683.94</ele>
        <time>2019-08-25T10:27:45.000Z</time>
      </trkpt>
      <trkpt lat="46.15631" lon="6.37844">
        <ele>684.91</ele>
        <time>2019-08-25T10:27:49.000Z</time>
      </trkpt>
      <trkpt lat="46.15644" lon="6.37837">
        <ele>686.46</ele>
        <time>2019-08-25T10:27:53.000Z</time>
      </trkpt>
      <trkpt lat="46.15654" lon="6.37834">
        <ele>687.2</ele>
        <time>2019-08-25T10:27:55.000Z</time>
      </trkpt>
      <trkpt lat="46.15666" lon="6.37833">
        <ele>688.41</ele>
        <time>2019-08-25T10:27:59.000Z</time>
      </trkpt>
      <trkpt lat="46.15676" lon="6.37828">
        <ele>689.42</ele>
        <time>2019-08-25T10:28:02.000Z</time>
      </trkpt>
      <trkpt lat="46.15689" lon="6.37822">
        <ele>690.18</ele>
        <time>2019-08-25T10:28:05.000Z</time>
      </trkpt>
      <trkpt lat="46.15703" lon="6.37814">
        <ele>690.62</ele>
        <time>2019-08-25T10:28:09.000Z</time>
      </trkpt>
      <trkpt lat="46.15714" lon="6.3781">
        <ele>691.39</ele>
        <time>2019-08-25T10:28:12.000Z</time>
      </trkpt>
      <trkpt lat="46.15723" lon="6.37811">
        <ele>692.3</ele>
        <time>2019-08-25T10:28:17.000Z</time>
      </trkpt>
      <trkpt lat="46.15733" lon="6.37809">
        <ele>692.62</ele>
        <time>2019-08-25T10:28:21.000Z</time>
      </trkpt>
      <trkpt lat="46.15746" lon="6.37808">
        <ele>693.72</ele>
        <time>2019-08-25T10:28:24.000Z</time>
      </trkpt>
      <trkpt lat="46.15755" lon="6.37808">
        <ele>694.84</ele>
        <time>2019-08-25T10:28:27.000Z</time>
      </trkpt>
      <trkpt lat="46.15769" lon="6.37806">
        <ele>696.06</ele>
        <time>2019-08-25T10:28:31.000Z</time>
      </trkpt>
      <trkpt lat="46.1578" lon="6.37802">
        <ele>697.15</ele>
        <time>2019-08-25T10:28:34.000Z</time>
      </trkpt>
      <trkpt lat="46.15791" lon="6.37799">
        <ele>697.92</ele>
        <time>2019-08-25T10:28:36.000Z</time>
      </trkpt>
      <trkpt lat="46.15804" lon="6.37796">
        <ele>698.78</ele>
        <time>2019-08-25T10:28:39.000Z</time>
      </trkpt>
      <trkpt lat="46.15818" lon="6.37796">
        <ele>699.2</ele>
        <time>2019-08-25T10:28:41.000Z</time>
      </trkpt>
      <trkpt lat="46.1583" lon="6.37787">
        <ele>699.29</ele>
        <time>2019-08-25T10:28:44.000Z</time>
      </trkpt>
      <trkpt lat="46.15838" lon="6.37779">
        <ele>699.04</ele>
        <time>2019-08-25T10:28:46.000Z</time>
      </trkpt>
      <trkpt lat="46.15847" lon="6.37782">
        <ele>698.83</ele>
        <time>2019-08-25T10:28:47.000Z</time>
      </trkpt>
      <trkpt lat="46.15857" lon="6.37775">
        <ele>698.61</ele>
        <time>2019-08-25T10:28:48.000Z</time>
      </trkpt>
      <trkpt lat="46.15866" lon="6.37772">
        <ele>698.42</ele>
        <time>2019-08-25T10:28:49.000Z</time>
      </trkpt>
      <trkpt lat="46.15895" lon="6.37766">
        <ele>697.72</ele>
        <time>2019-08-25T10:28:52.000Z</time>
      </trkpt>
      <trkpt lat="46.1591" lon="6.37765">
        <ele>697.21</ele>
        <time>2019-08-25T10:28:55.000Z</time>
      </trkpt>
      <trkpt lat="46.15923" lon="6.37768">
        <ele>696.68</ele>
        <time>2019-08-25T10:28:57.000Z</time>
      </trkpt>
      <trkpt lat="46.15936" lon="6.37765">
        <ele>696.07</ele>
        <time>2019-08-25T10:28:59.000Z</time>
      </trkpt>
      <trkpt lat="46.1595" lon="6.37766">
        <ele>695.46</ele>
        <time>2019-08-25T10:29:01.000Z</time>
      </trkpt>
      <trkpt lat="46.15963" lon="6.37766">
        <ele>695.28</ele>
        <time>2019-08-25T10:29:03.000Z</time>
      </trkpt>
      <trkpt lat="46.15975" lon="6.37767">
        <ele>695.08</ele>
        <time>2019-08-25T10:29:05.000Z</time>
      </trkpt>
      <trkpt lat="46.15987" lon="6.37769">
        <ele>694.76</ele>
        <time>2019-08-25T10:29:07.000Z</time>
      </trkpt>
      <trkpt lat="46.16002" lon="6.37772">
        <ele>694.28</ele>
        <time>2019-08-25T10:29:09.000Z</time>
      </trkpt>
      <trkpt lat="46.16021" lon="6.37775">
        <ele>693.1</ele>
        <time>2019-08-25T10:29:12.000Z</time>
      </trkpt>
      <trkpt lat="46.16045" lon="6.37774">
        <ele>692.44</ele>
        <time>2019-08-25T10:29:16.000Z</time>
      </trkpt>
      <trkpt lat="46.16061" lon="6.37775">
        <ele>692.44</ele>
        <time>2019-08-25T10:29:18.000Z</time>
      </trkpt>
      <trkpt lat="46.16075" lon="6.37774">
        <ele>692.31</ele>
        <time>2019-08-25T10:29:20.000Z</time>
      </trkpt>
      <trkpt lat="46.1609" lon="6.37775">
        <ele>691.96</ele>
        <time>2019-08-25T10:29:22.000Z</time>
      </trkpt>
      <trkpt lat="46.16115" lon="6.37779">
        <ele>690.86</ele>
        <time>2019-08-25T10:29:25.000Z</time>
      </trkpt>
      <trkpt lat="46.16133" lon="6.37785">
        <ele>690.04</ele>
        <time>2019-08-25T10:29:27.000Z</time>
      </trkpt>
      <trkpt lat="46.16148" lon="6.37792">
        <ele>689.39</ele>
        <time>2019-08-25T10:29:29.000Z</time>
      </trkpt>
      <trkpt lat="46.16161" lon="6.37803">
        <ele>689.29</ele>
        <time>2019-08-25T10:29:31.000Z</time>
      </trkpt>
      <trkpt lat="46.16173" lon="6.37823">
        <ele>689.6</ele>
        <time>2019-08-25T10:29:34.000Z</time>
      </trkpt>
      <trkpt lat="46.16179" lon="6.37834">
        <ele>690.19</ele>
        <time>2019-08-25T10:29:36.000Z</time>
      </trkpt>
      <trkpt lat="46.16185" lon="6.3785">
        <ele>690.34</ele>
        <time>2019-08-25T10:29:38.000Z</time>
      </trkpt>
      <trkpt lat="46.16194" lon="6.37861">
        <ele>690.34</ele>
        <time>2019-08-25T10:29:40.000Z</time>
      </trkpt>
      <trkpt lat="46.16203" lon="6.37872">
        <ele>691.49</ele>
        <time>2019-08-25T10:29:43.000Z</time>
      </trkpt>
      <trkpt lat="46.16217" lon="6.37885">
        <ele>692.68</ele>
        <time>2019-08-25T10:29:46.000Z</time>
      </trkpt>
      <trkpt lat="46.16227" lon="6.3789">
        <ele>693.42</ele>
        <time>2019-08-25T10:29:48.000Z</time>
      </trkpt>
      <trkpt lat="46.16238" lon="6.37892">
        <ele>693.12</ele>
        <time>2019-08-25T10:29:50.000Z</time>
      </trkpt>
      <trkpt lat="46.16249" lon="6.37893">
        <ele>692.49</ele>
        <time>2019-08-25T10:29:52.000Z</time>
      </trkpt>
      <trkpt lat="46.16265" lon="6.37898">
        <ele>691.81</ele>
        <time>2019-08-25T10:29:55.000Z</time>
      </trkpt>
      <trkpt lat="46.16278" lon="6.37903">
        <ele>691.59</ele>
        <time>2019-08-25T10:29:57.000Z</time>
      </trkpt>
      <trkpt lat="46.16293" lon="6.37916">
        <ele>691.75</ele>
        <time>2019-08-25T10:30:00.000Z</time>
      </trkpt>
      <trkpt lat="46.16307" lon="6.37919">
        <ele>691.88</ele>
        <time>2019-08-25T10:30:03.000Z</time>
      </trkpt>
      <trkpt lat="46.16322" lon="6.37919">
        <ele>691.7</ele>
        <time>2019-08-25T10:30:05.000Z</time>
      </trkpt>
      <trkpt lat="46.16333" lon="6.37926">
        <ele>691.54</ele>
        <time>2019-08-25T10:30:07.000Z</time>
      </trkpt>
      <trkpt lat="46.16349" lon="6.37948">
        <ele>691.21</ele>
        <time>2019-08-25T10:30:10.000Z</time>
      </trkpt>
      <trkpt lat="46.16364" lon="6.37936">
        <ele>690.69</ele>
        <time>2019-08-25T10:30:13.000Z</time>
      </trkpt>
      <trkpt lat="46.1637" lon="6.37919">
        <ele>689.97</ele>
        <time>2019-08-25T10:30:15.000Z</time>
      </trkpt>
      <trkpt lat="46.1638" lon="6.37908">
        <ele>688.96</ele>
        <time>2019-08-25T10:30:18.000Z</time>
      </trkpt>
      <trkpt lat="46.16397" lon="6.3791">
        <ele>688.25</ele>
        <time>2019-08-25T10:30:20.000Z</time>
      </trkpt>
      <trkpt lat="46.16413" lon="6.37907">
        <ele>687.21</ele>
        <time>2019-08-25T10:30:22.000Z</time>
      </trkpt>
      <trkpt lat="46.16439" lon="6.37899">
        <ele>685.78</ele>
        <time>2019-08-25T10:30:25.000Z</time>
      </trkpt>
      <trkpt lat="46.16454" lon="6.37883">
        <ele>684.91</ele>
        <time>2019-08-25T10:30:27.000Z</time>
      </trkpt>
      <trkpt lat="46.16467" lon="6.37859">
        <ele>683.96</ele>
        <time>2019-08-25T10:30:30.000Z</time>
      </trkpt>
      <trkpt lat="46.16481" lon="6.3787">
        <ele>683.07</ele>
        <time>2019-08-25T10:30:32.000Z</time>
      </trkpt>
      <trkpt lat="46.16499" lon="6.37874">
        <ele>681.94</ele>
        <time>2019-08-25T10:30:34.000Z</time>
      </trkpt>
      <trkpt lat="46.16517" lon="6.37879">
        <ele>681.04</ele>
        <time>2019-08-25T10:30:36.000Z</time>
      </trkpt>
      <trkpt lat="46.16526" lon="6.37883">
        <ele>680.65</ele>
        <time>2019-08-25T10:30:37.000Z</time>
      </trkpt>
      <trkpt lat="46.16544" lon="6.37888">
        <ele>680.03</ele>
        <time>2019-08-25T10:30:39.000Z</time>
      </trkpt>
      <trkpt lat="46.1656" lon="6.37889">
        <ele>679.2</ele>
        <time>2019-08-25T10:30:41.000Z</time>
      </trkpt>
      <trkpt lat="46.16576" lon="6.37884">
        <ele>677.98</ele>
        <time>2019-08-25T10:30:43.000Z</time>
      </trkpt>
      <trkpt lat="46.16592" lon="6.37885">
        <ele>676.51</ele>
        <time>2019-08-25T10:30:45.000Z</time>
      </trkpt>
      <trkpt lat="46.16604" lon="6.37879">
        <ele>675.32</ele>
        <time>2019-08-25T10:30:47.000Z</time>
      </trkpt>
      <trkpt lat="46.1662" lon="6.3787">
        <ele>674.26</ele>
        <time>2019-08-25T10:30:50.000Z</time>
      </trkpt>
      <trkpt lat="46.16641" lon="6.37869">
        <ele>673.12</ele>
        <time>2019-08-25T10:30:53.000Z</time>
      </trkpt>
      <trkpt lat="46.16655" lon="6.37868">
        <ele>672.37</ele>
        <time>2019-08-25T10:30:55.000Z</time>
      </trkpt>
      <trkpt lat="46.16665" lon="6.37868">
        <ele>671.92</ele>
        <time>2019-08-25T10:30:56.000Z</time>
      </trkpt>
      <trkpt lat="46.16687" lon="6.37863">
        <ele>671.11</ele>
        <time>2019-08-25T10:30:59.000Z</time>
      </trkpt>
      <trkpt lat="46.167" lon="6.3786">
        <ele>670.91</ele>
        <time>2019-08-25T10:31:01.000Z</time>
      </trkpt>
      <trkpt lat="46.16713" lon="6.37858">
        <ele>671.02</ele>
        <time>2019-08-25T10:31:03.000Z</time>
      </trkpt>
      <trkpt lat="46.16724" lon="6.37857">
        <ele>671.32</ele>
        <time>2019-08-25T10:31:05.000Z</time>
      </trkpt>
      <trkpt lat="46.16737" lon="6.37855">
        <ele>671.72</ele>
        <time>2019-08-25T10:31:07.000Z</time>
      </trkpt>
      <trkpt lat="46.16748" lon="6.37857">
        <ele>672.24</ele>
        <time>2019-08-25T10:31:09.000Z</time>
      </trkpt>
      <trkpt lat="46.16763" lon="6.37862">
        <ele>673.32</ele>
        <time>2019-08-25T10:31:12.000Z</time>
      </trkpt>
      <trkpt lat="46.16774" lon="6.37872">
        <ele>675.99</ele>
        <time>2019-08-25T10:31:17.000Z</time>
      </trkpt>
      <trkpt lat="46.16783" lon="6.37876">
        <ele>677.15</ele>
        <time>2019-08-25T10:31:21.000Z</time>
      </trkpt>
      <trkpt lat="46.16795" lon="6.37882">
        <ele>677.84</ele>
        <time>2019-08-25T10:31:25.000Z</time>
      </trkpt>
      <trkpt lat="46.16804" lon="6.37885">
        <ele>678.58</ele>
        <time>2019-08-25T10:31:29.000Z</time>
      </trkpt>
      <trkpt lat="46.16814" lon="6.37889">
        <ele>679.64</ele>
        <time>2019-08-25T10:31:34.000Z</time>
      </trkpt>
      <trkpt lat="46.16829" lon="6.37893">
        <ele>681.46</ele>
        <time>2019-08-25T10:31:39.000Z</time>
      </trkpt>
      <trkpt lat="46.16839" lon="6.37898">
        <ele>682.69</ele>
        <time>2019-08-25T10:31:43.000Z</time>
      </trkpt>
      <trkpt lat="46.16848" lon="6.37905">
        <ele>684.02</ele>
        <time>2019-08-25T10:31:47.000Z</time>
      </trkpt>
      <trkpt lat="46.16857" lon="6.37913">
        <ele>685.32</ele>
        <time>2019-08-25T10:31:51.000Z</time>
      </trkpt>
      <trkpt lat="46.1687" lon="6.3792">
        <ele>686.64</ele>
        <time>2019-08-25T10:31:55.000Z</time>
      </trkpt>
      <trkpt lat="46.16881" lon="6.37926">
        <ele>688.37</ele>
        <time>2019-08-25T10:31:59.000Z</time>
      </trkpt>
      <trkpt lat="46.16892" lon="6.37931">
        <ele>689.79</ele>
        <time>2019-08-25T10:32:03.000Z</time>
      </trkpt>
      <trkpt lat="46.16903" lon="6.37935">
        <ele>690.53</ele>
        <time>2019-08-25T10:32:07.000Z</time>
      </trkpt>
      <trkpt lat="46.16913" lon="6.37942">
        <ele>691.19</ele>
        <time>2019-08-25T10:32:11.000Z</time>
      </trkpt>
      <trkpt lat="46.16922" lon="6.37948">
        <ele>691.97</ele>
        <time>2019-08-25T10:32:14.000Z</time>
      </trkpt>
      <trkpt lat="46.16933" lon="6.37954">
        <ele>692.77</ele>
        <time>2019-08-25T10:32:17.000Z</time>
      </trkpt>
      <trkpt lat="46.16946" lon="6.37962">
        <ele>694.1</ele>
        <time>2019-08-25T10:32:21.000Z</time>
      </trkpt>
      <trkpt lat="46.16955" lon="6.37967">
        <ele>695.58</ele>
        <time>2019-08-25T10:32:25.000Z</time>
      </trkpt>
      <trkpt lat="46.16968" lon="6.37974">
        <ele>696.83</ele>
        <time>2019-08-25T10:32:30.000Z</time>
      </trkpt>
      <trkpt lat="46.16975" lon="6.37982">
        <ele>697.9</ele>
        <time>2019-08-25T10:32:33.000Z</time>
      </trkpt>
      <trkpt lat="46.16982" lon="6.37991">
        <ele>699.08</ele>
        <time>2019-08-25T10:32:36.000Z</time>
      </trkpt>
      <trkpt lat="46.1699" lon="6.38001">
        <ele>702.83</ele>
        <time>2019-08-25T10:32:46.000Z</time>
      </trkpt>
      <trkpt lat="46.16993" lon="6.38015">
        <ele>704.21</ele>
        <time>2019-08-25T10:32:57.000Z</time>
      </trkpt>
      <trkpt lat="46.16995" lon="6.38029">
        <ele>704.51</ele>
        <time>2019-08-25T10:33:02.000Z</time>
      </trkpt>
      <trkpt lat="46.16994" lon="6.38042">
        <ele>705.65</ele>
        <time>2019-08-25T10:33:07.000Z</time>
      </trkpt>
      <trkpt lat="46.16993" lon="6.38057">
        <ele>707.57</ele>
        <time>2019-08-25T10:33:12.000Z</time>
      </trkpt>
      <trkpt lat="46.1699" lon="6.3807">
        <ele>710.4</ele>
        <time>2019-08-25T10:33:18.000Z</time>
      </trkpt>
      <trkpt lat="46.16988" lon="6.3809">
        <ele>712.47</ele>
        <time>2019-08-25T10:33:24.000Z</time>
      </trkpt>
      <trkpt lat="46.16986" lon="6.38104">
        <ele>713.97</ele>
        <time>2019-08-25T10:33:29.000Z</time>
      </trkpt>
      <trkpt lat="46.16986" lon="6.3812">
        <ele>715.27</ele>
        <time>2019-08-25T10:33:34.000Z</time>
      </trkpt>
      <trkpt lat="46.16992" lon="6.38135">
        <ele>716.46</ele>
        <time>2019-08-25T10:33:38.000Z</time>
      </trkpt>
      <trkpt lat="46.17002" lon="6.38149">
        <ele>717.78</ele>
        <time>2019-08-25T10:33:42.000Z</time>
      </trkpt>
      <trkpt lat="46.17014" lon="6.38157">
        <ele>719.5</ele>
        <time>2019-08-25T10:33:48.000Z</time>
      </trkpt>
      <trkpt lat="46.17024" lon="6.38162">
        <ele>721.41</ele>
        <time>2019-08-25T10:33:54.000Z</time>
      </trkpt>
      <trkpt lat="46.17033" lon="6.38174">
        <ele>723.31</ele>
        <time>2019-08-25T10:34:01.000Z</time>
      </trkpt>
      <trkpt lat="46.17043" lon="6.38185">
        <ele>724.89</ele>
        <time>2019-08-25T10:34:07.000Z</time>
      </trkpt>
      <trkpt lat="46.17063" lon="6.38202">
        <ele>726.16</ele>
        <time>2019-08-25T10:34:11.000Z</time>
      </trkpt>
      <trkpt lat="46.17075" lon="6.3822">
        <ele>726.53</ele>
        <time>2019-08-25T10:34:13.000Z</time>
      </trkpt>
      <trkpt lat="46.17097" lon="6.38221">
        <ele>727.06</ele>
        <time>2019-08-25T10:34:17.000Z</time>
      </trkpt>
      <trkpt lat="46.17107" lon="6.38215">
        <ele>728.18</ele>
        <time>2019-08-25T10:34:22.000Z</time>
      </trkpt>
      <trkpt lat="46.17115" lon="6.38221">
        <ele>728.82</ele>
        <time>2019-08-25T10:34:27.000Z</time>
      </trkpt>
      <trkpt lat="46.17129" lon="6.38237">
        <ele>729.73</ele>
        <time>2019-08-25T10:34:31.000Z</time>
      </trkpt>
      <trkpt lat="46.17136" lon="6.38249">
        <ele>730.61</ele>
        <time>2019-08-25T10:34:34.000Z</time>
      </trkpt>
      <trkpt lat="46.17146" lon="6.38254">
        <ele>731.44</ele>
        <time>2019-08-25T10:34:39.000Z</time>
      </trkpt>
      <trkpt lat="46.17154" lon="6.38247">
        <ele>732.13</ele>
        <time>2019-08-25T10:34:43.000Z</time>
      </trkpt>
      <trkpt lat="46.17165" lon="6.38246">
        <ele>733.33</ele>
        <time>2019-08-25T10:34:49.000Z</time>
      </trkpt>
      <trkpt lat="46.17173" lon="6.38253">
        <ele>735.03</ele>
        <time>2019-08-25T10:34:55.000Z</time>
      </trkpt>
      <trkpt lat="46.17181" lon="6.3826">
        <ele>737.73</ele>
        <time>2019-08-25T10:35:02.000Z</time>
      </trkpt>
      <trkpt lat="46.17193" lon="6.38265">
        <ele>740.69</ele>
        <time>2019-08-25T10:35:10.000Z</time>
      </trkpt>
      <trkpt lat="46.17205" lon="6.38265">
        <ele>741.89</ele>
        <time>2019-08-25T10:35:14.000Z</time>
      </trkpt>
      <trkpt lat="46.17221" lon="6.38263">
        <ele>743.37</ele>
        <time>2019-08-25T10:35:19.000Z</time>
      </trkpt>
      <trkpt lat="46.17232" lon="6.38261">
        <ele>744.19</ele>
        <time>2019-08-25T10:35:23.000Z</time>
      </trkpt>
      <trkpt lat="46.17245" lon="6.38252">
        <ele>745.19</ele>
        <time>2019-08-25T10:35:28.000Z</time>
      </trkpt>
      <trkpt lat="46.17258" lon="6.38242">
        <ele>746.59</ele>
        <time>2019-08-25T10:35:33.000Z</time>
      </trkpt>
      <trkpt lat="46.17268" lon="6.38236">
        <ele>747.66</ele>
        <time>2019-08-25T10:35:37.000Z</time>
      </trkpt>
      <trkpt lat="46.17278" lon="6.3823">
        <ele>749.59</ele>
        <time>2019-08-25T10:35:42.000Z</time>
      </trkpt>
      <trkpt lat="46.17289" lon="6.38225">
        <ele>751.02</ele>
        <time>2019-08-25T10:35:47.000Z</time>
      </trkpt>
      <trkpt lat="46.17294" lon="6.38209">
        <ele>751.74</ele>
        <time>2019-08-25T10:35:51.000Z</time>
      </trkpt>
      <trkpt lat="46.17285" lon="6.38182">
        <ele>751.82</ele>
        <time>2019-08-25T10:35:54.000Z</time>
      </trkpt>
      <trkpt lat="46.17284" lon="6.3815">
        <ele>751.81</ele>
        <time>2019-08-25T10:35:57.000Z</time>
      </trkpt>
      <trkpt lat="46.17272" lon="6.3814">
        <ele>749.73</ele>
        <time>2019-08-25T10:36:05.000Z</time>
      </trkpt>
      <trkpt lat="46.17263" lon="6.38136">
        <ele>748.27</ele>
        <time>2019-08-25T10:36:07.000Z</time>
      </trkpt>
      <trkpt lat="46.17253" lon="6.3813">
        <ele>747.63</ele>
        <time>2019-08-25T10:36:08.000Z</time>
      </trkpt>
      <trkpt lat="46.17244" lon="6.38122">
        <ele>744.86</ele>
        <time>2019-08-25T10:36:11.000Z</time>
      </trkpt>
      <trkpt lat="46.17237" lon="6.38115">
        <ele>740.37</ele>
        <time>2019-08-25T10:36:15.000Z</time>
      </trkpt>
      <trkpt lat="46.17228" lon="6.38104">
        <ele>735.04</ele>
        <time>2019-08-25T10:36:20.000Z</time>
      </trkpt>
      <trkpt lat="46.17221" lon="6.38094">
        <ele>731.65</ele>
        <time>2019-08-25T10:36:24.000Z</time>
      </trkpt>
      <trkpt lat="46.17217" lon="6.3808">
        <ele>727.52</ele>
        <time>2019-08-25T10:36:29.000Z</time>
      </trkpt>
      <trkpt lat="46.17212" lon="6.38068">
        <ele>723.36</ele>
        <time>2019-08-25T10:36:34.000Z</time>
      </trkpt>
      <trkpt lat="46.172" lon="6.38057">
        <ele>719.73</ele>
        <time>2019-08-25T10:36:38.000Z</time>
      </trkpt>
      <trkpt lat="46.17196" lon="6.38044">
        <ele>715.77</ele>
        <time>2019-08-25T10:36:43.000Z</time>
      </trkpt>
      <trkpt lat="46.17193" lon="6.38031">
        <ele>713.5</ele>
        <time>2019-08-25T10:36:46.000Z</time>
      </trkpt>
      <trkpt lat="46.17189" lon="6.38015">
        <ele>711.37</ele>
        <time>2019-08-25T10:36:51.000Z</time>
      </trkpt>
      <trkpt lat="46.17185" lon="6.38">
        <ele>710.85</ele>
        <time>2019-08-25T10:36:59.000Z</time>
      </trkpt>
      <trkpt lat="46.17172" lon="6.37968">
        <ele>711.05</ele>
        <time>2019-08-25T10:37:02.000Z</time>
      </trkpt>
      <trkpt lat="46.17164" lon="6.37953">
        <ele>711.34</ele>
        <time>2019-08-25T10:37:04.000Z</time>
      </trkpt>
      <trkpt lat="46.17158" lon="6.37942">
        <ele>710.98</ele>
        <time>2019-08-25T10:37:07.000Z</time>
      </trkpt>
      <trkpt lat="46.17152" lon="6.37929">
        <ele>708.16</ele>
        <time>2019-08-25T10:37:12.000Z</time>
      </trkpt>
      <trkpt lat="46.17152" lon="6.37914">
        <ele>701.66</ele>
        <time>2019-08-25T10:37:21.000Z</time>
      </trkpt>
      <trkpt lat="46.17152" lon="6.379">
        <ele>699.34</ele>
        <time>2019-08-25T10:37:25.000Z</time>
      </trkpt>
      <trkpt lat="46.1715" lon="6.37883">
        <ele>698.47</ele>
        <time>2019-08-25T10:37:28.000Z</time>
      </trkpt>
      <trkpt lat="46.17146" lon="6.37857">
        <ele>697.47</ele>
        <time>2019-08-25T10:37:31.000Z</time>
      </trkpt>
      <trkpt lat="46.17147" lon="6.37842">
        <ele>696.32</ele>
        <time>2019-08-25T10:37:33.000Z</time>
      </trkpt>
      <trkpt lat="46.17147" lon="6.37826">
        <ele>694.87</ele>
        <time>2019-08-25T10:37:35.000Z</time>
      </trkpt>
      <trkpt lat="46.17154" lon="6.37816">
        <ele>693.19</ele>
        <time>2019-08-25T10:37:37.000Z</time>
      </trkpt>
      <trkpt lat="46.17163" lon="6.37811">
        <ele>691.37</ele>
        <time>2019-08-25T10:37:39.000Z</time>
      </trkpt>
      <trkpt lat="46.17173" lon="6.37795">
        <ele>687.58</ele>
        <time>2019-08-25T10:37:42.000Z</time>
      </trkpt>
      <trkpt lat="46.17172" lon="6.37768">
        <ele>681.42</ele>
        <time>2019-08-25T10:37:46.000Z</time>
      </trkpt>
      <trkpt lat="46.17174" lon="6.37755">
        <ele>677.32</ele>
        <time>2019-08-25T10:37:49.000Z</time>
      </trkpt>
      <trkpt lat="46.17176" lon="6.37742">
        <ele>668.19</ele>
        <time>2019-08-25T10:37:58.000Z</time>
      </trkpt>
      <trkpt lat="46.17178" lon="6.37721">
        <ele>665.62</ele>
        <time>2019-08-25T10:38:03.000Z</time>
      </trkpt>
      <trkpt lat="46.17192" lon="6.37708">
        <ele>664.38</ele>
        <time>2019-08-25T10:38:07.000Z</time>
      </trkpt>
      <trkpt lat="46.172" lon="6.37701">
        <ele>664.24</ele>
        <time>2019-08-25T10:38:08.000Z</time>
      </trkpt>
      <trkpt lat="46.17206" lon="6.3769">
        <ele>664.1</ele>
        <time>2019-08-25T10:38:10.000Z</time>
      </trkpt>
      <trkpt lat="46.17215" lon="6.37676">
        <ele>663.59</ele>
        <time>2019-08-25T10:38:13.000Z</time>
      </trkpt>
      <trkpt lat="46.17224" lon="6.37664">
        <ele>663.3</ele>
        <time>2019-08-25T10:38:14.000Z</time>
      </trkpt>
      <trkpt lat="46.17241" lon="6.37653">
        <ele>662.32</ele>
        <time>2019-08-25T10:38:17.000Z</time>
      </trkpt>
      <trkpt lat="46.17254" lon="6.37642">
        <ele>661.63</ele>
        <time>2019-08-25T10:38:19.000Z</time>
      </trkpt>
      <trkpt lat="46.17272" lon="6.37627">
        <ele>660.07</ele>
        <time>2019-08-25T10:38:22.000Z</time>
      </trkpt>
      <trkpt lat="46.17284" lon="6.3762">
        <ele>658.3</ele>
        <time>2019-08-25T10:38:25.000Z</time>
      </trkpt>
      <trkpt lat="46.17294" lon="6.37613">
        <ele>657.64</ele>
        <time>2019-08-25T10:38:26.000Z</time>
      </trkpt>
      <trkpt lat="46.17306" lon="6.37603">
        <ele>656.7</ele>
        <time>2019-08-25T10:38:28.000Z</time>
      </trkpt>
      <trkpt lat="46.17318" lon="6.3759">
        <ele>655.86</ele>
        <time>2019-08-25T10:38:30.000Z</time>
      </trkpt>
      <trkpt lat="46.17327" lon="6.37572">
        <ele>655.05</ele>
        <time>2019-08-25T10:38:32.000Z</time>
      </trkpt>
      <trkpt lat="46.17341" lon="6.37537">
        <ele>653.41</ele>
        <time>2019-08-25T10:38:35.000Z</time>
      </trkpt>
      <trkpt lat="46.17347" lon="6.37511">
        <ele>652.6</ele>
        <time>2019-08-25T10:38:37.000Z</time>
      </trkpt>
      <trkpt lat="46.1736" lon="6.37494">
        <ele>651.63</ele>
        <time>2019-08-25T10:38:39.000Z</time>
      </trkpt>
      <trkpt lat="46.17372" lon="6.37488">
        <ele>650.64</ele>
        <time>2019-08-25T10:38:41.000Z</time>
      </trkpt>
      <trkpt lat="46.17389" lon="6.37489">
        <ele>648.92</ele>
        <time>2019-08-25T10:38:43.000Z</time>
      </trkpt>
      <trkpt lat="46.17407" lon="6.37488">
        <ele>646.9</ele>
        <time>2019-08-25T10:38:45.000Z</time>
      </trkpt>
      <trkpt lat="46.17434" lon="6.37481">
        <ele>644.18</ele>
        <time>2019-08-25T10:38:49.000Z</time>
      </trkpt>
      <trkpt lat="46.17443" lon="6.37479">
        <ele>643.57</ele>
        <time>2019-08-25T10:38:49.000Z</time>
      </trkpt>
      <trkpt lat="46.17462" lon="6.37478">
        <ele>642.24</ele>
        <time>2019-08-25T10:38:51.000Z</time>
      </trkpt>
      <trkpt lat="46.17472" lon="6.37476">
        <ele>641.21</ele>
        <time>2019-08-25T10:38:53.000Z</time>
      </trkpt>
      <trkpt lat="46.17489" lon="6.37472">
        <ele>641.05</ele>
        <time>2019-08-25T10:38:54.000Z</time>
      </trkpt>
      <trkpt lat="46.17498" lon="6.37473">
        <ele>640.81</ele>
        <time>2019-08-25T10:38:55.000Z</time>
      </trkpt>
      <trkpt lat="46.17521" lon="6.37479">
        <ele>640.7</ele>
        <time>2019-08-25T10:38:58.000Z</time>
      </trkpt>
      <trkpt lat="46.17534" lon="6.37483">
        <ele>641.09</ele>
        <time>2019-08-25T10:39:00.000Z</time>
      </trkpt>
      <trkpt lat="46.17546" lon="6.37487">
        <ele>641.49</ele>
        <time>2019-08-25T10:39:02.000Z</time>
      </trkpt>
      <trkpt lat="46.17562" lon="6.3749">
        <ele>642.18</ele>
        <time>2019-08-25T10:39:06.000Z</time>
      </trkpt>
      <trkpt lat="46.17574" lon="6.37497">
        <ele>643.05</ele>
        <time>2019-08-25T10:39:08.000Z</time>
      </trkpt>
      <trkpt lat="46.17592" lon="6.37506">
        <ele>644.33</ele>
        <time>2019-08-25T10:39:12.000Z</time>
      </trkpt>
      <trkpt lat="46.17606" lon="6.37515">
        <ele>644.51</ele>
        <time>2019-08-25T10:39:16.000Z</time>
      </trkpt>
      <trkpt lat="46.17618" lon="6.37521">
        <ele>645.33</ele>
        <time>2019-08-25T10:39:20.000Z</time>
      </trkpt>
      <trkpt lat="46.17636" lon="6.37526">
        <ele>646.32</ele>
        <time>2019-08-25T10:39:23.000Z</time>
      </trkpt>
      <trkpt lat="46.17648" lon="6.37533">
        <ele>647.78</ele>
        <time>2019-08-25T10:39:28.000Z</time>
      </trkpt>
      <trkpt lat="46.17657" lon="6.3754">
        <ele>650.5</ele>
        <time>2019-08-25T10:39:33.000Z</time>
      </trkpt>
      <trkpt lat="46.17667" lon="6.37547">
        <ele>652.77</ele>
        <time>2019-08-25T10:39:39.000Z</time>
      </trkpt>
      <trkpt lat="46.17677" lon="6.37552">
        <ele>653.5</ele>
        <time>2019-08-25T10:39:43.000Z</time>
      </trkpt>
      <trkpt lat="46.17688" lon="6.37551">
        <ele>654.62</ele>
        <time>2019-08-25T10:39:47.000Z</time>
      </trkpt>
      <trkpt lat="46.17701" lon="6.37545">
        <ele>656.78</ele>
        <time>2019-08-25T10:39:52.000Z</time>
      </trkpt>
      <trkpt lat="46.17712" lon="6.37541">
        <ele>658.61</ele>
        <time>2019-08-25T10:39:56.000Z</time>
      </trkpt>
      <trkpt lat="46.17722" lon="6.37536">
        <ele>659.95</ele>
        <time>2019-08-25T10:40:00.000Z</time>
      </trkpt>
      <trkpt lat="46.17734" lon="6.37534">
        <ele>660.69</ele>
        <time>2019-08-25T10:40:04.000Z</time>
      </trkpt>
      <trkpt lat="46.17744" lon="6.37532">
        <ele>661.23</ele>
        <time>2019-08-25T10:40:08.000Z</time>
      </trkpt>
      <trkpt lat="46.17754" lon="6.37531">
        <ele>661.88</ele>
        <time>2019-08-25T10:40:13.000Z</time>
      </trkpt>
      <trkpt lat="46.17769" lon="6.37526">
        <ele>663.3</ele>
        <time>2019-08-25T10:40:17.000Z</time>
      </trkpt>
      <trkpt lat="46.17782" lon="6.37524">
        <ele>663.83</ele>
        <time>2019-08-25T10:40:19.000Z</time>
      </trkpt>
      <trkpt lat="46.17796" lon="6.37524">
        <ele>664.46</ele>
        <time>2019-08-25T10:40:23.000Z</time>
      </trkpt>
      <trkpt lat="46.17812" lon="6.37521">
        <ele>665.57</ele>
        <time>2019-08-25T10:40:27.000Z</time>
      </trkpt>
      <trkpt lat="46.17823" lon="6.3752">
        <ele>666.42</ele>
        <time>2019-08-25T10:40:30.000Z</time>
      </trkpt>
      <trkpt lat="46.17834" lon="6.37526">
        <ele>667.04</ele>
        <time>2019-08-25T10:40:34.000Z</time>
      </trkpt>
      <trkpt lat="46.17846" lon="6.37529">
        <ele>667.48</ele>
        <time>2019-08-25T10:40:35.000Z</time>
      </trkpt>
      <trkpt lat="46.17855" lon="6.37532">
        <ele>667.93</ele>
        <time>2019-08-25T10:40:37.000Z</time>
      </trkpt>
      <trkpt lat="46.17868" lon="6.37535">
        <ele>668.85</ele>
        <time>2019-08-25T10:40:40.000Z</time>
      </trkpt>
      <trkpt lat="46.17879" lon="6.37535">
        <ele>669.33</ele>
        <time>2019-08-25T10:40:43.000Z</time>
      </trkpt>
      <trkpt lat="46.17897" lon="6.37528">
        <ele>669.95</ele>
        <time>2019-08-25T10:40:47.000Z</time>
      </trkpt>
      <trkpt lat="46.17908" lon="6.37524">
        <ele>669.94</ele>
        <time>2019-08-25T10:40:49.000Z</time>
      </trkpt>
      <trkpt lat="46.17918" lon="6.37518">
        <ele>670</ele>
        <time>2019-08-25T10:40:51.000Z</time>
      </trkpt>
      <trkpt lat="46.17928" lon="6.37513">
        <ele>670.07</ele>
        <time>2019-08-25T10:40:53.000Z</time>
      </trkpt>
      <trkpt lat="46.17939" lon="6.37513">
        <ele>670.3</ele>
        <time>2019-08-25T10:40:55.000Z</time>
      </trkpt>
      <trkpt lat="46.17949" lon="6.37517">
        <ele>670.6</ele>
        <time>2019-08-25T10:40:57.000Z</time>
      </trkpt>
      <trkpt lat="46.17962" lon="6.37524">
        <ele>670.79</ele>
        <time>2019-08-25T10:40:59.000Z</time>
      </trkpt>
      <trkpt lat="46.17974" lon="6.37538">
        <ele>670.82</ele>
        <time>2019-08-25T10:41:01.000Z</time>
      </trkpt>
      <trkpt lat="46.17989" lon="6.37551">
        <ele>670.65</ele>
        <time>2019-08-25T10:41:03.000Z</time>
      </trkpt>
      <trkpt lat="46.1801" lon="6.37569">
        <ele>670.04</ele>
        <time>2019-08-25T10:41:06.000Z</time>
      </trkpt>
      <trkpt lat="46.18018" lon="6.37589">
        <ele>669.34</ele>
        <time>2019-08-25T10:41:08.000Z</time>
      </trkpt>
      <trkpt lat="46.18026" lon="6.3762">
        <ele>668.18</ele>
        <time>2019-08-25T10:41:11.000Z</time>
      </trkpt>
      <trkpt lat="46.18035" lon="6.37641">
        <ele>666.29</ele>
        <time>2019-08-25T10:41:14.000Z</time>
      </trkpt>
      <trkpt lat="46.18053" lon="6.3765">
        <ele>664.74</ele>
        <time>2019-08-25T10:41:17.000Z</time>
      </trkpt>
      <trkpt lat="46.1806" lon="6.37661">
        <ele>663.36</ele>
        <time>2019-08-25T10:41:22.000Z</time>
      </trkpt>
      <trkpt lat="46.18068" lon="6.37671">
        <ele>665.96</ele>
        <time>2019-08-25T10:41:26.000Z</time>
      </trkpt>
      <trkpt lat="46.18077" lon="6.3768">
        <ele>668.81</ele>
        <time>2019-08-25T10:41:30.000Z</time>
      </trkpt>
      <trkpt lat="46.181" lon="6.37702">
        <ele>672.23</ele>
        <time>2019-08-25T10:41:39.000Z</time>
      </trkpt>
      <trkpt lat="46.18122" lon="6.37709">
        <ele>672.05</ele>
        <time>2019-08-25T10:41:42.000Z</time>
      </trkpt>
      <trkpt lat="46.18131" lon="6.37714">
        <ele>672.02</ele>
        <time>2019-08-25T10:41:44.000Z</time>
      </trkpt>
      <trkpt lat="46.1814" lon="6.37722">
        <ele>672.34</ele>
        <time>2019-08-25T10:41:48.000Z</time>
      </trkpt>
      <trkpt lat="46.18151" lon="6.37733">
        <ele>673.22</ele>
        <time>2019-08-25T10:41:52.000Z</time>
      </trkpt>
      <trkpt lat="46.18162" lon="6.37743">
        <ele>673.47</ele>
        <time>2019-08-25T10:41:53.000Z</time>
      </trkpt>
      <trkpt lat="46.18172" lon="6.37753">
        <ele>674.1</ele>
        <time>2019-08-25T10:41:55.000Z</time>
      </trkpt>
      <trkpt lat="46.18185" lon="6.37774">
        <ele>675.01</ele>
        <time>2019-08-25T10:41:58.000Z</time>
      </trkpt>
      <trkpt lat="46.18193" lon="6.37787">
        <ele>675.19</ele>
        <time>2019-08-25T10:42:00.000Z</time>
      </trkpt>
      <trkpt lat="46.182" lon="6.37803">
        <ele>675.1</ele>
        <time>2019-08-25T10:42:02.000Z</time>
      </trkpt>
      <trkpt lat="46.18211" lon="6.37816">
        <ele>675.25</ele>
        <time>2019-08-25T10:42:04.000Z</time>
      </trkpt>
      <trkpt lat="46.18221" lon="6.37831">
        <ele>675.24</ele>
        <time>2019-08-25T10:42:06.000Z</time>
      </trkpt>
      <trkpt lat="46.18232" lon="6.37841">
        <ele>674.99</ele>
        <time>2019-08-25T10:42:08.000Z</time>
      </trkpt>
      <trkpt lat="46.18243" lon="6.37856">
        <ele>674.68</ele>
        <time>2019-08-25T10:42:10.000Z</time>
      </trkpt>
      <trkpt lat="46.18248" lon="6.37875">
        <ele>673.97</ele>
        <time>2019-08-25T10:42:12.000Z</time>
      </trkpt>
      <trkpt lat="46.18257" lon="6.3789">
        <ele>673.44</ele>
        <time>2019-08-25T10:42:14.000Z</time>
      </trkpt>
      <trkpt lat="46.18271" lon="6.37893">
        <ele>673.31</ele>
        <time>2019-08-25T10:42:16.000Z</time>
      </trkpt>
      <trkpt lat="46.1828" lon="6.37896">
        <ele>673.26</ele>
        <time>2019-08-25T10:42:17.000Z</time>
      </trkpt>
      <trkpt lat="46.18298" lon="6.37898">
        <ele>673.38</ele>
        <time>2019-08-25T10:42:20.000Z</time>
      </trkpt>
      <trkpt lat="46.18305" lon="6.37905">
        <ele>673.47</ele>
        <time>2019-08-25T10:42:22.000Z</time>
      </trkpt>
      <trkpt lat="46.18316" lon="6.37907">
        <ele>673.52</ele>
        <time>2019-08-25T10:42:24.000Z</time>
      </trkpt>
      <trkpt lat="46.18327" lon="6.37911">
        <ele>673.49</ele>
        <time>2019-08-25T10:42:26.000Z</time>
      </trkpt>
      <trkpt lat="46.18349" lon="6.37917">
        <ele>673.31</ele>
        <time>2019-08-25T10:42:29.000Z</time>
      </trkpt>
      <trkpt lat="46.18371" lon="6.3792">
        <ele>672.82</ele>
        <time>2019-08-25T10:42:32.000Z</time>
      </trkpt>
      <trkpt lat="46.18385" lon="6.37925">
        <ele>672.33</ele>
        <time>2019-08-25T10:42:34.000Z</time>
      </trkpt>
      <trkpt lat="46.18394" lon="6.3793">
        <ele>671.93</ele>
        <time>2019-08-25T10:42:36.000Z</time>
      </trkpt>
      <trkpt lat="46.18404" lon="6.37931">
        <ele>671.62</ele>
        <time>2019-08-25T10:42:38.000Z</time>
      </trkpt>
      <trkpt lat="46.18416" lon="6.37932">
        <ele>671.68</ele>
        <time>2019-08-25T10:42:40.000Z</time>
      </trkpt>
      <trkpt lat="46.18428" lon="6.37932">
        <ele>671.94</ele>
        <time>2019-08-25T10:42:42.000Z</time>
      </trkpt>
      <trkpt lat="46.18439" lon="6.37934">
        <ele>672.33</ele>
        <time>2019-08-25T10:42:44.000Z</time>
      </trkpt>
      <trkpt lat="46.18451" lon="6.37934">
        <ele>672.82</ele>
        <time>2019-08-25T10:42:46.000Z</time>
      </trkpt>
      <trkpt lat="46.18461" lon="6.37939">
        <ele>673.18</ele>
        <time>2019-08-25T10:42:48.000Z</time>
      </trkpt>
      <trkpt lat="46.18475" lon="6.37949">
        <ele>674.2</ele>
        <time>2019-08-25T10:42:51.000Z</time>
      </trkpt>
      <trkpt lat="46.18484" lon="6.37959">
        <ele>675.16</ele>
        <time>2019-08-25T10:42:54.000Z</time>
      </trkpt>
      <trkpt lat="46.18486" lon="6.37972">
        <ele>676.12</ele>
        <time>2019-08-25T10:42:58.000Z</time>
      </trkpt>
      <trkpt lat="46.18487" lon="6.37991">
        <ele>677.9</ele>
        <time>2019-08-25T10:43:04.000Z</time>
      </trkpt>
      <trkpt lat="46.1848" lon="6.38003">
        <ele>680.03</ele>
        <time>2019-08-25T10:43:10.000Z</time>
      </trkpt>
      <trkpt lat="46.1847" lon="6.38004">
        <ele>682.22</ele>
        <time>2019-08-25T10:43:15.000Z</time>
      </trkpt>
      <trkpt lat="46.18459" lon="6.38006">
        <ele>683.85</ele>
        <time>2019-08-25T10:43:20.000Z</time>
      </trkpt>
      <trkpt lat="46.18449" lon="6.38008">
        <ele>685.61</ele>
        <time>2019-08-25T10:43:25.000Z</time>
      </trkpt>
      <trkpt lat="46.18442" lon="6.38018">
        <ele>686.78</ele>
        <time>2019-08-25T10:43:30.000Z</time>
      </trkpt>
      <trkpt lat="46.18435" lon="6.3803">
        <ele>687.99</ele>
        <time>2019-08-25T10:43:35.000Z</time>
      </trkpt>
      <trkpt lat="46.1843" lon="6.38043">
        <ele>689.11</ele>
        <time>2019-08-25T10:43:40.000Z</time>
      </trkpt>
      <trkpt lat="46.18428" lon="6.38057">
        <ele>690.18</ele>
        <time>2019-08-25T10:43:46.000Z</time>
      </trkpt>
      <trkpt lat="46.18421" lon="6.38066">
        <ele>691.6</ele>
        <time>2019-08-25T10:43:51.000Z</time>
      </trkpt>
      <trkpt lat="46.18412" lon="6.38074">
        <ele>693.29</ele>
        <time>2019-08-25T10:43:56.000Z</time>
      </trkpt>
      <trkpt lat="46.18403" lon="6.38086">
        <ele>695.73</ele>
        <time>2019-08-25T10:44:02.000Z</time>
      </trkpt>
      <trkpt lat="46.18396" lon="6.38097">
        <ele>697.04</ele>
        <time>2019-08-25T10:44:06.000Z</time>
      </trkpt>
      <trkpt lat="46.18387" lon="6.38105">
        <ele>698.39</ele>
        <time>2019-08-25T10:44:10.000Z</time>
      </trkpt>
      <trkpt lat="46.18378" lon="6.38112">
        <ele>699.62</ele>
        <time>2019-08-25T10:44:14.000Z</time>
      </trkpt>
      <trkpt lat="46.1837" lon="6.38121">
        <ele>700.55</ele>
        <time>2019-08-25T10:44:18.000Z</time>
      </trkpt>
      <trkpt lat="46.18362" lon="6.38124">
        <ele>701.46</ele>
        <time>2019-08-25T10:44:22.000Z</time>
      </trkpt>
      <trkpt lat="46.18354" lon="6.38133">
        <ele>702.31</ele>
        <time>2019-08-25T10:44:27.000Z</time>
      </trkpt>
      <trkpt lat="46.18347" lon="6.38148">
        <ele>703.94</ele>
        <time>2019-08-25T10:44:33.000Z</time>
      </trkpt>
      <trkpt lat="46.1834" lon="6.38158">
        <ele>705.22</ele>
        <time>2019-08-25T10:44:37.000Z</time>
      </trkpt>
      <trkpt lat="46.18334" lon="6.3817">
        <ele>706.71</ele>
        <time>2019-08-25T10:44:42.000Z</time>
      </trkpt>
      <trkpt lat="46.18326" lon="6.38186">
        <ele>707.91</ele>
        <time>2019-08-25T10:44:46.000Z</time>
      </trkpt>
      <trkpt lat="46.18322" lon="6.38198">
        <ele>708.6</ele>
        <time>2019-08-25T10:44:48.000Z</time>
      </trkpt>
      <trkpt lat="46.18322" lon="6.38214">
        <ele>709.7</ele>
        <time>2019-08-25T10:44:52.000Z</time>
      </trkpt>
      <trkpt lat="46.18334" lon="6.3822">
        <ele>710.57</ele>
        <time>2019-08-25T10:44:58.000Z</time>
      </trkpt>
      <trkpt lat="46.18354" lon="6.38224">
        <ele>710.59</ele>
        <time>2019-08-25T10:44:58.000Z</time>
      </trkpt>
      <trkpt lat="46.18375" lon="6.38224">
        <ele>710.67</ele>
        <time>2019-08-25T10:45:02.000Z</time>
      </trkpt>
      <trkpt lat="46.18394" lon="6.38237">
        <ele>710.76</ele>
        <time>2019-08-25T10:45:04.000Z</time>
      </trkpt>
      <trkpt lat="46.18401" lon="6.38249">
        <ele>710.67</ele>
        <time>2019-08-25T10:45:07.000Z</time>
      </trkpt>
      <trkpt lat="46.18408" lon="6.38262">
        <ele>710.46</ele>
        <time>2019-08-25T10:45:09.000Z</time>
      </trkpt>
      <trkpt lat="46.18415" lon="6.38271">
        <ele>710.42</ele>
        <time>2019-08-25T10:45:11.000Z</time>
      </trkpt>
      <trkpt lat="46.18421" lon="6.38283">
        <ele>710.67</ele>
        <time>2019-08-25T10:45:13.000Z</time>
      </trkpt>
      <trkpt lat="46.18423" lon="6.38296">
        <ele>711.78</ele>
        <time>2019-08-25T10:45:18.000Z</time>
      </trkpt>
      <trkpt lat="46.18434" lon="6.38292">
        <ele>714.01</ele>
        <time>2019-08-25T10:45:26.000Z</time>
      </trkpt>
      <trkpt lat="46.18445" lon="6.38282">
        <ele>716.32</ele>
        <time>2019-08-25T10:45:31.000Z</time>
      </trkpt>
      <trkpt lat="46.18457" lon="6.3828">
        <ele>718.66</ele>
        <time>2019-08-25T10:45:38.000Z</time>
      </trkpt>
      <trkpt lat="46.1847" lon="6.38283">
        <ele>720.77</ele>
        <time>2019-08-25T10:45:44.000Z</time>
      </trkpt>
      <trkpt lat="46.18482" lon="6.38288">
        <ele>722.91</ele>
        <time>2019-08-25T10:45:51.000Z</time>
      </trkpt>
      <trkpt lat="46.18493" lon="6.38293">
        <ele>724.55</ele>
        <time>2019-08-25T10:45:55.000Z</time>
      </trkpt>
      <trkpt lat="46.18501" lon="6.38297">
        <ele>725.88</ele>
        <time>2019-08-25T10:45:57.000Z</time>
      </trkpt>
      <trkpt lat="46.18512" lon="6.383">
        <ele>727.2</ele>
        <time>2019-08-25T10:46:02.000Z</time>
      </trkpt>
      <trkpt lat="46.18522" lon="6.38303">
        <ele>728.47</ele>
        <time>2019-08-25T10:46:06.000Z</time>
      </trkpt>
      <trkpt lat="46.18534" lon="6.38308">
        <ele>729.98</ele>
        <time>2019-08-25T10:46:11.000Z</time>
      </trkpt>
      <trkpt lat="46.1855" lon="6.38316">
        <ele>731.25</ele>
        <time>2019-08-25T10:46:16.000Z</time>
      </trkpt>
      <trkpt lat="46.18561" lon="6.38323">
        <ele>732.85</ele>
        <time>2019-08-25T10:46:20.000Z</time>
      </trkpt>
      <trkpt lat="46.18571" lon="6.38328">
        <ele>733.93</ele>
        <time>2019-08-25T10:46:24.000Z</time>
      </trkpt>
      <trkpt lat="46.18581" lon="6.38328">
        <ele>735.13</ele>
        <time>2019-08-25T10:46:30.000Z</time>
      </trkpt>
      <trkpt lat="46.18592" lon="6.38325">
        <ele>735.68</ele>
        <time>2019-08-25T10:46:34.000Z</time>
      </trkpt>
      <trkpt lat="46.18602" lon="6.38325">
        <ele>736.01</ele>
        <time>2019-08-25T10:46:39.000Z</time>
      </trkpt>
      <trkpt lat="46.18603" lon="6.38339">
        <ele>737.17</ele>
        <time>2019-08-25T10:46:45.000Z</time>
      </trkpt>
      <trkpt lat="46.18607" lon="6.38357">
        <ele>739.99</ele>
        <time>2019-08-25T10:46:53.000Z</time>
      </trkpt>
      <trkpt lat="46.1861" lon="6.38374">
        <ele>741.58</ele>
        <time>2019-08-25T10:46:57.000Z</time>
      </trkpt>
      <trkpt lat="46.18607" lon="6.38387">
        <ele>743.41</ele>
        <time>2019-08-25T10:47:03.000Z</time>
      </trkpt>
      <trkpt lat="46.18598" lon="6.38384">
        <ele>745.73</ele>
        <time>2019-08-25T10:47:11.000Z</time>
      </trkpt>
      <trkpt lat="46.18589" lon="6.38381">
        <ele>748.37</ele>
        <time>2019-08-25T10:47:17.000Z</time>
      </trkpt>
      <trkpt lat="46.18579" lon="6.38383">
        <ele>751.86</ele>
        <time>2019-08-25T10:47:24.000Z</time>
      </trkpt>
      <trkpt lat="46.18584" lon="6.38398">
        <ele>754.46</ele>
        <time>2019-08-25T10:47:31.000Z</time>
      </trkpt>
      <trkpt lat="46.18579" lon="6.38413">
        <ele>757.56</ele>
        <time>2019-08-25T10:47:38.000Z</time>
      </trkpt>
      <trkpt lat="46.18571" lon="6.38428">
        <ele>760.44</ele>
        <time>2019-08-25T10:47:45.000Z</time>
      </trkpt>
      <trkpt lat="46.18564" lon="6.38439">
        <ele>761.74</ele>
        <time>2019-08-25T10:47:49.000Z</time>
      </trkpt>
      <trkpt lat="46.18554" lon="6.38444">
        <ele>762.84</ele>
        <time>2019-08-25T10:47:53.000Z</time>
      </trkpt>
      <trkpt lat="46.18543" lon="6.38452">
        <ele>763.82</ele>
        <time>2019-08-25T10:47:57.000Z</time>
      </trkpt>
      <trkpt lat="46.18535" lon="6.38465">
        <ele>764.71</ele>
        <time>2019-08-25T10:48:01.000Z</time>
      </trkpt>
      <trkpt lat="46.1853" lon="6.38478">
        <ele>765.38</ele>
        <time>2019-08-25T10:48:04.000Z</time>
      </trkpt>
      <trkpt lat="46.18534" lon="6.38504">
        <ele>766.16</ele>
        <time>2019-08-25T10:48:08.000Z</time>
      </trkpt>
      <trkpt lat="46.18549" lon="6.3853">
        <ele>766.49</ele>
        <time>2019-08-25T10:48:11.000Z</time>
      </trkpt>
      <trkpt lat="46.18554" lon="6.38544">
        <ele>766.56</ele>
        <time>2019-08-25T10:48:13.000Z</time>
      </trkpt>
      <trkpt lat="46.18562" lon="6.38562">
        <ele>767.04</ele>
        <time>2019-08-25T10:48:18.000Z</time>
      </trkpt>
      <trkpt lat="46.18569" lon="6.38571">
        <ele>767.66</ele>
        <time>2019-08-25T10:48:21.000Z</time>
      </trkpt>
      <trkpt lat="46.18581" lon="6.38582">
        <ele>768.59</ele>
        <time>2019-08-25T10:48:25.000Z</time>
      </trkpt>
      <trkpt lat="46.18589" lon="6.3859">
        <ele>769.32</ele>
        <time>2019-08-25T10:48:28.000Z</time>
      </trkpt>
      <trkpt lat="46.18598" lon="6.38601">
        <ele>769.94</ele>
        <time>2019-08-25T10:48:30.000Z</time>
      </trkpt>
      <trkpt lat="46.18607" lon="6.38613">
        <ele>770.83</ele>
        <time>2019-08-25T10:48:33.000Z</time>
      </trkpt>
      <trkpt lat="46.18626" lon="6.38626">
        <ele>771.5</ele>
        <time>2019-08-25T10:48:36.000Z</time>
      </trkpt>
      <trkpt lat="46.18639" lon="6.38632">
        <ele>771.77</ele>
        <time>2019-08-25T10:48:39.000Z</time>
      </trkpt>
      <trkpt lat="46.18649" lon="6.38637">
        <ele>771.77</ele>
        <time>2019-08-25T10:48:43.000Z</time>
      </trkpt>
      <trkpt lat="46.18662" lon="6.38642">
        <ele>771.59</ele>
        <time>2019-08-25T10:48:47.000Z</time>
      </trkpt>
      <trkpt lat="46.18676" lon="6.38648">
        <ele>771.39</ele>
        <time>2019-08-25T10:48:51.000Z</time>
      </trkpt>
      <trkpt lat="46.18692" lon="6.3865">
        <ele>771.6</ele>
        <time>2019-08-25T10:48:56.000Z</time>
      </trkpt>
      <trkpt lat="46.18707" lon="6.38653">
        <ele>771.8</ele>
        <time>2019-08-25T10:48:58.000Z</time>
      </trkpt>
      <trkpt lat="46.1872" lon="6.38668">
        <ele>771.79</ele>
        <time>2019-08-25T10:49:00.000Z</time>
      </trkpt>
      <trkpt lat="46.18728" lon="6.38677">
        <ele>771.96</ele>
        <time>2019-08-25T10:49:02.000Z</time>
      </trkpt>
      <trkpt lat="46.18737" lon="6.38688">
        <ele>772.01</ele>
        <time>2019-08-25T10:49:04.000Z</time>
      </trkpt>
      <trkpt lat="46.18753" lon="6.38702">
        <ele>771.86</ele>
        <time>2019-08-25T10:49:06.000Z</time>
      </trkpt>
      <trkpt lat="46.18766" lon="6.38722">
        <ele>770.28</ele>
        <time>2019-08-25T10:49:09.000Z</time>
      </trkpt>
      <trkpt lat="46.18771" lon="6.38741">
        <ele>768.72</ele>
        <time>2019-08-25T10:49:11.000Z</time>
      </trkpt>
      <trkpt lat="46.18771" lon="6.38772">
        <ele>765.98</ele>
        <time>2019-08-25T10:49:14.000Z</time>
      </trkpt>
      <trkpt lat="46.18766" lon="6.3879">
        <ele>764.19</ele>
        <time>2019-08-25T10:49:16.000Z</time>
      </trkpt>
      <trkpt lat="46.18767" lon="6.38828">
        <ele>760.53</ele>
        <time>2019-08-25T10:49:19.000Z</time>
      </trkpt>
      <trkpt lat="46.18765" lon="6.3886">
        <ele>758.32</ele>
        <time>2019-08-25T10:49:21.000Z</time>
      </trkpt>
      <trkpt lat="46.18767" lon="6.38888">
        <ele>756.03</ele>
        <time>2019-08-25T10:49:23.000Z</time>
      </trkpt>
      <trkpt lat="46.18773" lon="6.38913">
        <ele>754.18</ele>
        <time>2019-08-25T10:49:25.000Z</time>
      </trkpt>
      <trkpt lat="46.18781" lon="6.38935">
        <ele>752.45</ele>
        <time>2019-08-25T10:49:27.000Z</time>
      </trkpt>
      <trkpt lat="46.18786" lon="6.38954">
        <ele>750.96</ele>
        <time>2019-08-25T10:49:29.000Z</time>
      </trkpt>
      <trkpt lat="46.18787" lon="6.38972">
        <ele>749.76</ele>
        <time>2019-08-25T10:49:31.000Z</time>
      </trkpt>
      <trkpt lat="46.18785" lon="6.38986">
        <ele>749.05</ele>
        <time>2019-08-25T10:49:33.000Z</time>
      </trkpt>
      <trkpt lat="46.18782" lon="6.39001">
        <ele>748.57</ele>
        <time>2019-08-25T10:49:35.000Z</time>
      </trkpt>
      <trkpt lat="46.18776" lon="6.39018">
        <ele>748.08</ele>
        <time>2019-08-25T10:49:37.000Z</time>
      </trkpt>
      <trkpt lat="46.1877" lon="6.39034">
        <ele>747.77</ele>
        <time>2019-08-25T10:49:39.000Z</time>
      </trkpt>
      <trkpt lat="46.18774" lon="6.39054">
        <ele>747.7</ele>
        <time>2019-08-25T10:49:41.000Z</time>
      </trkpt>
      <trkpt lat="46.18786" lon="6.39061">
        <ele>747.79</ele>
        <time>2019-08-25T10:49:43.000Z</time>
      </trkpt>
      <trkpt lat="46.18797" lon="6.39067">
        <ele>748.13</ele>
        <time>2019-08-25T10:49:45.000Z</time>
      </trkpt>
      <trkpt lat="46.1881" lon="6.39077">
        <ele>748.3</ele>
        <time>2019-08-25T10:49:47.000Z</time>
      </trkpt>
      <trkpt lat="46.1882" lon="6.39087">
        <ele>748.38</ele>
        <time>2019-08-25T10:49:49.000Z</time>
      </trkpt>
      <trkpt lat="46.1884" lon="6.39107">
        <ele>748.12</ele>
        <time>2019-08-25T10:49:52.000Z</time>
      </trkpt>
      <trkpt lat="46.18852" lon="6.39117">
        <ele>747.91</ele>
        <time>2019-08-25T10:49:54.000Z</time>
      </trkpt>
      <trkpt lat="46.18862" lon="6.39131">
        <ele>747.65</ele>
        <time>2019-08-25T10:49:56.000Z</time>
      </trkpt>
      <trkpt lat="46.18871" lon="6.39146">
        <ele>747.59</ele>
        <time>2019-08-25T10:49:58.000Z</time>
      </trkpt>
      <trkpt lat="46.18881" lon="6.39156">
        <ele>747.44</ele>
        <time>2019-08-25T10:50:00.000Z</time>
      </trkpt>
      <trkpt lat="46.18892" lon="6.39168">
        <ele>747.27</ele>
        <time>2019-08-25T10:50:02.000Z</time>
      </trkpt>
      <trkpt lat="46.18901" lon="6.39181">
        <ele>747.08</ele>
        <time>2019-08-25T10:50:04.000Z</time>
      </trkpt>
      <trkpt lat="46.1891" lon="6.39193">
        <ele>746.96</ele>
        <time>2019-08-25T10:50:06.000Z</time>
      </trkpt>
      <trkpt lat="46.18919" lon="6.39208">
        <ele>746.93</ele>
        <time>2019-08-25T10:50:08.000Z</time>
      </trkpt>
      <trkpt lat="46.18928" lon="6.39223">
        <ele>746.83</ele>
        <time>2019-08-25T10:50:10.000Z</time>
      </trkpt>
      <trkpt lat="46.18941" lon="6.39246">
        <ele>746.42</ele>
        <time>2019-08-25T10:50:13.000Z</time>
      </trkpt>
      <trkpt lat="46.18953" lon="6.39269">
        <ele>746.04</ele>
        <time>2019-08-25T10:50:16.000Z</time>
      </trkpt>
      <trkpt lat="46.18962" lon="6.39286">
        <ele>745.89</ele>
        <time>2019-08-25T10:50:18.000Z</time>
      </trkpt>
      <trkpt lat="46.18969" lon="6.39303">
        <ele>745.64</ele>
        <time>2019-08-25T10:50:20.000Z</time>
      </trkpt>
      <trkpt lat="46.18976" lon="6.3932">
        <ele>745.27</ele>
        <time>2019-08-25T10:50:22.000Z</time>
      </trkpt>
      <trkpt lat="46.18986" lon="6.39336">
        <ele>744.87</ele>
        <time>2019-08-25T10:50:24.000Z</time>
      </trkpt>
      <trkpt lat="46.18994" lon="6.39352">
        <ele>744.45</ele>
        <time>2019-08-25T10:50:26.000Z</time>
      </trkpt>
      <trkpt lat="46.19003" lon="6.39367">
        <ele>744.13</ele>
        <time>2019-08-25T10:50:28.000Z</time>
      </trkpt>
      <trkpt lat="46.19014" lon="6.39383">
        <ele>743.71</ele>
        <time>2019-08-25T10:50:30.000Z</time>
      </trkpt>
      <trkpt lat="46.19025" lon="6.39396">
        <ele>743.33</ele>
        <time>2019-08-25T10:50:32.000Z</time>
      </trkpt>
      <trkpt lat="46.19038" lon="6.39407">
        <ele>742.95</ele>
        <time>2019-08-25T10:50:34.000Z</time>
      </trkpt>
      <trkpt lat="46.19051" lon="6.39416">
        <ele>742.58</ele>
        <time>2019-08-25T10:50:36.000Z</time>
      </trkpt>
      <trkpt lat="46.19064" lon="6.39426">
        <ele>742.3</ele>
        <time>2019-08-25T10:50:38.000Z</time>
      </trkpt>
      <trkpt lat="46.19077" lon="6.39435">
        <ele>741.88</ele>
        <time>2019-08-25T10:50:40.000Z</time>
      </trkpt>
      <trkpt lat="46.19098" lon="6.3945">
        <ele>741.38</ele>
        <time>2019-08-25T10:50:43.000Z</time>
      </trkpt>
      <trkpt lat="46.1911" lon="6.39461">
        <ele>740.99</ele>
        <time>2019-08-25T10:50:45.000Z</time>
      </trkpt>
      <trkpt lat="46.19122" lon="6.39467">
        <ele>740.6</ele>
        <time>2019-08-25T10:50:47.000Z</time>
      </trkpt>
      <trkpt lat="46.19129" lon="6.39476">
        <ele>736.63</ele>
        <time>2019-08-25T10:59:38.000Z</time>
      </trkpt>
      <trkpt lat="46.19131" lon="6.39501">
        <ele>736.37</ele>
        <time>2019-08-25T10:59:44.000Z</time>
      </trkpt>
      <trkpt lat="46.19132" lon="6.39516">
        <ele>736.23</ele>
        <time>2019-08-25T10:59:46.000Z</time>
      </trkpt>
      <trkpt lat="46.19136" lon="6.39533">
        <ele>736.01</ele>
        <time>2019-08-25T10:59:48.000Z</time>
      </trkpt>
      <trkpt lat="46.19156" lon="6.3955">
        <ele>735.68</ele>
        <time>2019-08-25T10:59:51.000Z</time>
      </trkpt>
      <trkpt lat="46.19181" lon="6.39544">
        <ele>735.39</ele>
        <time>2019-08-25T10:59:54.000Z</time>
      </trkpt>
      <trkpt lat="46.1919" lon="6.39541">
        <ele>735.22</ele>
        <time>2019-08-25T10:59:55.000Z</time>
      </trkpt>
      <trkpt lat="46.19208" lon="6.39533">
        <ele>734.7</ele>
        <time>2019-08-25T10:59:57.000Z</time>
      </trkpt>
      <trkpt lat="46.19225" lon="6.39525">
        <ele>733.74</ele>
        <time>2019-08-25T10:59:59.000Z</time>
      </trkpt>
      <trkpt lat="46.19235" lon="6.39522">
        <ele>733.15</ele>
        <time>2019-08-25T11:00:00.000Z</time>
      </trkpt>
      <trkpt lat="46.19244" lon="6.39519">
        <ele>732.6</ele>
        <time>2019-08-25T11:00:01.000Z</time>
      </trkpt>
      <trkpt lat="46.19252" lon="6.39514">
        <ele>732.02</ele>
        <time>2019-08-25T11:00:02.000Z</time>
      </trkpt>
      <trkpt lat="46.19262" lon="6.3951">
        <ele>731.39</ele>
        <time>2019-08-25T11:00:03.000Z</time>
      </trkpt>
      <trkpt lat="46.1928" lon="6.39502">
        <ele>730.2</ele>
        <time>2019-08-25T11:00:05.000Z</time>
      </trkpt>
      <trkpt lat="46.19299" lon="6.39507">
        <ele>728.89</ele>
        <time>2019-08-25T11:00:07.000Z</time>
      </trkpt>
      <trkpt lat="46.19312" lon="6.39523">
        <ele>727.44</ele>
        <time>2019-08-25T11:00:09.000Z</time>
      </trkpt>
      <trkpt lat="46.19321" lon="6.3954">
        <ele>726.32</ele>
        <time>2019-08-25T11:00:11.000Z</time>
      </trkpt>
      <trkpt lat="46.19331" lon="6.39557">
        <ele>725.44</ele>
        <time>2019-08-25T11:00:13.000Z</time>
      </trkpt>
      <trkpt lat="46.19338" lon="6.39571">
        <ele>725.21</ele>
        <time>2019-08-25T11:00:15.000Z</time>
      </trkpt>
      <trkpt lat="46.19347" lon="6.39584">
        <ele>725.24</ele>
        <time>2019-08-25T11:00:17.000Z</time>
      </trkpt>
      <trkpt lat="46.19355" lon="6.39599">
        <ele>725.38</ele>
        <time>2019-08-25T11:00:19.000Z</time>
      </trkpt>
      <trkpt lat="46.19362" lon="6.39613">
        <ele>725.59</ele>
        <time>2019-08-25T11:00:21.000Z</time>
      </trkpt>
      <trkpt lat="46.19374" lon="6.39625">
        <ele>725.81</ele>
        <time>2019-08-25T11:00:23.000Z</time>
      </trkpt>
      <trkpt lat="46.19387" lon="6.39633">
        <ele>726.1</ele>
        <time>2019-08-25T11:00:25.000Z</time>
      </trkpt>
      <trkpt lat="46.19403" lon="6.39633">
        <ele>726.18</ele>
        <time>2019-08-25T11:00:27.000Z</time>
      </trkpt>
      <trkpt lat="46.19419" lon="6.39632">
        <ele>726.23</ele>
        <time>2019-08-25T11:00:29.000Z</time>
      </trkpt>
      <trkpt lat="46.19434" lon="6.39635">
        <ele>726.13</ele>
        <time>2019-08-25T11:00:31.000Z</time>
      </trkpt>
      <trkpt lat="46.19448" lon="6.39641">
        <ele>726.02</ele>
        <time>2019-08-25T11:00:33.000Z</time>
      </trkpt>
      <trkpt lat="46.19461" lon="6.39647">
        <ele>725.96</ele>
        <time>2019-08-25T11:00:35.000Z</time>
      </trkpt>
      <trkpt lat="46.19475" lon="6.39643">
        <ele>726.03</ele>
        <time>2019-08-25T11:00:37.000Z</time>
      </trkpt>
      <trkpt lat="46.1949" lon="6.39627">
        <ele>726.1</ele>
        <time>2019-08-25T11:00:40.000Z</time>
      </trkpt>
      <trkpt lat="46.19508" lon="6.39613">
        <ele>726.15</ele>
        <time>2019-08-25T11:00:43.000Z</time>
      </trkpt>
      <trkpt lat="46.19519" lon="6.39597">
        <ele>726.19</ele>
        <time>2019-08-25T11:00:45.000Z</time>
      </trkpt>
      <trkpt lat="46.19535" lon="6.39569">
        <ele>726.32</ele>
        <time>2019-08-25T11:00:48.000Z</time>
      </trkpt>
      <trkpt lat="46.19548" lon="6.39541">
        <ele>725.98</ele>
        <time>2019-08-25T11:00:51.000Z</time>
      </trkpt>
      <trkpt lat="46.19557" lon="6.39523">
        <ele>725.66</ele>
        <time>2019-08-25T11:00:53.000Z</time>
      </trkpt>
      <trkpt lat="46.19563" lon="6.39503">
        <ele>725.32</ele>
        <time>2019-08-25T11:00:55.000Z</time>
      </trkpt>
      <trkpt lat="46.19568" lon="6.39484">
        <ele>725.11</ele>
        <time>2019-08-25T11:00:57.000Z</time>
      </trkpt>
      <trkpt lat="46.19577" lon="6.39467">
        <ele>724.69</ele>
        <time>2019-08-25T11:00:59.000Z</time>
      </trkpt>
      <trkpt lat="46.19589" lon="6.39456">
        <ele>724.22</ele>
        <time>2019-08-25T11:01:01.000Z</time>
      </trkpt>
      <trkpt lat="46.19603" lon="6.39451">
        <ele>723.6</ele>
        <time>2019-08-25T11:01:03.000Z</time>
      </trkpt>
      <trkpt lat="46.19617" lon="6.39447">
        <ele>723.25</ele>
        <time>2019-08-25T11:01:05.000Z</time>
      </trkpt>
      <trkpt lat="46.1963" lon="6.39443">
        <ele>722.99</ele>
        <time>2019-08-25T11:01:07.000Z</time>
      </trkpt>
      <trkpt lat="46.19646" lon="6.39442">
        <ele>722.74</ele>
        <time>2019-08-25T11:01:09.000Z</time>
      </trkpt>
      <trkpt lat="46.1966" lon="6.3944">
        <ele>722.53</ele>
        <time>2019-08-25T11:01:11.000Z</time>
      </trkpt>
      <trkpt lat="46.19674" lon="6.39435">
        <ele>722.18</ele>
        <time>2019-08-25T11:01:13.000Z</time>
      </trkpt>
      <trkpt lat="46.19695" lon="6.39426">
        <ele>722.24</ele>
        <time>2019-08-25T11:01:16.000Z</time>
      </trkpt>
      <trkpt lat="46.19709" lon="6.39423">
        <ele>722.56</ele>
        <time>2019-08-25T11:01:18.000Z</time>
      </trkpt>
      <trkpt lat="46.19723" lon="6.3943">
        <ele>722.78</ele>
        <time>2019-08-25T11:01:20.000Z</time>
      </trkpt>
      <trkpt lat="46.19743" lon="6.39442">
        <ele>722.76</ele>
        <time>2019-08-25T11:01:23.000Z</time>
      </trkpt>
      <trkpt lat="46.19764" lon="6.39455">
        <ele>722.54</ele>
        <time>2019-08-25T11:01:26.000Z</time>
      </trkpt>
      <trkpt lat="46.19776" lon="6.39465">
        <ele>722.57</ele>
        <time>2019-08-25T11:01:28.000Z</time>
      </trkpt>
      <trkpt lat="46.19787" lon="6.39473">
        <ele>722.74</ele>
        <time>2019-08-25T11:01:30.000Z</time>
      </trkpt>
      <trkpt lat="46.19798" lon="6.39481">
        <ele>722.75</ele>
        <time>2019-08-25T11:01:32.000Z</time>
      </trkpt>
      <trkpt lat="46.19817" lon="6.3949">
        <ele>722.75</ele>
        <time>2019-08-25T11:01:35.000Z</time>
      </trkpt>
      <trkpt lat="46.19836" lon="6.39501">
        <ele>722.86</ele>
        <time>2019-08-25T11:01:38.000Z</time>
      </trkpt>
      <trkpt lat="46.19847" lon="6.3951">
        <ele>722.95</ele>
        <time>2019-08-25T11:01:40.000Z</time>
      </trkpt>
      <trkpt lat="46.19854" lon="6.39531">
        <ele>723.01</ele>
        <time>2019-08-25T11:01:43.000Z</time>
      </trkpt>
      <trkpt lat="46.19857" lon="6.39548">
        <ele>723.02</ele>
        <time>2019-08-25T11:01:45.000Z</time>
      </trkpt>
      <trkpt lat="46.19857" lon="6.39568">
        <ele>723.21</ele>
        <time>2019-08-25T11:01:47.000Z</time>
      </trkpt>
      <trkpt lat="46.19855" lon="6.39587">
        <ele>723.3</ele>
        <time>2019-08-25T11:01:49.000Z</time>
      </trkpt>
      <trkpt lat="46.19853" lon="6.39603">
        <ele>723.31</ele>
        <time>2019-08-25T11:01:51.000Z</time>
      </trkpt>
      <trkpt lat="46.1986" lon="6.39619">
        <ele>723.31</ele>
        <time>2019-08-25T11:01:53.000Z</time>
      </trkpt>
      <trkpt lat="46.19861" lon="6.39638">
        <ele>723.44</ele>
        <time>2019-08-25T11:01:55.000Z</time>
      </trkpt>
      <trkpt lat="46.19867" lon="6.39652">
        <ele>723.87</ele>
        <time>2019-08-25T11:01:57.000Z</time>
      </trkpt>
      <trkpt lat="46.19869" lon="6.39668">
        <ele>724.09</ele>
        <time>2019-08-25T11:01:59.000Z</time>
      </trkpt>
      <trkpt lat="46.19872" lon="6.39683">
        <ele>724.34</ele>
        <time>2019-08-25T11:02:01.000Z</time>
      </trkpt>
      <trkpt lat="46.19879" lon="6.39696">
        <ele>724.38</ele>
        <time>2019-08-25T11:02:03.000Z</time>
      </trkpt>
      <trkpt lat="46.19887" lon="6.39715">
        <ele>724.57</ele>
        <time>2019-08-25T11:02:06.000Z</time>
      </trkpt>
      <trkpt lat="46.19898" lon="6.39732">
        <ele>724.73</ele>
        <time>2019-08-25T11:02:09.000Z</time>
      </trkpt>
      <trkpt lat="46.19913" lon="6.3973">
        <ele>724.89</ele>
        <time>2019-08-25T11:02:12.000Z</time>
      </trkpt>
      <trkpt lat="46.19929" lon="6.39736">
        <ele>725.36</ele>
        <time>2019-08-25T11:02:15.000Z</time>
      </trkpt>
      <trkpt lat="46.19945" lon="6.39745">
        <ele>725.94</ele>
        <time>2019-08-25T11:02:18.000Z</time>
      </trkpt>
      <trkpt lat="46.19954" lon="6.39753">
        <ele>726.31</ele>
        <time>2019-08-25T11:02:20.000Z</time>
      </trkpt>
      <trkpt lat="46.19962" lon="6.39762">
        <ele>726.28</ele>
        <time>2019-08-25T11:02:22.000Z</time>
      </trkpt>
      <trkpt lat="46.19975" lon="6.39771">
        <ele>726.29</ele>
        <time>2019-08-25T11:02:24.000Z</time>
      </trkpt>
      <trkpt lat="46.19985" lon="6.39779">
        <ele>726.46</ele>
        <time>2019-08-25T11:02:26.000Z</time>
      </trkpt>
      <trkpt lat="46.19996" lon="6.39795">
        <ele>726.76</ele>
        <time>2019-08-25T11:02:29.000Z</time>
      </trkpt>
      <trkpt lat="46.20005" lon="6.39802">
        <ele>726.78</ele>
        <time>2019-08-25T11:02:31.000Z</time>
      </trkpt>
      <trkpt lat="46.20022" lon="6.39811">
        <ele>726.09</ele>
        <time>2019-08-25T11:02:35.000Z</time>
      </trkpt>
      <trkpt lat="46.20033" lon="6.39813">
        <ele>725.63</ele>
        <time>2019-08-25T11:02:37.000Z</time>
      </trkpt>
      <trkpt lat="46.20044" lon="6.39813">
        <ele>725.56</ele>
        <time>2019-08-25T11:02:39.000Z</time>
      </trkpt>
      <trkpt lat="46.20051" lon="6.39825">
        <ele>725.59</ele>
        <time>2019-08-25T11:02:41.000Z</time>
      </trkpt>
      <trkpt lat="46.20051" lon="6.39839">
        <ele>725.41</ele>
        <time>2019-08-25T11:02:43.000Z</time>
      </trkpt>
      <trkpt lat="46.20053" lon="6.39855">
        <ele>725.11</ele>
        <time>2019-08-25T11:02:48.000Z</time>
      </trkpt>
      <trkpt lat="46.2005" lon="6.39869">
        <ele>725.38</ele>
        <time>2019-08-25T11:02:50.000Z</time>
      </trkpt>
      <trkpt lat="46.20061" lon="6.39888">
        <ele>725.66</ele>
        <time>2019-08-25T11:02:54.000Z</time>
      </trkpt>
      <trkpt lat="46.20066" lon="6.39905">
        <ele>725.75</ele>
        <time>2019-08-25T11:02:56.000Z</time>
      </trkpt>
      <trkpt lat="46.20065" lon="6.39924">
        <ele>725.99</ele>
        <time>2019-08-25T11:02:58.000Z</time>
      </trkpt>
      <trkpt lat="46.20064" lon="6.39942">
        <ele>726.11</ele>
        <time>2019-08-25T11:03:00.000Z</time>
      </trkpt>
      <trkpt lat="46.20065" lon="6.39957">
        <ele>726.31</ele>
        <time>2019-08-25T11:03:02.000Z</time>
      </trkpt>
      <trkpt lat="46.20074" lon="6.3997">
        <ele>726.45</ele>
        <time>2019-08-25T11:03:04.000Z</time>
      </trkpt>
      <trkpt lat="46.20086" lon="6.39991">
        <ele>726.7</ele>
        <time>2019-08-25T11:03:07.000Z</time>
      </trkpt>
      <trkpt lat="46.20095" lon="6.39998">
        <ele>727.09</ele>
        <time>2019-08-25T11:03:09.000Z</time>
      </trkpt>
      <trkpt lat="46.20112" lon="6.39986">
        <ele>727.49</ele>
        <time>2019-08-25T11:03:12.000Z</time>
      </trkpt>
      <trkpt lat="46.20127" lon="6.39974">
        <ele>727.62</ele>
        <time>2019-08-25T11:03:15.000Z</time>
      </trkpt>
      <trkpt lat="46.20138" lon="6.39968">
        <ele>727.56</ele>
        <time>2019-08-25T11:03:17.000Z</time>
      </trkpt>
      <trkpt lat="46.2015" lon="6.3997">
        <ele>727.26</ele>
        <time>2019-08-25T11:03:19.000Z</time>
      </trkpt>
      <trkpt lat="46.20159" lon="6.39981">
        <ele>726.74</ele>
        <time>2019-08-25T11:03:21.000Z</time>
      </trkpt>
      <trkpt lat="46.20168" lon="6.39993">
        <ele>726.59</ele>
        <time>2019-08-25T11:03:23.000Z</time>
      </trkpt>
      <trkpt lat="46.20179" lon="6.40013">
        <ele>727</ele>
        <time>2019-08-25T11:03:26.000Z</time>
      </trkpt>
      <trkpt lat="46.2019" lon="6.4003">
        <ele>728.22</ele>
        <time>2019-08-25T11:03:29.000Z</time>
      </trkpt>
      <trkpt lat="46.202" lon="6.40042">
        <ele>728.66</ele>
        <time>2019-08-25T11:03:31.000Z</time>
      </trkpt>
      <trkpt lat="46.20207" lon="6.40058">
        <ele>729.02</ele>
        <time>2019-08-25T11:03:33.000Z</time>
      </trkpt>
      <trkpt lat="46.20212" lon="6.40074">
        <ele>729.26</ele>
        <time>2019-08-25T11:03:35.000Z</time>
      </trkpt>
      <trkpt lat="46.20215" lon="6.40087">
        <ele>729.67</ele>
        <time>2019-08-25T11:03:37.000Z</time>
      </trkpt>
      <trkpt lat="46.20219" lon="6.40103">
        <ele>729.66</ele>
        <time>2019-08-25T11:03:39.000Z</time>
      </trkpt>
      <trkpt lat="46.20226" lon="6.4013">
        <ele>729.07</ele>
        <time>2019-08-25T11:03:43.000Z</time>
      </trkpt>
      <trkpt lat="46.2023" lon="6.40144">
        <ele>728.94</ele>
        <time>2019-08-25T11:03:45.000Z</time>
      </trkpt>
      <trkpt lat="46.20229" lon="6.40161">
        <ele>729.15</ele>
        <time>2019-08-25T11:03:48.000Z</time>
      </trkpt>
      <trkpt lat="46.20237" lon="6.4018">
        <ele>729.77</ele>
        <time>2019-08-25T11:03:51.000Z</time>
      </trkpt>
      <trkpt lat="46.20255" lon="6.40205">
        <ele>730.7</ele>
        <time>2019-08-25T11:03:54.000Z</time>
      </trkpt>
      <trkpt lat="46.20264" lon="6.40212">
        <ele>731.39</ele>
        <time>2019-08-25T11:03:56.000Z</time>
      </trkpt>
      <trkpt lat="46.20276" lon="6.40219">
        <ele>731.9</ele>
        <time>2019-08-25T11:03:58.000Z</time>
      </trkpt>
      <trkpt lat="46.20287" lon="6.40225">
        <ele>731.91</ele>
        <time>2019-08-25T11:04:00.000Z</time>
      </trkpt>
      <trkpt lat="46.20297" lon="6.40245">
        <ele>731.06</ele>
        <time>2019-08-25T11:04:03.000Z</time>
      </trkpt>
      <trkpt lat="46.20309" lon="6.40263">
        <ele>730.16</ele>
        <time>2019-08-25T11:04:06.000Z</time>
      </trkpt>
      <trkpt lat="46.20319" lon="6.40275">
        <ele>729.71</ele>
        <time>2019-08-25T11:04:08.000Z</time>
      </trkpt>
      <trkpt lat="46.20333" lon="6.40293">
        <ele>729.67</ele>
        <time>2019-08-25T11:04:11.000Z</time>
      </trkpt>
      <trkpt lat="46.20344" lon="6.40304">
        <ele>729.49</ele>
        <time>2019-08-25T11:04:13.000Z</time>
      </trkpt>
      <trkpt lat="46.20353" lon="6.40315">
        <ele>729.42</ele>
        <time>2019-08-25T11:04:15.000Z</time>
      </trkpt>
      <trkpt lat="46.20363" lon="6.40323">
        <ele>729.56</ele>
        <time>2019-08-25T11:04:17.000Z</time>
      </trkpt>
      <trkpt lat="46.20371" lon="6.40329">
        <ele>730.2</ele>
        <time>2019-08-25T11:04:19.000Z</time>
      </trkpt>
      <trkpt lat="46.20381" lon="6.40339">
        <ele>730.88</ele>
        <time>2019-08-25T11:04:21.000Z</time>
      </trkpt>
      <trkpt lat="46.2039" lon="6.40346">
        <ele>731.87</ele>
        <time>2019-08-25T11:04:23.000Z</time>
      </trkpt>
      <trkpt lat="46.20404" lon="6.40354">
        <ele>732.18</ele>
        <time>2019-08-25T11:04:25.000Z</time>
      </trkpt>
      <trkpt lat="46.20418" lon="6.40351">
        <ele>732.71</ele>
        <time>2019-08-25T11:04:27.000Z</time>
      </trkpt>
      <trkpt lat="46.20435" lon="6.40358">
        <ele>733.44</ele>
        <time>2019-08-25T11:04:31.000Z</time>
      </trkpt>
      <trkpt lat="46.20445" lon="6.40363">
        <ele>733.66</ele>
        <time>2019-08-25T11:04:33.000Z</time>
      </trkpt>
      <trkpt lat="46.20455" lon="6.4037">
        <ele>733.53</ele>
        <time>2019-08-25T11:04:35.000Z</time>
      </trkpt>
      <trkpt lat="46.20465" lon="6.40372">
        <ele>733.54</ele>
        <time>2019-08-25T11:04:37.000Z</time>
      </trkpt>
      <trkpt lat="46.20478" lon="6.40382">
        <ele>733.23</ele>
        <time>2019-08-25T11:04:40.000Z</time>
      </trkpt>
      <trkpt lat="46.20487" lon="6.4039">
        <ele>733.14</ele>
        <time>2019-08-25T11:04:42.000Z</time>
      </trkpt>
      <trkpt lat="46.2049" lon="6.40404">
        <ele>732.69</ele>
        <time>2019-08-25T11:04:44.000Z</time>
      </trkpt>
      <trkpt lat="46.20495" lon="6.40417">
        <ele>732.12</ele>
        <time>2019-08-25T11:04:46.000Z</time>
      </trkpt>
      <trkpt lat="46.20507" lon="6.40435">
        <ele>731.4</ele>
        <time>2019-08-25T11:04:49.000Z</time>
      </trkpt>
      <trkpt lat="46.20519" lon="6.40448">
        <ele>731.3</ele>
        <time>2019-08-25T11:04:52.000Z</time>
      </trkpt>
      <trkpt lat="46.20532" lon="6.40452">
        <ele>731.7</ele>
        <time>2019-08-25T11:04:54.000Z</time>
      </trkpt>
      <trkpt lat="46.20544" lon="6.40464">
        <ele>732.18</ele>
        <time>2019-08-25T11:04:57.000Z</time>
      </trkpt>
      <trkpt lat="46.20558" lon="6.40477">
        <ele>732.6</ele>
        <time>2019-08-25T11:05:00.000Z</time>
      </trkpt>
      <trkpt lat="46.20575" lon="6.40493">
        <ele>733.42</ele>
        <time>2019-08-25T11:05:03.000Z</time>
      </trkpt>
      <trkpt lat="46.20588" lon="6.40511">
        <ele>733.94</ele>
        <time>2019-08-25T11:05:06.000Z</time>
      </trkpt>
      <trkpt lat="46.20599" lon="6.4053">
        <ele>734.06</ele>
        <time>2019-08-25T11:05:09.000Z</time>
      </trkpt>
      <trkpt lat="46.2061" lon="6.4054">
        <ele>733.92</ele>
        <time>2019-08-25T11:05:11.000Z</time>
      </trkpt>
      <trkpt lat="46.2062" lon="6.40554">
        <ele>733.57</ele>
        <time>2019-08-25T11:05:13.000Z</time>
      </trkpt>
      <trkpt lat="46.20626" lon="6.40568">
        <ele>733.1</ele>
        <time>2019-08-25T11:05:15.000Z</time>
      </trkpt>
      <trkpt lat="46.20633" lon="6.40582">
        <ele>732.88</ele>
        <time>2019-08-25T11:05:17.000Z</time>
      </trkpt>
      <trkpt lat="46.20637" lon="6.40596">
        <ele>733.02</ele>
        <time>2019-08-25T11:05:19.000Z</time>
      </trkpt>
      <trkpt lat="46.20644" lon="6.40608">
        <ele>733.85</ele>
        <time>2019-08-25T11:05:21.000Z</time>
      </trkpt>
      <trkpt lat="46.20652" lon="6.4062">
        <ele>734.77</ele>
        <time>2019-08-25T11:05:23.000Z</time>
      </trkpt>
      <trkpt lat="46.20657" lon="6.40641">
        <ele>735.14</ele>
        <time>2019-08-25T11:05:26.000Z</time>
      </trkpt>
      <trkpt lat="46.20667" lon="6.40662">
        <ele>734.83</ele>
        <time>2019-08-25T11:05:29.000Z</time>
      </trkpt>
      <trkpt lat="46.20679" lon="6.40686">
        <ele>734.54</ele>
        <time>2019-08-25T11:05:32.000Z</time>
      </trkpt>
      <trkpt lat="46.20687" lon="6.40701">
        <ele>734.06</ele>
        <time>2019-08-25T11:05:34.000Z</time>
      </trkpt>
      <trkpt lat="46.20692" lon="6.40716">
        <ele>733.27</ele>
        <time>2019-08-25T11:05:36.000Z</time>
      </trkpt>
      <trkpt lat="46.20693" lon="6.40733">
        <ele>732.25</ele>
        <time>2019-08-25T11:05:38.000Z</time>
      </trkpt>
      <trkpt lat="46.20702" lon="6.40745">
        <ele>731.39</ele>
        <time>2019-08-25T11:05:40.000Z</time>
      </trkpt>
      <trkpt lat="46.2071" lon="6.40756">
        <ele>731.47</ele>
        <time>2019-08-25T11:05:44.000Z</time>
      </trkpt>
      <trkpt lat="46.20719" lon="6.40742">
        <ele>733.05</ele>
        <time>2019-08-25T11:05:48.000Z</time>
      </trkpt>
      <trkpt lat="46.20728" lon="6.4073">
        <ele>733.49</ele>
        <time>2019-08-25T11:05:51.000Z</time>
      </trkpt>
      <trkpt lat="46.20738" lon="6.40717">
        <ele>734.25</ele>
        <time>2019-08-25T11:05:54.000Z</time>
      </trkpt>
      <trkpt lat="46.20747" lon="6.40708">
        <ele>735.55</ele>
        <time>2019-08-25T11:05:56.000Z</time>
      </trkpt>
      <trkpt lat="46.20757" lon="6.40696">
        <ele>737.14</ele>
        <time>2019-08-25T11:05:58.000Z</time>
      </trkpt>
      <trkpt lat="46.20766" lon="6.40685">
        <ele>738.56</ele>
        <time>2019-08-25T11:06:00.000Z</time>
      </trkpt>
      <trkpt lat="46.20774" lon="6.40674">
        <ele>739.1</ele>
        <time>2019-08-25T11:06:02.000Z</time>
      </trkpt>
      <trkpt lat="46.20784" lon="6.40661">
        <ele>739.15</ele>
        <time>2019-08-25T11:06:04.000Z</time>
      </trkpt>
      <trkpt lat="46.20792" lon="6.40649">
        <ele>739.03</ele>
        <time>2019-08-25T11:06:06.000Z</time>
      </trkpt>
      <trkpt lat="46.208" lon="6.40635">
        <ele>738.93</ele>
        <time>2019-08-25T11:06:08.000Z</time>
      </trkpt>
      <trkpt lat="46.20807" lon="6.40622">
        <ele>738.84</ele>
        <time>2019-08-25T11:06:10.000Z</time>
      </trkpt>
      <trkpt lat="46.20815" lon="6.4061">
        <ele>738.81</ele>
        <time>2019-08-25T11:06:12.000Z</time>
      </trkpt>
      <trkpt lat="46.20824" lon="6.406">
        <ele>738.93</ele>
        <time>2019-08-25T11:06:14.000Z</time>
      </trkpt>
      <trkpt lat="46.20833" lon="6.40589">
        <ele>739.13</ele>
        <time>2019-08-25T11:06:16.000Z</time>
      </trkpt>
      <trkpt lat="46.20844" lon="6.40581">
        <ele>739.37</ele>
        <time>2019-08-25T11:06:18.000Z</time>
      </trkpt>
      <trkpt lat="46.20856" lon="6.40581">
        <ele>739.71</ele>
        <time>2019-08-25T11:06:20.000Z</time>
      </trkpt>
      <trkpt lat="46.20868" lon="6.4058">
        <ele>740.19</ele>
        <time>2019-08-25T11:06:22.000Z</time>
      </trkpt>
      <trkpt lat="46.20881" lon="6.40578">
        <ele>740.77</ele>
        <time>2019-08-25T11:06:24.000Z</time>
      </trkpt>
      <trkpt lat="46.20898" lon="6.40573">
        <ele>741.46</ele>
        <time>2019-08-25T11:06:27.000Z</time>
      </trkpt>
      <trkpt lat="46.20912" lon="6.40567">
        <ele>741.88</ele>
        <time>2019-08-25T11:06:29.000Z</time>
      </trkpt>
      <trkpt lat="46.20926" lon="6.40563">
        <ele>742.24</ele>
        <time>2019-08-25T11:06:31.000Z</time>
      </trkpt>
      <trkpt lat="46.20944" lon="6.40557">
        <ele>742.92</ele>
        <time>2019-08-25T11:06:34.000Z</time>
      </trkpt>
      <trkpt lat="46.20956" lon="6.40559">
        <ele>743.51</ele>
        <time>2019-08-25T11:06:37.000Z</time>
      </trkpt>
      <trkpt lat="46.20966" lon="6.40579">
        <ele>743.93</ele>
        <time>2019-08-25T11:06:40.000Z</time>
      </trkpt>
      <trkpt lat="46.20972" lon="6.40593">
        <ele>744.18</ele>
        <time>2019-08-25T11:06:42.000Z</time>
      </trkpt>
      <trkpt lat="46.20977" lon="6.4061">
        <ele>744.45</ele>
        <time>2019-08-25T11:06:44.000Z</time>
      </trkpt>
      <trkpt lat="46.20981" lon="6.40626">
        <ele>744.76</ele>
        <time>2019-08-25T11:06:46.000Z</time>
      </trkpt>
      <trkpt lat="46.20985" lon="6.40644">
        <ele>745.21</ele>
        <time>2019-08-25T11:06:48.000Z</time>
      </trkpt>
      <trkpt lat="46.2099" lon="6.40661">
        <ele>745.49</ele>
        <time>2019-08-25T11:06:50.000Z</time>
      </trkpt>
      <trkpt lat="46.20995" lon="6.40679">
        <ele>745.72</ele>
        <time>2019-08-25T11:06:52.000Z</time>
      </trkpt>
      <trkpt lat="46.21001" lon="6.40705">
        <ele>745.95</ele>
        <time>2019-08-25T11:06:55.000Z</time>
      </trkpt>
      <trkpt lat="46.21011" lon="6.40732">
        <ele>746.27</ele>
        <time>2019-08-25T11:06:58.000Z</time>
      </trkpt>
      <trkpt lat="46.2102" lon="6.40758">
        <ele>746.54</ele>
        <time>2019-08-25T11:07:01.000Z</time>
      </trkpt>
      <trkpt lat="46.21027" lon="6.40785">
        <ele>746.71</ele>
        <time>2019-08-25T11:07:04.000Z</time>
      </trkpt>
      <trkpt lat="46.21033" lon="6.40803">
        <ele>746.84</ele>
        <time>2019-08-25T11:07:06.000Z</time>
      </trkpt>
      <trkpt lat="46.21041" lon="6.40831">
        <ele>747.05</ele>
        <time>2019-08-25T11:07:09.000Z</time>
      </trkpt>
      <trkpt lat="46.21046" lon="6.40849">
        <ele>747.22</ele>
        <time>2019-08-25T11:07:11.000Z</time>
      </trkpt>
      <trkpt lat="46.21054" lon="6.40865">
        <ele>747.42</ele>
        <time>2019-08-25T11:07:13.000Z</time>
      </trkpt>
      <trkpt lat="46.21061" lon="6.40884">
        <ele>747.63</ele>
        <time>2019-08-25T11:07:15.000Z</time>
      </trkpt>
      <trkpt lat="46.2107" lon="6.40899">
        <ele>747.94</ele>
        <time>2019-08-25T11:07:17.000Z</time>
      </trkpt>
      <trkpt lat="46.21081" lon="6.40924">
        <ele>748.34</ele>
        <time>2019-08-25T11:07:20.000Z</time>
      </trkpt>
      <trkpt lat="46.21093" lon="6.40951">
        <ele>748.8</ele>
        <time>2019-08-25T11:07:23.000Z</time>
      </trkpt>
      <trkpt lat="46.21099" lon="6.4097">
        <ele>749.1</ele>
        <time>2019-08-25T11:07:25.000Z</time>
      </trkpt>
      <trkpt lat="46.21106" lon="6.40989">
        <ele>749.4</ele>
        <time>2019-08-25T11:07:27.000Z</time>
      </trkpt>
      <trkpt lat="46.21114" lon="6.41007">
        <ele>749.68</ele>
        <time>2019-08-25T11:07:29.000Z</time>
      </trkpt>
      <trkpt lat="46.21124" lon="6.41034">
        <ele>749.99</ele>
        <time>2019-08-25T11:07:32.000Z</time>
      </trkpt>
      <trkpt lat="46.21132" lon="6.41052">
        <ele>750.21</ele>
        <time>2019-08-25T11:07:34.000Z</time>
      </trkpt>
      <trkpt lat="46.21138" lon="6.4107">
        <ele>750.42</ele>
        <time>2019-08-25T11:07:36.000Z</time>
      </trkpt>
      <trkpt lat="46.21144" lon="6.41088">
        <ele>750.68</ele>
        <time>2019-08-25T11:07:38.000Z</time>
      </trkpt>
      <trkpt lat="46.21154" lon="6.41115">
        <ele>751.19</ele>
        <time>2019-08-25T11:07:41.000Z</time>
      </trkpt>
      <trkpt lat="46.21163" lon="6.41142">
        <ele>751.57</ele>
        <time>2019-08-25T11:07:44.000Z</time>
      </trkpt>
      <trkpt lat="46.2117" lon="6.41159">
        <ele>751.61</ele>
        <time>2019-08-25T11:07:46.000Z</time>
      </trkpt>
      <trkpt lat="46.21178" lon="6.41176">
        <ele>751.48</ele>
        <time>2019-08-25T11:07:48.000Z</time>
      </trkpt>
      <trkpt lat="46.21188" lon="6.41191">
        <ele>751.34</ele>
        <time>2019-08-25T11:07:50.000Z</time>
      </trkpt>
      <trkpt lat="46.21199" lon="6.41207">
        <ele>751.21</ele>
        <time>2019-08-25T11:07:52.000Z</time>
      </trkpt>
      <trkpt lat="46.2121" lon="6.41219">
        <ele>751.14</ele>
        <time>2019-08-25T11:07:54.000Z</time>
      </trkpt>
      <trkpt lat="46.21218" lon="6.41237">
        <ele>751.06</ele>
        <time>2019-08-25T11:07:56.000Z</time>
      </trkpt>
      <trkpt lat="46.21217" lon="6.41259">
        <ele>751.23</ele>
        <time>2019-08-25T11:07:58.000Z</time>
      </trkpt>
      <trkpt lat="46.21215" lon="6.41281">
        <ele>751.36</ele>
        <time>2019-08-25T11:08:00.000Z</time>
      </trkpt>
      <trkpt lat="46.21213" lon="6.413">
        <ele>751.68</ele>
        <time>2019-08-25T11:08:02.000Z</time>
      </trkpt>
      <trkpt lat="46.21223" lon="6.41322">
        <ele>751.66</ele>
        <time>2019-08-25T11:08:05.000Z</time>
      </trkpt>
      <trkpt lat="46.21238" lon="6.4134">
        <ele>751.42</ele>
        <time>2019-08-25T11:08:08.000Z</time>
      </trkpt>
      <trkpt lat="46.21248" lon="6.41363">
        <ele>751</ele>
        <time>2019-08-25T11:08:11.000Z</time>
      </trkpt>
      <trkpt lat="46.21242" lon="6.41391">
        <ele>750.23</ele>
        <time>2019-08-25T11:08:14.000Z</time>
      </trkpt>
      <trkpt lat="46.21238" lon="6.41412">
        <ele>749.73</ele>
        <time>2019-08-25T11:08:16.000Z</time>
      </trkpt>
      <trkpt lat="46.2124" lon="6.41433">
        <ele>748.92</ele>
        <time>2019-08-25T11:08:18.000Z</time>
      </trkpt>
      <trkpt lat="46.2125" lon="6.4145">
        <ele>748.62</ele>
        <time>2019-08-25T11:08:20.000Z</time>
      </trkpt>
      <trkpt lat="46.21262" lon="6.41464">
        <ele>748.61</ele>
        <time>2019-08-25T11:08:22.000Z</time>
      </trkpt>
      <trkpt lat="46.2127" lon="6.41478">
        <ele>748.92</ele>
        <time>2019-08-25T11:08:24.000Z</time>
      </trkpt>
      <trkpt lat="46.21278" lon="6.41492">
        <ele>749.56</ele>
        <time>2019-08-25T11:08:26.000Z</time>
      </trkpt>
      <trkpt lat="46.21285" lon="6.41509">
        <ele>749.9</ele>
        <time>2019-08-25T11:08:28.000Z</time>
      </trkpt>
      <trkpt lat="46.21293" lon="6.41538">
        <ele>750.3</ele>
        <time>2019-08-25T11:08:31.000Z</time>
      </trkpt>
      <trkpt lat="46.21299" lon="6.41556">
        <ele>750.51</ele>
        <time>2019-08-25T11:08:33.000Z</time>
      </trkpt>
      <trkpt lat="46.213" lon="6.41573">
        <ele>750.78</ele>
        <time>2019-08-25T11:08:35.000Z</time>
      </trkpt>
      <trkpt lat="46.21304" lon="6.416">
        <ele>750.36</ele>
        <time>2019-08-25T11:08:38.000Z</time>
      </trkpt>
      <trkpt lat="46.21297" lon="6.41628">
        <ele>749.31</ele>
        <time>2019-08-25T11:08:41.000Z</time>
      </trkpt>
      <trkpt lat="46.21291" lon="6.41658">
        <ele>748.41</ele>
        <time>2019-08-25T11:08:44.000Z</time>
      </trkpt>
      <trkpt lat="46.21287" lon="6.41678">
        <ele>748.24</ele>
        <time>2019-08-25T11:08:46.000Z</time>
      </trkpt>
      <trkpt lat="46.21283" lon="6.41698">
        <ele>748.14</ele>
        <time>2019-08-25T11:08:48.000Z</time>
      </trkpt>
      <trkpt lat="46.21286" lon="6.41718">
        <ele>748.33</ele>
        <time>2019-08-25T11:08:50.000Z</time>
      </trkpt>
      <trkpt lat="46.21289" lon="6.41738">
        <ele>748.64</ele>
        <time>2019-08-25T11:08:52.000Z</time>
      </trkpt>
      <trkpt lat="46.21291" lon="6.41757">
        <ele>749.06</ele>
        <time>2019-08-25T11:08:54.000Z</time>
      </trkpt>
      <trkpt lat="46.21295" lon="6.41773">
        <ele>749.55</ele>
        <time>2019-08-25T11:08:56.000Z</time>
      </trkpt>
      <trkpt lat="46.21298" lon="6.41789">
        <ele>750.03</ele>
        <time>2019-08-25T11:08:58.000Z</time>
      </trkpt>
      <trkpt lat="46.21301" lon="6.41809">
        <ele>750.49</ele>
        <time>2019-08-25T11:09:00.000Z</time>
      </trkpt>
      <trkpt lat="46.21305" lon="6.41825">
        <ele>750.58</ele>
        <time>2019-08-25T11:09:02.000Z</time>
      </trkpt>
      <trkpt lat="46.21305" lon="6.41843">
        <ele>750.47</ele>
        <time>2019-08-25T11:09:04.000Z</time>
      </trkpt>
      <trkpt lat="46.21299" lon="6.41874">
        <ele>750.13</ele>
        <time>2019-08-25T11:09:07.000Z</time>
      </trkpt>
      <trkpt lat="46.21299" lon="6.41893">
        <ele>750.07</ele>
        <time>2019-08-25T11:09:09.000Z</time>
      </trkpt>
      <trkpt lat="46.21297" lon="6.41923">
        <ele>750.36</ele>
        <time>2019-08-25T11:09:12.000Z</time>
      </trkpt>
      <trkpt lat="46.21291" lon="6.41936">
        <ele>750.58</ele>
        <time>2019-08-25T11:09:14.000Z</time>
      </trkpt>
      <trkpt lat="46.21288" lon="6.41954">
        <ele>751</ele>
        <time>2019-08-25T11:09:16.000Z</time>
      </trkpt>
      <trkpt lat="46.21285" lon="6.41972">
        <ele>751.51</ele>
        <time>2019-08-25T11:09:18.000Z</time>
      </trkpt>
      <trkpt lat="46.21283" lon="6.41987">
        <ele>752.21</ele>
        <time>2019-08-25T11:09:20.000Z</time>
      </trkpt>
      <trkpt lat="46.21276" lon="6.42003">
        <ele>753.05</ele>
        <time>2019-08-25T11:09:22.000Z</time>
      </trkpt>
      <trkpt lat="46.21283" lon="6.42021">
        <ele>753.85</ele>
        <time>2019-08-25T11:09:24.000Z</time>
      </trkpt>
      <trkpt lat="46.2129" lon="6.42033">
        <ele>754.89</ele>
        <time>2019-08-25T11:09:26.000Z</time>
      </trkpt>
      <trkpt lat="46.21298" lon="6.42044">
        <ele>755.95</ele>
        <time>2019-08-25T11:09:28.000Z</time>
      </trkpt>
      <trkpt lat="46.21309" lon="6.42057">
        <ele>756.94</ele>
        <time>2019-08-25T11:09:31.000Z</time>
      </trkpt>
      <trkpt lat="46.21317" lon="6.4207">
        <ele>757.12</ele>
        <time>2019-08-25T11:09:33.000Z</time>
      </trkpt>
      <trkpt lat="46.21324" lon="6.42089">
        <ele>757.47</ele>
        <time>2019-08-25T11:09:36.000Z</time>
      </trkpt>
      <trkpt lat="46.2132" lon="6.42112">
        <ele>757.71</ele>
        <time>2019-08-25T11:09:39.000Z</time>
      </trkpt>
      <trkpt lat="46.21318" lon="6.42131">
        <ele>757.82</ele>
        <time>2019-08-25T11:09:42.000Z</time>
      </trkpt>
      <trkpt lat="46.21326" lon="6.42146">
        <ele>757.97</ele>
        <time>2019-08-25T11:09:45.000Z</time>
      </trkpt>
      <trkpt lat="46.21332" lon="6.4216">
        <ele>758.81</ele>
        <time>2019-08-25T11:09:48.000Z</time>
      </trkpt>
      <trkpt lat="46.21334" lon="6.42175">
        <ele>760.08</ele>
        <time>2019-08-25T11:09:52.000Z</time>
      </trkpt>
      <trkpt lat="46.21338" lon="6.422">
        <ele>760.9</ele>
        <time>2019-08-25T11:09:54.000Z</time>
      </trkpt>
      <trkpt lat="46.21341" lon="6.42221">
        <ele>761.41</ele>
        <time>2019-08-25T11:09:56.000Z</time>
      </trkpt>
      <trkpt lat="46.21341" lon="6.42248">
        <ele>761.83</ele>
        <time>2019-08-25T11:09:59.000Z</time>
      </trkpt>
      <trkpt lat="46.21333" lon="6.42262">
        <ele>761.46</ele>
        <time>2019-08-25T11:10:01.000Z</time>
      </trkpt>
      <trkpt lat="46.21329" lon="6.42293">
        <ele>760.69</ele>
        <time>2019-08-25T11:10:05.000Z</time>
      </trkpt>
      <trkpt lat="46.21334" lon="6.4231">
        <ele>760.41</ele>
        <time>2019-08-25T11:10:07.000Z</time>
      </trkpt>
      <trkpt lat="46.21331" lon="6.42332">
        <ele>759.51</ele>
        <time>2019-08-25T11:10:10.000Z</time>
      </trkpt>
      <trkpt lat="46.21325" lon="6.42353">
        <ele>759</ele>
        <time>2019-08-25T11:10:13.000Z</time>
      </trkpt>
      <trkpt lat="46.21317" lon="6.42363">
        <ele>758.83</ele>
        <time>2019-08-25T11:10:14.000Z</time>
      </trkpt>
      <trkpt lat="46.21318" lon="6.42379">
        <ele>758.94</ele>
        <time>2019-08-25T11:10:16.000Z</time>
      </trkpt>
      <trkpt lat="46.21316" lon="6.42395">
        <ele>759.25</ele>
        <time>2019-08-25T11:10:18.000Z</time>
      </trkpt>
      <trkpt lat="46.21325" lon="6.42423">
        <ele>759.75</ele>
        <time>2019-08-25T11:10:22.000Z</time>
      </trkpt>
      <trkpt lat="46.21331" lon="6.42437">
        <ele>759.6</ele>
        <time>2019-08-25T11:10:25.000Z</time>
      </trkpt>
      <trkpt lat="46.21333" lon="6.42454">
        <ele>758.66</ele>
        <time>2019-08-25T11:10:29.000Z</time>
      </trkpt>
      <trkpt lat="46.21335" lon="6.42474">
        <ele>758.31</ele>
        <time>2019-08-25T11:10:31.000Z</time>
      </trkpt>
      <trkpt lat="46.21345" lon="6.42492">
        <ele>758.02</ele>
        <time>2019-08-25T11:10:34.000Z</time>
      </trkpt>
      <trkpt lat="46.21353" lon="6.42516">
        <ele>757.43</ele>
        <time>2019-08-25T11:10:38.000Z</time>
      </trkpt>
      <trkpt lat="46.21358" lon="6.42543">
        <ele>757.58</ele>
        <time>2019-08-25T11:10:42.000Z</time>
      </trkpt>
      <trkpt lat="46.21354" lon="6.42559">
        <ele>757.88</ele>
        <time>2019-08-25T11:10:44.000Z</time>
      </trkpt>
      <trkpt lat="46.2136" lon="6.42576">
        <ele>758.11</ele>
        <time>2019-08-25T11:10:46.000Z</time>
      </trkpt>
      <trkpt lat="46.21369" lon="6.42588">
        <ele>758.12</ele>
        <time>2019-08-25T11:10:48.000Z</time>
      </trkpt>
      <trkpt lat="46.21379" lon="6.42594">
        <ele>758.45</ele>
        <time>2019-08-25T11:10:50.000Z</time>
      </trkpt>
      <trkpt lat="46.21394" lon="6.42597">
        <ele>758.91</ele>
        <time>2019-08-25T11:10:56.000Z</time>
      </trkpt>
      <trkpt lat="46.21406" lon="6.42594">
        <ele>759.26</ele>
        <time>2019-08-25T11:10:58.000Z</time>
      </trkpt>
      <trkpt lat="46.21418" lon="6.42588">
        <ele>760</ele>
        <time>2019-08-25T11:11:01.000Z</time>
      </trkpt>
      <trkpt lat="46.21427" lon="6.42592">
        <ele>760.87</ele>
        <time>2019-08-25T11:11:05.000Z</time>
      </trkpt>
      <trkpt lat="46.21437" lon="6.42596">
        <ele>761.53</ele>
        <time>2019-08-25T11:11:09.000Z</time>
      </trkpt>
      <trkpt lat="46.2145" lon="6.42598">
        <ele>762.73</ele>
        <time>2019-08-25T11:11:14.000Z</time>
      </trkpt>
      <trkpt lat="46.21461" lon="6.42593">
        <ele>764.62</ele>
        <time>2019-08-25T11:11:20.000Z</time>
      </trkpt>
      <trkpt lat="46.21471" lon="6.42597">
        <ele>766.23</ele>
        <time>2019-08-25T11:11:24.000Z</time>
      </trkpt>
      <trkpt lat="46.21472" lon="6.4261">
        <ele>769.58</ele>
        <time>2019-08-25T11:11:32.000Z</time>
      </trkpt>
      <trkpt lat="46.21479" lon="6.42651">
        <ele>770.96</ele>
        <time>2019-08-25T11:11:37.000Z</time>
      </trkpt>
      <trkpt lat="46.2148" lon="6.42671">
        <ele>771.38</ele>
        <time>2019-08-25T11:11:39.000Z</time>
      </trkpt>
      <trkpt lat="46.21482" lon="6.42689">
        <ele>771.71</ele>
        <time>2019-08-25T11:11:41.000Z</time>
      </trkpt>
      <trkpt lat="46.21483" lon="6.42706">
        <ele>772.02</ele>
        <time>2019-08-25T11:11:43.000Z</time>
      </trkpt>
      <trkpt lat="46.21493" lon="6.42727">
        <ele>771.87</ele>
        <time>2019-08-25T11:11:45.000Z</time>
      </trkpt>
      <trkpt lat="46.21498" lon="6.42757">
        <ele>770.86</ele>
        <time>2019-08-25T11:11:48.000Z</time>
      </trkpt>
      <trkpt lat="46.21503" lon="6.42775">
        <ele>769.86</ele>
        <time>2019-08-25T11:11:50.000Z</time>
      </trkpt>
      <trkpt lat="46.21503" lon="6.42791">
        <ele>768.9</ele>
        <time>2019-08-25T11:11:52.000Z</time>
      </trkpt>
      <trkpt lat="46.21507" lon="6.42809">
        <ele>768.09</ele>
        <time>2019-08-25T11:11:54.000Z</time>
      </trkpt>
      <trkpt lat="46.21513" lon="6.42827">
        <ele>767.37</ele>
        <time>2019-08-25T11:11:56.000Z</time>
      </trkpt>
      <trkpt lat="46.21521" lon="6.42845">
        <ele>766.67</ele>
        <time>2019-08-25T11:11:58.000Z</time>
      </trkpt>
      <trkpt lat="46.21531" lon="6.42859">
        <ele>766.09</ele>
        <time>2019-08-25T11:12:00.000Z</time>
      </trkpt>
      <trkpt lat="46.2154" lon="6.42873">
        <ele>766.33</ele>
        <time>2019-08-25T11:12:03.000Z</time>
      </trkpt>
      <trkpt lat="46.21555" lon="6.42878">
        <ele>766.87</ele>
        <time>2019-08-25T11:12:06.000Z</time>
      </trkpt>
      <trkpt lat="46.2157" lon="6.42884">
        <ele>766.96</ele>
        <time>2019-08-25T11:12:09.000Z</time>
      </trkpt>
      <trkpt lat="46.21586" lon="6.42889">
        <ele>766.48</ele>
        <time>2019-08-25T11:12:12.000Z</time>
      </trkpt>
      <trkpt lat="46.216" lon="6.42894">
        <ele>765.4</ele>
        <time>2019-08-25T11:12:16.000Z</time>
      </trkpt>
      <trkpt lat="46.21608" lon="6.42898">
        <ele>764.64</ele>
        <time>2019-08-25T11:12:18.000Z</time>
      </trkpt>
      <trkpt lat="46.2162" lon="6.42908">
        <ele>764.49</ele>
        <time>2019-08-25T11:12:21.000Z</time>
      </trkpt>
      <trkpt lat="46.21632" lon="6.42918">
        <ele>765.53</ele>
        <time>2019-08-25T11:12:26.000Z</time>
      </trkpt>
      <trkpt lat="46.21639" lon="6.42929">
        <ele>766.68</ele>
        <time>2019-08-25T11:12:30.000Z</time>
      </trkpt>
      <trkpt lat="46.21645" lon="6.42944">
        <ele>767.13</ele>
        <time>2019-08-25T11:12:32.000Z</time>
      </trkpt>
      <trkpt lat="46.2165" lon="6.4296">
        <ele>767.45</ele>
        <time>2019-08-25T11:12:36.000Z</time>
      </trkpt>
      <trkpt lat="46.21659" lon="6.42972">
        <ele>767.41</ele>
        <time>2019-08-25T11:12:38.000Z</time>
      </trkpt>
      <trkpt lat="46.21666" lon="6.42995">
        <ele>767.12</ele>
        <time>2019-08-25T11:12:43.000Z</time>
      </trkpt>
      <trkpt lat="46.2166" lon="6.43009">
        <ele>767.19</ele>
        <time>2019-08-25T11:12:45.000Z</time>
      </trkpt>
      <trkpt lat="46.21659" lon="6.43028">
        <ele>767.23</ele>
        <time>2019-08-25T11:12:48.000Z</time>
      </trkpt>
      <trkpt lat="46.21657" lon="6.43048">
        <ele>767.29</ele>
        <time>2019-08-25T11:12:51.000Z</time>
      </trkpt>
      <trkpt lat="46.21652" lon="6.43065">
        <ele>767.45</ele>
        <time>2019-08-25T11:12:54.000Z</time>
      </trkpt>
      <trkpt lat="46.21645" lon="6.43076">
        <ele>767.46</ele>
        <time>2019-08-25T11:12:56.000Z</time>
      </trkpt>
      <trkpt lat="46.2164" lon="6.43092">
        <ele>767.13</ele>
        <time>2019-08-25T11:12:58.000Z</time>
      </trkpt>
      <trkpt lat="46.21637" lon="6.43108">
        <ele>766.7</ele>
        <time>2019-08-25T11:13:00.000Z</time>
      </trkpt>
      <trkpt lat="46.2164" lon="6.4313">
        <ele>766.44</ele>
        <time>2019-08-25T11:13:03.000Z</time>
      </trkpt>
      <trkpt lat="46.2165" lon="6.43142">
        <ele>767.17</ele>
        <time>2019-08-25T11:13:07.000Z</time>
      </trkpt>
      <trkpt lat="46.21653" lon="6.43165">
        <ele>766.99</ele>
        <time>2019-08-25T11:13:11.000Z</time>
      </trkpt>
      <trkpt lat="46.21658" lon="6.43191">
        <ele>767.6</ele>
        <time>2019-08-25T11:13:15.000Z</time>
      </trkpt>
      <trkpt lat="46.21663" lon="6.43206">
        <ele>768.22</ele>
        <time>2019-08-25T11:13:17.000Z</time>
      </trkpt>
      <trkpt lat="46.21663" lon="6.43224">
        <ele>768.77</ele>
        <time>2019-08-25T11:13:19.000Z</time>
      </trkpt>
      <trkpt lat="46.21665" lon="6.43237">
        <ele>768.89</ele>
        <time>2019-08-25T11:13:21.000Z</time>
      </trkpt>
      <trkpt lat="46.21677" lon="6.43251">
        <ele>769.18</ele>
        <time>2019-08-25T11:13:24.000Z</time>
      </trkpt>
      <trkpt lat="46.21686" lon="6.43256">
        <ele>769.44</ele>
        <time>2019-08-25T11:13:26.000Z</time>
      </trkpt>
      <trkpt lat="46.21704" lon="6.43272">
        <ele>769.89</ele>
        <time>2019-08-25T11:13:29.000Z</time>
      </trkpt>
      <trkpt lat="46.21712" lon="6.43276">
        <ele>769.77</ele>
        <time>2019-08-25T11:13:31.000Z</time>
      </trkpt>
      <trkpt lat="46.21722" lon="6.43279">
        <ele>769.57</ele>
        <time>2019-08-25T11:13:33.000Z</time>
      </trkpt>
      <trkpt lat="46.21738" lon="6.4329">
        <ele>769.24</ele>
        <time>2019-08-25T11:13:36.000Z</time>
      </trkpt>
      <trkpt lat="46.21748" lon="6.43301">
        <ele>769.43</ele>
        <time>2019-08-25T11:13:38.000Z</time>
      </trkpt>
      <trkpt lat="46.21757" lon="6.43312">
        <ele>769.62</ele>
        <time>2019-08-25T11:13:40.000Z</time>
      </trkpt>
      <trkpt lat="46.21768" lon="6.43324">
        <ele>770.09</ele>
        <time>2019-08-25T11:13:42.000Z</time>
      </trkpt>
      <trkpt lat="46.21775" lon="6.43338">
        <ele>770.42</ele>
        <time>2019-08-25T11:13:44.000Z</time>
      </trkpt>
      <trkpt lat="46.21778" lon="6.43353">
        <ele>770.76</ele>
        <time>2019-08-25T11:13:46.000Z</time>
      </trkpt>
      <trkpt lat="46.2178" lon="6.43368">
        <ele>771.12</ele>
        <time>2019-08-25T11:13:48.000Z</time>
      </trkpt>
      <trkpt lat="46.2178" lon="6.43385">
        <ele>771.29</ele>
        <time>2019-08-25T11:13:50.000Z</time>
      </trkpt>
      <trkpt lat="46.21779" lon="6.43401">
        <ele>771.52</ele>
        <time>2019-08-25T11:13:52.000Z</time>
      </trkpt>
      <trkpt lat="46.21784" lon="6.43416">
        <ele>772.05</ele>
        <time>2019-08-25T11:13:58.000Z</time>
      </trkpt>
      <trkpt lat="46.2182" lon="6.43431">
        <ele>772.25</ele>
        <time>2019-08-25T11:14:00.000Z</time>
      </trkpt>
      <trkpt lat="46.21838" lon="6.43435">
        <ele>772.55</ele>
        <time>2019-08-25T11:14:03.000Z</time>
      </trkpt>
      <trkpt lat="46.21857" lon="6.43431">
        <ele>772.68</ele>
        <time>2019-08-25T11:14:06.000Z</time>
      </trkpt>
      <trkpt lat="46.21869" lon="6.43428">
        <ele>772.93</ele>
        <time>2019-08-25T11:14:08.000Z</time>
      </trkpt>
      <trkpt lat="46.21881" lon="6.43425">
        <ele>773.19</ele>
        <time>2019-08-25T11:14:10.000Z</time>
      </trkpt>
      <trkpt lat="46.21893" lon="6.43428">
        <ele>773.48</ele>
        <time>2019-08-25T11:14:12.000Z</time>
      </trkpt>
      <trkpt lat="46.21906" lon="6.43432">
        <ele>773.58</ele>
        <time>2019-08-25T11:14:14.000Z</time>
      </trkpt>
      <trkpt lat="46.21921" lon="6.43443">
        <ele>773.54</ele>
        <time>2019-08-25T11:14:17.000Z</time>
      </trkpt>
      <trkpt lat="46.21928" lon="6.43453">
        <ele>773.71</ele>
        <time>2019-08-25T11:14:19.000Z</time>
      </trkpt>
      <trkpt lat="46.21939" lon="6.43457">
        <ele>774.11</ele>
        <time>2019-08-25T11:14:21.000Z</time>
      </trkpt>
      <trkpt lat="46.21949" lon="6.43444">
        <ele>774.57</ele>
        <time>2019-08-25T11:14:24.000Z</time>
      </trkpt>
      <trkpt lat="46.21953" lon="6.43423">
        <ele>774.75</ele>
        <time>2019-08-25T11:14:27.000Z</time>
      </trkpt>
      <trkpt lat="46.21967" lon="6.43424">
        <ele>774.88</ele>
        <time>2019-08-25T11:14:30.000Z</time>
      </trkpt>
      <trkpt lat="46.21976" lon="6.43446">
        <ele>775.34</ele>
        <time>2019-08-25T11:14:33.000Z</time>
      </trkpt>
      <trkpt lat="46.21989" lon="6.43466">
        <ele>775.94</ele>
        <time>2019-08-25T11:14:36.000Z</time>
      </trkpt>
      <trkpt lat="46.22005" lon="6.43487">
        <ele>776.69</ele>
        <time>2019-08-25T11:14:39.000Z</time>
      </trkpt>
      <trkpt lat="46.22016" lon="6.43499">
        <ele>777.27</ele>
        <time>2019-08-25T11:14:41.000Z</time>
      </trkpt>
      <trkpt lat="46.22025" lon="6.43515">
        <ele>777.45</ele>
        <time>2019-08-25T11:14:43.000Z</time>
      </trkpt>
      <trkpt lat="46.22032" lon="6.43534">
        <ele>777.48</ele>
        <time>2019-08-25T11:14:45.000Z</time>
      </trkpt>
      <trkpt lat="46.22047" lon="6.43553">
        <ele>777.52</ele>
        <time>2019-08-25T11:14:48.000Z</time>
      </trkpt>
      <trkpt lat="46.22062" lon="6.43571">
        <ele>777.96</ele>
        <time>2019-08-25T11:14:51.000Z</time>
      </trkpt>
      <trkpt lat="46.22077" lon="6.43584">
        <ele>777.9</ele>
        <time>2019-08-25T11:14:54.000Z</time>
      </trkpt>
      <trkpt lat="46.2209" lon="6.43599">
        <ele>777.64</ele>
        <time>2019-08-25T11:14:57.000Z</time>
      </trkpt>
      <trkpt lat="46.22103" lon="6.4361">
        <ele>778.38</ele>
        <time>2019-08-25T11:15:00.000Z</time>
      </trkpt>
      <trkpt lat="46.22114" lon="6.43612">
        <ele>779.08</ele>
        <time>2019-08-25T11:15:02.000Z</time>
      </trkpt>
      <trkpt lat="46.22125" lon="6.43621">
        <ele>779.76</ele>
        <time>2019-08-25T11:15:04.000Z</time>
      </trkpt>
      <trkpt lat="46.22135" lon="6.43629">
        <ele>780.17</ele>
        <time>2019-08-25T11:15:06.000Z</time>
      </trkpt>
      <trkpt lat="46.22147" lon="6.4363">
        <ele>780.32</ele>
        <time>2019-08-25T11:15:08.000Z</time>
      </trkpt>
      <trkpt lat="46.22158" lon="6.43626">
        <ele>780.39</ele>
        <time>2019-08-25T11:15:10.000Z</time>
      </trkpt>
      <trkpt lat="46.22173" lon="6.43623">
        <ele>780.8</ele>
        <time>2019-08-25T11:15:13.000Z</time>
      </trkpt>
      <trkpt lat="46.22184" lon="6.43631">
        <ele>780.62</ele>
        <time>2019-08-25T11:15:17.000Z</time>
      </trkpt>
      <trkpt lat="46.22195" lon="6.43635">
        <ele>780.22</ele>
        <time>2019-08-25T11:15:19.000Z</time>
      </trkpt>
      <trkpt lat="46.22216" lon="6.43656">
        <ele>779.58</ele>
        <time>2019-08-25T11:15:23.000Z</time>
      </trkpt>
      <trkpt lat="46.22228" lon="6.43666">
        <ele>779.91</ele>
        <time>2019-08-25T11:15:26.000Z</time>
      </trkpt>
      <trkpt lat="46.22243" lon="6.43678">
        <ele>780.21</ele>
        <time>2019-08-25T11:15:29.000Z</time>
      </trkpt>
      <trkpt lat="46.22253" lon="6.43673">
        <ele>780.42</ele>
        <time>2019-08-25T11:15:31.000Z</time>
      </trkpt>
      <trkpt lat="46.2226" lon="6.43683">
        <ele>781.32</ele>
        <time>2019-08-25T11:15:37.000Z</time>
      </trkpt>
      <trkpt lat="46.2227" lon="6.43689">
        <ele>781.57</ele>
        <time>2019-08-25T11:15:40.000Z</time>
      </trkpt>
      <trkpt lat="46.22279" lon="6.43693">
        <ele>781.65</ele>
        <time>2019-08-25T11:15:42.000Z</time>
      </trkpt>
      <trkpt lat="46.22289" lon="6.437">
        <ele>781.93</ele>
        <time>2019-08-25T11:15:46.000Z</time>
      </trkpt>
      <trkpt lat="46.22297" lon="6.43706">
        <ele>782.33</ele>
        <time>2019-08-25T11:15:49.000Z</time>
      </trkpt>
      <trkpt lat="46.22307" lon="6.4371">
        <ele>782.49</ele>
        <time>2019-08-25T11:15:50.000Z</time>
      </trkpt>
      <trkpt lat="46.22316" lon="6.4372">
        <ele>782.75</ele>
        <time>2019-08-25T11:15:52.000Z</time>
      </trkpt>
      <trkpt lat="46.22324" lon="6.43729">
        <ele>783</ele>
        <time>2019-08-25T11:15:54.000Z</time>
      </trkpt>
      <trkpt lat="46.22335" lon="6.43748">
        <ele>783.27</ele>
        <time>2019-08-25T11:15:57.000Z</time>
      </trkpt>
      <trkpt lat="46.22337" lon="6.43767">
        <ele>783.45</ele>
        <time>2019-08-25T11:16:00.000Z</time>
      </trkpt>
      <trkpt lat="46.22342" lon="6.43785">
        <ele>783.39</ele>
        <time>2019-08-25T11:16:03.000Z</time>
      </trkpt>
      <trkpt lat="46.22349" lon="6.43798">
        <ele>782.99</ele>
        <time>2019-08-25T11:16:06.000Z</time>
      </trkpt>
      <trkpt lat="46.22352" lon="6.43814">
        <ele>782.7</ele>
        <time>2019-08-25T11:16:08.000Z</time>
      </trkpt>
      <trkpt lat="46.22366" lon="6.43834">
        <ele>782.61</ele>
        <time>2019-08-25T11:16:11.000Z</time>
      </trkpt>
      <trkpt lat="46.22375" lon="6.43853">
        <ele>782.74</ele>
        <time>2019-08-25T11:16:14.000Z</time>
      </trkpt>
      <trkpt lat="46.22392" lon="6.43861">
        <ele>782.87</ele>
        <time>2019-08-25T11:16:17.000Z</time>
      </trkpt>
      <trkpt lat="46.22404" lon="6.43872">
        <ele>783.52</ele>
        <time>2019-08-25T11:16:20.000Z</time>
      </trkpt>
      <trkpt lat="46.22412" lon="6.43892">
        <ele>784.24</ele>
        <time>2019-08-25T11:16:23.000Z</time>
      </trkpt>
      <trkpt lat="46.22418" lon="6.43907">
        <ele>784.6</ele>
        <time>2019-08-25T11:16:25.000Z</time>
      </trkpt>
      <trkpt lat="46.22425" lon="6.43934">
        <ele>785.05</ele>
        <time>2019-08-25T11:16:28.000Z</time>
      </trkpt>
      <trkpt lat="46.22426" lon="6.43949">
        <ele>785.25</ele>
        <time>2019-08-25T11:16:30.000Z</time>
      </trkpt>
      <trkpt lat="46.22425" lon="6.43964">
        <ele>785.66</ele>
        <time>2019-08-25T11:16:34.000Z</time>
      </trkpt>
      <trkpt lat="46.22416" lon="6.43976">
        <ele>785.62</ele>
        <time>2019-08-25T11:16:37.000Z</time>
      </trkpt>
      <trkpt lat="46.22435" lon="6.43988">
        <ele>785.97</ele>
        <time>2019-08-25T11:16:41.000Z</time>
      </trkpt>
      <trkpt lat="46.22453" lon="6.44003">
        <ele>786.34</ele>
        <time>2019-08-25T11:16:45.000Z</time>
      </trkpt>
      <trkpt lat="46.2247" lon="6.44011">
        <ele>786.67</ele>
        <time>2019-08-25T11:16:48.000Z</time>
      </trkpt>
      <trkpt lat="46.22483" lon="6.44025">
        <ele>787.55</ele>
        <time>2019-08-25T11:16:51.000Z</time>
      </trkpt>
      <trkpt lat="46.22494" lon="6.44049">
        <ele>788.19</ele>
        <time>2019-08-25T11:16:54.000Z</time>
      </trkpt>
      <trkpt lat="46.22498" lon="6.44064">
        <ele>788.57</ele>
        <time>2019-08-25T11:16:56.000Z</time>
      </trkpt>
      <trkpt lat="46.22504" lon="6.44075">
        <ele>788.84</ele>
        <time>2019-08-25T11:16:58.000Z</time>
      </trkpt>
      <trkpt lat="46.22515" lon="6.44084">
        <ele>789.28</ele>
        <time>2019-08-25T11:17:00.000Z</time>
      </trkpt>
      <trkpt lat="46.22524" lon="6.44106">
        <ele>789.87</ele>
        <time>2019-08-25T11:17:03.000Z</time>
      </trkpt>
      <trkpt lat="46.2253" lon="6.44124">
        <ele>790.32</ele>
        <time>2019-08-25T11:17:06.000Z</time>
      </trkpt>
      <trkpt lat="46.22542" lon="6.44142">
        <ele>790.77</ele>
        <time>2019-08-25T11:17:09.000Z</time>
      </trkpt>
      <trkpt lat="46.22548" lon="6.44153">
        <ele>791.19</ele>
        <time>2019-08-25T11:17:11.000Z</time>
      </trkpt>
      <trkpt lat="46.22559" lon="6.4415">
        <ele>791.92</ele>
        <time>2019-08-25T11:17:15.000Z</time>
      </trkpt>
      <trkpt lat="46.22559" lon="6.44131">
        <ele>791.95</ele>
        <time>2019-08-25T11:17:18.000Z</time>
      </trkpt>
      <trkpt lat="46.22565" lon="6.4412">
        <ele>791.78</ele>
        <time>2019-08-25T11:17:20.000Z</time>
      </trkpt>
      <trkpt lat="46.22571" lon="6.4411">
        <ele>791.74</ele>
        <time>2019-08-25T11:17:22.000Z</time>
      </trkpt>
      <trkpt lat="46.22584" lon="6.4411">
        <ele>791.45</ele>
        <time>2019-08-25T11:17:25.000Z</time>
      </trkpt>
      <trkpt lat="46.22592" lon="6.4412">
        <ele>791.04</ele>
        <time>2019-08-25T11:17:28.000Z</time>
      </trkpt>
      <trkpt lat="46.22601" lon="6.44127">
        <ele>790.97</ele>
        <time>2019-08-25T11:17:31.000Z</time>
      </trkpt>
      <trkpt lat="46.22615" lon="6.4414">
        <ele>791.51</ele>
        <time>2019-08-25T11:17:36.000Z</time>
      </trkpt>
      <trkpt lat="46.22625" lon="6.44145">
        <ele>791.68</ele>
        <time>2019-08-25T11:17:38.000Z</time>
      </trkpt>
      <trkpt lat="46.22637" lon="6.44157">
        <ele>792</ele>
        <time>2019-08-25T11:17:41.000Z</time>
      </trkpt>
      <trkpt lat="46.22644" lon="6.4417">
        <ele>792.21</ele>
        <time>2019-08-25T11:17:44.000Z</time>
      </trkpt>
      <trkpt lat="46.22654" lon="6.44186">
        <ele>791.73</ele>
        <time>2019-08-25T11:17:47.000Z</time>
      </trkpt>
      <trkpt lat="46.22664" lon="6.44191">
        <ele>790.97</ele>
        <time>2019-08-25T11:17:49.000Z</time>
      </trkpt>
      <trkpt lat="46.2267" lon="6.44201">
        <ele>790.35</ele>
        <time>2019-08-25T11:17:51.000Z</time>
      </trkpt>
      <trkpt lat="46.22675" lon="6.44222">
        <ele>790.31</ele>
        <time>2019-08-25T11:17:54.000Z</time>
      </trkpt>
      <trkpt lat="46.22681" lon="6.44235">
        <ele>790.47</ele>
        <time>2019-08-25T11:17:56.000Z</time>
      </trkpt>
      <trkpt lat="46.22692" lon="6.44254">
        <ele>790.66</ele>
        <time>2019-08-25T11:17:59.000Z</time>
      </trkpt>
      <trkpt lat="46.22701" lon="6.44266">
        <ele>790.74</ele>
        <time>2019-08-25T11:18:01.000Z</time>
      </trkpt>
      <trkpt lat="46.22715" lon="6.44288">
        <ele>790.74</ele>
        <time>2019-08-25T11:18:04.000Z</time>
      </trkpt>
      <trkpt lat="46.22723" lon="6.44296">
        <ele>791.28</ele>
        <time>2019-08-25T11:18:06.000Z</time>
      </trkpt>
      <trkpt lat="46.22733" lon="6.443">
        <ele>792.28</ele>
        <time>2019-08-25T11:18:08.000Z</time>
      </trkpt>
      <trkpt lat="46.22739" lon="6.44312">
        <ele>794.31</ele>
        <time>2019-08-25T11:18:13.000Z</time>
      </trkpt>
      <trkpt lat="46.22736" lon="6.44326">
        <ele>795.04</ele>
        <time>2019-08-25T11:18:18.000Z</time>
      </trkpt>
      <trkpt lat="46.22744" lon="6.44337">
        <ele>796.58</ele>
        <time>2019-08-25T11:18:24.000Z</time>
      </trkpt>
      <trkpt lat="46.22757" lon="6.44341">
        <ele>797.83</ele>
        <time>2019-08-25T11:18:28.000Z</time>
      </trkpt>
      <trkpt lat="46.22765" lon="6.44352">
        <ele>798.34</ele>
        <time>2019-08-25T11:18:30.000Z</time>
      </trkpt>
      <trkpt lat="46.22778" lon="6.44363">
        <ele>798.95</ele>
        <time>2019-08-25T11:18:34.000Z</time>
      </trkpt>
      <trkpt lat="46.22794" lon="6.44363">
        <ele>799</ele>
        <time>2019-08-25T11:18:35.000Z</time>
      </trkpt>
      <trkpt lat="46.22805" lon="6.44363">
        <ele>798.86</ele>
        <time>2019-08-25T11:18:37.000Z</time>
      </trkpt>
      <trkpt lat="46.22828" lon="6.44371">
        <ele>798.25</ele>
        <time>2019-08-25T11:18:41.000Z</time>
      </trkpt>
      <trkpt lat="46.22837" lon="6.44374">
        <ele>797.9</ele>
        <time>2019-08-25T11:18:43.000Z</time>
      </trkpt>
      <trkpt lat="46.22854" lon="6.44381">
        <ele>797.71</ele>
        <time>2019-08-25T11:18:46.000Z</time>
      </trkpt>
      <trkpt lat="46.22868" lon="6.44386">
        <ele>797.87</ele>
        <time>2019-08-25T11:18:48.000Z</time>
      </trkpt>
      <trkpt lat="46.22879" lon="6.44392">
        <ele>798.26</ele>
        <time>2019-08-25T11:18:51.000Z</time>
      </trkpt>
      <trkpt lat="46.22896" lon="6.44405">
        <ele>798.75</ele>
        <time>2019-08-25T11:18:54.000Z</time>
      </trkpt>
      <trkpt lat="46.22903" lon="6.44414">
        <ele>798.78</ele>
        <time>2019-08-25T11:18:56.000Z</time>
      </trkpt>
      <trkpt lat="46.22906" lon="6.44426">
        <ele>798.84</ele>
        <time>2019-08-25T11:18:58.000Z</time>
      </trkpt>
      <trkpt lat="46.22913" lon="6.44445">
        <ele>798.88</ele>
        <time>2019-08-25T11:19:01.000Z</time>
      </trkpt>
      <trkpt lat="46.22921" lon="6.44461">
        <ele>798.13</ele>
        <time>2019-08-25T11:19:04.000Z</time>
      </trkpt>
      <trkpt lat="46.22927" lon="6.44471">
        <ele>797.51</ele>
        <time>2019-08-25T11:19:06.000Z</time>
      </trkpt>
      <trkpt lat="46.2294" lon="6.44479">
        <ele>796.46</ele>
        <time>2019-08-25T11:19:08.000Z</time>
      </trkpt>
      <trkpt lat="46.2295" lon="6.44467">
        <ele>796.28</ele>
        <time>2019-08-25T11:19:10.000Z</time>
      </trkpt>
      <trkpt lat="46.22961" lon="6.44459">
        <ele>796.63</ele>
        <time>2019-08-25T11:19:13.000Z</time>
      </trkpt>
      <trkpt lat="46.22978" lon="6.44463">
        <ele>797.34</ele>
        <time>2019-08-25T11:19:16.000Z</time>
      </trkpt>
      <trkpt lat="46.22989" lon="6.44478">
        <ele>798.63</ele>
        <time>2019-08-25T11:19:20.000Z</time>
      </trkpt>
      <trkpt lat="46.22993" lon="6.44491">
        <ele>799.55</ele>
        <time>2019-08-25T11:19:22.000Z</time>
      </trkpt>
      <trkpt lat="46.22993" lon="6.44507">
        <ele>800.83</ele>
        <time>2019-08-25T11:19:24.000Z</time>
      </trkpt>
      <trkpt lat="46.22997" lon="6.44526">
        <ele>801.45</ele>
        <time>2019-08-25T11:19:27.000Z</time>
      </trkpt>
      <trkpt lat="46.23006" lon="6.44538">
        <ele>801.63</ele>
        <time>2019-08-25T11:19:29.000Z</time>
      </trkpt>
      <trkpt lat="46.23014" lon="6.44529">
        <ele>801.71</ele>
        <time>2019-08-25T11:19:31.000Z</time>
      </trkpt>
      <trkpt lat="46.23031" lon="6.44517">
        <ele>802.08</ele>
        <time>2019-08-25T11:19:34.000Z</time>
      </trkpt>
      <trkpt lat="46.23038" lon="6.44501">
        <ele>802.98</ele>
        <time>2019-08-25T11:19:39.000Z</time>
      </trkpt>
      <trkpt lat="46.2305" lon="6.44497">
        <ele>804.44</ele>
        <time>2019-08-25T11:19:44.000Z</time>
      </trkpt>
      <trkpt lat="46.2306" lon="6.44506">
        <ele>808.47</ele>
        <time>2019-08-25T11:20:23.000Z</time>
      </trkpt>
      <trkpt lat="46.23068" lon="6.44514">
        <ele>809.43</ele>
        <time>2019-08-25T11:20:26.000Z</time>
      </trkpt>
      <trkpt lat="46.23076" lon="6.44522">
        <ele>810.33</ele>
        <time>2019-08-25T11:20:29.000Z</time>
      </trkpt>
      <trkpt lat="46.23086" lon="6.44531">
        <ele>812.24</ele>
        <time>2019-08-25T11:20:34.000Z</time>
      </trkpt>
      <trkpt lat="46.231" lon="6.4454">
        <ele>812.94</ele>
        <time>2019-08-25T11:20:36.000Z</time>
      </trkpt>
      <trkpt lat="46.23112" lon="6.44548">
        <ele>814.14</ele>
        <time>2019-08-25T11:20:40.000Z</time>
      </trkpt>
      <trkpt lat="46.23123" lon="6.4456">
        <ele>815.72</ele>
        <time>2019-08-25T11:20:44.000Z</time>
      </trkpt>
      <trkpt lat="46.23133" lon="6.44571">
        <ele>816.6</ele>
        <time>2019-08-25T11:20:48.000Z</time>
      </trkpt>
      <trkpt lat="46.2314" lon="6.44581">
        <ele>817.09</ele>
        <time>2019-08-25T11:20:52.000Z</time>
      </trkpt>
      <trkpt lat="46.23148" lon="6.44591">
        <ele>817.2</ele>
        <time>2019-08-25T11:20:53.000Z</time>
      </trkpt>
      <trkpt lat="46.23163" lon="6.44598">
        <ele>817.58</ele>
        <time>2019-08-25T11:20:56.000Z</time>
      </trkpt>
      <trkpt lat="46.23174" lon="6.44607">
        <ele>817.28</ele>
        <time>2019-08-25T11:20:59.000Z</time>
      </trkpt>
      <trkpt lat="46.23179" lon="6.44619">
        <ele>816.99</ele>
        <time>2019-08-25T11:21:01.000Z</time>
      </trkpt>
      <trkpt lat="46.23185" lon="6.44637">
        <ele>816.56</ele>
        <time>2019-08-25T11:21:05.000Z</time>
      </trkpt>
      <trkpt lat="46.23192" lon="6.44659">
        <ele>816.02</ele>
        <time>2019-08-25T11:21:09.000Z</time>
      </trkpt>
      <trkpt lat="46.23198" lon="6.44677">
        <ele>815.59</ele>
        <time>2019-08-25T11:21:12.000Z</time>
      </trkpt>
      <trkpt lat="46.23195" lon="6.44694">
        <ele>815.35</ele>
        <time>2019-08-25T11:21:16.000Z</time>
      </trkpt>
      <trkpt lat="46.23194" lon="6.44708">
        <ele>815.63</ele>
        <time>2019-08-25T11:21:19.000Z</time>
      </trkpt>
      <trkpt lat="46.23207" lon="6.44727">
        <ele>816.46</ele>
        <time>2019-08-25T11:21:24.000Z</time>
      </trkpt>
      <trkpt lat="46.2322" lon="6.44746">
        <ele>816.97</ele>
        <time>2019-08-25T11:21:28.000Z</time>
      </trkpt>
      <trkpt lat="46.23233" lon="6.44766">
        <ele>817.53</ele>
        <time>2019-08-25T11:21:32.000Z</time>
      </trkpt>
      <trkpt lat="46.23241" lon="6.44772">
        <ele>817.61</ele>
        <time>2019-08-25T11:21:34.000Z</time>
      </trkpt>
      <trkpt lat="46.23252" lon="6.44782">
        <ele>817.7</ele>
        <time>2019-08-25T11:21:37.000Z</time>
      </trkpt>
      <trkpt lat="46.2326" lon="6.44789">
        <ele>818.11</ele>
        <time>2019-08-25T11:21:40.000Z</time>
      </trkpt>
      <trkpt lat="46.23273" lon="6.44795">
        <ele>818.64</ele>
        <time>2019-08-25T11:21:43.000Z</time>
      </trkpt>
      <trkpt lat="46.23281" lon="6.44802">
        <ele>818.9</ele>
        <time>2019-08-25T11:21:45.000Z</time>
      </trkpt>
      <trkpt lat="46.23293" lon="6.44815">
        <ele>819.53</ele>
        <time>2019-08-25T11:21:48.000Z</time>
      </trkpt>
      <trkpt lat="46.23304" lon="6.44829">
        <ele>820.34</ele>
        <time>2019-08-25T11:21:51.000Z</time>
      </trkpt>
      <trkpt lat="46.23316" lon="6.44839">
        <ele>820.67</ele>
        <time>2019-08-25T11:21:53.000Z</time>
      </trkpt>
      <trkpt lat="46.23323" lon="6.44848">
        <ele>821.2</ele>
        <time>2019-08-25T11:21:55.000Z</time>
      </trkpt>
      <trkpt lat="46.23331" lon="6.44857">
        <ele>821.59</ele>
        <time>2019-08-25T11:21:57.000Z</time>
      </trkpt>
      <trkpt lat="46.23339" lon="6.44868">
        <ele>822</ele>
        <time>2019-08-25T11:21:59.000Z</time>
      </trkpt>
      <trkpt lat="46.23347" lon="6.4488">
        <ele>822.07</ele>
        <time>2019-08-25T11:22:01.000Z</time>
      </trkpt>
      <trkpt lat="46.23351" lon="6.44892">
        <ele>820.98</ele>
        <time>2019-08-25T11:22:03.000Z</time>
      </trkpt>
      <trkpt lat="46.23358" lon="6.44921">
        <ele>819.3</ele>
        <time>2019-08-25T11:22:06.000Z</time>
      </trkpt>
      <trkpt lat="46.23364" lon="6.44933">
        <ele>818.48</ele>
        <time>2019-08-25T11:22:09.000Z</time>
      </trkpt>
      <trkpt lat="46.23375" lon="6.4494">
        <ele>818.44</ele>
        <time>2019-08-25T11:22:13.000Z</time>
      </trkpt>
      <trkpt lat="46.23388" lon="6.44946">
        <ele>818.11</ele>
        <time>2019-08-25T11:22:15.000Z</time>
      </trkpt>
      <trkpt lat="46.23401" lon="6.44958">
        <ele>817.8</ele>
        <time>2019-08-25T11:22:18.000Z</time>
      </trkpt>
      <trkpt lat="46.2341" lon="6.44966">
        <ele>818.69</ele>
        <time>2019-08-25T11:22:20.000Z</time>
      </trkpt>
      <trkpt lat="46.23423" lon="6.44976">
        <ele>819.76</ele>
        <time>2019-08-25T11:22:22.000Z</time>
      </trkpt>
      <trkpt lat="46.23439" lon="6.44977">
        <ele>821.05</ele>
        <time>2019-08-25T11:22:25.000Z</time>
      </trkpt>
      <trkpt lat="46.23461" lon="6.44979">
        <ele>820.83</ele>
        <time>2019-08-25T11:22:28.000Z</time>
      </trkpt>
      <trkpt lat="46.23476" lon="6.44978">
        <ele>820.56</ele>
        <time>2019-08-25T11:22:31.000Z</time>
      </trkpt>
      <trkpt lat="46.23487" lon="6.44982">
        <ele>820.81</ele>
        <time>2019-08-25T11:22:33.000Z</time>
      </trkpt>
      <trkpt lat="46.235" lon="6.44999">
        <ele>821.22</ele>
        <time>2019-08-25T11:22:36.000Z</time>
      </trkpt>
      <trkpt lat="46.23505" lon="6.45022">
        <ele>820.91</ele>
        <time>2019-08-25T11:22:39.000Z</time>
      </trkpt>
      <trkpt lat="46.23508" lon="6.45036">
        <ele>820.66</ele>
        <time>2019-08-25T11:22:41.000Z</time>
      </trkpt>
      <trkpt lat="46.23518" lon="6.45044">
        <ele>821.08</ele>
        <time>2019-08-25T11:22:46.000Z</time>
      </trkpt>
      <trkpt lat="46.23528" lon="6.4505">
        <ele>822.48</ele>
        <time>2019-08-25T11:22:51.000Z</time>
      </trkpt>
      <trkpt lat="46.2354" lon="6.45055">
        <ele>826.4</ele>
        <time>2019-08-25T11:22:59.000Z</time>
      </trkpt>
      <trkpt lat="46.2355" lon="6.45056">
        <ele>828.26</ele>
        <time>2019-08-25T11:23:03.000Z</time>
      </trkpt>
      <trkpt lat="46.23564" lon="6.45056">
        <ele>829.9</ele>
        <time>2019-08-25T11:23:08.000Z</time>
      </trkpt>
      <trkpt lat="46.23574" lon="6.45056">
        <ele>831.12</ele>
        <time>2019-08-25T11:23:12.000Z</time>
      </trkpt>
      <trkpt lat="46.23584" lon="6.45056">
        <ele>832.15</ele>
        <time>2019-08-25T11:23:15.000Z</time>
      </trkpt>
      <trkpt lat="46.23605" lon="6.45062">
        <ele>832.68</ele>
        <time>2019-08-25T11:23:18.000Z</time>
      </trkpt>
      <trkpt lat="46.23615" lon="6.45071">
        <ele>832.78</ele>
        <time>2019-08-25T11:23:20.000Z</time>
      </trkpt>
      <trkpt lat="46.23623" lon="6.45082">
        <ele>833.07</ele>
        <time>2019-08-25T11:23:22.000Z</time>
      </trkpt>
      <trkpt lat="46.23635" lon="6.45091">
        <ele>833.44</ele>
        <time>2019-08-25T11:23:24.000Z</time>
      </trkpt>
      <trkpt lat="46.23647" lon="6.45098">
        <ele>833.79</ele>
        <time>2019-08-25T11:23:26.000Z</time>
      </trkpt>
      <trkpt lat="46.23655" lon="6.45106">
        <ele>833.77</ele>
        <time>2019-08-25T11:23:28.000Z</time>
      </trkpt>
      <trkpt lat="46.23674" lon="6.45114">
        <ele>833.55</ele>
        <time>2019-08-25T11:23:32.000Z</time>
      </trkpt>
      <trkpt lat="46.23686" lon="6.45123">
        <ele>833.64</ele>
        <time>2019-08-25T11:23:34.000Z</time>
      </trkpt>
      <trkpt lat="46.23699" lon="6.45132">
        <ele>833.67</ele>
        <time>2019-08-25T11:23:36.000Z</time>
      </trkpt>
      <trkpt lat="46.23709" lon="6.45142">
        <ele>833.56</ele>
        <time>2019-08-25T11:23:38.000Z</time>
      </trkpt>
      <trkpt lat="46.23716" lon="6.45155">
        <ele>833.28</ele>
        <time>2019-08-25T11:23:40.000Z</time>
      </trkpt>
      <trkpt lat="46.23728" lon="6.45179">
        <ele>833.71</ele>
        <time>2019-08-25T11:23:43.000Z</time>
      </trkpt>
      <trkpt lat="46.23743" lon="6.45202">
        <ele>834.3</ele>
        <time>2019-08-25T11:23:46.000Z</time>
      </trkpt>
      <trkpt lat="46.2376" lon="6.45223">
        <ele>834.08</ele>
        <time>2019-08-25T11:23:49.000Z</time>
      </trkpt>
      <trkpt lat="46.23767" lon="6.45237">
        <ele>833.67</ele>
        <time>2019-08-25T11:23:51.000Z</time>
      </trkpt>
      <trkpt lat="46.23777" lon="6.45246">
        <ele>833.22</ele>
        <time>2019-08-25T11:23:54.000Z</time>
      </trkpt>
      <trkpt lat="46.23785" lon="6.45249">
        <ele>832.31</ele>
        <time>2019-08-25T11:24:00.000Z</time>
      </trkpt>
      <trkpt lat="46.23796" lon="6.45249">
        <ele>834.02</ele>
        <time>2019-08-25T11:24:07.000Z</time>
      </trkpt>
      <trkpt lat="46.23807" lon="6.45248">
        <ele>836.7</ele>
        <time>2019-08-25T11:24:12.000Z</time>
      </trkpt>
      <trkpt lat="46.23819" lon="6.45243">
        <ele>838.55</ele>
        <time>2019-08-25T11:24:16.000Z</time>
      </trkpt>
      <trkpt lat="46.23829" lon="6.45239">
        <ele>839.99</ele>
        <time>2019-08-25T11:24:22.000Z</time>
      </trkpt>
      <trkpt lat="46.23831" lon="6.45252">
        <ele>841.51</ele>
        <time>2019-08-25T11:24:40.000Z</time>
      </trkpt>
      <trkpt lat="46.23834" lon="6.45265">
        <ele>841.3</ele>
        <time>2019-08-25T11:24:49.000Z</time>
      </trkpt>
      <trkpt lat="46.23835" lon="6.45278">
        <ele>839.93</ele>
        <time>2019-08-25T11:24:54.000Z</time>
      </trkpt>
      <trkpt lat="46.23837" lon="6.45293">
        <ele>839.87</ele>
        <time>2019-08-25T11:24:58.000Z</time>
      </trkpt>
      <trkpt lat="46.23839" lon="6.45318">
        <ele>839.75</ele>
        <time>2019-08-25T11:25:02.000Z</time>
      </trkpt>
      <trkpt lat="46.23838" lon="6.45331">
        <ele>840.24</ele>
        <time>2019-08-25T11:25:04.000Z</time>
      </trkpt>
      <trkpt lat="46.23839" lon="6.45345">
        <ele>840.8</ele>
        <time>2019-08-25T11:25:06.000Z</time>
      </trkpt>
      <trkpt lat="46.2384" lon="6.4536">
        <ele>841.39</ele>
        <time>2019-08-25T11:25:08.000Z</time>
      </trkpt>
      <trkpt lat="46.23841" lon="6.45381">
        <ele>841.47</ele>
        <time>2019-08-25T11:25:10.000Z</time>
      </trkpt>
      <trkpt lat="46.23839" lon="6.45394">
        <ele>841.16</ele>
        <time>2019-08-25T11:25:12.000Z</time>
      </trkpt>
      <trkpt lat="46.23841" lon="6.45411">
        <ele>840.71</ele>
        <time>2019-08-25T11:25:14.000Z</time>
      </trkpt>
      <trkpt lat="46.23835" lon="6.45433">
        <ele>840.19</ele>
        <time>2019-08-25T11:25:17.000Z</time>
      </trkpt>
      <trkpt lat="46.23837" lon="6.45449">
        <ele>839.87</ele>
        <time>2019-08-25T11:25:19.000Z</time>
      </trkpt>
      <trkpt lat="46.23832" lon="6.45465">
        <ele>839.71</ele>
        <time>2019-08-25T11:25:21.000Z</time>
      </trkpt>
      <trkpt lat="46.23832" lon="6.45482">
        <ele>839.81</ele>
        <time>2019-08-25T11:25:23.000Z</time>
      </trkpt>
      <trkpt lat="46.23837" lon="6.45502">
        <ele>840.23</ele>
        <time>2019-08-25T11:25:25.000Z</time>
      </trkpt>
      <trkpt lat="46.23839" lon="6.45521">
        <ele>840.87</ele>
        <time>2019-08-25T11:25:28.000Z</time>
      </trkpt>
      <trkpt lat="46.23849" lon="6.45532">
        <ele>841</ele>
        <time>2019-08-25T11:25:31.000Z</time>
      </trkpt>
      <trkpt lat="46.23853" lon="6.45545">
        <ele>839.89</ele>
        <time>2019-08-25T11:25:47.000Z</time>
      </trkpt>
      <trkpt lat="46.23856" lon="6.45558">
        <ele>841.01</ele>
        <time>2019-08-25T11:25:53.000Z</time>
      </trkpt>
      <trkpt lat="46.23866" lon="6.45566">
        <ele>841.28</ele>
        <time>2019-08-25T11:25:55.000Z</time>
      </trkpt>
      <trkpt lat="46.23875" lon="6.45578">
        <ele>841.66</ele>
        <time>2019-08-25T11:25:57.000Z</time>
      </trkpt>
      <trkpt lat="46.23882" lon="6.45587">
        <ele>842.12</ele>
        <time>2019-08-25T11:25:59.000Z</time>
      </trkpt>
      <trkpt lat="46.23889" lon="6.45594">
        <ele>842.69</ele>
        <time>2019-08-25T11:26:01.000Z</time>
      </trkpt>
      <trkpt lat="46.23901" lon="6.45605">
        <ele>843.73</ele>
        <time>2019-08-25T11:26:05.000Z</time>
      </trkpt>
      <trkpt lat="46.23912" lon="6.45621">
        <ele>844.56</ele>
        <time>2019-08-25T11:26:07.000Z</time>
      </trkpt>
      <trkpt lat="46.23916" lon="6.45643">
        <ele>845.06</ele>
        <time>2019-08-25T11:26:10.000Z</time>
      </trkpt>
      <trkpt lat="46.23917" lon="6.45663">
        <ele>845.25</ele>
        <time>2019-08-25T11:26:13.000Z</time>
      </trkpt>
      <trkpt lat="46.23919" lon="6.45676">
        <ele>845.12</ele>
        <time>2019-08-25T11:26:15.000Z</time>
      </trkpt>
      <trkpt lat="46.2392" lon="6.45696">
        <ele>844.15</ele>
        <time>2019-08-25T11:26:18.000Z</time>
      </trkpt>
      <trkpt lat="46.2392" lon="6.4571">
        <ele>843.57</ele>
        <time>2019-08-25T11:26:20.000Z</time>
      </trkpt>
      <trkpt lat="46.23923" lon="6.45728">
        <ele>842.96</ele>
        <time>2019-08-25T11:26:23.000Z</time>
      </trkpt>
      <trkpt lat="46.23933" lon="6.45741">
        <ele>842.78</ele>
        <time>2019-08-25T11:26:27.000Z</time>
      </trkpt>
      <trkpt lat="46.23942" lon="6.45749">
        <ele>843.02</ele>
        <time>2019-08-25T11:26:29.000Z</time>
      </trkpt>
      <trkpt lat="46.23954" lon="6.45753">
        <ele>843.67</ele>
        <time>2019-08-25T11:26:31.000Z</time>
      </trkpt>
      <trkpt lat="46.23963" lon="6.45761">
        <ele>844.7</ele>
        <time>2019-08-25T11:26:34.000Z</time>
      </trkpt>
      <trkpt lat="46.23974" lon="6.45768">
        <ele>845.53</ele>
        <time>2019-08-25T11:26:37.000Z</time>
      </trkpt>
      <trkpt lat="46.23983" lon="6.4578">
        <ele>846.65</ele>
        <time>2019-08-25T11:26:40.000Z</time>
      </trkpt>
      <trkpt lat="46.23988" lon="6.45793">
        <ele>847.86</ele>
        <time>2019-08-25T11:26:43.000Z</time>
      </trkpt>
      <trkpt lat="46.23995" lon="6.4581">
        <ele>849.04</ele>
        <time>2019-08-25T11:26:48.000Z</time>
      </trkpt>
      <trkpt lat="46.23997" lon="6.45832">
        <ele>850.06</ele>
        <time>2019-08-25T11:26:53.000Z</time>
      </trkpt>
      <trkpt lat="46.24004" lon="6.45851">
        <ele>850.47</ele>
        <time>2019-08-25T11:26:57.000Z</time>
      </trkpt>
      <trkpt lat="46.24015" lon="6.45877">
        <ele>850.27</ele>
        <time>2019-08-25T11:26:59.000Z</time>
      </trkpt>
      <trkpt lat="46.24025" lon="6.45889">
        <ele>850.36</ele>
        <time>2019-08-25T11:27:03.000Z</time>
      </trkpt>
      <trkpt lat="46.24033" lon="6.45901">
        <ele>850.61</ele>
        <time>2019-08-25T11:27:06.000Z</time>
      </trkpt>
      <trkpt lat="46.24047" lon="6.45926">
        <ele>850.76</ele>
        <time>2019-08-25T11:27:10.000Z</time>
      </trkpt>
      <trkpt lat="46.24057" lon="6.45937">
        <ele>850.9</ele>
        <time>2019-08-25T11:27:13.000Z</time>
      </trkpt>
      <trkpt lat="46.24067" lon="6.45943">
        <ele>851.2</ele>
        <time>2019-08-25T11:27:16.000Z</time>
      </trkpt>
      <trkpt lat="46.24075" lon="6.45949">
        <ele>851.62</ele>
        <time>2019-08-25T11:27:19.000Z</time>
      </trkpt>
      <trkpt lat="46.24082" lon="6.45958">
        <ele>852.55</ele>
        <time>2019-08-25T11:27:23.000Z</time>
      </trkpt>
      <trkpt lat="46.24091" lon="6.45967">
        <ele>853.29</ele>
        <time>2019-08-25T11:27:28.000Z</time>
      </trkpt>
      <trkpt lat="46.241" lon="6.45976">
        <ele>854.62</ele>
        <time>2019-08-25T11:27:31.000Z</time>
      </trkpt>
      <trkpt lat="46.24117" lon="6.4599">
        <ele>855.31</ele>
        <time>2019-08-25T11:27:34.000Z</time>
      </trkpt>
      <trkpt lat="46.24125" lon="6.45998">
        <ele>855</ele>
        <time>2019-08-25T11:27:37.000Z</time>
      </trkpt>
      <trkpt lat="46.24136" lon="6.46009">
        <ele>854.46</ele>
        <time>2019-08-25T11:27:41.000Z</time>
      </trkpt>
      <trkpt lat="46.24144" lon="6.46018">
        <ele>854.57</ele>
        <time>2019-08-25T11:27:43.000Z</time>
      </trkpt>
      <trkpt lat="46.24154" lon="6.4603">
        <ele>854.74</ele>
        <time>2019-08-25T11:27:47.000Z</time>
      </trkpt>
      <trkpt lat="46.24162" lon="6.4604">
        <ele>855.43</ele>
        <time>2019-08-25T11:27:51.000Z</time>
      </trkpt>
      <trkpt lat="46.24168" lon="6.4605">
        <ele>857.15</ele>
        <time>2019-08-25T11:27:55.000Z</time>
      </trkpt>
      <trkpt lat="46.24175" lon="6.46062">
        <ele>860.08</ele>
        <time>2019-08-25T11:28:01.000Z</time>
      </trkpt>
      <trkpt lat="46.24183" lon="6.46071">
        <ele>861.81</ele>
        <time>2019-08-25T11:28:07.000Z</time>
      </trkpt>
      <trkpt lat="46.24192" lon="6.46078">
        <ele>863.44</ele>
        <time>2019-08-25T11:28:11.000Z</time>
      </trkpt>
      <trkpt lat="46.242" lon="6.46084">
        <ele>864.89</ele>
        <time>2019-08-25T11:28:15.000Z</time>
      </trkpt>
      <trkpt lat="46.2421" lon="6.46091">
        <ele>866.67</ele>
        <time>2019-08-25T11:28:20.000Z</time>
      </trkpt>
      <trkpt lat="46.24212" lon="6.46106">
        <ele>869.41</ele>
        <time>2019-08-25T11:28:27.000Z</time>
      </trkpt>
      <trkpt lat="46.2421" lon="6.46119">
        <ele>871.56</ele>
        <time>2019-08-25T11:28:33.000Z</time>
      </trkpt>
      <trkpt lat="46.24214" lon="6.46134">
        <ele>873.81</ele>
        <time>2019-08-25T11:28:41.000Z</time>
      </trkpt>
      <trkpt lat="46.2422" lon="6.46146">
        <ele>876.24</ele>
        <time>2019-08-25T11:28:50.000Z</time>
      </trkpt>
      <trkpt lat="46.24228" lon="6.46157">
        <ele>878.06</ele>
        <time>2019-08-25T11:28:59.000Z</time>
      </trkpt>
      <trkpt lat="46.24239" lon="6.4616">
        <ele>880.06</ele>
        <time>2019-08-25T11:29:06.000Z</time>
      </trkpt>
      <trkpt lat="46.24251" lon="6.46163">
        <ele>882.37</ele>
        <time>2019-08-25T11:29:13.000Z</time>
      </trkpt>
      <trkpt lat="46.24262" lon="6.46169">
        <ele>883.91</ele>
        <time>2019-08-25T11:29:19.000Z</time>
      </trkpt>
      <trkpt lat="46.24275" lon="6.4618">
        <ele>885.06</ele>
        <time>2019-08-25T11:29:24.000Z</time>
      </trkpt>
      <trkpt lat="46.24282" lon="6.46194">
        <ele>885.89</ele>
        <time>2019-08-25T11:29:28.000Z</time>
      </trkpt>
      <trkpt lat="46.24289" lon="6.46206">
        <ele>886.32</ele>
        <time>2019-08-25T11:29:31.000Z</time>
      </trkpt>
      <trkpt lat="46.24297" lon="6.46215">
        <ele>886.6</ele>
        <time>2019-08-25T11:29:34.000Z</time>
      </trkpt>
      <trkpt lat="46.24306" lon="6.46223">
        <ele>886.86</ele>
        <time>2019-08-25T11:29:36.000Z</time>
      </trkpt>
      <trkpt lat="46.24316" lon="6.46231">
        <ele>887.26</ele>
        <time>2019-08-25T11:29:39.000Z</time>
      </trkpt>
      <trkpt lat="46.24325" lon="6.46238">
        <ele>887.7</ele>
        <time>2019-08-25T11:29:42.000Z</time>
      </trkpt>
      <trkpt lat="46.24336" lon="6.46242">
        <ele>888.31</ele>
        <time>2019-08-25T11:29:45.000Z</time>
      </trkpt>
      <trkpt lat="46.24348" lon="6.46242">
        <ele>889.1</ele>
        <time>2019-08-25T11:29:48.000Z</time>
      </trkpt>
      <trkpt lat="46.24358" lon="6.46237">
        <ele>890.45</ele>
        <time>2019-08-25T11:29:52.000Z</time>
      </trkpt>
      <trkpt lat="46.24376" lon="6.46246">
        <ele>891.54</ele>
        <time>2019-08-25T11:29:57.000Z</time>
      </trkpt>
      <trkpt lat="46.24386" lon="6.46251">
        <ele>891.57</ele>
        <time>2019-08-25T11:29:59.000Z</time>
      </trkpt>
      <trkpt lat="46.24397" lon="6.46259">
        <ele>891.39</ele>
        <time>2019-08-25T11:30:01.000Z</time>
      </trkpt>
      <trkpt lat="46.24408" lon="6.46266">
        <ele>890.91</ele>
        <time>2019-08-25T11:30:04.000Z</time>
      </trkpt>
      <trkpt lat="46.24426" lon="6.46277">
        <ele>889.41</ele>
        <time>2019-08-25T11:30:09.000Z</time>
      </trkpt>
      <trkpt lat="46.24439" lon="6.46295">
        <ele>887.85</ele>
        <time>2019-08-25T11:30:14.000Z</time>
      </trkpt>
      <trkpt lat="46.24459" lon="6.46304">
        <ele>887.38</ele>
        <time>2019-08-25T11:30:17.000Z</time>
      </trkpt>
      <trkpt lat="46.24469" lon="6.463">
        <ele>887.37</ele>
        <time>2019-08-25T11:30:19.000Z</time>
      </trkpt>
      <trkpt lat="46.24487" lon="6.46288">
        <ele>887.06</ele>
        <time>2019-08-25T11:30:23.000Z</time>
      </trkpt>
      <trkpt lat="46.24496" lon="6.46282">
        <ele>886.74</ele>
        <time>2019-08-25T11:30:25.000Z</time>
      </trkpt>
      <trkpt lat="46.24508" lon="6.46276">
        <ele>885.78</ele>
        <time>2019-08-25T11:30:29.000Z</time>
      </trkpt>
      <trkpt lat="46.24517" lon="6.46274">
        <ele>885.01</ele>
        <time>2019-08-25T11:30:31.000Z</time>
      </trkpt>
      <trkpt lat="46.24527" lon="6.46279">
        <ele>879.7</ele>
        <time>2019-08-25T11:30:36.000Z</time>
      </trkpt>
      <trkpt lat="46.24536" lon="6.46287">
        <ele>875.88</ele>
        <time>2019-08-25T11:30:40.000Z</time>
      </trkpt>
      <trkpt lat="46.24549" lon="6.46296">
        <ele>871.85</ele>
        <time>2019-08-25T11:30:45.000Z</time>
      </trkpt>
      <trkpt lat="46.24561" lon="6.46299">
        <ele>871.03</ele>
        <time>2019-08-25T11:30:49.000Z</time>
      </trkpt>
      <trkpt lat="46.2457" lon="6.46303">
        <ele>871.21</ele>
        <time>2019-08-25T11:30:52.000Z</time>
      </trkpt>
      <trkpt lat="46.24578" lon="6.46315">
        <ele>872.57</ele>
        <time>2019-08-25T11:30:59.000Z</time>
      </trkpt>
      <trkpt lat="46.2458" lon="6.46328">
        <ele>874.78</ele>
        <time>2019-08-25T11:31:04.000Z</time>
      </trkpt>
      <trkpt lat="46.24583" lon="6.4634">
        <ele>876.86</ele>
        <time>2019-08-25T11:31:08.000Z</time>
      </trkpt>
      <trkpt lat="46.24588" lon="6.46354">
        <ele>879.3</ele>
        <time>2019-08-25T11:31:12.000Z</time>
      </trkpt>
      <trkpt lat="46.24598" lon="6.46365">
        <ele>882.15</ele>
        <time>2019-08-25T11:31:19.000Z</time>
      </trkpt>
      <trkpt lat="46.24607" lon="6.4637">
        <ele>883.29</ele>
        <time>2019-08-25T11:31:22.000Z</time>
      </trkpt>
      <trkpt lat="46.24617" lon="6.46375">
        <ele>884.44</ele>
        <time>2019-08-25T11:31:25.000Z</time>
      </trkpt>
      <trkpt lat="46.24627" lon="6.46381">
        <ele>885.54</ele>
        <time>2019-08-25T11:31:28.000Z</time>
      </trkpt>
      <trkpt lat="46.24638" lon="6.46388">
        <ele>886.24</ele>
        <time>2019-08-25T11:31:31.000Z</time>
      </trkpt>
      <trkpt lat="46.24652" lon="6.46399">
        <ele>886.34</ele>
        <time>2019-08-25T11:31:35.000Z</time>
      </trkpt>
      <trkpt lat="46.24665" lon="6.46406">
        <ele>886.26</ele>
        <time>2019-08-25T11:31:37.000Z</time>
      </trkpt>
      <trkpt lat="46.24678" lon="6.46417">
        <ele>887.32</ele>
        <time>2019-08-25T11:31:42.000Z</time>
      </trkpt>
      <trkpt lat="46.24693" lon="6.46429">
        <ele>888.55</ele>
        <time>2019-08-25T11:31:46.000Z</time>
      </trkpt>
      <trkpt lat="46.24703" lon="6.46443">
        <ele>889.78</ele>
        <time>2019-08-25T11:31:51.000Z</time>
      </trkpt>
      <trkpt lat="46.24709" lon="6.46456">
        <ele>889.78</ele>
        <time>2019-08-25T11:31:53.000Z</time>
      </trkpt>
      <trkpt lat="46.24719" lon="6.46474">
        <ele>893.18</ele>
        <time>2019-08-25T11:31:57.000Z</time>
      </trkpt>
      <trkpt lat="46.24726" lon="6.46487">
        <ele>895.62</ele>
        <time>2019-08-25T11:32:00.000Z</time>
      </trkpt>
      <trkpt lat="46.24735" lon="6.46508">
        <ele>897.18</ele>
        <time>2019-08-25T11:32:04.000Z</time>
      </trkpt>
      <trkpt lat="46.2474" lon="6.46524">
        <ele>898.08</ele>
        <time>2019-08-25T11:32:07.000Z</time>
      </trkpt>
      <trkpt lat="46.24744" lon="6.46548">
        <ele>899.6</ele>
        <time>2019-08-25T11:32:11.000Z</time>
      </trkpt>
      <trkpt lat="46.24744" lon="6.46566">
        <ele>900.85</ele>
        <time>2019-08-25T11:32:14.000Z</time>
      </trkpt>
      <trkpt lat="46.24747" lon="6.46584">
        <ele>901.73</ele>
        <time>2019-08-25T11:32:17.000Z</time>
      </trkpt>
      <trkpt lat="46.24751" lon="6.46609">
        <ele>902.12</ele>
        <time>2019-08-25T11:32:21.000Z</time>
      </trkpt>
      <trkpt lat="46.24752" lon="6.46622">
        <ele>901.84</ele>
        <time>2019-08-25T11:32:23.000Z</time>
      </trkpt>
      <trkpt lat="46.24757" lon="6.46633">
        <ele>901.58</ele>
        <time>2019-08-25T11:32:25.000Z</time>
      </trkpt>
      <trkpt lat="46.24763" lon="6.46644">
        <ele>901.49</ele>
        <time>2019-08-25T11:32:27.000Z</time>
      </trkpt>
      <trkpt lat="46.2477" lon="6.46653">
        <ele>901.7</ele>
        <time>2019-08-25T11:32:29.000Z</time>
      </trkpt>
      <trkpt lat="46.24782" lon="6.46671">
        <ele>902.38</ele>
        <time>2019-08-25T11:32:33.000Z</time>
      </trkpt>
      <trkpt lat="46.2479" lon="6.46681">
        <ele>902.78</ele>
        <time>2019-08-25T11:32:35.000Z</time>
      </trkpt>
      <trkpt lat="46.24797" lon="6.4669">
        <ele>903.55</ele>
        <time>2019-08-25T11:32:37.000Z</time>
      </trkpt>
      <trkpt lat="46.248" lon="6.46703">
        <ele>904.68</ele>
        <time>2019-08-25T11:32:39.000Z</time>
      </trkpt>
      <trkpt lat="46.24799" lon="6.46722">
        <ele>906.55</ele>
        <time>2019-08-25T11:32:42.000Z</time>
      </trkpt>
      <trkpt lat="46.24796" lon="6.46741">
        <ele>907.82</ele>
        <time>2019-08-25T11:32:45.000Z</time>
      </trkpt>
      <trkpt lat="46.24793" lon="6.46754">
        <ele>908.32</ele>
        <time>2019-08-25T11:32:47.000Z</time>
      </trkpt>
      <trkpt lat="46.24792" lon="6.46768">
        <ele>908.78</ele>
        <time>2019-08-25T11:32:49.000Z</time>
      </trkpt>
      <trkpt lat="46.24788" lon="6.46791">
        <ele>910.2</ele>
        <time>2019-08-25T11:32:53.000Z</time>
      </trkpt>
      <trkpt lat="46.24785" lon="6.46806">
        <ele>911.34</ele>
        <time>2019-08-25T11:32:56.000Z</time>
      </trkpt>
      <trkpt lat="46.24782" lon="6.46829">
        <ele>912.38</ele>
        <time>2019-08-25T11:33:00.000Z</time>
      </trkpt>
      <trkpt lat="46.24778" lon="6.46851">
        <ele>913.99</ele>
        <time>2019-08-25T11:33:04.000Z</time>
      </trkpt>
      <trkpt lat="46.24772" lon="6.46873">
        <ele>915.47</ele>
        <time>2019-08-25T11:33:08.000Z</time>
      </trkpt>
      <trkpt lat="46.2477" lon="6.4689">
        <ele>915.94</ele>
        <time>2019-08-25T11:33:11.000Z</time>
      </trkpt>
      <trkpt lat="46.24767" lon="6.46904">
        <ele>916.98</ele>
        <time>2019-08-25T11:33:14.000Z</time>
      </trkpt>
      <trkpt lat="46.24773" lon="6.46916">
        <ele>918.93</ele>
        <time>2019-08-25T11:33:18.000Z</time>
      </trkpt>
      <trkpt lat="46.24785" lon="6.46921">
        <ele>920.4</ele>
        <time>2019-08-25T11:33:22.000Z</time>
      </trkpt>
      <trkpt lat="46.24794" lon="6.46924">
        <ele>921.76</ele>
        <time>2019-08-25T11:33:25.000Z</time>
      </trkpt>
      <trkpt lat="46.24808" lon="6.46929">
        <ele>923.09</ele>
        <time>2019-08-25T11:33:28.000Z</time>
      </trkpt>
      <trkpt lat="46.24818" lon="6.46933">
        <ele>924.16</ele>
        <time>2019-08-25T11:33:31.000Z</time>
      </trkpt>
      <trkpt lat="46.24829" lon="6.46935">
        <ele>926.27</ele>
        <time>2019-08-25T11:33:35.000Z</time>
      </trkpt>
      <trkpt lat="46.2484" lon="6.46939">
        <ele>928.2</ele>
        <time>2019-08-25T11:33:39.000Z</time>
      </trkpt>
      <trkpt lat="46.24852" lon="6.46945">
        <ele>929.4</ele>
        <time>2019-08-25T11:33:42.000Z</time>
      </trkpt>
      <trkpt lat="46.24863" lon="6.46952">
        <ele>930.91</ele>
        <time>2019-08-25T11:33:45.000Z</time>
      </trkpt>
      <trkpt lat="46.24875" lon="6.4696">
        <ele>931.95</ele>
        <time>2019-08-25T11:33:48.000Z</time>
      </trkpt>
      <trkpt lat="46.2489" lon="6.4697">
        <ele>932.31</ele>
        <time>2019-08-25T11:33:52.000Z</time>
      </trkpt>
      <trkpt lat="46.24901" lon="6.46978">
        <ele>932.62</ele>
        <time>2019-08-25T11:33:55.000Z</time>
      </trkpt>
      <trkpt lat="46.24911" lon="6.46987">
        <ele>933.11</ele>
        <time>2019-08-25T11:33:58.000Z</time>
      </trkpt>
      <trkpt lat="46.2492" lon="6.46997">
        <ele>933.66</ele>
        <time>2019-08-25T11:34:01.000Z</time>
      </trkpt>
      <trkpt lat="46.24934" lon="6.47008">
        <ele>934.74</ele>
        <time>2019-08-25T11:34:05.000Z</time>
      </trkpt>
      <trkpt lat="46.24944" lon="6.47017">
        <ele>935.61</ele>
        <time>2019-08-25T11:34:08.000Z</time>
      </trkpt>
      <trkpt lat="46.24955" lon="6.47027">
        <ele>936.37</ele>
        <time>2019-08-25T11:34:11.000Z</time>
      </trkpt>
      <trkpt lat="46.24966" lon="6.47036">
        <ele>936.95</ele>
        <time>2019-08-25T11:34:14.000Z</time>
      </trkpt>
      <trkpt lat="46.24978" lon="6.47044">
        <ele>937.37</ele>
        <time>2019-08-25T11:34:17.000Z</time>
      </trkpt>
      <trkpt lat="46.2499" lon="6.47051">
        <ele>937.63</ele>
        <time>2019-08-25T11:34:20.000Z</time>
      </trkpt>
      <trkpt lat="46.24999" lon="6.47056">
        <ele>937.86</ele>
        <time>2019-08-25T11:34:22.000Z</time>
      </trkpt>
      <trkpt lat="46.25009" lon="6.47062">
        <ele>938.18</ele>
        <time>2019-08-25T11:34:24.000Z</time>
      </trkpt>
      <trkpt lat="46.2502" lon="6.47071">
        <ele>938.71</ele>
        <time>2019-08-25T11:34:27.000Z</time>
      </trkpt>
      <trkpt lat="46.25011" lon="6.47081">
        <ele>939.2</ele>
        <time>2019-08-25T11:34:30.000Z</time>
      </trkpt>
      <trkpt lat="46.25001" lon="6.47081">
        <ele>939.51</ele>
        <time>2019-08-25T11:34:32.000Z</time>
      </trkpt>
      <trkpt lat="46.24992" lon="6.47083">
        <ele>939.83</ele>
        <time>2019-08-25T11:34:34.000Z</time>
      </trkpt>
      <trkpt lat="46.24981" lon="6.47082">
        <ele>940.38</ele>
        <time>2019-08-25T11:34:36.000Z</time>
      </trkpt>
      <trkpt lat="46.24969" lon="6.47084">
        <ele>941</ele>
        <time>2019-08-25T11:34:38.000Z</time>
      </trkpt>
      <trkpt lat="46.24957" lon="6.47087">
        <ele>941.71</ele>
        <time>2019-08-25T11:34:40.000Z</time>
      </trkpt>
      <trkpt lat="46.24945" lon="6.47094">
        <ele>942.43</ele>
        <time>2019-08-25T11:34:42.000Z</time>
      </trkpt>
      <trkpt lat="46.24935" lon="6.47102">
        <ele>943.14</ele>
        <time>2019-08-25T11:34:44.000Z</time>
      </trkpt>
      <trkpt lat="46.24926" lon="6.47112">
        <ele>943.93</ele>
        <time>2019-08-25T11:34:46.000Z</time>
      </trkpt>
      <trkpt lat="46.24916" lon="6.47123">
        <ele>944.61</ele>
        <time>2019-08-25T11:34:48.000Z</time>
      </trkpt>
      <trkpt lat="46.24906" lon="6.47133">
        <ele>945.16</ele>
        <time>2019-08-25T11:34:50.000Z</time>
      </trkpt>
      <trkpt lat="46.2489" lon="6.47146">
        <ele>945.76</ele>
        <time>2019-08-25T11:34:53.000Z</time>
      </trkpt>
      <trkpt lat="46.24879" lon="6.47154">
        <ele>946.52</ele>
        <time>2019-08-25T11:34:56.000Z</time>
      </trkpt>
      <trkpt lat="46.24866" lon="6.47159">
        <ele>947.42</ele>
        <time>2019-08-25T11:34:59.000Z</time>
      </trkpt>
      <trkpt lat="46.24855" lon="6.47167">
        <ele>947.98</ele>
        <time>2019-08-25T11:35:01.000Z</time>
      </trkpt>
      <trkpt lat="46.24848" lon="6.4718">
        <ele>948.55</ele>
        <time>2019-08-25T11:35:03.000Z</time>
      </trkpt>
      <trkpt lat="46.24846" lon="6.47205">
        <ele>949.54</ele>
        <time>2019-08-25T11:35:06.000Z</time>
      </trkpt>
      <trkpt lat="46.24849" lon="6.47221">
        <ele>950.13</ele>
        <time>2019-08-25T11:35:08.000Z</time>
      </trkpt>
      <trkpt lat="46.24849" lon="6.47234">
        <ele>950.61</ele>
        <time>2019-08-25T11:35:10.000Z</time>
      </trkpt>
    </trkseg>
  </trk>
</gpx>